# Wetter Temperatur Luftdruck Luftfeuchtigkeit Sichtweite Windgeschwindigkeit Windrichtung Zeit
1 Clouds 21 1017 78 10000 1.5 0 19:42 17.10.2019
2 Clouds 21 1017 78 10000 1.5 0 19:42 17.10.2019
3 Clouds 21 1017 78 10000 1.5 0 19:42 17.10.2019
4 Clouds 21 1017 73 10000 1.5 0 19:20 17.10.2019
5 Clouds 21 1017 73 10000 1.5 0 18:59 17.10.2019
6 Clouds 22 1016 73 10000 1.5 0 18:39 17.10.2019
7 Clouds 22 1016 73 10000 2.1 170 18:21 17.10.2019
8 Clouds 22 1016 73 10000 2.1 170 17:54 17.10.2019
9 Clouds 23 1016 69 10000 1.5 0 17:36 17.10.2019
10 Clouds 23 1016 69 10000 1.5 0 17:18 17.10.2019
11 Clouds 24 1016 61 10000 2.1 170 16:41 17.10.2019
12 Clouds 24 1016 61 10000 2.6 200 16:19 17.10.2019
13 Clouds 24 1016 61 10000 2.6 200 16:19 17.10.2019
14 Clouds 24 1016 61 10000 2.6 200 15:59 17.10.2019
15 Clouds 24 1016 57 10000 2.1 190 15:40 17.10.2019
16 Clouds 25 1016 54 10000 3.1 170 15:20 17.10.2019
17 Clouds 25 1016 54 10000 3.1 170 15:20 17.10.2019
18 Clouds 25 1016 54 10000 3.1 170 14:57 17.10.2019
19 Clouds 25 1016 54 10000 2.6 200 14:38 17.10.2019
20 Clouds 25 1016 57 10000 2.6 190 14:20 17.10.2019
21 Clouds 25 1016 54 10000 2.6 180 13:41 17.10.2019
22 Clouds 25 1016 54 10000 2.6 180 13:21 17.10.2019
23 Clouds 25 1016 54 10000 2.1 210 12:58 17.10.2019
24 Clouds 25 1017 47 10000 1.5 0 12:39 17.10.2019
25 Clouds 24 1017 47 10000 1.5 0 12:20 17.10.2019
26 Clouds 24 1017 47 10000 1.5 0 11:56 17.10.2019
27 Clouds 24 1017 57 10000 1.662 147 11:38 17.10.2019
28 Clouds 23 1017 64 10000 1.662 147 11:18 17.10.2019
29 Clouds 24 1017 57 10000 1.662 147 10:42 17.10.2019
30 -273 0 0 0 0 0 10:20 17.10.2019
31 Clouds 23 1017 57 10000 1.662 147 09:57 17.10.2019
32 Clouds 22 1017 60 10000 1.662 147 09:38 17.10.2019
33 Clouds 22 1017 64 10000 1.221 16 09:20 17.10.2019
34 Clouds 21 1017 72 10000 1.221 16 08:57 17.10.2019
35 Clouds 21 1017 64 10000 1.221 16 08:57 17.10.2019
36 Clouds 21 1017 72 10000 1.221 16 08:38 17.10.2019
37 Clouds 20 1017 72 10000 1.221 16 08:18 17.10.2019
38 Clouds 19 1016 77 10000 1.221 16 07:48 17.10.2019
39 Clouds 19 1016 77 10000 1.221 16 07:21 17.10.2019
40 Clouds 19 1016 77 10000 1.221 16 07:21 17.10.2019
41 Clouds 19 1016 77 10000 1.221 16 06:58 17.10.2019
42 Clouds 18 1016 77 10000 1.221 16 06:39 17.10.2019
43 Clouds 18 1016 77 10000 0.884 349 06:19 17.10.2019
44 Clouds 18 1015 77 10000 0.884 349 05:41 17.10.2019
45 Clouds 18 1015 77 10000 0.884 349 05:21 17.10.2019
46 Clouds 18 1015 77 10000 0.884 349 04:50 17.10.2019
47 Clouds 18 1015 72 10000 0.884 349 03:50 17.10.2019
48 Clouds 19 1015 72 10000 0.934 14 02:35 17.10.2019
49 Clouds 19 1015 77 10000 0.934 14 00:54 17.10.2019
50 Clouds 19 1015 77 10000 0.934 14 00:36 17.10.2019
51 Clouds 19 1015 72 10000 0.943 242 00:18 17.10.2019
52 Clouds 20 1015 72 10000 0.943 242 23:42 16.10.2019
53 Clouds 20 1016 77 10000 0.943 242 23:20 16.10.2019
54 Clouds 20 1016 77 10000 0.943 242 22:55 16.10.2019
55 Clouds 20 1016 77 10000 0.943 242 22:36 16.10.2019
56 Clouds 20 1016 77 10000 0.943 242 22:18 16.10.2019
57 Clouds 20 1016 77 10000 0.943 242 21:55 16.10.2019
58 Clouds 20 1016 73 10000 0.958 263 21:37 16.10.2019
59 Clouds 21 1015 73 10000 1.417 219 21:18 16.10.2019
60 -273 0 0 0 0 0 20:56 16.10.2019
61 Clouds 21 1015 73 10000 1.417 219 20:56 16.10.2019
62 Clouds 21 1015 73 10000 1.417 219 20:38 16.10.2019
63 Clouds 21 1015 69 10000 1.417 219 20:20 16.10.2019
64 Clouds 21 1015 69 10000 1.417 219 19:56 16.10.2019
65 Clouds 21 1015 69 10000 1.417 219 19:38 16.10.2019
66 Clouds 22 1015 69 10000 1 0 19:19 16.10.2019
67 Clouds 22 1015 69 10000 1 0 18:39 16.10.2019
68 Clouds 23 1014 64 10000 1.5 0 18:19 16.10.2019
69 Clouds 23 1014 64 10000 1.5 0 17:56 16.10.2019
70 Clear 23 1016 60 10000 4.1 20 17:38 16.10.2019
71 Clouds 24 1014 61 10000 1.5 0 17:19 16.10.2019
72 Clouds 24 1014 61 10000 1.5 0 16:58 16.10.2019
73 Clouds 24 1014 57 10000 1.5 0 16:39 16.10.2019
74 Clouds 24 1014 53 10000 2.6 180 16:20 16.10.2019
75 -273 0 0 0 0 0 15:55 16.10.2019
76 Clouds 25 1014 47 10000 3.1 180 15:36 16.10.2019
77 Clouds 25 1014 39 10000 2.6 160 15:18 16.10.2019
78 Clouds 25 1014 39 10000 2.6 160 15:18 16.10.2019
79 Clouds 25 1014 39 10000 2.6 160 14:55 16.10.2019
80 Clouds 25 1014 39 10000 2.6 160 14:37 16.10.2019
81 Clouds 25 1014 42 10000 2.6 170 14:18 16.10.2019
82 Clouds 26 1014 42 10000 2.6 170 13:55 16.10.2019
83 Clouds 26 1014 42 10000 2.6 180 13:36 16.10.2019
84 Clouds 26 1015 44 10000 2.6 200 13:18 16.10.2019
85 Clear 25 1015 44 10000 2.6 200 12:40 16.10.2019
86 Clear 25 1015 47 10000 2.1 190 12:18 16.10.2019
87 Clear 24 1015 39 10000 1.614 160 11:42 16.10.2019
88 Clear 24 1015 41 10000 1.614 160 11:18 16.10.2019
89 Clear 24 1015 44 10000 1.614 160 10:39 16.10.2019
90 Clear 23 1015 50 10000 1.614 160 10:20 16.10.2019
91 Clear 23 1015 50 10000 1.614 160 09:56 16.10.2019
92 Clear 22 1015 53 9000 1.614 160 09:38 16.10.2019
93 Clear 21 1016 60 9000 1.855 349 09:19 16.10.2019
94 Clear 20 1015 64 9000 1.855 349 08:43 16.10.2019
95 Clear 20 1015 64 9000 1.855 349 08:24 16.10.2019
96 Clear 18 1015 77 10000 1.855 349 07:45 16.10.2019
97 -273 0 0 0 0 0 07:25 16.10.2019
98 Clear 17 1015 72 10000 1.855 349 06:58 16.10.2019
99 Clear 17 1015 72 10000 1.855 349 06:39 16.10.2019
100 Clear 16 1015 72 10000 1.692 12 05:48 16.10.2019
101 Clear 17 1016 72 10000 1.131 352 03:24 16.10.2019
102 Clear 17 1016 72 10000 1.131 352 02:47 16.10.2019
103 Clear 18 1015 67 10000 1.047 0 01:19 16.10.2019
104 Clear 18 1016 63 10000 1.047 0 00:49 16.10.2019
105 Clear 18 1016 63 10000 1.047 0 00:27 16.10.2019
106 Clear 19 1016 63 10000 0.37 262 23:41 15.10.2019
107 Clear 19 1016 63 10000 0.37 262 23:22 15.10.2019
108 Clear 19 1017 72 10000 1.5 0 22:56 15.10.2019
109 Clear 19 1016 63 10000 0.37 262 22:38 15.10.2019
110 Clear 19 1016 63 10000 0.37 262 22:20 15.10.2019
111 Clear 19 1016 63 10000 0.37 262 21:56 15.10.2019
112 Clear 19 1016 63 10000 0.37 262 21:55 15.10.2019
113 Clear 20 1016 63 10000 0.767 186 21:37 15.10.2019
114 Clear 20 1016 60 10000 1.589 204 21:19 15.10.2019
115 Clear 20 1016 60 10000 1.589 204 20:56 15.10.2019
116 Clear 20 1015 60 10000 1.589 204 20:37 15.10.2019
117 Clear 20 1015 60 10000 1.589 204 20:19 15.10.2019
118 Clear 21 1015 60 10000 1.589 204 19:56 15.10.2019
119 Clear 21 1015 60 10000 1.589 204 19:56 15.10.2019
120 Clear 21 1015 56 10000 1.589 204 19:37 15.10.2019
121 Clear 21 1015 56 10000 1.589 204 19:37 15.10.2019
122 Clear 21 1015 60 10000 1.589 204 19:19 15.10.2019
123 Clear 22 1014 56 10000 1.589 204 18:44 15.10.2019
124 Clear 22 1014 56 10000 1.589 204 18:26 15.10.2019
125 Clear 23 1014 47 10000 2.08 169 17:56 15.10.2019
126 Clear 24 1014 47 10000 2.6 190 17:38 15.10.2019
127 Clear 24 1014 44 10000 2.6 180 17:19 15.10.2019
128 Clear 25 1014 39 10000 3.6 180 16:45 15.10.2019
129 Clear 25 1014 39 10000 3.6 180 16:45 15.10.2019
130 Clear 25 1014 39 10000 3.6 180 16:22 15.10.2019
131 Clear 25 1014 39 10000 3.6 190 15:58 15.10.2019
132 Clear 25 1014 36 10000 3.6 190 15:40 15.10.2019
133 Clear 26 1014 34 10000 2.6 210 15:20 15.10.2019
134 Clear 26 1014 34 10000 2.6 210 14:57 15.10.2019
135 Clear 26 1015 32 10000 3.1 210 14:38 15.10.2019
136 Clear 26 1015 34 10000 3.1 200 14:19 15.10.2019
137 Clear 27 1017 53 10000 6.2 40 13:44 15.10.2019
138 Clear 26 1017 53 10000 6.2 40 13:21 15.10.2019
139 Clear 26 1016 44 10000 3.6 180 12:59 15.10.2019
140 -273 0 0 0 0 0 12:39 15.10.2019
141 Clear 26 1017 39 10000 2.6 170 12:20 15.10.2019
142 Clear 26 1017 39 10000 2.6 170 11:55 15.10.2019
143 Clear 25 1017 39 10000 2.6 150 11:37 15.10.2019
144 Clear 25 1017 41 10000 0.155 299 11:18 15.10.2019
145 Clear 24 1017 41 10000 0.16 299.699 10:42 15.10.2019
146 Clear 24 1017 41 10000 0.16 299.699 10:19 15.10.2019
147 Clear 23 1017 41 10000 0.16 299.699 09:57 15.10.2019
148 Clear 22 1018 43 10000 0.16 299.699 09:37 15.10.2019
149 Clear 21 1017 46 10000 2.35 1.122 09:19 15.10.2019
150 Clear 20 1017 49 10000 2.12 0.756 08:42 15.10.2019
151 Clear 19 1017 59 10000 2.12 0.756 08:22 15.10.2019
152 Clear 18 1019 77 10000 2.12 0.756 07:56 15.10.2019
153 Clear 17 1017 63 10000 2.12 0.756 07:38 15.10.2019
154 Clear 17 1017 67 10000 2.12 0.756 07:19 15.10.2019
155 Clear 16 1017 67 10000 2.12 0.756 06:44 15.10.2019
156 Clear 16 1017 67 10000 2.12 0.756 06:26 15.10.2019
157 Clear 16 1017 71 10000 2.05 15.255 05:41 15.10.2019
158 Clear 16 1017 72 10000 2.05 15.255 05:23 15.10.2019
159 Clear 16 1017 67 10000 2.05 15.255 04:25 15.10.2019
160 Clear 17 1018 93 10000 1.5 280 03:37 15.10.2019
161 Clear 17 1017 63 10000 1.8 359.301 02:29 15.10.2019
162 Clear 17 1018 62 10000 1.8 359.301 01:48 15.10.2019
163 Clear 18 1018 62 10000 1.94 1.653 01:19 15.10.2019
164 Clear 18 1018 63 10000 1.94 1.653 00:49 15.10.2019
165 Clear 18 1018 63 10000 1.94 1.653 00:49 15.10.2019
166 Clear 18 1018 63 10000 0.92 6.032 00:21 15.10.2019
167 Clear 18 1018 63 10000 0.92 6.032 23:44 14.10.2019
168 Clear 18 1018 55 10000 0.92 6.032 23:20 14.10.2019
169 Clear 19 1018 55 10000 0.92 6.032 22:57 14.10.2019
170 Clear 19 1018 55 10000 0.92 6.032 22:38 14.10.2019
171 Clear 19 1018 55 10000 0.92 6.032 22:18 14.10.2019
172 Clear 19 1018 52 10000 0.92 6.032 21:41 14.10.2019
173 Clear 19 1018 52 10000 0.52 5.755 21:22 14.10.2019
174 Clear 20 1018 49 10000 0.32 7.279 20:59 14.10.2019
175 Clear 20 1018 60 10000 0.32 7.279 20:40 14.10.2019
176 Clear 20 1018 64 10000 0.32 7.279 20:22 14.10.2019
177 Clear 20 1018 64 10000 0.32 7.279 19:59 14.10.2019
178 Clear 21 1018 60 10000 0.324 7 19:41 14.10.2019
179 Clear 21 1018 60 10000 0.324 7 19:23 14.10.2019
180 Clear 22 1018 60 10000 0.32 7.279 18:58 14.10.2019
181 Clear 22 1018 60 10000 0.32 7.279 18:58 14.10.2019
182 Clear 22 1017 50 10000 0.32 7.279 18:38 14.10.2019
183 Clear 23 1017 53 10000 1 0 18:19 14.10.2019
184 Clear 24 1017 53 10000 1 0 17:56 14.10.2019
185 Clear 24 1017 47 10000 1.5 0 17:37 14.10.2019
186 Clear 25 1017 47 10000 2.6 190 17:19 14.10.2019
187 Clear 26 1017 47 10000 3.1 190 16:40 14.10.2019
188 Clear 26 1019 44 10000 6.2 70 16:21 14.10.2019
189 Clear 26 1017 26 10000 2.1 240 15:42 14.10.2019
190 Clear 26 1017 28 10000 3.1 330 15:23 14.10.2019
191 Clear 26 1019 44 10000 6.7 70 14:57 14.10.2019
192 Clear 26 1019 44 10000 6.7 70 14:57 14.10.2019
193 Clear 26 1020 44 10000 5.7 80 14:39 14.10.2019
194 Clear 26 1020 39 10000 5.7 80 14:19 14.10.2019
195 Clear 26 1018 30 10000 3.1 320 13:44 14.10.2019
196 Clear 26 1019 30 10000 3.1 320 13:21 14.10.2019
197 Clear 26 1019 30 10000 3.1 320 12:55 14.10.2019
198 Clear 26 1019 30 10000 3.6 340 12:37 14.10.2019
199 Clear 25 1021 38 10000 7.2 40 12:18 14.10.2019
200 Clear 25 1021 38 10000 7.2 40 12:18 14.10.2019
201 Clear 25 1021 38 10000 7.2 40 12:18 14.10.2019
202 Clear 25 1020 32 10000 4.1 330 11:44 14.10.2019
203 Clear 25 1020 32 10000 4.1 330 11:26 14.10.2019
204 Clear 25 1020 31 10000 3.1 330 10:57 14.10.2019
205 Clear 24 1020 31 10000 3.1 330 10:38 14.10.2019
206 Clear 24 1020 36 10000 3.6 340 10:19 14.10.2019
207 Clear 23 1020 36 10000 3.6 340 09:42 14.10.2019
208 Clear 22 1020 36 10000 3.6 340 09:21 14.10.2019
209 Clear 21 1020 38 10000 3.6 340 08:51 14.10.2019
210 Clear 20 1020 38 10000 3.6 340 08:23 14.10.2019
211 Clear 18 1019 46 10000 2.8 0.41 07:47 14.10.2019
212 Clear 17 1019 46 10000 2.8 0.41 07:26 14.10.2019
213 Clear 16 1021 76 10000 1.5 270 06:59 14.10.2019
214 Clear 16 1021 62 10000 0.5 290 06:29 14.10.2019
215 Clear 16 1021 66 10000 1 0 05:57 14.10.2019
216 Clear 16 1019 49 10000 3.11 359.687 05:29 14.10.2019
217 Clear 16 1019 60 10000 2.6 320 04:34 14.10.2019
218 Clear 17 1019 56 10000 3.11 359.687 03:27 14.10.2019
219 Clear 17 1020 60 10000 1.5 0 02:36 14.10.2019
220 Clear 17 1020 60 10000 3.4 0.927 01:22 14.10.2019
221 Clear 17 1020 52 10000 3.4 0.927 00:45 14.10.2019
222 Clear 18 1020 52 10000 3.05 0.789 00:19 14.10.2019
223 Clear 19 1020 49 10000 3.05 0.789 23:44 13.10.2019
224 Clear 19 1020 49 10000 2.6 300 23:20 13.10.2019
225 Clear 19 1020 49 10000 2.6 300 22:58 13.10.2019
226 Clear 19 1020 49 10000 2.6 300 22:58 13.10.2019
227 Clear 19 1020 49 10000 2.6 300 22:58 13.10.2019
228 Clear 19 1020 49 10000 2.6 300 22:58 13.10.2019
229 Clear 19 1020 53 10000 3.1 310 22:40 13.10.2019
230 Clear 20 1020 56 10000 3.6 320 22:21 13.10.2019
231 Clear 20 1020 56 10000 3.6 320 21:58 13.10.2019
232 Clear 20 1020 60 10000 3.1 320 21:37 13.10.2019
233 Clear 20 1020 60 10000 3.6 320 21:18 13.10.2019
234 Clear 20 1020 60 10000 3.6 320 21:18 13.10.2019
235 Clear 20 1020 60 10000 3.6 320 20:57 13.10.2019
236 Clear 21 1020 56 10000 3.6 320 20:38 13.10.2019
237 Clear 21 1020 53 10000 3.1 320 20:19 13.10.2019
238 Clear 21 1020 53 10000 3.1 320 19:57 13.10.2019
239 Clear 21 1020 53 10000 3.1 320 19:57 13.10.2019
240 Clear 21 1020 53 10000 3.1 320 19:57 13.10.2019
241 Clear 21 1020 53 10000 2.6 320 19:39 13.10.2019
242 Clear 21 1020 53 10000 2.6 320 19:39 13.10.2019
243 Clear 22 1020 50 10000 2.6 330 19:20 13.10.2019
244 -273 0 0 0 0 0 18:55 13.10.2019
245 Clear 22 1020 50 10000 2.6 330 18:55 13.10.2019
246 Clear 22 1020 50 10000 2.6 330 18:54 13.10.2019
247 Clear 23 1019 50 10000 4.6 330 18:36 13.10.2019
248 Clear 23 1021 68 10000 5.1 30 18:18 13.10.2019
249 Clear 24 1019 41 10000 3.6 320 17:42 13.10.2019
250 Clear 24 1019 41 10000 3.6 320 17:42 13.10.2019
251 Clear 25 1019 41 10000 3.6 320 17:24 13.10.2019
252 Clear 26 1019 42 10000 4.1 320 16:54 13.10.2019
253 Clear 26 1019 42 10000 4.1 320 16:36 13.10.2019
254 Clear 26 1019 39 10000 4.1 310 16:18 13.10.2019
255 Clear 25 1019 39 10000 4.1 330 15:40 13.10.2019
256 Clear 27 1019 39 10000 4.1 330 15:22 13.10.2019
257 Clear 26 1019 39 10000 3.6 330 14:59 13.10.2019
258 Clear 26 1019 42 10000 4.1 340 14:40 13.10.2019
259 Clear 26 1019 42 10000 6.2 320 14:22 13.10.2019
260 Clear 26 1019 42 10000 6.2 320 13:59 13.10.2019
261 Clear 26 1020 42 10000 5.7 320 13:39 13.10.2019
262 Clear 26 1020 42 10000 5.7 320 13:39 13.10.2019
263 Clouds 26 1020 44 10000 4.6 330 13:21 13.10.2019
264 -273 0 0 0 0 0 12:56 13.10.2019
265 Clouds 25 1020 44 10000 4.1 340 12:38 13.10.2019
266 Clouds 25 1021 44 10000 3.6 340 12:19 13.10.2019
267 Clouds 25 1021 44 10000 3.6 340 11:58 13.10.2019
268 Clouds 25 1021 44 10000 5.1 320 11:38 13.10.2019
269 Clouds 24 1021 50 10000 4.1 320 11:19 13.10.2019
270 Clear 24 1021 50 10000 4.6 320 10:42 13.10.2019
271 Clear 23 1021 50 10000 4.6 320 10:23 13.10.2019
272 Clear 23 1021 50 10000 4.6 330 09:58 13.10.2019
273 Clear 23 1021 50 10000 4.6 330 09:58 13.10.2019
274 Clear 22 1021 47 10000 4.6 320 09:38 13.10.2019
275 Clear 22 1021 49 10000 3.6 330 09:19 13.10.2019
276 Clear 21 1021 53 10000 4.6 320 08:43 13.10.2019
277 Clear 21 1021 53 10000 4.6 320 08:43 13.10.2019
278 Clear 20 1021 56 10000 4.1 330 08:23 13.10.2019
279 Clear 19 1021 52 10000 4.1 320 07:50 13.10.2019
280 Clear 18 1021 52 10000 4.1 320 07:30 13.10.2019
281 Clear 17 1020 56 10000 3.1 320 06:48 13.10.2019
282 Clear 18 1021 56 10000 1.5 320 05:57 13.10.2019
283 Clear 18 1022 63 10000 7.2 30 04:59 13.10.2019
284 Clear 18 1020 56 10000 3.6 320 04:33 13.10.2019
285 Clear 19 1021 56 10000 1 0 02:48 13.10.2019
286 Clear 19 1021 56 10000 1 0 02:25 13.10.2019
287 Clear 19 1021 56 10000 1.5 0 01:34 13.10.2019
288 Clear 19 1021 52 10000 2.6 310 00:53 13.10.2019
289 Clear 19 1021 52 10000 2.6 310 00:23 13.10.2019
290 Clear 20 1021 49 10000 3.1 320 23:59 12.10.2019
291 Clear 20 1021 49 10000 4.1 330 23:40 12.10.2019
292 Clear 21 1021 49 10000 4.1 330 23:22 12.10.2019
293 Clear 20 1021 49 10000 4.6 320 22:58 12.10.2019
294 Clear 20 1021 49 10000 3.1 320 22:40 12.10.2019
295 Clear 20 1021 53 10000 3.6 310 22:21 12.10.2019
296 Clear 20 1021 53 10000 3.6 310 21:56 12.10.2019
297 Clear 20 1021 53 10000 3.6 320 21:38 12.10.2019
298 Clear 21 1021 53 10000 2.6 320 21:20 12.10.2019
299 Clear 21 1022 49 10000 2.6 320 20:45 12.10.2019
300 Clear 21 1022 49 10000 2.6 320 20:27 12.10.2019
301 Clear 21 1021 46 10000 2.6 330 19:42 12.10.2019
302 Clear 22 1021 46 10000 2.6 330 19:24 12.10.2019
303 Clear 22 1021 44 10000 2.1 320 18:59 12.10.2019
304 Clear 22 1021 44 10000 2.6 330 18:41 12.10.2019
305 Clear 23 1021 44 10000 2.6 330 18:23 12.10.2019
306 Clear 23 1021 39 10000 4.6 350 17:45 12.10.2019
307 Clear 24 1021 30 10000 3.6 350 17:21 12.10.2019
308 Clear 25 1021 30 10000 3.6 350 16:58 12.10.2019
309 Clear 25 1021 28 10000 3.6 350 16:40 12.10.2019
310 Clear 26 1021 30 10000 4.1 350 16:19 12.10.2019
311 Clear 25 1021 30 10000 4.1 350 15:45 12.10.2019
312 Clear 26 1021 30 10000 4.1 350 15:26 12.10.2019
313 Clear 26 1021 32 10000 4.6 340 14:59 12.10.2019
314 Clear 26 1021 30 10000 4.6 330 14:38 12.10.2019
315 Clear 26 1021 30 10000 5.1 340 14:20 12.10.2019
316 Clear 26 1021 30 10000 5.1 340 13:49 12.10.2019
317 Clear 26 1021 30 10000 5.1 340 13:31 12.10.2019
318 Clear 26 1022 28 10000 5.1 330 12:55 12.10.2019
319 Clear 26 1022 30 10000 5.1 340 12:37 12.10.2019
320 Clear 26 1022 32 10000 4.6 340 12:18 12.10.2019
321 Clear 25 1022 41 10000 5.7 340 11:41 12.10.2019
322 Clear 25 1022 47 10000 6.2 330 11:22 12.10.2019
323 Clear 25 1022 47 10000 6.2 330 10:57 12.10.2019
324 Clouds 25 1022 47 10000 5.1 330 10:38 12.10.2019
325 Clouds 24 1023 53 10000 5.7 320 10:19 12.10.2019
326 Clouds 24 1023 53 10000 5.7 320 09:56 12.10.2019
327 -273 0 0 0 0 0 09:56 12.10.2019
328 Clouds 24 1022 53 10000 4.6 320 09:37 12.10.2019
329 Clouds 22 1022 60 10000 6.2 320 09:19 12.10.2019
330 -273 0 0 0 0 0 08:43 12.10.2019
331 Clouds 21 1022 60 10000 5.7 340 08:23 12.10.2019
332 Clouds 21 1021 68 10000 3.6 340 07:49 12.10.2019
333 Clouds 20 1021 68 10000 3.6 340 07:30 12.10.2019
334 Clouds 19 1021 68 10000 3.1 320 05:54 12.10.2019
335 Clouds 19 1021 73 10000 4.1 320 05:26 12.10.2019
336 Clouds 19 1021 73 10000 4.1 330 04:31 12.10.2019
337 Clouds 20 1021 73 10000 4.1 330 03:53 12.10.2019
338 Clouds 20 1021 77 10000 3.6 330 02:37 12.10.2019
339 Clouds 20 1021 73 10000 3.1 330 01:32 12.10.2019
340 Clouds 20 1021 68 10000 3.1 330 00:54 12.10.2019
341 Clouds 20 1021 68 10000 3.1 330 00:35 12.10.2019
342 Clouds 20 1021 68 10000 3.1 330 23:54 11.10.2019
343 Clouds 21 1021 68 10000 3.1 340 23:36 11.10.2019
344 Clouds 21 1021 68 10000 3.1 340 23:36 11.10.2019
345 Clouds 21 1020 68 10000 3.1 330 23:18 11.10.2019
346 Clouds 21 1020 68 10000 3.1 330 23:18 11.10.2019
347 Clouds 21 1020 64 10000 3.1 330 22:37 11.10.2019
348 Clouds 21 1020 69 10000 4.41 2.728 22:18 11.10.2019
349 Clouds 21 1020 64 10000 2.1 320 21:42 11.10.2019
350 Clouds 21 1019 64 10000 2.46 4.19 21:21 11.10.2019
351 Clouds 22 1019 64 10000 3.02 5.913 20:57 11.10.2019
352 Clouds 22 1019 73 10000 3.02 5.913 20:38 11.10.2019
353 Clouds 22 1019 78 10000 3.02 5.913 20:19 11.10.2019
354 Clouds 22 1019 78 10000 3.02 5.913 19:55 11.10.2019
355 Clouds 22 1019 78 10000 3.02 5.913 19:36 11.10.2019
356 Clouds 22 1019 73 10000 3.02 5.913 19:18 11.10.2019
357 Clouds 22 1019 73 10000 3.02 5.913 19:18 11.10.2019
358 Clouds 23 1019 73 10000 3.02 5.913 18:54 11.10.2019
359 Clouds 23 1018 73 10000 3.02 5.913 18:36 11.10.2019
360 Clouds 23 1018 65 10000 2.6 190 18:18 11.10.2019
361 Clouds 24 1018 65 10000 2.6 190 17:54 11.10.2019
362 Clouds 24 1018 65 10000 2.1 160 17:36 11.10.2019
363 Clouds 25 1018 61 10000 2.6 180 17:18 11.10.2019
364 Clouds 25 1018 61 10000 2.6 180 16:39 11.10.2019
365 Clouds 25 1020 69 10000 6.7 30 16:19 11.10.2019
366 Clouds 25 1020 69 10000 6.7 30 15:57 11.10.2019
367 Clouds 26 1017 57 10000 3.1 190 15:37 11.10.2019
368 Clouds 26 1018 61 10000 3.6 190 15:18 11.10.2019
369 Clouds 26 1018 61 10000 4.1 190 14:44 11.10.2019
370 Clouds 26 1018 61 10000 4.1 190 14:25 11.10.2019
371 Clouds 26 1018 51 10000 2.6 180 13:47 11.10.2019
372 Clouds 26 1018 51 10000 2.6 180 13:27 11.10.2019
373 Clouds 26 1020 64 10000 4.1 20 12:59 11.10.2019
374 Clouds 26 1020 64 10000 4.1 20 12:41 11.10.2019
375 Clouds 25 1019 65 10000 2.32 193.736 12:22 11.10.2019
376 Clouds 25 1019 65 10000 2.32 193.736 12:00 11.10.2019
377 Rain 24 1019 69 10000 2.32 193.736 11:40 11.10.2019
378 Rain 24 1020 69 10000 1.5 0 11:21 11.10.2019
379 Clouds 24 1020 69 10000 1.5 0 10:56 11.10.2019
380 Clouds 24 1018 64 10000 2.32 193.736 10:38 11.10.2019
381 Clouds 23 1018 69 10000 2.32 193.736 10:20 11.10.2019
382 Clouds 23 1018 69 10000 2.32 193.736 10:20 11.10.2019
383 Clouds 23 1018 69 10000 2.32 193.736 09:55 11.10.2019
384 Clouds 23 1018 69 10000 0.47 153.163 09:37 11.10.2019
385 Clouds 22 1018 68 10000 0.29 267.059 09:18 11.10.2019
386 Clouds 22 1018 68 10000 0.29 267.059 09:18 11.10.2019
387 Clouds 22 1018 68 10000 0.29 267.059 08:54 11.10.2019
388 Clouds 21 1020 82 10000 1 300 08:36 11.10.2019
389 Clouds 21 1018 77 10000 0.29 267.059 08:18 11.10.2019
390 Clouds 20 1019 88 10000 0.5 0 07:41 11.10.2019
391 Clouds 19 1019 88 10000 0.5 0 07:22 11.10.2019
392 Clouds 19 1017 88 10000 0.29 267.059 06:47 11.10.2019
393 Clear 19 1017 88 10000 0.68 8.631 06:22 11.10.2019
394 Clear 19 1017 82 10000 0.68 8.631 05:37 11.10.2019
395 Clouds 19 1018 93 10000 1.5 290 04:59 11.10.2019
396 Clear 19 1016 77 10000 0.68 8.631 04:24 11.10.2019
397 Clouds 20 1018 82 10000 1 300 02:19 11.10.2019
398 Clear 20 1017 88 10000 1.46 7.062 00:47 11.10.2019
399 Clear 20 1017 88 10000 2.17 101.036 00:27 11.10.2019
400 Clear 20 1017 88 10000 2.17 101.036 23:44 10.10.2019
401 Clear 20 1017 88 10000 2.17 101.036 23:22 10.10.2019
402 Clear 20 1017 88 10000 2.17 101.036 22:57 10.10.2019
403 Clear 20 1017 83 10000 2.17 101.036 22:39 10.10.2019
404 Clear 20 1017 83 10000 2.17 101.036 22:20 10.10.2019
405 Clear 20 1017 83 10000 2.17 101.036 21:57 10.10.2019
406 Clear 20 1017 88 10000 2.17 101.036 21:39 10.10.2019
407 Clear 20 1017 83 10000 1.73 156.68 21:20 10.10.2019
408 Clear 21 1017 83 10000 2.34 130.801 20:43 10.10.2019
409 Clouds 21 1017 83 10000 2.34 130.801 20:22 10.10.2019
410 Clouds 21 1017 83 10000 2.34 130.801 19:59 10.10.2019
411 Clouds 21 1017 83 10000 2.34 130.801 19:41 10.10.2019
412 Clouds 21 1017 83 10000 2.34 130.801 19:41 10.10.2019
413 Clouds 21 1017 83 10000 1.5 0 19:20 10.10.2019
414 Clouds 22 1017 83 10000 1.5 0 18:59 10.10.2019
415 Clouds 22 1017 73 10000 1.5 0 18:39 10.10.2019
416 Clouds 22 1017 78 10000 1 0 18:20 10.10.2019
417 Clouds 22 1017 78 10000 1 0 17:55 10.10.2019
418 Clouds 23 1017 73 10000 2.1 190 17:36 10.10.2019
419 Clouds 23 1016 69 10000 2.1 190 17:18 10.10.2019
420 Clouds 23 1016 69 10000 3.21 155.089 16:44 10.10.2019
421 Clouds 23 1016 69 10000 3.21 155.089 16:44 10.10.2019
422 Clouds 24 1016 69 10000 3.21 155.089 16:26 10.10.2019
423 Clouds 24 1017 69 10000 2.1 160 15:57 10.10.2019
424 Clouds 24 1017 69 10000 1 0 15:37 10.10.2019
425 Clouds 24 1017 64 10000 1 0 15:19 10.10.2019
426 Clouds 24 1017 64 10000 1 0 14:54 10.10.2019
427 Clouds 24 1017 64 10000 2.1 180 14:36 10.10.2019
428 Clouds 25 1017 61 10000 2.6 200 14:18 10.10.2019
429 Clouds 25 1017 54 10000 1.5 0 13:41 10.10.2019
430 Clouds 25 1018 54 10000 1 0 13:23 10.10.2019
431 Clouds 25 1018 54 10000 1 0 12:57 10.10.2019
432 Clouds 25 1018 57 10000 1.5 0 12:39 10.10.2019
433 Clouds 24 1018 57 10000 1 0 12:20 10.10.2019
434 Clouds 24 1018 57 10000 1 0 11:56 10.10.2019
435 Clouds 24 1019 60 10000 1 0 11:38 10.10.2019
436 Clouds 24 1019 64 10000 2.14 162.353 11:19 10.10.2019
437 Clouds 23 1019 69 10000 1.5 0 10:44 10.10.2019
438 Clouds 22 1019 69 10000 1.5 0 10:26 10.10.2019
439 Clouds 22 1019 69 10000 2.14 162.353 09:56 10.10.2019
440 Clouds 21 1019 68 10000 2.14 162.353 09:38 10.10.2019
441 Clouds 21 1019 68 10000 2.14 162.353 09:38 10.10.2019
442 Clouds 20 1019 77 10000 1 0 09:19 10.10.2019
443 Clouds 20 1019 77 10000 1 0 08:56 10.10.2019
444 Clouds 20 1019 77 10000 1.35 190.172 08:37 10.10.2019
445 Clouds 19 1019 82 10000 1.5 0 08:18 10.10.2019
446 Clouds 19 1019 82 10000 1.5 0 08:18 10.10.2019
447 Clouds 18 1018 88 10000 1.35 190.172 07:42 10.10.2019
448 Clouds 17 1018 87 10000 1.35 190.172 07:20 10.10.2019
449 Clouds 17 1018 87 10000 1.35 190.172 06:46 10.10.2019
450 Clouds 16 1018 87 10000 0.99 193.572 06:26 10.10.2019
451 Clouds 16 1018 87 10000 0.99 193.572 05:27 10.10.2019
452 Clear 16 1018 87 10000 0.99 193.572 04:39 10.10.2019
453 Clear 16 1018 82 10000 0.99 193.572 04:21 10.10.2019
454 Clouds 17 1019 82 10000 1.12 175.398 01:43 10.10.2019
455 Clouds 17 1019 82 10000 0.81 154.634 01:24 10.10.2019
456 Clouds 17 1019 82 10000 0.81 154.634 00:54 10.10.2019
457 Clouds 17 1019 82 10000 1.71 175.075 00:22 10.10.2019
458 Clouds 18 1019 77 10000 1.71 175.075 23:40 09.10.2019
459 Clouds 18 1020 77 10000 1.71 175.075 23:20 09.10.2019
460 Clouds 18 1020 77 10000 1.71 175.075 22:56 09.10.2019
461 Clouds 18 1020 77 10000 1.71 175.075 22:37 09.10.2019
462 Clouds 18 1020 77 10000 1.71 175.075 22:19 09.10.2019
463 Clouds 18 1020 77 10000 1.71 175.075 21:40 09.10.2019
464 Clouds 18 1020 72 10000 2.48 189.086 21:21 09.10.2019
465 Clouds 19 1020 72 10000 2.47 187.927 20:56 09.10.2019
466 Clouds 19 1020 68 10000 2.47 187.927 20:38 09.10.2019
467 Clouds 19 1020 68 10000 2.47 187.927 20:38 09.10.2019
468 Clouds 19 1020 68 10000 2.47 187.927 20:19 09.10.2019
469 Clouds 19 1020 68 10000 2.47 187.927 19:58 09.10.2019
470 Clouds 20 1020 64 10000 2.47 187.927 19:39 09.10.2019
471 Clouds 20 1020 60 10000 1.5 0 19:20 09.10.2019
472 Clouds 20 1019 60 10000 2.47 187.927 18:38 09.10.2019
473 Clouds 21 1020 56 10000 2.1 180 18:19 09.10.2019
474 Clouds 21 1020 56 10000 2.1 180 17:57 09.10.2019
475 Clouds 22 1020 53 10000 2.1 190 17:37 09.10.2019
476 Clouds 22 1020 56 10000 2.1 180 17:19 09.10.2019
477 Clouds 23 1020 56 10000 2.1 180 16:55 09.10.2019
478 Clouds 23 1019 50 10000 2.1 200 16:36 09.10.2019
479 Clouds 23 1019 53 10000 2.1 220 16:18 09.10.2019
480 Clouds 23 1019 53 10000 2.1 220 15:55 09.10.2019
481 Clouds 23 1020 50 10000 3.1 220 15:55 09.10.2019
482 Clouds 23 1020 50 10000 3.1 220 15:36 09.10.2019
483 Clouds 23 1020 47 10000 2.6 210 15:18 09.10.2019
484 Clouds 23 1020 47 10000 2.1 200 14:42 09.10.2019
485 Clouds 23 1020 47 10000 2.1 200 14:42 09.10.2019
486 Clouds 23 1020 47 10000 2.1 200 14:18 09.10.2019
487 Clouds 23 1020 47 10000 2.1 200 13:58 09.10.2019
488 Clouds 23 1021 50 10000 2.1 200 13:36 09.10.2019
489 Clouds 23 1021 44 10000 2.1 170 13:18 09.10.2019
490 Clouds 23 1022 47 10000 2.1 170 12:42 09.10.2019
491 Clouds 23 1022 47 10000 2.1 170 12:22 09.10.2019
492 Clouds 22 1022 47 10000 0.34 334.63 11:58 09.10.2019
493 Clouds 22 1022 47 10000 0.34 334.63 11:39 09.10.2019
494 Clouds 22 1023 53 10000 0.34 334.63 11:20 09.10.2019
495 Clouds 21 1023 53 10000 0.34 334.63 10:57 09.10.2019
496 Clouds 21 1023 53 10000 0.34 334.63 10:57 09.10.2019
497 Clouds 21 1023 56 10000 0.34 334.63 10:39 09.10.2019
498 Clouds 21 1023 56 10000 1.5 130 10:18 09.10.2019
499 Clouds 20 1023 56 10000 0.34 334.63 09:42 09.10.2019
500 Clouds 20 1022 60 10000 2.12 347.225 09:20 09.10.2019
501 Clouds 19 1022 64 10000 2.31 356.008 08:57 09.10.2019
502 Clouds 19 1022 64 10000 2.31 356.008 08:37 09.10.2019
503 Clouds 18 1022 68 10000 2.31 356.008 08:18 09.10.2019
504 Clouds 17 1022 77 10000 2.31 356.008 07:46 09.10.2019
505 Clouds 17 1022 77 10000 2.31 356.008 07:24 09.10.2019
506 Clouds 17 1022 77 10000 2.31 356.008 07:24 09.10.2019
507 Clouds 16 1022 72 10000 2.1 300 06:54 09.10.2019
508 Clouds 16 1021 72 10000 1.5 0 06:25 09.10.2019
509 Clouds 16 1022 72 10000 1.5 0 05:47 09.10.2019
510 Clouds 17 1021 72 10000 3.28 13.689 04:41 09.10.2019
511 Clouds 16 1021 72 10000 3.28 13.689 03:43 09.10.2019
512 Clouds 17 1022 72 10000 3.33 356.768 01:55 09.10.2019
513 Clouds 17 1021 72 10000 3.6 354.156 01:22 09.10.2019
514 Clouds 17 1021 72 10000 3.6 354.156 01:22 09.10.2019
515 Clouds 17 1021 72 10000 3.6 354.156 00:59 09.10.2019
516 Clouds 17 1021 68 10000 3.6 354.156 00:40 09.10.2019
517 Clouds 17 1021 68 10000 4.47 0.475 00:22 09.10.2019
518 Clouds 17 1022 72 10000 4.47 0.475 23:58 08.10.2019
519 Clouds 17 1021 77 10000 4.47 0.475 23:37 08.10.2019
520 Clouds 17 1021 72 10000 1.5 0 23:18 08.10.2019
521 Clouds 17 1021 72 10000 2.6 330 22:41 08.10.2019
522 Clouds 17 1021 72 10000 2.6 330 22:41 08.10.2019
523 Clouds 17 1021 72 10000 2.1 320 22:21 08.10.2019
524 Clouds 17 1021 72 10000 2.1 320 21:58 08.10.2019
525 Clouds 17 1021 72 10000 2.6 300 21:39 08.10.2019
526 Clouds 17 1021 72 10000 2.6 300 21:39 08.10.2019
527 Clouds 17 1020 72 10000 2.1 310 21:20 08.10.2019
528 Clouds 17 1020 72 10000 2.1 310 20:58 08.10.2019
529 Clouds 17 1020 72 10000 3.1 320 20:39 08.10.2019
530 Clouds 17 1020 72 10000 2.6 320 20:21 08.10.2019
531 Clouds 17 1020 72 10000 2.6 320 19:59 08.10.2019
532 Clouds 17 1019 68 10000 2.6 330 19:41 08.10.2019
533 Clouds 17 1019 68 10000 2.6 330 19:23 08.10.2019
534 Drizzle 17 1019 68 10000 3.1 330 18:57 08.10.2019
535 Drizzle 18 1019 68 10000 2.6 340 18:39 08.10.2019
536 Clouds 18 1018 68 10000 3.1 330 18:19 08.10.2019
537 Clouds 18 1018 68 10000 3.1 330 17:55 08.10.2019
538 Clouds 18 1018 72 10000 3.6 320 17:36 08.10.2019
539 Clouds 18 1018 68 10000 3.6 320 17:18 08.10.2019
540 Clouds 19 1017 68 10000 3.6 320 16:40 08.10.2019
541 Clouds 19 1017 68 10000 4.1 320 16:22 08.10.2019
542 Clouds 19 1017 68 10000 4.1 320 15:57 08.10.2019
543 Drizzle 19 1017 68 10000 5.1 310 15:37 08.10.2019
544 Drizzle 19 1017 68 10000 4.1 320 15:19 08.10.2019
545 Clouds 19 1017 68 10000 4.1 310 14:42 08.10.2019
546 Clouds 20 1016 64 10000 5.1 330 14:21 08.10.2019
547 Clouds 20 1016 64 10000 5.1 330 13:58 08.10.2019
548 Clouds 20 1016 64 10000 4.6 320 13:39 08.10.2019
549 -273 0 0 0 0 0 13:39 08.10.2019
550 Clouds 20 1016 68 10000 5.1 320 13:20 08.10.2019
551 Clouds 20 1016 68 10000 5.1 320 12:59 08.10.2019
552 Clouds 20 1016 68 10000 4.6 340 12:39 08.10.2019
553 Clouds 21 1015 64 10000 5.1 320 12:19 08.10.2019
554 Clouds 21 1015 64 10000 5.1 320 11:55 08.10.2019
555 Clouds 21 1015 64 10000 5.7 310 11:37 08.10.2019
556 Clouds 21 1015 64 10000 4.6 320 11:19 08.10.2019
557 Clouds 21 1014 68 10000 3.6 330 10:40 08.10.2019
558 Clouds 21 1014 72 10000 3.6 310 10:21 08.10.2019
559 Clouds 21 1014 72 10000 3.6 310 09:58 08.10.2019
560 Clouds 20 1014 72 10000 5.7 320 09:40 08.10.2019
561 Clouds 19 1013 72 10000 5.1 320 09:20 08.10.2019
562 -273 0 0 0 0 0 08:44 08.10.2019
563 Clouds 19 1012 72 10000 6.2 320 08:25 08.10.2019
564 Clouds 18 1012 77 10000 4.1 320 07:47 08.10.2019
565 Clouds 18 1011 88 10000 4.6 310 07:23 08.10.2019
566 Clouds 18 1011 88 10000 4.6 310 06:57 08.10.2019
567 Rain 18 1010 88 9000 5.1 310 06:35 08.10.2019
568 Rain 18 1011 77 10000 4.1 310 05:58 08.10.2019
569 Rain 18 1010 77 10000 4.1 320 05:38 08.10.2019
570 Clouds 18 1010 82 10000 4.1 310 04:55 08.10.2019
571 Clouds 18 1008 82 10000 4.1 330 03:30 08.10.2019
572 Clouds 18 1008 77 10000 3.1 320 02:40 08.10.2019
573 Clouds 18 1008 72 10000 3.1 340 01:51 08.10.2019
574 Clouds 18 1008 72 10000 3.1 340 01:33 08.10.2019
575 Clouds 18 1008 77 10000 2.1 280 00:55 08.10.2019
576 Clouds 18 1008 88 10000 6.2 10 00:23 08.10.2019
577 Clouds 18 1007 82 10000 2.1 350 23:44 07.10.2019
578 Rain 18 1008 93 10000 5.7 20 23:21 07.10.2019
579 Rain 18 1008 93 10000 5.7 20 22:59 07.10.2019
580 Rain 18 1007 82 10000 4.1 340 22:40 07.10.2019
581 Rain 18 1006 93 10000 3.8 8.775 22:21 07.10.2019
582 Rain 18 1006 93 10000 3.8 8.775 21:59 07.10.2019
583 Rain 18 1006 93 10000 2.1 190 21:40 07.10.2019
584 Rain 18 1006 93 8000 4.04 26.032 21:20 07.10.2019
585 Rain 18 1006 93 8000 4.04 26.032 21:20 07.10.2019
586 Rain 18 1006 93 8000 3.77 22.392 20:59 07.10.2019
587 Rain 19 1006 93 6000 2.6 340 20:39 07.10.2019
588 Rain 19 1006 93 6000 2.6 340 20:39 07.10.2019
589 Rain 19 1006 93 6000 2.6 340 20:39 07.10.2019
590 Rain 19 1006 88 7000 2.6 300 20:21 07.10.2019
591 Rain 19 1006 88 7000 2.6 300 19:59 07.10.2019
592 Rain 19 1006 88 10000 3.77 22.392 19:41 07.10.2019
593 Rain 19 1005 88 10000 3.77 22.392 19:20 07.10.2019
594 Rain 19 1005 88 10000 3.77 22.392 18:59 07.10.2019
595 Rain 19 1005 82 10000 3.77 22.392 18:40 07.10.2019
596 Rain 19 1006 82 10000 3.3 64.67 18:19 07.10.2019
597 Rain 19 1006 82 10000 3.3 64.67 17:54 07.10.2019
598 Rain 19 1006 82 10000 3.3 64.67 17:54 07.10.2019
599 Drizzle 20 1006 82 10000 3.3 64.67 17:36 07.10.2019
600 Drizzle 20 1006 82 10000 3.3 64.67 17:18 07.10.2019
601 Rain 20 1006 77 10000 3.3 64.67 16:43 07.10.2019
602 Rain 20 1006 82 10000 3.3 64.67 16:25 07.10.2019
603 Rain 20 1006 77 10000 2.1 50 15:46 07.10.2019
604 Rain 20 1006 77 10000 2.1 50 15:26 07.10.2019
605 Rain 20 1006 64 10000 3.1 40 14:58 07.10.2019
606 Rain 21 1006 60 10000 3.1 60 14:40 07.10.2019
607 Drizzle 21 1008 64 10000 4.1 100 14:22 07.10.2019
608 Clouds 22 1007 60 10000 4.1 100 13:44 07.10.2019
609 Clouds 22 1007 60 10000 4.1 80 13:21 07.10.2019
610 Clouds 21 1007 60 10000 4.1 80 12:57 07.10.2019
611 Clouds 21 1007 56 10000 5.1 110 12:39 07.10.2019
612 Clouds 21 1007 56 10000 5.1 110 12:20 07.10.2019
613 Rain 21 1007 60 10000 4.1 90 11:58 07.10.2019
614 Rain 21 1007 60 10000 4.1 90 11:39 07.10.2019
615 Rain 21 1007 64 10000 4.1 80 11:20 07.10.2019
616 Rain 21 1007 68 10000 4.1 80 10:42 07.10.2019
617 Clouds 21 1009 64 10000 4.1 80 10:21 07.10.2019
618 Clouds 21 1009 64 10000 4.1 80 09:57 07.10.2019
619 Clouds 21 1008 64 10000 4.1 80 09:38 07.10.2019
620 Drizzle 20 1009 72 10000 1 0 09:20 07.10.2019
621 Drizzle 20 1008 88 10000 2.46 37.038 08:43 07.10.2019
622 Drizzle 19 1007 88 10000 2.46 37.038 08:20 07.10.2019
623 Drizzle 19 1007 88 10000 2.46 37.038 07:47 07.10.2019
624 Drizzle 19 1007 88 10000 2.46 37.038 07:27 07.10.2019
625 Rain 19 1007 88 10000 2.46 37.038 06:58 07.10.2019
626 Rain 19 1007 88 10000 2.46 37.038 06:38 07.10.2019
627 Rain 19 1007 88 10000 2.1 320 06:19 07.10.2019
628 Drizzle 19 1007 93 10000 1.84 68.714 05:26 07.10.2019
629 Drizzle 19 1007 88 10000 1.84 68.714 04:50 07.10.2019
630 Rain 19 1008 77 10000 1.84 68.714 03:48 07.10.2019
631 Rain 19 1008 77 10000 1.84 68.714 03:30 07.10.2019
632 Rain 20 1008 68 10000 1.37 90 02:39 07.10.2019
633 Clouds 20 1009 64 10000 1.37 90 02:19 07.10.2019
634 Clouds 20 1009 64 10000 1.37 90 02:19 07.10.2019
635 Drizzle 20 1009 68 10000 2.1 80 01:24 07.10.2019
636 Clouds 20 1009 60 10000 2.6 70 00:53 07.10.2019
637 Clouds 20 1009 60 10000 2.6 70 00:26 07.10.2019
638 Clouds 20 1009 60 10000 2.1 70 23:59 06.10.2019
639 Clouds 20 1010 64 10000 2.1 70 23:40 06.10.2019
640 Clouds 20 1010 64 10000 2.1 70 23:20 06.10.2019
641 Clouds 21 1010 64 10000 2.1 70 22:57 06.10.2019
642 Clouds 21 1010 64 10000 2.1 70 22:39 06.10.2019
643 Clouds 21 1010 64 10000 2.6 70 22:20 06.10.2019
644 Clouds 21 1010 64 10000 2.6 70 22:20 06.10.2019
645 Clouds 21 1010 64 10000 2.1 70 21:55 06.10.2019
646 Clouds 20 1010 64 10000 2.1 70 21:37 06.10.2019
647 Clouds 21 1009 64 10000 2.6 70 21:18 06.10.2019
648 Clouds 21 1009 64 10000 2.6 70 21:18 06.10.2019
649 Clouds 21 1009 64 10000 2.6 70 20:56 06.10.2019
650 Clouds 21 1010 64 10000 2.6 70 20:38 06.10.2019
651 Clouds 21 1010 64 10000 2.6 70 20:38 06.10.2019
652 Clouds 20 1010 64 10000 2.6 80 20:19 06.10.2019
653 Clouds 20 1010 64 10000 2.6 80 20:19 06.10.2019
654 Clouds 21 1009 60 10000 3.1 70 19:56 06.10.2019
655 Clouds 21 1009 60 10000 3.1 70 19:37 06.10.2019
656 Clouds 21 1009 56 10000 2.6 60 19:18 06.10.2019
657 Clouds 22 1009 56 10000 2.6 60 18:55 06.10.2019
658 Clouds 22 1009 56 10000 2.1 80 18:37 06.10.2019
659 Clouds 22 1009 53 10000 2.1 140 18:18 06.10.2019
660 Clouds 23 1009 53 10000 2.6 160 17:43 06.10.2019
661 Clouds 23 1009 53 10000 2.6 150 17:20 06.10.2019
662 Clouds 24 1009 53 10000 2.6 150 16:56 06.10.2019
663 Clouds 24 1009 54 10000 4.1 150 16:38 06.10.2019
664 Clouds 25 1009 44 10000 2.1 180 16:19 06.10.2019
665 Clouds 24 1009 42 10000 2.6 160 15:44 06.10.2019
666 Clouds 25 1009 42 10000 2.6 160 15:22 06.10.2019
667 Clouds 26 1009 42 10000 3.1 170 14:58 06.10.2019
668 Clouds 26 1009 39 10000 2.1 160 14:39 06.10.2019
669 Clouds 25 1009 39 10000 2.1 160 14:21 06.10.2019
670 Clouds 26 1009 53 10000 2.1 190 13:54 06.10.2019
671 Clouds 26 1009 53 10000 2.1 190 13:54 06.10.2019
672 Clouds 25 1009 53 10000 2.1 190 13:36 06.10.2019
673 Clouds 25 1010 53 10000 2.6 190 13:18 06.10.2019
674 Clouds 25 1010 36 10000 2.1 180 12:55 06.10.2019
675 Clouds 25 1010 36 10000 2.1 180 12:55 06.10.2019
676 Clouds 25 1010 36 10000 2.1 180 12:37 06.10.2019
677 Clouds 25 1010 39 10000 2.1 210 12:19 06.10.2019
678 Clouds 25 1010 41 10000 2.6 200 11:42 06.10.2019
679 -273 0 0 0 0 0 11:24 06.10.2019
680 -273 0 0 0 0 0 11:24 06.10.2019
681 Clouds 25 1010 44 10000 2.1 180 10:56 06.10.2019
682 Clouds 25 1010 44 10000 2.1 180 10:56 06.10.2019
683 Clouds 25 1010 41 10000 2.1 150 10:38 06.10.2019
684 Clouds 24 1010 39 10000 0.99 151.77 10:19 06.10.2019
685 Clouds 23 1010 41 10000 2.1 180 09:41 06.10.2019
686 Clouds 22 1010 47 10000 2.84 297.903 09:20 06.10.2019
687 Clouds 22 1010 56 10000 1.5 0 08:50 06.10.2019
688 Clouds 21 1010 56 10000 1.5 0 08:30 06.10.2019
689 Clouds 20 1009 60 10000 2.72 312.858 07:59 06.10.2019
690 Clouds 20 1009 60 10000 2.72 312.858 07:59 06.10.2019
691 Clouds 19 1009 56 10000 1 0 07:40 06.10.2019
692 Clouds 19 1009 60 10000 1 0 06:59 06.10.2019
693 Clouds 19 1009 53 10000 4.1 314.852 05:41 06.10.2019
694 Clouds 19 1008 52 10000 4.1 314.852 04:44 06.10.2019
695 Clouds 19 1008 52 10000 4.1 314.852 04:44 06.10.2019
696 Clouds 19 1008 49 10000 7.1 292.781 02:56 06.10.2019
697 Clouds 18 1008 55 10000 7.1 292.781 02:34 06.10.2019
698 Clear 19 1009 55 10000 1.5 0 01:50 06.10.2019
699 Clear 19 1009 55 10000 1.5 0 01:31 06.10.2019
700 Clear 19 1009 55 10000 6.98 296.308 00:59 06.10.2019
701 Clear 19 1009 55 10000 6.98 296.308 00:59 06.10.2019
702 Clear 19 1009 52 10000 6.98 296.308 00:40 06.10.2019
703 Clear 19 1009 52 10000 8.57 295.198 00:20 06.10.2019
704 Clear 19 1009 52 10000 8.57 295.198 23:42 05.10.2019
705 Clear 20 1009 52 10000 1.5 0 23:21 05.10.2019
706 Clear 20 1009 52 10000 1.5 0 22:56 05.10.2019
707 Clear 20 1009 49 10000 1.5 0 22:38 05.10.2019
708 Clear 20 1009 43 10000 8.57 295.198 22:19 05.10.2019
709 Clouds 20 1009 43 10000 3.1 280 21:42 05.10.2019
710 Clouds 20 1009 40 10000 4.6 290 21:24 05.10.2019
711 Clouds 21 1009 40 10000 4.6 290 20:58 05.10.2019
712 Clouds 21 1009 37 10000 3.1 300 20:40 05.10.2019
713 Clear 21 1009 33 10000 3.6 300 20:20 05.10.2019
714 Clear 21 1009 33 10000 3.6 300 19:56 05.10.2019
715 Clouds 21 1008 33 10000 3.1 280 19:37 05.10.2019
716 Clouds 22 1008 38 10000 6.24 285.621 19:18 05.10.2019
717 Clouds 22 1008 40 10000 2.6 300 18:55 05.10.2019
718 Clouds 22 1008 38 10000 6.24 285.621 18:55 05.10.2019
719 Clouds 22 1008 40 10000 2.6 300 18:36 05.10.2019
720 Clouds 23 1009 36 10000 3.1 240 18:18 05.10.2019
721 Clouds 24 1007 33 10000 2.6 270 17:42 05.10.2019
722 Clouds 24 1007 31 10000 3.1 260 17:22 05.10.2019
723 Clouds 25 1007 31 10000 3.1 260 16:56 05.10.2019
724 Clouds 25 1007 31 10000 3.6 260 16:37 05.10.2019
725 Clouds 25 1007 26 10000 3.1 260 16:19 05.10.2019
726 Clouds 25 1007 26 10000 3.1 260 15:56 05.10.2019
727 Clouds 25 1007 26 10000 2.6 260 15:37 05.10.2019
728 Clouds 26 1007 28 10000 2.6 260 15:19 05.10.2019
729 Clouds 25 1008 30 10000 4.1 270 14:42 05.10.2019
730 Clouds 25 1008 31 10000 4.1 270 14:24 05.10.2019
731 Clouds 25 1008 31 10000 4.1 270 13:58 05.10.2019
732 Clouds 25 1008 31 10000 4.6 260 13:39 05.10.2019
733 Clouds 25 1008 31 10000 4.6 250 13:18 05.10.2019
734 Clouds 25 1008 29 10000 4.6 230 12:42 05.10.2019
735 Clouds 25 1008 26 10000 4.6 230 12:19 05.10.2019
736 Clouds 24 1008 31 10000 4.6 240 11:41 05.10.2019
737 Clouds 24 1008 36 10000 3.6 250 11:20 05.10.2019
738 Clouds 24 1008 36 10000 3.6 250 10:57 05.10.2019
739 Clouds 24 1008 41 10000 3.1 280 10:39 05.10.2019
740 Clouds 23 1008 41 10000 2.6 240 10:21 05.10.2019
741 Clouds 23 1008 41 10000 2.6 240 09:55 05.10.2019
742 Clouds 23 1008 47 10000 4.48 280.642 09:37 05.10.2019
743 Clouds 22 1008 60 10000 3.71 310.879 09:18 05.10.2019
744 Clouds 21 1008 60 10000 5.07 303.226 08:38 05.10.2019
745 Clouds 21 1008 73 10000 5.07 303.226 08:19 05.10.2019
746 Clouds 20 1008 77 10000 5.07 303.226 07:52 05.10.2019
747 Clouds 19 1008 77 10000 5.07 303.226 07:30 05.10.2019
748 Clouds 18 1007 82 10000 5.07 303.226 06:56 05.10.2019
749 Clouds 17 1007 82 10000 4.65 303.061 06:23 05.10.2019
750 Clouds 18 1007 82 10000 4.65 303.061 05:39 05.10.2019
751 Clouds 18 1006 82 10000 4.65 303.061 03:32 05.10.2019
752 Clouds 19 1006 88 10000 3.04 313.986 02:38 05.10.2019
753 Clouds 19 1007 82 10000 4.75 296.365 01:27 05.10.2019
754 Clouds 19 1007 82 10000 4.75 296.365 00:49 05.10.2019
755 Clouds 19 1007 82 10000 4.75 296.365 00:28 05.10.2019
756 Clouds 19 1006 82 10000 5.63 298.412 23:58 04.10.2019
757 Clouds 20 1006 77 10000 5.63 298.412 23:40 04.10.2019
758 Clouds 19 1006 82 10000 5.63 298.412 23:22 04.10.2019
759 Clouds 19 1006 82 10000 5.63 298.412 22:57 04.10.2019
760 Clouds 19 1006 82 10000 5.63 298.412 22:57 04.10.2019
761 Clouds 20 1006 82 10000 5.63 298.412 22:38 04.10.2019
762 Clouds 20 1006 82 10000 5.63 298.412 22:19 04.10.2019
763 Clouds 20 1006 77 10000 5.63 298.412 21:40 04.10.2019
764 Clouds 21 1005 73 10000 5.29 238.204 21:22 04.10.2019
765 Clouds 21 1005 73 10000 5.29 238.204 20:59 04.10.2019
766 Clouds 22 1005 73 10000 6.65 233.247 20:41 04.10.2019
767 Clouds 21 1005 73 10000 6.65 233.247 20:23 04.10.2019
768 Clouds 22 1005 68 10000 1 0 19:57 04.10.2019
769 Clouds 22 1005 68 10000 6.65 233.247 19:38 04.10.2019
770 Clouds 23 1004 69 10000 6.65 233.247 19:20 04.10.2019
771 Clouds 23 1004 69 10000 6.65 233.247 18:55 04.10.2019
772 Clouds 23 1004 64 10000 1.5 0 18:36 04.10.2019
773 Clouds 24 1003 69 10000 7.02 191.06 18:18 04.10.2019
774 Clouds 24 1003 65 10000 7.02 191.06 17:40 04.10.2019
775 Clouds 25 1004 57 10000 7.02 191.06 17:22 04.10.2019
776 Clouds 25 1003 57 10000 7.02 191.06 16:58 04.10.2019
777 Clouds 25 1003 57 10000 7.02 191.06 16:39 04.10.2019
778 Clouds 25 1004 69 10000 7.02 191.06 16:19 04.10.2019
779 Clouds 24 1004 69 10000 7.02 191.06 15:56 04.10.2019
780 Clouds 24 1004 73 10000 7.02 191.06 15:38 04.10.2019
781 Clouds 24 1004 73 10000 7.02 191.06 15:38 04.10.2019
782 Clouds 24 1004 83 10000 9.59 171.796 15:19 04.10.2019
783 Rain 23 1004 83 10000 9.59 171.796 14:55 04.10.2019
784 Rain 23 1005 78 10000 9.59 171.796 14:37 04.10.2019
785 Rain 23 1005 83 10000 9.59 171.796 14:19 04.10.2019
786 Rain 24 1006 65 10000 13.4 190 13:44 04.10.2019
787 Clouds 25 1006 57 10000 12.3 190 13:22 04.10.2019
788 Clouds 25 1006 57 10000 12.3 190 12:54 04.10.2019
789 Clouds 26 1005 61 10000 3.6 140 12:36 04.10.2019
790 Clouds 26 1005 58 10000 3.1 140 12:18 04.10.2019
791 Clouds 27 1005 61 10000 2.6 150 11:42 04.10.2019
792 Clouds 27 1005 58 10000 3.1 130 11:21 04.10.2019
793 Clouds 27 1005 61 10000 4.1 140 10:41 04.10.2019
794 Clouds 26 1006 61 10000 2.6 130 10:21 04.10.2019
795 Clouds 26 1006 61 10000 2.6 130 09:58 04.10.2019
796 Clouds 26 1006 61 10000 2.6 130 09:58 04.10.2019
797 Clouds 25 1006 65 10000 3.1 140 09:40 04.10.2019
798 Clouds 25 1006 65 10000 3.1 140 09:22 04.10.2019
799 Clouds 24 1006 69 10000 2.6 100 08:43 04.10.2019
800 Clouds 24 1006 69 10000 2.6 100 08:43 04.10.2019
801 Clouds 23 1007 73 10000 3.91 121.708 08:25 04.10.2019
802 Clouds 22 1006 73 10000 3.91 121.708 07:47 04.10.2019
803 Clouds 22 1006 73 10000 1.5 0 07:24 04.10.2019
804 Clouds 21 1006 73 10000 1.5 0 06:56 04.10.2019
805 Clouds 21 1006 77 10000 3.91 121.708 06:37 04.10.2019
806 Clouds 21 1007 77 10000 3.4 133.749 06:18 04.10.2019
807 Clouds 21 1007 78 10000 3.4 133.749 05:19 04.10.2019
808 Clouds 21 1009 82 10000 1 0 04:35 04.10.2019
809 Clouds 21 1008 83 10000 6.03 149.937 02:56 04.10.2019
810 Clouds 21 1010 77 10000 1 0 02:37 04.10.2019
811 Clouds 21 1009 73 10000 6.03 149.937 01:43 04.10.2019
812 Clouds 21 1009 73 10000 5.82 152.234 01:25 04.10.2019
813 Clouds 21 1008 78 10000 5.82 152.234 00:29 04.10.2019
814 Clouds 21 1009 73 10000 4.97 144.579 23:38 03.10.2019
815 Clouds 21 1009 77 10000 4.97 144.579 23:20 03.10.2019
816 Rain 21 1009 77 10000 4.97 144.579 22:57 03.10.2019
817 Rain 21 1009 77 10000 4.97 144.579 22:39 03.10.2019
818 Rain 21 1009 77 10000 4.97 144.579 22:39 03.10.2019
819 Rain 21 1009 72 10000 4.97 144.579 22:21 03.10.2019
820 Clouds 21 1009 72 10000 4.97 144.579 21:56 03.10.2019
821 Clouds 21 1009 68 10000 4.97 144.579 21:38 03.10.2019
822 Clouds 21 1009 73 10000 2.71 124.137 21:19 03.10.2019
823 Clouds 21 1009 73 10000 1.97 201.169 20:57 03.10.2019
824 Clouds 21 1009 73 10000 1.97 201.169 20:38 03.10.2019
825 Clear 21 1009 73 10000 1.97 201.169 20:20 03.10.2019
826 Clear 21 1009 73 10000 1.97 201.169 19:55 03.10.2019
827 Clouds 21 1009 73 10000 1.97 201.169 19:37 03.10.2019
828 Clouds 21 1009 69 10000 1.97 201.169 19:19 03.10.2019
829 Clouds 21 1008 57 10000 1.97 201.169 18:55 03.10.2019
830 Clouds 22 1008 57 10000 1.97 201.169 18:37 03.10.2019
831 Clouds 23 1008 57 10000 1.7 151.257 18:18 03.10.2019
832 Clouds 23 1008 50 10000 1.7 151.257 17:42 03.10.2019
833 Clouds 23 1010 77 10000 1.5 0 17:21 03.10.2019
834 -273 0 0 0 0 0 16:55 03.10.2019
835 Drizzle 23 1009 57 10000 2.6 330 16:37 03.10.2019
836 Rain 23 1009 69 10000 2.6 330 16:19 03.10.2019
837 Thunderstorm 24 1010 73 9000 5.1 300 15:43 03.10.2019
838 Rain 26 1009 54 10000 5.1 200 15:23 03.10.2019
839 Clouds 27 1008 51 10000 1.5 0 14:57 03.10.2019
840 Clouds 27 1008 51 10000 1.5 0 14:36 03.10.2019
841 Clouds 27 1008 51 10000 1.5 0 14:36 03.10.2019
842 Clouds 27 1009 51 10000 2.6 160 14:18 03.10.2019
843 Clouds 28 1008 54 10000 1.5 0 13:43 03.10.2019
844 Clouds 27 1008 54 10000 1.5 0 13:22 03.10.2019
845 Clouds 28 1008 54 10000 1.5 0 13:22 03.10.2019
846 Clouds 27 1008 54 10000 1.5 0 12:58 03.10.2019
847 Clouds 27 1008 61 10000 3.1 160 12:39 03.10.2019
848 Clouds 27 1008 54 10000 1.5 0 12:19 03.10.2019
849 Clouds 27 1008 54 10000 1.5 0 11:57 03.10.2019
850 Clouds 27 1009 57 10000 1.5 0 11:38 03.10.2019
851 Clouds 27 1009 57 10000 1 0 11:20 03.10.2019
852 Clouds 26 1009 57 10000 1 0 10:55 03.10.2019
853 Clouds 26 1009 57 10000 1.5 0 10:37 03.10.2019
854 Clouds 26 1008 57 10000 1.5 0 10:18 03.10.2019
855 Clear 25 1009 61 10000 3.68 208.771 09:55 03.10.2019
856 Clear 25 1009 61 10000 3.68 208.771 09:37 03.10.2019
857 Clear 24 1008 61 10000 2.69 278.272 09:18 03.10.2019
858 Clear 23 1008 69 10000 2.84 278.607 08:41 03.10.2019
859 Clear 23 1008 69 10000 2.84 278.607 08:41 03.10.2019
860 Clear 22 1008 73 10000 2.84 278.607 08:23 03.10.2019
861 Clear 21 1008 82 10000 2.84 278.607 07:41 03.10.2019
862 Clear 21 1008 82 10000 2.84 278.607 07:41 03.10.2019
863 Clouds 20 1008 88 10000 2.84 278.607 07:20 03.10.2019
864 Clouds 20 1008 88 10000 2.84 278.607 06:52 03.10.2019
865 Clouds 20 1008 88 10000 3.31 299.263 06:26 03.10.2019
866 Clouds 20 1008 93 9000 1 0 05:47 03.10.2019
867 Clouds 20 1008 93 9000 1 0 05:25 03.10.2019
868 Clouds 20 1007 82 10000 3.31 299.263 04:40 03.10.2019
869 Clouds 20 1007 88 10000 3.31 299.263 03:36 03.10.2019
870 Clouds 20 1007 93 10000 2.61 290.89 03:18 03.10.2019
871 Clouds 21 1008 88 10000 2.61 290.89 02:20 03.10.2019
872 Clouds 21 1008 88 10000 3.05 297.044 01:37 03.10.2019
873 Clouds 21 1008 88 10000 3.05 297.044 00:52 03.10.2019
874 Clouds 21 1008 88 10000 3.05 297.044 00:31 03.10.2019
875 Clouds 21 1009 83 10000 0.52 206.122 23:44 02.10.2019
876 Clouds 21 1009 83 10000 0.52 206.122 23:24 02.10.2019
877 Clouds 21 1009 83 10000 0.52 206.122 22:57 02.10.2019
878 Clouds 21 1010 82 10000 0.5 0 22:38 02.10.2019
879 Clouds 22 1009 88 10000 0.52 206.122 22:18 02.10.2019
880 Clouds 22 1009 88 10000 0.52 206.122 21:55 02.10.2019
881 Clouds 22 1009 88 10000 0.52 206.122 21:54 02.10.2019
882 Clouds 22 1009 88 10000 0.52 206.122 21:54 02.10.2019
883 Clouds 22 1009 88 10000 0.52 206.122 21:54 02.10.2019
884 Clouds 22 1009 88 10000 0.52 206.122 21:54 02.10.2019
885 Clouds 22 1009 83 10000 0.52 206.122 21:36 02.10.2019
886 Clouds 23 1009 78 10000 2.2 146.346 21:18 02.10.2019
887 Clouds 23 1009 78 10000 1.53 158.645 20:55 02.10.2019
888 Clouds 23 1009 83 10000 1.53 158.645 20:36 02.10.2019
889 Clouds 23 1009 83 10000 1.53 158.645 20:18 02.10.2019
890 Clouds 23 1008 78 10000 1.53 158.645 19:43 02.10.2019
891 Clouds 23 1008 78 10000 1.53 158.645 19:22 02.10.2019
892 Clouds 24 1008 78 10000 1.53 158.645 18:58 02.10.2019
893 Clouds 24 1008 73 10000 2.1 200 18:39 02.10.2019
894 Clouds 24 1008 73 10000 3.1 190 18:21 02.10.2019
895 Clouds 25 1008 73 10000 3.1 190 17:57 02.10.2019
896 Clouds 25 1008 73 10000 3.1 190 17:57 02.10.2019
897 Clear 25 1008 69 10000 4.1 180 17:38 02.10.2019
898 Clear 26 1008 65 10000 4.1 180 17:20 02.10.2019
899 Clear 26 1008 65 10000 4.1 180 16:56 02.10.2019
900 Clouds 27 1008 61 10000 4.1 180 16:36 02.10.2019
901 Clouds 27 1008 61 10000 4.1 180 16:18 02.10.2019
902 Clouds 27 1008 57 10000 4.1 180 15:55 02.10.2019
903 Clouds 27 1008 57 10000 5.1 170 15:36 02.10.2019
904 Clouds 28 1008 54 10000 5.1 160 15:18 02.10.2019
905 Clouds 28 1008 54 10000 4.1 160 14:43 02.10.2019
906 Clouds 28 1008 54 10000 4.1 160 14:22 02.10.2019
907 Clouds 28 1009 54 10000 4.1 160 13:56 02.10.2019
908 Clouds 28 1009 48 10000 3.6 170 13:37 02.10.2019
909 Clouds 28 1009 51 10000 3.6 170 13:19 02.10.2019
910 Clouds 28 1009 54 10000 3.6 180 12:39 02.10.2019
911 Clouds 28 1009 54 10000 3.6 180 12:39 02.10.2019
912 Clouds 27 1009 54 10000 3.6 180 12:21 02.10.2019
913 Clouds 27 1009 57 10000 2.6 180 11:55 02.10.2019
914 Clouds 27 1009 57 10000 2.91 175.955 11:36 02.10.2019
915 Clouds 27 1009 57 10000 2.91 175.955 11:18 02.10.2019
916 Clouds 26 1010 65 10000 2.91 175.955 10:38 02.10.2019
917 Clouds 26 1010 65 10000 2.91 175.955 10:18 02.10.2019
918 Clouds 25 1009 61 10000 2.91 175.955 09:40 02.10.2019
919 Clouds 24 1009 61 10000 0.87 209.379 09:20 02.10.2019
920 Clouds 24 1009 57 10000 0.72 217.077 08:55 02.10.2019
921 Clouds 22 1009 68 10000 0.72 217.077 08:36 02.10.2019
922 Clouds 22 1009 68 10000 0.72 217.077 08:18 02.10.2019
923 Clouds 21 1009 72 10000 0.72 217.077 07:39 02.10.2019
924 Clouds 20 1009 72 10000 0.72 217.077 07:20 02.10.2019
925 Clouds 19 1009 77 10000 0.72 217.077 06:47 02.10.2019
926 Clouds 19 1009 77 10000 0.53 294.714 05:56 02.10.2019
927 Clouds 20 1009 77 10000 0.53 294.714 05:25 02.10.2019
928 Clouds 20 1009 77 10000 0.53 294.714 04:56 02.10.2019
929 Clouds 20 1009 72 10000 0.53 294.714 03:53 02.10.2019
930 Clouds 20 1010 72 10000 0.42 174.495 02:47 02.10.2019
931 Clouds 21 1010 77 10000 0.42 174.495 02:24 02.10.2019
932 Clouds 21 1010 68 10000 0.42 174.495 01:46 02.10.2019
933 Clouds 21 1010 73 10000 0.56 194.56 00:51 02.10.2019
934 Clouds 21 1011 73 10000 0.56 194.56 00:29 02.10.2019
935 Clouds 21 1011 68 10000 0.95 214.474 23:46 01.10.2019
936 Clouds 21 1011 68 10000 0.95 214.474 23:27 01.10.2019
937 Clouds 22 1011 73 10000 0.95 214.474 22:59 01.10.2019
938 Clouds 22 1010 73 10000 0.95 214.474 22:41 01.10.2019
939 Clouds 22 1010 73 10000 0.95 214.474 22:20 01.10.2019
940 Clouds 22 1011 69 10000 0.95 214.474 21:58 01.10.2019
941 Clouds 22 1011 78 10000 0.95 214.474 21:40 01.10.2019
942 Clouds 23 1011 78 10000 1.91 210.748 21:22 01.10.2019
943 Clouds 23 1011 78 10000 1.91 210.748 21:22 01.10.2019
944 Clouds 23 1010 78 10000 1.91 210.748 20:57 01.10.2019
945 Clouds 23 1010 78 10000 1.76 206.93 20:38 01.10.2019
946 Clouds 23 1010 78 10000 1.76 206.93 20:20 01.10.2019
947 -273 0 0 0 0 0 19:56 01.10.2019
948 Clouds 24 1010 73 10000 1.5 0 19:38 01.10.2019
949 Clouds 24 1010 73 10000 1.5 0 19:19 01.10.2019
950 -273 0 0 0 0 0 18:54 01.10.2019
951 Clouds 25 1009 57 10000 2.1 180 18:36 01.10.2019
952 Clouds 26 1009 57 10000 2.1 180 18:18 01.10.2019
953 Clouds 27 1009 48 10000 2.1 190 17:42 01.10.2019
954 Clouds 28 1009 48 10000 2.1 190 17:20 01.10.2019
955 Clouds 28 1009 45 10000 2.1 200 16:58 01.10.2019
956 Clouds 28 1009 42 10000 2.6 200 16:40 01.10.2019
957 Clouds 28 1009 42 10000 2.6 200 16:21 01.10.2019
958 Clouds 28 1009 45 10000 3.1 210 15:47 01.10.2019
959 Clouds 29 1009 45 10000 2.6 200 15:24 01.10.2019
960 Clouds 29 1009 45 10000 2.6 200 14:56 01.10.2019
961 Clouds 29 1010 48 10000 3.1 200 14:37 01.10.2019
962 Clouds 29 1010 48 10000 3.1 200 14:19 01.10.2019
963 Clouds 29 1010 51 10000 3.1 200 13:41 01.10.2019
964 Clouds 29 1010 51 10000 3.1 200 13:22 01.10.2019
965 Clouds 29 1011 51 10000 2.6 190 12:59 01.10.2019
966 Clouds 29 1011 54 10000 3.1 190 12:41 01.10.2019
967 Clouds 29 1011 54 10000 3.1 190 12:20 01.10.2019
968 Clear 28 1011 58 10000 2.6 170 11:58 01.10.2019
969 Clear 28 1011 48 10000 2.1 180 11:38 01.10.2019
970 Clear 28 1011 48 10000 2.1 180 11:19 01.10.2019
971 Clear 28 1011 51 10000 2.1 170 10:58 01.10.2019
972 Clear 28 1011 54 10000 2.1 140 10:40 01.10.2019
973 Clear 27 1011 54 10000 2.1 140 10:22 01.10.2019
974 Clear 26 1010 61 10000 0.85 189.262 09:42 01.10.2019
975 Clear 25 1010 61 10000 1.84 358.254 09:21 01.10.2019
976 Clear 24 1010 60 10000 1.94 0.118 08:43 01.10.2019
977 Clear 24 1010 60 10000 1.94 0.118 08:43 01.10.2019
978 Clear 23 1010 68 10000 1.94 0.118 08:25 01.10.2019
979 Clear 22 1010 68 10000 1.94 0.118 07:49 01.10.2019
980 Clear 21 1010 77 10000 1.94 0.118 07:25 01.10.2019
981 Clear 20 1010 77 10000 1.94 0.118 06:50 01.10.2019
982 Clear 20 1010 77 10000 2.94 337.244 06:23 01.10.2019
983 Clear 20 1009 72 10000 2.94 337.244 05:46 01.10.2019
984 Clear 20 1009 72 10000 2.94 337.244 05:46 01.10.2019
985 Clear 20 1009 72 10000 2.94 337.244 05:19 01.10.2019
986 Clear 20 1009 72 10000 2.94 337.244 04:35 01.10.2019
987 Clear 21 1010 73 10000 3.09 317.743 03:25 01.10.2019
988 Clear 21 1010 77 10000 3.09 317.743 02:18 01.10.2019
989 Clear 21 1010 73 10000 2.97 322.54 01:28 01.10.2019
990 Clear 22 1010 68 10000 2.97 322.54 00:40 01.10.2019
991 Clear 22 1010 68 10000 0.64 297.775 00:22 01.10.2019
992 Clear 22 1010 68 10000 0.64 297.775 23:41 30.09.2019
993 Clear 22 1010 68 10000 0.64 297.775 23:22 30.09.2019
994 Clear 23 1010 64 10000 0.64 297.775 22:45 30.09.2019
995 Clear 23 1010 64 10000 0.64 297.775 22:26 30.09.2019
996 Clear 23 1010 64 10000 0.64 297.775 21:58 30.09.2019
997 Clear 23 1010 64 10000 0.64 297.775 21:40 30.09.2019
998 Clear 23 1010 64 10000 1.25 143.763 21:20 30.09.2019
999 Clear 24 1010 69 10000 1.25 143.763 20:58 30.09.2019
1000 Clear 24 1010 69 10000 1.5 0 20:39 30.09.2019
1001 Clear 24 1010 69 10000 1.5 0 20:20 30.09.2019
1002 Clear 24 1009 61 10000 1.28 142.066 19:58 30.09.2019
1003 Clear 25 1009 61 10000 1.28 142.066 19:40 30.09.2019
1004 Clear 25 1009 61 10000 1.28 142.066 19:20 30.09.2019
1005 Clear 25 1009 65 10000 1.28 142.066 18:58 30.09.2019
1006 Clear 25 1009 61 10000 3.1 150 18:40 30.09.2019
1007 Clear 26 1009 61 10000 3.1 150 18:20 30.09.2019
1008 Clear 27 1009 57 10000 3.6 180 17:54 30.09.2019
1009 Clear 27 1009 54 10000 3.6 180 17:36 30.09.2019
1010 Clear 27 1009 54 10000 3.6 180 17:18 30.09.2019
1011 Clear 28 1009 48 10000 4.1 170 16:41 30.09.2019
1012 Clear 29 1009 48 10000 4.1 170 16:20 30.09.2019
1013 Clear 29 1009 48 10000 4.1 170 16:20 30.09.2019
1014 Clear 29 1009 48 10000 3.6 160 15:59 30.09.2019
1015 Clear 29 1009 48 10000 3.6 160 15:59 30.09.2019
1016 Clear 29 1010 45 10000 4.1 170 15:38 30.09.2019
1017 Clear 30 1010 45 10000 4.1 170 15:19 30.09.2019
1018 Clear 30 1010 45 10000 3.6 160 14:58 30.09.2019
1019 Clear 30 1010 45 10000 3.6 170 14:38 30.09.2019
1020 Clear 30 1010 45 10000 3.6 170 14:19 30.09.2019
1021 Clear 30 1010 42 10000 3.1 180 13:58 30.09.2019
1022 Clear 30 1011 42 10000 3.1 170 13:40 30.09.2019
1023 Clear 30 1011 42 10000 3.1 170 13:21 30.09.2019
1024 Clear 29 1011 45 10000 3.1 170 12:44 30.09.2019
1025 Clear 29 1012 51 10000 3.1 170 12:25 30.09.2019
1026 Clear 29 1012 42 10000 2.64 215.871 11:59 30.09.2019
1027 Clear 28 1012 42 10000 2.64 215.871 11:40 30.09.2019
1028 Clear 28 1012 42 10000 2.64 215.871 11:20 30.09.2019
1029 Clear 28 1012 48 10000 2.64 215.871 10:56 30.09.2019
1030 Clear 28 1012 48 10000 2.64 215.871 10:37 30.09.2019
1031 Clear 27 1012 48 10000 2.64 215.871 10:18 30.09.2019
1032 Clear 26 1012 51 10000 2.64 215.871 09:40 30.09.2019
1033 Clear 26 1012 51 10000 2.64 215.871 09:40 30.09.2019
1034 Clear 25 1012 50 10000 1.34 317.264 09:21 30.09.2019
1035 Clear 24 1012 60 10000 1.34 317.264 08:51 30.09.2019
1036 Clear 24 1012 68 10000 1.45 324.807 08:33 30.09.2019
1037 Clear 22 1012 77 10000 1.45 324.807 07:58 30.09.2019
1038 Clear 22 1012 77 10000 1.45 324.807 07:39 30.09.2019
1039 Clear 21 1012 77 10000 1.45 324.807 07:18 30.09.2019
1040 Clear 20 1012 77 10000 1.45 324.807 06:42 30.09.2019
1041 Clear 19 1012 77 10000 1.54 326.258 05:56 30.09.2019
1042 Clear 19 1012 77 10000 1.54 326.258 05:56 30.09.2019
1043 Clear 19 1012 72 10000 1.54 326.258 05:38 30.09.2019
1044 Clear 20 1012 68 10000 0.9 321.063 02:50 30.09.2019
1045 Clear 20 1014 77 10000 0.9 321.063 01:50 30.09.2019
1046 Clear 21 1013 68 10000 0.91 321.811 00:57 30.09.2019
1047 Clear 21 1013 68 10000 0.91 321.811 00:57 30.09.2019
1048 Clear 21 1013 68 10000 0.91 321.811 00:37 30.09.2019
1049 Clear 21 1013 68 10000 0.69 230.858 00:18 30.09.2019
1050 Clear 21 1013 68 10000 0.69 230.858 00:18 30.09.2019
1051 Clear 21 1013 68 10000 0.69 230.858 00:18 30.09.2019
1052 Clear 21 1014 68 10000 0.69 230.858 23:40 29.09.2019
1053 Clear 21 1014 68 10000 0.69 230.858 23:20 29.09.2019
1054 Clear 22 1014 64 10000 0.69 230.858 22:45 29.09.2019
1055 Clear 22 1014 64 10000 0.69 230.858 22:25 29.09.2019
1056 Clear 22 1014 68 10000 0.69 230.858 21:59 29.09.2019
1057 Clear 22 1014 69 10000 0.69 230.858 21:39 29.09.2019
1058 Clear 22 1014 69 10000 1.27 208.751 21:20 29.09.2019
1059 Clear 23 1014 69 10000 1.27 208.751 20:59 29.09.2019
1060 Clear 23 1014 69 10000 1.27 208.751 20:41 29.09.2019
1061 Clear 23 1014 69 10000 1.37 211.939 20:19 29.09.2019
1062 Clear 23 1014 69 10000 1.37 211.939 20:19 29.09.2019
1063 Clear 24 1013 69 10000 1.37 211.939 19:57 29.09.2019
1064 Clear 24 1013 61 10000 1.5 180 19:37 29.09.2019
1065 Clear 24 1013 61 10000 1.5 180 19:37 29.09.2019
1066 Clear 24 1013 61 10000 1.5 180 19:18 29.09.2019
1067 Clear 25 1013 54 10000 1.5 190 18:55 29.09.2019
1068 Clear 25 1013 47 10000 2.1 190 18:37 29.09.2019
1069 Clear 25 1013 47 10000 2.1 190 18:18 29.09.2019
1070 Clear 27 1013 42 10000 2.25 167.985 17:55 29.09.2019
1071 Clear 27 1013 42 10000 2.25 167.985 17:55 29.09.2019
1072 Clear 27 1013 39 10000 1.5 0 17:37 29.09.2019
1073 Clear 27 1013 39 10000 1.5 0 17:19 29.09.2019
1074 Clear 28 1013 42 10000 3.1 180 16:55 29.09.2019
1075 Clear 28 1013 42 10000 3.1 190 16:37 29.09.2019
1076 Clear 28 1013 42 10000 3.1 190 16:18 29.09.2019
1077 Clear 28 1013 42 10000 3.1 190 16:18 29.09.2019
1078 Clear 28 1014 48 10000 2.6 200 15:41 29.09.2019
1079 Clear 28 1014 48 10000 2.6 200 15:19 29.09.2019
1080 Clear 28 1014 40 10000 2.6 200 14:59 29.09.2019
1081 Clear 28 1014 37 10000 1.5 0 14:39 29.09.2019
1082 Clear 28 1014 37 10000 1.5 0 14:20 29.09.2019
1083 Clear 28 1014 42 10000 2.6 200 13:57 29.09.2019
1084 Clear 28 1015 45 10000 3.1 190 13:38 29.09.2019
1085 Clear 28 1015 45 10000 3.1 190 13:18 29.09.2019
1086 Clear 28 1015 48 10000 2.6 200 12:57 29.09.2019
1087 Clear 27 1016 47 10000 2.6 200 12:38 29.09.2019
1088 Clear 27 1016 47 10000 2.6 200 12:20 29.09.2019
1089 Clear 27 1016 51 10000 2.1 170 11:55 29.09.2019
1090 Clear 27 1016 51 10000 1.5 0 11:36 29.09.2019
1091 Clear 27 1016 51 10000 1.5 0 11:18 29.09.2019
1092 Clear 26 1016 47 10000 1.5 0 10:55 29.09.2019
1093 Clear 26 1016 50 10000 1.87 181.503 10:36 29.09.2019
1094 Clear 26 1016 50 10000 1.87 181.503 10:18 29.09.2019
1095 Clear 26 1016 50 10000 1.87 181.503 10:18 29.09.2019
1096 Clear 25 1016 50 10000 1.87 181.503 09:42 29.09.2019
1097 Clear 24 1016 47 10000 1.82 20.077 09:20 29.09.2019
1098 Clear 24 1015 50 10000 1.82 20.077 08:55 29.09.2019
1099 Clear 23 1015 60 10000 1.73 20.793 08:37 29.09.2019
1100 Clear 22 1015 60 10000 1.73 20.793 08:18 29.09.2019
1101 Clear 21 1015 68 10000 1.73 20.793 07:41 29.09.2019
1102 Clear 19 1015 68 10000 1.73 20.793 07:22 29.09.2019
1103 Clear 18 1015 77 10000 1.73 20.793 06:41 29.09.2019
1104 Clear 18 1015 72 10000 2.03 358.587 04:55 29.09.2019
1105 Clear 19 1015 72 10000 2.03 358.587 04:24 29.09.2019
1106 Clear 19 1015 72 10000 2.03 358.587 03:47 29.09.2019
1107 Clear 19 1016 68 10000 1.19 318.123 02:28 29.09.2019
1108 Clear 19 1016 64 10000 1.19 318.123 01:51 29.09.2019
1109 Clear 19 1016 68 10000 1.4 333.745 01:29 29.09.2019
1110 Clear 19 1016 68 10000 1.4 333.745 01:29 29.09.2019
1111 Clear 20 1016 64 10000 1.4 333.745 00:41 29.09.2019
1112 Clear 20 1016 64 10000 1.82 261.705 00:19 29.09.2019
1113 Clear 20 1017 60 10000 1.82 261.705 23:40 28.09.2019
1114 Clear 20 1017 60 10000 1.82 261.705 23:21 28.09.2019
1115 Clear 21 1017 64 10000 1.82 261.705 22:56 28.09.2019
1116 Clear 21 1017 60 10000 1.82 261.705 22:37 28.09.2019
1117 Clear 21 1017 60 10000 1.82 261.705 22:19 28.09.2019
1118 Clear 21 1017 60 10000 1.82 261.705 21:54 28.09.2019
1119 Clear 21 1017 56 10000 1.82 261.705 21:36 28.09.2019
1120 Clear 22 1017 56 10000 1.42 232.896 21:18 28.09.2019
1121 Clear 22 1017 53 10000 1.41 223.219 20:54 28.09.2019
1122 Clear 22 1016 53 10000 1.5 0 20:36 28.09.2019
1123 Clear 22 1016 53 10000 1.5 0 20:36 28.09.2019
1124 Clear 22 1016 53 10000 1.5 0 20:18 28.09.2019
1125 Clear 22 1016 53 10000 1.5 0 20:18 28.09.2019
1126 Clear 23 1016 47 10000 2.6 80 19:42 28.09.2019
1127 Clear 23 1016 47 10000 2.6 80 19:42 28.09.2019
1128 Clear 23 1016 47 10000 2.6 80 19:22 28.09.2019
1129 Clear 23 1016 50 10000 1.41 223.219 18:59 28.09.2019
1130 Clouds 24 1016 50 10000 1.41 223.219 18:41 28.09.2019
1131 Clouds 24 1016 50 10000 3.24 169.159 18:21 28.09.2019
1132 Clouds 25 1016 47 10000 2.1 190 17:59 28.09.2019
1133 Clouds 26 1015 47 10000 2.6 180 17:40 28.09.2019
1134 Clouds 26 1015 47 10000 2.6 180 17:21 28.09.2019
1135 Clouds 27 1016 42 10000 2.6 190 16:49 28.09.2019
1136 Clouds 27 1016 39 10000 3.1 170 16:29 28.09.2019
1137 Clouds 27 1016 39 10000 3.1 200 15:59 28.09.2019
1138 Clouds 27 1016 37 10000 2.6 200 15:39 28.09.2019
1139 Clouds 27 1016 37 10000 2.6 200 15:21 28.09.2019
1140 Clouds 27 1016 37 10000 3.1 200 14:54 28.09.2019
1141 Clouds 27 1017 39 10000 2.6 210 14:36 28.09.2019
1142 Clouds 27 1017 39 10000 2.6 210 14:18 28.09.2019
1143 Clouds 27 1017 37 10000 3.1 200 13:43 28.09.2019
1144 Clouds 27 1017 35 10000 2.6 190 13:20 28.09.2019
1145 Clouds 27 1017 37 10000 3.1 210 12:57 28.09.2019
1146 Clouds 27 1018 32 10000 2.1 160 12:37 28.09.2019
1147 Clouds 27 1018 32 10000 2.1 160 12:18 28.09.2019
1148 Clear 26 1018 39 10000 2.1 160 11:41 28.09.2019
1149 Clear 26 1018 39 10000 2.1 160 11:20 28.09.2019
1150 Clear 26 1018 39 10000 2.1 160 11:20 28.09.2019
1151 Clear 26 1018 39 10000 2.1 160 10:56 28.09.2019
1152 Clear 26 1018 37 10000 1.09 197.257 10:38 28.09.2019
1153 Clear 25 1020 47 10000 5.1 20 10:18 28.09.2019
1154 Clear 25 1018 44 10000 1.09 197.257 09:41 28.09.2019
1155 Clear 24 1018 44 10000 2.25 21.792 09:20 28.09.2019
1156 Clear 24 1018 50 10000 2.25 21.792 08:48 28.09.2019
1157 Clear 23 1018 56 10000 2.35 18.419 08:29 28.09.2019
1158 Clear 22 1017 64 10000 2.35 18.419 07:57 28.09.2019
1159 Clear 22 1017 72 10000 2.35 18.419 07:38 28.09.2019
1160 Clear 21 1017 72 10000 2.35 18.419 07:19 28.09.2019
1161 Clear 20 1017 72 10000 2.35 18.419 06:41 28.09.2019
1162 Clear 19 1017 77 10000 2.31 15.434 06:21 28.09.2019
1163 Clouds 19 1017 72 10000 2.31 15.434 05:37 28.09.2019
1164 Clouds 19 1017 72 10000 2.31 15.434 05:18 28.09.2019
1165 Clouds 20 1017 72 10000 2.31 15.434 04:31 28.09.2019
1166 Clouds 20 1017 82 10000 2.31 15.434 03:42 28.09.2019
1167 Clouds 20 1017 77 10000 1 0 03:18 28.09.2019
1168 Clouds 20 1017 77 10000 1.46 343.526 02:41 28.09.2019
1169 Clouds 20 1017 77 10000 1.46 343.526 02:23 28.09.2019
1170 Clouds 20 1017 77 10000 1.46 343.526 01:43 28.09.2019
1171 Clouds 20 1017 77 10000 1.52 336.732 01:23 28.09.2019
1172 Clouds 20 1017 73 10000 1.52 336.732 00:48 28.09.2019
1173 Clouds 21 1017 73 10000 1.52 336.732 00:29 28.09.2019
1174 -273 0 0 0 0 0 23:39 27.09.2019
1175 Clouds 21 1016 68 10000 1.5 269.275 23:21 27.09.2019
1176 Clouds 21 1016 68 10000 1.5 269.275 22:57 27.09.2019
1177 Clouds 21 1016 68 10000 1.5 269.275 22:38 27.09.2019
1178 Clouds 21 1016 68 10000 1.5 269.275 22:18 27.09.2019
1179 Rain 21 1016 64 10000 1.5 269.275 21:54 27.09.2019
1180 Rain 22 1016 60 10000 1 0 21:36 27.09.2019
1181 Clouds 22 1015 56 10000 1 0 21:18 27.09.2019
1182 Clouds 22 1015 53 10000 1.5 0 20:41 27.09.2019
1183 Clouds 22 1015 53 10000 1.5 0 20:20 27.09.2019
1184 Clouds 23 1014 53 10000 3.1 100 19:58 27.09.2019
1185 Clouds 23 1014 57 10000 3.6 100 19:39 27.09.2019
1186 Clouds 23 1014 57 10000 3.6 100 19:21 27.09.2019
1187 Clouds 24 1014 57 10000 3.6 90 18:43 27.09.2019
1188 Clouds 24 1013 54 10000 5.1 80 18:25 27.09.2019
1189 Clouds 25 1013 54 10000 5.1 80 17:58 27.09.2019
1190 Clouds 25 1013 54 10000 5.1 90 17:40 27.09.2019
1191 Clouds 25 1013 54 10000 5.1 90 17:40 27.09.2019
1192 Clouds 25 1013 54 10000 5.1 90 17:40 27.09.2019
1193 Clouds 25 1013 61 10000 5.1 90 17:20 27.09.2019
1194 Clouds 26 1013 61 10000 5.1 90 16:59 27.09.2019
1195 Clouds 26 1013 57 10000 5.1 90 16:41 27.09.2019
1196 Clouds 26 1013 57 10000 5.1 90 16:19 27.09.2019
1197 Drizzle 26 1013 57 10000 4.1 80 15:55 27.09.2019
1198 Clouds 26 1013 57 10000 5.1 80 15:37 27.09.2019
1199 Clouds 27 1013 57 10000 5.1 80 15:19 27.09.2019
1200 Clouds 27 1013 54 10000 4.1 160 14:55 27.09.2019
1201 Clouds 27 1013 51 10000 4.1 180 14:37 27.09.2019
1202 Clouds 26 1013 51 10000 4.1 180 14:18 27.09.2019
1203 Clouds 27 1013 51 10000 4.6 180 13:42 27.09.2019
1204 Clouds 27 1013 51 10000 4.6 180 13:42 27.09.2019
1205 Clouds 27 1013 51 10000 4.6 180 13:21 27.09.2019
1206 Clouds 27 1013 48 10000 2.6 200 12:57 27.09.2019
1207 Clouds 27 1015 57 10000 6.7 50 12:38 27.09.2019
1208 Clouds 27 1015 57 10000 6.7 50 12:20 27.09.2019
1209 Clouds 27 1015 57 10000 4.6 60 11:39 27.09.2019
1210 Clouds 27 1015 57 10000 4.6 60 11:21 27.09.2019
1211 Clouds 27 1013 42 10000 2.1 350 10:57 27.09.2019
1212 Clouds 27 1014 45 10000 3.1 320 10:39 27.09.2019
1213 Clouds 27 1014 45 10000 3.1 320 10:39 27.09.2019
1214 Clouds 27 1014 45 10000 3.1 320 10:20 27.09.2019
1215 Clouds 26 1013 51 10000 3.1 330 09:42 27.09.2019
1216 Clouds 26 1013 51 10000 3.1 320 09:22 27.09.2019
1217 Clouds 25 1013 64 10000 1.74 359.77 08:57 27.09.2019
1218 Clouds 24 1013 73 10000 1.84 359.564 08:38 27.09.2019
1219 Clouds 24 1013 73 10000 1.84 359.564 08:20 27.09.2019
1220 Clouds 23 1013 78 10000 1.84 359.564 07:45 27.09.2019
1221 Clear 21 1013 88 10000 1.84 359.564 07:23 27.09.2019
1222 Clouds 20 1012 88 10000 1.84 359.564 06:43 27.09.2019
1223 Clouds 20 1012 88 10000 3.25 321.88 06:23 27.09.2019
1224 Clouds 20 1012 88 10000 3.25 321.88 05:50 27.09.2019
1225 Clouds 20 1012 82 10000 3.25 321.88 05:32 27.09.2019
1226 Clouds 20 1012 88 10000 3.25 321.88 03:56 27.09.2019
1227 Clouds 21 1012 83 10000 2.47 320.526 02:59 27.09.2019
1228 Clouds 21 1012 88 10000 2.47 320.526 01:52 27.09.2019
1229 Clouds 21 1012 88 10000 2.57 323.233 01:28 27.09.2019
1230 Clouds 22 1012 83 10000 1.23 242.6 00:22 27.09.2019
1231 Clouds 22 1012 78 10000 1.23 242.6 23:56 26.09.2019
1232 Clouds 22 1012 78 10000 1.23 242.6 23:38 26.09.2019
1233 Clouds 22 1012 78 10000 1.23 242.6 23:18 26.09.2019
1234 Clouds 22 1012 78 10000 1.23 242.6 23:18 26.09.2019
1235 -273 0 0 0 0 0 22:56 26.09.2019
1236 Clouds 22 1012 78 10000 1.23 242.6 22:56 26.09.2019
1237 Clouds 22 1012 83 10000 1.23 242.6 22:38 26.09.2019
1238 Clouds 22 1012 83 10000 1.23 242.6 22:18 26.09.2019
1239 Clouds 22 1012 83 10000 1.23 242.6 21:55 26.09.2019
1240 Clouds 22 1012 83 10000 1.23 242.6 21:37 26.09.2019
1241 Clouds 22 1012 83 10000 1.23 242.6 21:37 26.09.2019
1242 Clouds 22 1012 83 10000 2 175.422 21:18 26.09.2019
1243 Clouds 23 1012 78 10000 1.54 188.947 20:57 26.09.2019
1244 Clouds 23 1011 78 10000 1.5 0 20:39 26.09.2019
1245 Clouds 23 1011 78 10000 1.5 0 20:20 26.09.2019
1246 Clouds 23 1011 78 10000 1.5 0 20:20 26.09.2019
1247 Clouds 23 1011 73 10000 2.1 140 19:40 26.09.2019
1248 Clouds 23 1011 73 10000 2.1 140 19:19 26.09.2019
1249 Clouds 24 1011 69 10000 2.6 160 18:59 26.09.2019
1250 Clouds 24 1011 65 10000 3.6 130 18:40 26.09.2019
1251 Clouds 24 1011 65 10000 3.6 130 18:22 26.09.2019
1252 Clouds 25 1011 61 10000 3.1 140 17:57 26.09.2019
1253 Clouds 25 1010 57 10000 6.2 150 17:37 26.09.2019
1254 Clouds 26 1010 57 10000 6.2 150 17:18 26.09.2019
1255 Clouds 26 1010 48 10000 6.2 170 16:40 26.09.2019
1256 Clouds 26 1010 48 10000 6.2 170 16:21 26.09.2019
1257 Clouds 26 1010 48 10000 7.2 160 16:00 26.09.2019
1258 Clouds 27 1010 45 10000 7.2 160 15:40 26.09.2019
1259 Clouds 27 1010 45 10000 7.2 160 15:22 26.09.2019
1260 Clouds 28 1010 48 10000 8.7 160 14:57 26.09.2019
1261 Clouds 28 1011 48 10000 8.2 160 14:39 26.09.2019
1262 Clouds 28 1011 48 10000 8.2 160 14:21 26.09.2019
1263 Clouds 28 1011 39 10000 3.6 200 13:55 26.09.2019
1264 Clouds 28 1011 45 10000 4.1 190 13:37 26.09.2019
1265 Clouds 27 1012 42 10000 5.1 210 13:18 26.09.2019
1266 Clouds 27 1012 42 10000 5.1 190 12:41 26.09.2019
1267 Clouds 27 1012 42 10000 5.1 190 12:22 26.09.2019
1268 Clouds 27 1012 48 10000 3.1 190 11:55 26.09.2019
1269 Clouds 26 1012 51 10000 3.1 210 11:37 26.09.2019
1270 Clouds 26 1012 51 10000 3.1 210 11:37 26.09.2019
1271 Clouds 26 1012 51 10000 3.1 210 11:19 26.09.2019
1272 Clouds 26 1012 57 10000 3.01 187.642 10:42 26.09.2019
1273 Clear 26 1012 57 10000 3.01 187.642 10:42 26.09.2019
1274 Clear 25 1012 57 10000 3.01 187.642 10:23 26.09.2019
1275 Clear 25 1012 69 10000 3.01 187.642 09:57 26.09.2019
1276 Clear 24 1012 69 10000 3.01 187.642 09:39 26.09.2019
1277 Clear 24 1012 69 10000 0.71 228.52 09:18 26.09.2019
1278 Clear 23 1012 78 10000 0.56 205.696 08:48 26.09.2019
1279 Clear 23 1012 78 10000 0.56 205.696 08:30 26.09.2019
1280 Clear 21 1012 82 10000 0.56 205.696 07:47 26.09.2019
1281 Clear 19 1012 93 10000 0.56 205.696 07:22 26.09.2019
1282 Clear 19 1012 93 10000 0.56 205.696 06:53 26.09.2019
1283 Clouds 18 1012 88 10000 0.56 205.696 06:28 26.09.2019
1284 Clouds 18 1011 88 10000 0.19 102.695 05:52 26.09.2019
1285 Clouds 18 1012 88 10000 0.19 102.695 05:29 26.09.2019
1286 Clouds 19 1011 93 10000 0.19 102.695 03:51 26.09.2019
1287 Clouds 19 1012 88 10000 1.03 166.571 02:25 26.09.2019
1288 Clouds 19 1012 88 10000 1.03 166.571 01:48 26.09.2019
1289 Clouds 19 1012 88 10000 1.01 152.469 01:22 26.09.2019
1290 Clouds 19 1012 82 10000 1.01 152.469 00:45 26.09.2019
1291 Clouds 20 1012 77 10000 1.01 152.469 00:25 26.09.2019
1292 Clouds 20 1012 77 10000 1.92 169 23:43 25.09.2019
1293 Clouds 20 1012 77 10000 1.92 169 23:22 25.09.2019
1294 Clouds 20 1012 77 10000 1.92 169 22:55 25.09.2019
1295 Clouds 20 1012 77 10000 1.92 169 22:37 25.09.2019
1296 Clouds 20 1012 77 10000 1.92 169 22:18 25.09.2019
1297 Clouds 20 1012 83 10000 1.92 169 21:55 25.09.2019
1298 Clouds 20 1012 73 10000 1.92 169 21:37 25.09.2019
1299 Clouds 21 1012 73 10000 3.33 165.96 21:18 25.09.2019
1300 Clouds 21 1011 78 10000 3.33 165.96 20:55 25.09.2019
1301 Clouds 21 1011 78 10000 3.14 168.378 20:37 25.09.2019
1302 Clouds 21 1011 78 10000 3.14 168.378 20:18 25.09.2019
1303 Clouds 22 1010 69 10000 1.5 0 19:40 25.09.2019
1304 Clouds 22 1010 69 10000 1.5 0 19:21 25.09.2019
1305 Clouds 23 1010 69 10000 2.6 160 18:56 25.09.2019
1306 Clouds 23 1010 57 10000 2.1 170 18:38 25.09.2019
1307 Clouds 24 1010 57 10000 2.1 170 18:19 25.09.2019
1308 Clouds 25 1009 47 10000 2.1 220 17:40 25.09.2019
1309 Clouds 25 1009 47 10000 2.1 220 17:22 25.09.2019
1310 Clouds 25 1009 42 10000 2.1 180 16:59 25.09.2019
1311 Clouds 25 1009 44 10000 2.1 210 16:41 25.09.2019
1312 Clouds 25 1009 44 10000 2.1 210 16:23 25.09.2019
1313 Clouds 25 1009 44 10000 2.6 220 15:56 25.09.2019
1314 Clouds 25 1009 44 10000 2.6 220 15:56 25.09.2019
1315 Clouds 25 1009 47 10000 2.6 210 15:38 25.09.2019
1316 Clouds 26 1009 47 10000 2.6 210 15:19 25.09.2019
1317 Clouds 26 1011 57 10000 3.1 90 14:42 25.09.2019
1318 Clouds 26 1009 44 10000 2.6 340 14:22 25.09.2019
1319 Clouds 26 1009 42 10000 2.6 300 13:58 25.09.2019
1320 Clouds 26 1010 42 10000 4.1 360 13:40 25.09.2019
1321 Clouds 26 1010 42 10000 4.1 360 13:20 25.09.2019
1322 Clouds 26 1010 47 10000 4.1 330 12:57 25.09.2019
1323 Clouds 26 1010 44 10000 3.6 340 12:37 25.09.2019
1324 Clouds 25 1010 44 10000 3.6 340 12:19 25.09.2019
1325 Clouds 25 1010 50 10000 3.6 360 11:41 25.09.2019
1326 Clouds 25 1010 53 10000 4.6 360 11:20 25.09.2019
1327 Clouds 25 1010 57 10000 4.6 340 10:48 25.09.2019
1328 Clouds 24 1010 57 10000 4.6 340 10:27 25.09.2019
1329 Clouds 24 1010 57 10000 3.1 340 09:59 25.09.2019
1330 Clouds 24 1010 60 10000 4.6 330 09:41 25.09.2019
1331 Clouds 23 1010 60 10000 4.6 330 09:23 25.09.2019
1332 Clouds 23 1009 64 10000 3.1 350 08:59 25.09.2019
1333 Clouds 22 1009 68 10000 3.1 340 08:41 25.09.2019
1334 Clouds 22 1009 68 10000 3.1 340 08:20 25.09.2019
1335 Clouds 20 1009 73 10000 2.6 330 07:42 25.09.2019
1336 Clouds 20 1009 73 10000 2.6 330 07:23 25.09.2019
1337 Clouds 20 1008 73 10000 2.1 330 06:58 25.09.2019
1338 Clouds 19 1008 72 10000 1.5 0 06:37 25.09.2019
1339 Clouds 19 1008 72 10000 1.5 0 06:37 25.09.2019
1340 Clear 19 1008 72 10000 3.69 346.593 05:47 25.09.2019
1341 Clear 20 1007 68 10000 3.69 346.593 05:26 25.09.2019
1342 Clear 19 1007 68 10000 3.69 346.593 04:45 25.09.2019
1343 Clear 20 1007 88 10000 3.26 335.852 01:44 25.09.2019
1344 Clear 20 1007 78 10000 3.34 327 00:42 25.09.2019
1345 Clear 20 1007 78 10000 4.57 307.442 00:23 25.09.2019
1346 Rain 20 1007 94 10000 4.57 307.442 23:45 24.09.2019
1347 Rain 20 1007 94 10000 4.57 307.442 23:23 24.09.2019
1348 Rain 21 1007 94 10000 4.57 307.442 22:59 24.09.2019
1349 Clear 21 1007 94 10000 4.57 307.442 22:38 24.09.2019
1350 Clear 21 1007 94 10000 4.57 307.442 22:38 24.09.2019
1351 Clear 21 1007 94 10000 4.57 307.442 22:20 24.09.2019
1352 Clear 20 1007 94 10000 3.47 314.079 21:56 24.09.2019
1353 Clear 20 1007 94 10000 3.47 314.079 21:37 24.09.2019
1354 Clear 20 1007 94 10000 3.47 314.079 21:37 24.09.2019
1355 Clear 20 1007 94 10000 1.46 262.919 21:19 24.09.2019
1356 Clear 21 1007 94 10000 1.46 262.919 20:57 24.09.2019
1357 Clear 21 1006 88 10000 1.46 262.919 20:38 24.09.2019
1358 Clear 21 1006 88 10000 1.46 262.919 20:19 24.09.2019
1359 Clear 21 1006 83 10000 1.46 262.919 19:43 24.09.2019
1360 Clouds 21 1006 83 10000 1.46 262.919 19:21 24.09.2019
1361 Clouds 22 1006 83 10000 1.46 262.919 18:59 24.09.2019
1362 Clouds 22 1006 83 10000 1.46 262.919 18:40 24.09.2019
1363 Clouds 22 1006 83 10000 2.78 162.759 18:22 24.09.2019
1364 Clouds 22 1006 83 10000 2.78 162.759 18:22 24.09.2019
1365 Clouds 23 1007 83 10000 2.78 162.759 17:57 24.09.2019
1366 Clouds 23 1007 78 10000 2.78 162.759 17:38 24.09.2019
1367 Clouds 23 1007 78 10000 2.78 162.759 17:20 24.09.2019
1368 Clouds 23 1007 78 10000 2.78 162.759 16:57 24.09.2019
1369 Clouds 23 1007 83 10000 2.78 162.759 16:38 24.09.2019
1370 Clouds 23 1007 83 10000 2.78 162.759 16:18 24.09.2019
1371 Rain 22 1008 94 10000 2.78 162.759 15:41 24.09.2019
1372 Rain 22 1008 94 10000 2.78 162.759 15:41 24.09.2019
1373 Rain 22 1008 94 10000 2.08 143.758 15:23 24.09.2019
1374 Rain 22 1009 94 10000 2.08 143.758 14:44 24.09.2019
1375 Rain 22 1009 88 8000 2.08 143.758 14:20 24.09.2019
1376 Rain 22 1009 88 10000 2.08 143.758 13:56 24.09.2019
1377 Rain 22 1009 88 10000 2.08 143.758 13:56 24.09.2019
1378 Rain 22 1010 88 10000 2.08 143.758 13:38 24.09.2019
1379 Rain 22 1010 88 10000 2.86 219.98 13:20 24.09.2019
1380 Rain 23 1010 83 10000 2.86 219.98 12:40 24.09.2019
1381 Rain 23 1010 83 10000 2.01 244.902 12:21 24.09.2019
1382 -273 0 0 0 0 0 11:55 24.09.2019
1383 -273 0 0 0 0 0 11:55 24.09.2019
1384 Rain 23 1010 78 9000 2.01 244.902 11:37 24.09.2019
1385 Rain 23 1010 78 9000 2.01 244.902 11:18 24.09.2019
1386 Rain 24 1011 69 10000 2.01 244.902 10:39 24.09.2019
1387 Rain 24 1011 69 10000 2.01 244.902 10:21 24.09.2019
1388 Clouds 24 1011 69 10000 2.01 244.902 09:55 24.09.2019
1389 Clouds 24 1010 69 10000 2.01 244.902 09:37 24.09.2019
1390 Clouds 24 1010 69 10000 1.75 304.108 09:18 24.09.2019
1391 Clouds 23 1010 69 10000 1.75 304.108 08:41 24.09.2019
1392 Clouds 23 1010 69 10000 1.76 305.553 08:23 24.09.2019
1393 Clouds 22 1010 77 10000 1.76 305.553 07:58 24.09.2019
1394 Clouds 22 1010 88 10000 1.76 305.553 07:39 24.09.2019
1395 Clouds 21 1010 88 10000 1.76 305.553 07:21 24.09.2019
1396 Clouds 20 1010 82 10000 1.76 305.553 06:38 24.09.2019
1397 Clear 20 1011 88 10000 2.74 306.728 06:19 24.09.2019
1398 Clear 20 1011 88 10000 2.74 306.728 05:22 24.09.2019
1399 Clear 20 1013 82 10000 2.1 20 03:46 24.09.2019
1400 Clear 21 1013 77 10000 2.74 306.728 03:25 24.09.2019
1401 Clear 21 1012 82 10000 2.23 304.788 02:44 24.09.2019
1402 Clear 21 1012 77 10000 2.23 304.788 01:41 24.09.2019
1403 Clear 21 1013 77 10000 1.85 306.548 00:42 24.09.2019
1404 Clear 21 1013 77 10000 1.07 135.228 00:22 24.09.2019
1405 Clear 21 1013 73 10000 1.07 135.228 23:43 23.09.2019
1406 Clear 21 1013 73 10000 1.07 135.228 23:23 23.09.2019
1407 Clear 21 1013 77 10000 1.07 135.228 22:55 23.09.2019
1408 Clear 21 1013 73 10000 1.07 135.228 22:37 23.09.2019
1409 Clear 21 1013 77 10000 1.07 135.228 22:18 23.09.2019
1410 Clear 21 1013 77 10000 1.07 135.228 21:54 23.09.2019
1411 Clear 21 1014 73 10000 1.07 135.228 21:36 23.09.2019
1412 Clear 22 1013 73 10000 2.57 136.359 21:18 23.09.2019
1413 Clear 22 1013 73 10000 2.26 136.916 20:40 23.09.2019
1414 Clear 22 1013 73 10000 2.26 136.916 20:19 23.09.2019
1415 Clear 22 1013 73 10000 2.26 136.916 20:19 23.09.2019
1416 Clouds 22 1013 73 10000 1 0 19:55 23.09.2019
1417 Clouds 22 1013 73 10000 1 0 19:55 23.09.2019
1418 Clouds 22 1013 69 10000 2.1 0 19:36 23.09.2019
1419 Clouds 22 1013 69 10000 2.1 0 19:18 23.09.2019
1420 Clouds 23 1013 64 10000 2.6 160 18:42 23.09.2019
1421 Clouds 23 1013 64 10000 2.6 160 18:42 23.09.2019
1422 Clouds 23 1013 64 10000 2.6 160 18:19 23.09.2019
1423 Clouds 24 1013 65 10000 2.6 190 17:58 23.09.2019
1424 Clouds 24 1013 65 10000 2.6 170 17:39 23.09.2019
1425 Clouds 24 1013 65 10000 2.6 170 17:20 23.09.2019
1426 Clouds 25 1013 57 10000 3.1 170 16:57 23.09.2019
1427 Clouds 25 1014 57 10000 2.6 160 16:37 23.09.2019
1428 Clouds 25 1014 57 10000 2.6 160 16:18 23.09.2019
1429 Clouds 25 1014 57 10000 3.6 180 15:56 23.09.2019
1430 Clouds 26 1014 54 10000 3.1 170 15:38 23.09.2019
1431 Clouds 26 1014 54 10000 3.1 170 15:18 23.09.2019
1432 Clear 26 1014 54 10000 2.6 180 14:40 23.09.2019
1433 Clear 26 1014 54 10000 2.6 180 14:21 23.09.2019
1434 Clear 26 1015 51 10000 2.6 160 13:59 23.09.2019
1435 Clear 26 1015 54 10000 3.6 170 13:39 23.09.2019
1436 Clear 26 1016 50 10000 2.6 170 13:18 23.09.2019
1437 Clear 26 1016 50 10000 2.6 170 12:56 23.09.2019
1438 Clear 26 1016 50 10000 2.1 160 12:37 23.09.2019
1439 Clear 25 1016 53 10000 2.1 160 12:19 23.09.2019
1440 Clear 25 1017 53 10000 2.1 150 11:44 23.09.2019
1441 Clear 25 1017 53 10000 2.1 150 11:26 23.09.2019
1442 Clear 24 1017 53 10000 2.1 160 10:55 23.09.2019
1443 Clear 24 1017 53 10000 3.36 177.972 10:36 23.09.2019
1444 Clear 24 1017 53 10000 3.36 177.972 10:18 23.09.2019
1445 Clear 23 1017 49 10000 3.36 177.972 09:40 23.09.2019
1446 Clear 22 1017 49 10000 0.2 54.429 09:21 23.09.2019
1447 Clear 21 1017 49 10000 0.2 54.429 08:51 23.09.2019
1448 Clear 20 1017 59 10000 0.67 58.095 08:33 23.09.2019
1449 Clear 19 1017 59 10000 0.67 58.095 07:59 23.09.2019
1450 Clear 18 1017 63 10000 0.67 58.095 07:33 23.09.2019
1451 Clear 16 1017 67 10000 0.67 58.095 06:50 23.09.2019
1452 Clear 16 1016 67 10000 1.41 348.005 06:18 23.09.2019
1453 Clear 16 1017 67 10000 1.41 348.005 05:22 23.09.2019
1454 Clear 16 1017 67 10000 1.41 348.005 04:55 23.09.2019
1455 Clear 16 1017 63 10000 1.41 348.005 03:56 23.09.2019
1456 Clear 16 1017 63 10000 1.41 348.005 03:56 23.09.2019
1457 Clear 17 1018 63 10000 1.72 303.19 01:25 23.09.2019
1458 Clear 17 1018 59 10000 1.7 313.948 00:24 23.09.2019
1459 Clear 18 1018 59 10000 1.7 313.948 23:58 22.09.2019
1460 Clear 18 1018 59 10000 1.7 313.948 23:39 22.09.2019
1461 Clear 18 1018 59 10000 1.7 313.948 23:20 22.09.2019
1462 Clear 18 1018 55 10000 1.7 313.948 22:54 22.09.2019
1463 Clear 18 1018 55 10000 1.5 40 22:36 22.09.2019
1464 Clear 18 1018 52 10000 1.5 40 22:18 22.09.2019
1465 Clear 19 1018 49 10000 1.7 313.948 21:40 22.09.2019
1466 Clear 19 1018 49 10000 0.74 350.001 21:20 22.09.2019
1467 Clear 19 1018 46 10000 1.5 300 20:44 22.09.2019
1468 Clear 20 1018 46 10000 1.5 300 20:26 22.09.2019
1469 Clear 20 1018 43 10000 1.5 290 19:57 22.09.2019
1470 Clear 20 1017 40 10000 2.6 320 19:39 22.09.2019
1471 Clear 21 1017 40 10000 2.6 320 19:20 22.09.2019
1472 Clear 21 1017 36 10000 2.6 330 18:57 22.09.2019
1473 Clear 22 1017 36 10000 2.6 350 18:37 22.09.2019
1474 Clear 22 1017 36 10000 2.6 350 18:18 22.09.2019
1475 Clear 23 1018 33 10000 3.1 340 17:45 22.09.2019
1476 Clear 24 1018 31 10000 3.1 330 17:26 22.09.2019
1477 Clear 24 1018 31 10000 3.1 330 16:56 22.09.2019
1478 Clear 24 1018 31 10000 4.1 330 16:38 22.09.2019
1479 Clear 24 1018 31 10000 4.1 330 16:19 22.09.2019
1480 Clear 24 1019 34 10000 4.6 320 15:43 22.09.2019
1481 Clear 24 1019 34 10000 4.6 320 15:25 22.09.2019
1482 Clear 24 1019 34 10000 3.6 340 14:55 22.09.2019
1483 Clouds 24 1019 34 10000 4.6 330 14:36 22.09.2019
1484 Clouds 24 1019 34 10000 4.6 330 14:18 22.09.2019
1485 Clear 24 1020 38 10000 2.6 360 13:41 22.09.2019
1486 Clear 24 1020 38 10000 2.6 360 13:23 22.09.2019
1487 Clear 23 1020 38 10000 3.6 340 12:56 22.09.2019
1488 Clouds 23 1020 38 10000 4.1 340 12:38 22.09.2019
1489 Clouds 23 1021 38 10000 3.6 350 12:18 22.09.2019
1490 Clouds 22 1021 46 10000 5.1 320 11:43 22.09.2019
1491 Clouds 22 1021 46 10000 5.1 320 11:25 22.09.2019
1492 Clouds 22 1021 49 10000 4.1 330 10:57 22.09.2019
1493 Clouds 21 1022 49 10000 5.1 330 10:39 22.09.2019
1494 Clouds 21 1022 49 10000 5.1 330 10:19 22.09.2019
1495 Clouds 20 1022 56 10000 5.1 340 09:43 22.09.2019
1496 Clouds 21 1022 56 10000 5.1 340 09:43 22.09.2019
1497 Clouds 20 1022 56 10000 5.1 340 09:21 22.09.2019
1498 Clouds 20 1022 56 10000 4.6 340 08:56 22.09.2019
1499 Clouds 19 1022 59 10000 3.6 340 08:38 22.09.2019
1500 Clouds 19 1022 59 10000 3.6 340 08:38 22.09.2019
1501 Clouds 19 1022 59 10000 3.6 340 08:19 22.09.2019
1502 Clouds 17 1022 63 10000 3.98 1.426 07:43 22.09.2019
1503 Clouds 17 1022 63 10000 3.98 1.426 07:25 22.09.2019
1504 Clear 17 1022 67 10000 3.98 1.426 06:57 22.09.2019
1505 Clear 16 1022 63 10000 3.98 1.426 06:31 22.09.2019
1506 Clear 17 1022 55 10000 4.44 349.833 03:54 22.09.2019
1507 Clear 17 1022 48 10000 4.84 342.674 02:44 22.09.2019
1508 Clear 17 1022 48 10000 4.84 342.674 02:24 22.09.2019
1509 Clear 17 1022 48 10000 4.84 342.674 01:36 22.09.2019
1510 Clear 18 1022 48 10000 5.47 341.22 00:44 22.09.2019
1511 Clear 18 1022 48 10000 5.24 350.176 00:26 22.09.2019
1512 Clear 17 1022 52 10000 5.24 350.176 23:47 21.09.2019
1513 Clear 18 1022 48 10000 2.1 330 23:27 21.09.2019
1514 Clear 18 1022 45 10000 2.1 340 22:43 21.09.2019
1515 Clear 18 1022 45 10000 5.24 350.176 22:24 21.09.2019
1516 Clear 18 1022 42 10000 2.1 340 21:58 21.09.2019
1517 Clear 18 1022 42 10000 3.1 340 21:40 21.09.2019
1518 Clear 18 1022 42 10000 4.1 340 21:19 21.09.2019
1519 Clear 19 1022 42 10000 4.1 340 20:55 21.09.2019
1520 Clear 19 1022 42 10000 4.1 340 20:36 21.09.2019
1521 Clear 19 1022 42 10000 5.1 340 20:18 21.09.2019
1522 Clear 19 1022 42 10000 5.1 340 19:42 21.09.2019
1523 Clear 19 1022 40 10000 4.1 340 19:19 21.09.2019
1524 Clear 20 1021 37 10000 4.1 350 18:40 21.09.2019
1525 Clear 20 1021 37 10000 4.1 350 18:21 21.09.2019
1526 Clouds 21 1021 35 10000 4.6 10 17:42 21.09.2019
1527 Clouds 21 1021 35 10000 4.6 360 17:23 21.09.2019
1528 Clouds 21 1021 31 10000 5.7 360 16:57 21.09.2019
1529 Clouds 21 1021 31 10000 5.1 360 16:37 21.09.2019
1530 Clouds 22 1021 31 10000 5.1 360 16:19 21.09.2019
1531 Clouds 22 1021 29 10000 5.1 350 15:43 21.09.2019
1532 Clouds 23 1021 29 10000 5.1 350 15:22 21.09.2019
1533 Clouds 23 1022 29 10000 5.1 350 14:48 21.09.2019
1534 Clouds 23 1022 29 10000 5.1 350 14:30 21.09.2019
1535 Clouds 23 1022 29 10000 5.1 340 13:50 21.09.2019
1536 Clouds 23 1022 33 10000 5.1 350 13:29 21.09.2019
1537 Clouds 23 1022 31 10000 5.1 350 12:59 21.09.2019
1538 Clouds 23 1022 36 10000 5.1 360 12:41 21.09.2019
1539 Clouds 22 1022 36 10000 5.1 360 12:22 21.09.2019
1540 Clouds 22 1022 36 10000 4.6 360 11:59 21.09.2019
1541 Clouds 22 1022 33 10000 5.1 360 11:41 21.09.2019
1542 Clouds 22 1022 33 10000 5.1 360 11:21 21.09.2019
1543 Clouds 22 1022 40 10000 4.1 360 10:41 21.09.2019
1544 Clouds 22 1022 40 10000 4.1 360 10:23 21.09.2019
1545 Clouds 21 1022 40 10000 4.6 360 09:57 21.09.2019
1546 Clouds 21 1022 43 10000 4.1 360 09:38 21.09.2019
1547 Clouds 20 1022 43 10000 4.1 360 09:20 21.09.2019
1548 Clouds 20 1021 46 10000 3.1 360 08:51 21.09.2019
1549 Clouds 20 1021 49 10000 1.5 0 08:27 21.09.2019
1550 Clouds 19 1021 59 10000 2.6 350 07:41 21.09.2019
1551 Clouds 19 1021 59 10000 2.6 350 07:23 21.09.2019
1552 Clouds 19 1020 59 10000 3.1 340 06:51 21.09.2019
1553 Clouds 18 1020 63 10000 3.1 320 06:31 21.09.2019
1554 Clouds 18 1020 63 10000 5.09 359.966 04:53 21.09.2019
1555 Clouds 19 1020 63 10000 1.5 0 04:34 21.09.2019
1556 Clouds 19 1020 68 10000 4.1 330 02:31 21.09.2019
1557 Clouds 19 1020 60 10000 2.6 340 01:54 21.09.2019
1558 Clouds 19 1019 64 10000 2.1 340 01:36 21.09.2019
1559 Clouds 19 1019 68 10000 3.1 330 00:43 21.09.2019
1560 Clouds 19 1019 68 10000 3.1 330 00:19 21.09.2019
1561 Clouds 19 1019 68 10000 3.6 330 23:42 20.09.2019
1562 Clouds 19 1019 68 10000 3.6 330 23:23 20.09.2019
1563 Clouds 19 1019 68 10000 3.6 340 22:41 20.09.2019
1564 Clouds 19 1019 68 10000 3.6 340 22:23 20.09.2019
1565 Clouds 19 1019 68 10000 3.6 330 21:57 20.09.2019
1566 Clouds 19 1018 68 10000 4.1 330 21:37 20.09.2019
1567 Clouds 19 1018 68 10000 4.1 330 21:19 20.09.2019
1568 Clouds 19 1018 68 10000 6.2 330 20:55 20.09.2019
1569 Clouds 19 1017 68 10000 5.1 330 20:37 20.09.2019
1570 Clouds 19 1017 68 10000 5.1 330 20:18 20.09.2019
1571 Clouds 19 1017 68 10000 5.1 320 19:43 20.09.2019
1572 Clouds 19 1017 68 10000 5.1 320 19:21 20.09.2019
1573 Clouds 19 1016 72 10000 5.1 320 18:58 20.09.2019
1574 Clouds 19 1017 72 10000 5.1 320 18:38 20.09.2019
1575 Clouds 20 1016 68 10000 6.2 310 18:18 20.09.2019
1576 Clouds 20 1016 68 10000 6.2 330 17:45 20.09.2019
1577 Clouds 20 1016 68 10000 6.2 330 17:26 20.09.2019
1578 Clouds 20 1015 68 10000 6.2 330 16:43 20.09.2019
1579 Clouds 21 1015 64 10000 4.1 340 16:22 20.09.2019
1580 Clouds 21 1015 64 10000 4.1 340 15:59 20.09.2019
1581 Rain 21 1014 57 10000 4.1 330 15:40 20.09.2019
1582 Rain 22 1014 57 10000 4.1 330 15:22 20.09.2019
1583 Rain 23 1014 53 10000 4.1 350 14:44 20.09.2019
1584 Rain 23 1014 53 10000 4.1 350 14:44 20.09.2019
1585 Rain 23 1014 53 10000 4.1 350 14:20 20.09.2019
1586 Rain 23 1014 53 10000 4.1 350 14:20 20.09.2019
1587 Clouds 23 1014 53 10000 6.2 360 13:57 20.09.2019
1588 Rain 24 1014 47 10000 4.1 350 13:38 20.09.2019
1589 Rain 24 1014 47 10000 4.1 350 13:20 20.09.2019
1590 Clouds 25 1014 47 10000 3.1 350 12:40 20.09.2019
1591 Clouds 25 1014 47 10000 3.1 350 12:22 20.09.2019
1592 Clouds 25 1014 48 10000 3.1 350 11:50 20.09.2019
1593 Clouds 25 1014 54 10000 3.1 350 11:25 20.09.2019
1594 Clouds 25 1014 51 10000 3.56 32.017 10:58 20.09.2019
1595 Clouds 25 1014 51 10000 3.56 32.017 10:58 20.09.2019
1596 Clouds 25 1014 57 10000 3.56 32.017 10:40 20.09.2019
1597 Clouds 24 1014 57 10000 3.56 32.017 10:21 20.09.2019
1598 Clouds 24 1014 65 10000 3.56 32.017 09:38 20.09.2019
1599 Clouds 23 1013 69 10000 3.08 15.772 09:19 20.09.2019
1600 Clouds 24 1014 65 10000 3.08 15.772 09:19 20.09.2019
1601 Clouds 23 1013 69 10000 3.08 15.772 08:47 20.09.2019
1602 Clouds 23 1013 73 10000 3.08 15.772 08:28 20.09.2019
1603 Clouds 23 1012 69 10000 3.08 15.772 07:58 20.09.2019
1604 Clouds 22 1013 77 9000 2.95 16.398 07:40 20.09.2019
1605 Clouds 22 1013 77 9000 2.95 16.398 07:20 20.09.2019
1606 Drizzle 21 1013 73 9000 2.95 16.398 06:40 20.09.2019
1607 Clouds 21 1013 77 10000 1.94 343.321 06:18 20.09.2019
1608 Clouds 21 1013 77 10000 1.94 343.321 04:31 20.09.2019
1609 Clouds 21 1013 77 10000 1.94 343.321 04:31 20.09.2019
1610 Clouds 21 1013 83 10000 0.34 342.626 03:27 20.09.2019
1611 Clouds 21 1013 83 10000 0.34 342.626 02:18 20.09.2019
1612 Clear 21 1014 78 10000 0.34 342.626 01:39 20.09.2019
1613 Clouds 22 1014 83 10000 1.12 2.605 00:36 20.09.2019
1614 Clouds 22 1014 78 10000 1.21 180.617 23:50 19.09.2019
1615 Clouds 22 1014 78 10000 1.21 180.617 23:28 19.09.2019
1616 Clouds 22 1014 69 10000 1.21 180.617 22:59 19.09.2019
1617 Clouds 22 1014 73 10000 1.21 180.617 22:40 19.09.2019
1618 Clouds 23 1014 73 10000 1.21 180.617 22:21 19.09.2019
1619 Clouds 23 1014 78 10000 1.21 180.617 21:57 19.09.2019
1620 Clouds 23 1014 78 10000 1.21 180.617 21:38 19.09.2019
1621 Clouds 23 1014 73 10000 3.39 191.572 21:19 19.09.2019
1622 Clouds 23 1014 73 10000 3.39 191.572 20:55 19.09.2019
1623 Clouds 23 1014 73 10000 3.39 191.572 20:55 19.09.2019
1624 Clouds 23 1014 69 10000 1.5 0 20:37 19.09.2019
1625 Clouds 23 1014 69 10000 1.5 0 20:18 19.09.2019
1626 Clouds 24 1013 73 10000 1.5 0 19:40 19.09.2019
1627 Clouds 24 1013 73 10000 1.5 0 19:22 19.09.2019
1628 Clouds 24 1013 78 10000 1.5 0 18:59 19.09.2019
1629 Clouds 24 1013 74 10000 2.6 180 18:41 19.09.2019
1630 Clouds 25 1013 74 10000 2.6 180 18:21 19.09.2019
1631 Clouds 26 1012 58 10000 2.1 170 17:42 19.09.2019
1632 Clouds 27 1012 58 10000 2.1 170 17:24 19.09.2019
1633 Clouds 27 1012 48 10000 3.1 180 16:59 19.09.2019
1634 Clouds 27 1012 48 10000 3.1 180 16:59 19.09.2019
1635 Clouds 28 1013 45 10000 3.1 180 16:40 19.09.2019
1636 Clouds 28 1013 45 10000 3.1 180 16:19 19.09.2019
1637 Clouds 28 1013 48 10000 3.6 170 15:40 19.09.2019
1638 Clouds 28 1013 48 10000 3.6 170 15:40 19.09.2019
1639 Clouds 29 1013 48 10000 3.6 170 15:21 19.09.2019
1640 Clouds 28 1013 45 10000 2.6 220 14:57 19.09.2019
1641 Clouds 28 1014 45 10000 3.1 210 14:38 19.09.2019
1642 Clouds 29 1014 45 10000 3.6 210 14:18 19.09.2019
1643 Clouds 28 1014 48 10000 3.6 210 13:40 19.09.2019
1644 Clouds 28 1014 48 10000 3.6 210 13:40 19.09.2019
1645 Clouds 28 1014 48 10000 3.6 210 13:40 19.09.2019
1646 Clouds 28 1014 48 10000 3.6 210 13:21 19.09.2019
1647 Clouds 29 1014 45 10000 3.1 200 12:58 19.09.2019
1648 Clouds 29 1014 38 10000 2.1 200 12:36 19.09.2019
1649 Clouds 28 1016 57 10000 6.2 40 12:18 19.09.2019
1650 Clear 28 1014 42 10000 0.68 278.261 11:41 19.09.2019
1651 Clear 28 1014 42 10000 0.68 278.261 11:21 19.09.2019
1652 Clear 28 1014 42 10000 0.68 278.261 10:58 19.09.2019
1653 Clear 27 1014 45 10000 0.68 278.261 10:38 19.09.2019
1654 Clear 27 1014 45 10000 0.68 278.261 10:20 19.09.2019
1655 Clear 26 1014 51 10000 2.1 330 09:55 19.09.2019
1656 Clear 26 1014 51 10000 0.68 278.261 09:37 19.09.2019
1657 Clear 26 1014 51 10000 2.27 359.823 09:18 19.09.2019
1658 Clear 25 1014 53 10000 2.27 359.823 08:48 19.09.2019
1659 Clear 24 1014 57 10000 2.79 357.208 08:22 19.09.2019
1660 Clear 22 1014 72 10000 2.79 357.208 07:43 19.09.2019
1661 Clear 22 1014 72 10000 2.79 357.208 07:22 19.09.2019
1662 Clear 20 1014 77 10000 2.79 357.208 06:49 19.09.2019
1663 Clear 20 1013 77 10000 2.79 357.208 06:29 19.09.2019
1664 Clear 20 1013 77 10000 3.27 3.069 05:53 19.09.2019
1665 Clear 20 1013 77 10000 3.27 3.069 05:33 19.09.2019
1666 Clear 20 1013 82 10000 3.27 3.069 03:54 19.09.2019
1667 Clear 21 1013 77 10000 2.92 330.926 03:19 19.09.2019
1668 Clear 21 1014 77 10000 3.26 329.229 01:34 19.09.2019
1669 Clear 21 1014 77 10000 3.26 329.229 00:53 19.09.2019
1670 Clear 21 1013 73 10000 2.08 296.553 00:26 19.09.2019
1671 Clear 21 1013 73 10000 2.08 296.553 00:26 19.09.2019
1672 Clear 22 1014 77 10000 2.08 296.553 23:43 18.09.2019
1673 Clear 22 1014 77 10000 2.08 296.553 23:23 18.09.2019
1674 Clear 22 1014 77 10000 2.08 296.553 23:23 18.09.2019
1675 Clear 22 1014 73 10000 2.08 296.553 22:57 18.09.2019
1676 Clear 22 1014 73 10000 2.08 296.553 22:37 18.09.2019
1677 Clear 22 1014 73 10000 2.08 296.553 22:18 18.09.2019
1678 Clear 23 1014 78 10000 2.08 296.553 21:56 18.09.2019
1679 Clear 23 1013 78 10000 1.5 290 21:37 18.09.2019
1680 Clear 23 1013 78 10000 1.5 290 21:18 18.09.2019
1681 Clear 23 1013 78 10000 1.5 320 20:56 18.09.2019
1682 Clear 24 1013 78 10000 1.5 230 20:37 18.09.2019
1683 Clear 24 1013 78 10000 1.5 230 20:19 18.09.2019
1684 Clear 24 1013 73 10000 1.5 200 19:54 18.09.2019
1685 Clear 25 1013 73 10000 2.1 200 19:36 18.09.2019
1686 Clear 25 1013 73 10000 2.1 200 19:18 18.09.2019
1687 Clear 26 1012 61 10000 2.1 190 18:54 18.09.2019
1688 Clouds 25 1012 57 10000 2.1 190 18:36 18.09.2019
1689 Clouds 27 1012 57 10000 2.6 170 18:18 18.09.2019
1690 Clouds 28 1012 58 10000 2.6 190 17:40 18.09.2019
1691 Clouds 28 1012 58 10000 2.6 190 17:19 18.09.2019
1692 Clouds 28 1012 58 10000 2.6 180 16:58 18.09.2019
1693 Clouds 29 1012 58 10000 3.1 180 16:39 18.09.2019
1694 Clouds 29 1012 58 10000 3.1 180 16:21 18.09.2019
1695 Clouds 28 1012 51 10000 2.6 170 15:56 18.09.2019
1696 Clouds 29 1012 48 10000 3.1 170 15:38 18.09.2019
1697 Clouds 29 1012 48 10000 3.1 170 15:20 18.09.2019
1698 Clouds 29 1012 42 10000 4.1 170 14:58 18.09.2019
1699 Clouds 29 1012 42 10000 4.1 160 14:39 18.09.2019
1700 Clouds 30 1012 42 10000 4.1 160 14:21 18.09.2019
1701 Clear 30 1012 40 10000 2.6 170 13:57 18.09.2019
1702 Clear 30 1012 40 10000 2.6 150 13:37 18.09.2019
1703 Clear 30 1013 45 10000 3.1 170 13:18 18.09.2019
1704 Clear 30 1013 45 10000 3.1 190 12:41 18.09.2019
1705 Clear 30 1013 45 10000 3.1 190 12:22 18.09.2019
1706 Clear 29 1013 45 10000 2.6 160 11:40 18.09.2019
1707 Clear 28 1013 45 10000 2.6 160 11:20 18.09.2019
1708 Clear 29 1013 37 10000 2.72 227.341 10:57 18.09.2019
1709 Clear 29 1013 39 10000 2.72 227.341 10:39 18.09.2019
1710 Clear 28 1013 39 10000 2.72 227.341 10:19 18.09.2019
1711 Clear 27 1013 39 10000 2.72 227.341 09:54 18.09.2019
1712 Clear 27 1013 42 10000 2.72 227.341 09:36 18.09.2019
1713 Clear 26 1013 42 10000 2.08 296.874 09:18 18.09.2019
1714 Clear 25 1013 56 10000 1.53 304.887 08:41 18.09.2019
1715 Clear 24 1013 56 10000 1.53 304.887 08:21 18.09.2019
1716 Clear 23 1014 73 10000 1.53 304.887 07:44 18.09.2019
1717 Clear 22 1013 68 10000 1.53 304.887 07:23 18.09.2019
1718 Clear 21 1013 63 10000 1.53 304.887 06:54 18.09.2019
1719 Clear 20 1012 63 10000 1.53 304.887 06:26 18.09.2019
1720 Clear 20 1012 59 10000 2.51 320.235 05:33 18.09.2019
1721 Clear 21 1013 59 10000 2.51 320.235 03:49 18.09.2019
1722 Clear 21 1013 56 10000 1.85 304.499 02:41 18.09.2019
1723 Clear 21 1013 56 10000 1.85 304.499 01:50 18.09.2019
1724 Clear 22 1013 56 10000 1.5 340 00:57 18.09.2019
1725 Clear 22 1013 53 10000 1.5 330 00:34 18.09.2019
1726 Clear 22 1014 56 10000 1.5 340 23:48 17.09.2019
1727 Clear 22 1014 56 10000 2.1 330 23:26 17.09.2019
1728 Clear 22 1014 60 10000 1.5 340 22:59 17.09.2019
1729 Clear 23 1014 60 10000 0.84 96.475 22:41 17.09.2019
1730 Clear 23 1014 60 10000 0.84 96.475 22:22 17.09.2019
1731 Clear 23 1014 60 10000 2.1 340 21:54 17.09.2019
1732 Clear 23 1014 60 10000 0.84 96.475 21:36 17.09.2019
1733 Clear 24 1014 60 10000 2.42 132.525 21:18 17.09.2019
1734 Clear 24 1014 60 10000 2.42 132.525 21:18 17.09.2019
1735 Clear 24 1014 60 10000 2.42 122.606 20:57 17.09.2019
1736 Clear 24 1014 57 10000 2.42 122.606 20:38 17.09.2019
1737 Clear 24 1014 57 10000 2.42 122.606 20:20 17.09.2019
1738 Clear 24 1013 61 10000 2.1 200 19:57 17.09.2019
1739 Clear 25 1013 65 10000 2.1 200 19:38 17.09.2019
1740 Clear 25 1013 65 10000 2.1 200 19:18 17.09.2019
1741 Clear 26 1013 42 10000 2.6 170 18:43 17.09.2019
1742 Clear 26 1013 42 10000 2.6 170 18:22 17.09.2019
1743 Clear 27 1013 48 10000 3.1 180 17:56 17.09.2019
1744 Clear 28 1013 48 10000 3.1 180 17:38 17.09.2019
1745 Clear 28 1013 48 10000 3.1 180 17:19 17.09.2019
1746 Clear 29 1013 51 10000 4.6 180 16:54 17.09.2019
1747 Clear 29 1013 42 10000 4.1 180 16:36 17.09.2019
1748 Clear 29 1013 42 10000 4.1 180 16:18 17.09.2019
1749 Clear 30 1013 40 10000 2.6 180 15:38 17.09.2019
1750 Clear 30 1013 40 10000 2.6 180 15:19 17.09.2019
1751 Clear 30 1013 31 10000 2.6 180 14:56 17.09.2019
1752 Clear 30 1013 31 10000 2.6 180 14:37 17.09.2019
1753 Clear 30 1013 31 10000 2.6 180 14:19 17.09.2019
1754 Clear 30 1014 37 10000 2.6 170 13:43 17.09.2019
1755 Clear 30 1014 40 10000 2.6 170 13:25 17.09.2019
1756 Clear 30 1014 40 10000 2.6 170 12:59 17.09.2019
1757 Clear 30 1014 42 10000 2.6 160 12:38 17.09.2019
1758 Clear 29 1014 42 10000 2.6 160 12:18 17.09.2019
1759 Clear 28 1015 45 10000 2.6 210 11:43 17.09.2019
1760 Clear 28 1015 45 10000 2.6 210 11:25 17.09.2019
1761 Clear 28 1015 37 10000 1 0 10:56 17.09.2019
1762 Clear 28 1015 37 10000 2.74 176.887 10:38 17.09.2019
1763 Clear 27 1015 37 10000 2.74 176.887 10:20 17.09.2019
1764 Clear 26 1015 41 10000 2.74 176.887 09:42 17.09.2019
1765 Clear 25 1015 41 10000 0.48 37.254 09:23 17.09.2019
1766 Clear 25 1015 41 10000 0.48 37.254 08:51 17.09.2019
1767 Clear 25 1015 41 10000 0.48 37.254 08:51 17.09.2019
1768 Clear 24 1015 46 10000 0.54 31.218 08:33 17.09.2019
1769 Clear 24 1015 46 10000 0.54 31.218 08:33 17.09.2019
1770 Clear 23 1015 56 10000 0.54 31.218 07:59 17.09.2019
1771 Clear 22 1015 56 10000 0.54 31.218 07:41 17.09.2019
1772 Clear 21 1015 63 10000 0.54 31.218 07:23 17.09.2019
1773 Clear 20 1014 63 10000 0.54 31.218 06:47 17.09.2019
1774 Clear 19 1014 63 10000 1.8 356.089 06:23 17.09.2019
1775 Clear 19 1014 63 10000 1.8 356.089 05:50 17.09.2019
1776 Clear 20 1014 59 10000 1.8 356.089 04:32 17.09.2019
1777 Clear 20 1014 52 10000 0.63 20.333 02:59 17.09.2019
1778 Clear 20 1014 52 10000 0.63 20.333 02:39 17.09.2019
1779 Clear 21 1014 52 10000 1.6 354.019 01:29 17.09.2019
1780 Clear 21 1014 49 10000 1.6 354.019 00:43 17.09.2019
1781 Clear 22 1015 46 10000 1.04 308.021 23:40 16.09.2019
1782 Clear 22 1015 46 10000 1.04 308.021 23:19 16.09.2019
1783 Clear 22 1015 43 10000 1.04 308.021 22:56 16.09.2019
1784 Clear 22 1015 43 10000 1.04 308.021 22:56 16.09.2019
1785 Clear 22 1015 46 10000 1.04 308.021 22:38 16.09.2019
1786 Clear 22 1015 46 10000 1.04 308.021 22:20 16.09.2019
1787 Clear 22 1015 41 10000 1.04 308.021 21:55 16.09.2019
1788 Clear 23 1014 44 10000 1.04 308.021 21:37 16.09.2019
1789 Clear 23 1014 47 10000 0.56 23.7 21:18 16.09.2019
1790 Clear 23 1014 53 10000 0.16 357.783 20:40 16.09.2019
1791 Clear 24 1014 53 10000 0.16 357.783 20:22 16.09.2019
1792 Clear 24 1014 47 10000 0.16 357.783 19:57 16.09.2019
1793 Clear 24 1014 30 10000 0.16 357.783 19:39 16.09.2019
1794 Clear 25 1014 30 10000 2.6 350 19:19 16.09.2019
1795 Clear 26 1014 30 10000 2.6 350 18:47 16.09.2019
1796 Clear 28 1014 27 10000 2.6 340 18:29 16.09.2019
1797 Clear 27 1013 27 10000 3.1 360 17:58 16.09.2019
1798 Clear 28 1015 39 10000 8.7 40 17:39 16.09.2019
1799 Clear 28 1015 39 10000 8.7 40 17:21 16.09.2019
1800 Clear 28 1015 39 10000 8.7 40 17:21 16.09.2019
1801 Clear 28 1014 27 10000 3.6 340 16:55 16.09.2019
1802 Clear 29 1014 27 10000 3.1 350 16:37 16.09.2019
1803 Clear 29 1014 27 10000 3.1 350 16:18 16.09.2019
1804 Clear 29 1014 27 10000 3.6 360 15:54 16.09.2019
1805 Clear 29 1014 28 10000 3.6 340 15:36 16.09.2019
1806 Clear 29 1014 28 10000 3.6 340 15:18 16.09.2019
1807 Clear 29 1014 29 10000 4.6 340 14:42 16.09.2019
1808 Clear 29 1015 29 10000 3.1 340 14:22 16.09.2019
1809 Clear 29 1015 29 10000 3.1 10 13:57 16.09.2019
1810 Clouds 29 1015 29 10000 3.1 350 13:38 16.09.2019
1811 Clouds 29 1015 29 10000 3.1 350 13:19 16.09.2019
1812 Clear 29 1016 30 10000 3.1 10 12:42 16.09.2019
1813 Clear 28 1017 32 10000 8.2 20 12:24 16.09.2019
1814 Clear 27 1018 31 10000 8.7 20 11:54 16.09.2019
1815 Clear 27 1016 32 10000 3.6 10 11:36 16.09.2019
1816 Clear 27 1016 32 10000 3.6 10 11:18 16.09.2019
1817 Clear 26 1017 41 10000 3.6 330 10:38 16.09.2019
1818 Clear 26 1017 41 10000 3.6 330 10:19 16.09.2019
1819 Clear 26 1017 44 10000 3.6 320 09:57 16.09.2019
1820 Clear 25 1017 47 10000 4.1 340 09:38 16.09.2019
1821 Clear 25 1017 47 10000 4.1 340 09:18 16.09.2019
1822 Clear 24 1017 53 10000 3.6 350 08:42 16.09.2019
1823 Clear 24 1017 53 10000 3.6 350 08:24 16.09.2019
1824 Clear 23 1017 56 10000 3.1 340 07:56 16.09.2019
1825 Clear 22 1017 60 10000 2.1 340 07:37 16.09.2019
1826 Clear 22 1017 60 10000 2.1 340 07:18 16.09.2019
1827 Clear 21 1017 56 10000 3.1 330 06:43 16.09.2019
1828 Clear 21 1017 56 10000 3.1 330 06:25 16.09.2019
1829 Clear 21 1017 60 10000 4.95 345.136 05:44 16.09.2019
1830 Clear 21 1017 60 10000 4.95 345.136 05:25 16.09.2019
1831 Clear 22 1018 60 10000 4.95 345.136 03:52 16.09.2019
1832 Clear 22 1018 60 10000 4.95 345.136 03:52 16.09.2019
1833 Clear 22 1018 49 10000 5 340.141 01:57 16.09.2019
1834 Clear 22 1018 56 10000 4.82 341.851 00:40 16.09.2019
1835 Clear 23 1018 56 10000 5.21 343.843 00:22 16.09.2019
1836 Clouds 23 1019 53 10000 5.21 343.843 23:41 15.09.2019
1837 Clouds 23 1019 53 10000 5.21 343.843 23:21 15.09.2019
1838 Clear 23 1019 50 10000 1.5 0 22:42 15.09.2019
1839 Clear 23 1019 50 10000 1.5 0 22:23 15.09.2019
1840 Clear 23 1019 50 10000 1.5 0 21:58 15.09.2019
1841 Clear 23 1019 50 10000 5.21 343.843 21:40 15.09.2019
1842 Clear 24 1019 50 10000 6.1 352.324 21:22 15.09.2019
1843 Clear 24 1019 47 10000 6.1 352.324 20:59 15.09.2019
1844 Clear 24 1019 47 10000 6.1 352.324 20:59 15.09.2019
1845 Clear 24 1019 47 10000 6.1 352.324 20:59 15.09.2019
1846 Clear 24 1019 41 10000 2.1 330 20:41 15.09.2019
1847 Clear 24 1019 41 10000 2.1 330 20:23 15.09.2019
1848 Clear 24 1019 44 10000 3.1 330 19:45 15.09.2019
1849 Clear 24 1019 41 10000 2.1 360 19:25 15.09.2019
1850 Clouds 25 1018 39 10000 3.1 360 18:55 15.09.2019
1851 Clouds 25 1018 36 10000 6.2 10 18:36 15.09.2019
1852 Clouds 25 1018 36 10000 6.2 10 18:18 15.09.2019
1853 Clouds 25 1018 36 10000 6.2 10 18:18 15.09.2019
1854 Clouds 26 1018 32 10000 5.1 360 17:40 15.09.2019
1855 Clouds 26 1018 32 10000 5.1 360 17:21 15.09.2019
1856 Clouds 27 1018 32 10000 5.1 350 16:55 15.09.2019
1857 Clouds 27 1019 32 10000 5.1 360 16:36 15.09.2019
1858 Clouds 27 1019 32 10000 5.1 360 16:18 15.09.2019
1859 Rain 27 1019 30 10000 6.7 360 15:41 15.09.2019
1860 Rain 28 1019 30 10000 6.7 360 15:21 15.09.2019
1861 Rain 28 1019 30 10000 6.7 360 15:21 15.09.2019
1862 Rain 27 1019 30 10000 6.7 360 14:58 15.09.2019
1863 Clear 27 1019 30 10000 7.2 360 14:40 15.09.2019
1864 Clear 27 1019 30 10000 7.2 360 14:21 15.09.2019
1865 Clear 28 1019 30 10000 6.7 10 13:47 15.09.2019
1866 Rain 27 1019 30 10000 7.2 360 13:25 15.09.2019
1867 Rain 27 1019 28 10000 7.2 360 12:58 15.09.2019
1868 Rain 27 1020 30 10000 7.7 360 12:39 15.09.2019
1869 Rain 27 1020 30 10000 7.7 360 12:19 15.09.2019
1870 Rain 27 1020 28 10000 7.7 350 11:42 15.09.2019
1871 Rain 27 1020 28 10000 7.7 350 11:22 15.09.2019
1872 Rain 27 1020 28 10000 8.7 360 10:59 15.09.2019
1873 Clear 26 1020 28 10000 7.7 360 10:40 15.09.2019
1874 Clear 26 1020 28 10000 7.7 360 10:21 15.09.2019
1875 Rain 26 1020 32 10000 6.2 350 09:42 15.09.2019
1876 Rain 25 1020 32 10000 6.2 350 09:21 15.09.2019
1877 Clear 25 1020 31 10000 4.1 340 08:58 15.09.2019
1878 Clear 25 1020 31 10000 4.1 340 08:58 15.09.2019
1879 Clear 25 1019 33 10000 4.1 330 08:39 15.09.2019
1880 Clear 25 1019 33 10000 4.1 330 08:18 15.09.2019
1881 Clear 25 1019 33 10000 4.1 330 08:18 15.09.2019
1882 Clear 24 1019 33 10000 4.1 340 07:41 15.09.2019
1883 Clear 23 1019 33 10000 3.1 330 06:44 15.09.2019
1884 Clear 23 1018 33 10000 4.1 330 05:35 15.09.2019
1885 Clear 23 1019 33 10000 3.1 300 03:19 15.09.2019
1886 Clear 23 1019 33 10000 2.1 330 02:18 15.09.2019
1887 Clear 23 1019 36 10000 3.1 330 01:36 15.09.2019
1888 Clear 23 1019 36 10000 2.1 330 00:57 15.09.2019
1889 Clear 23 1019 31 10000 2.6 340 00:37 15.09.2019
1890 Clear 24 1019 31 10000 2.6 340 00:18 15.09.2019
1891 Clear 24 1019 33 10000 2.1 350 23:55 14.09.2019
1892 Clear 24 1019 31 10000 2.6 350 23:37 14.09.2019
1893 Clear 24 1019 31 10000 3.1 360 23:19 14.09.2019
1894 Clear 24 1019 31 10000 2.6 350 23:19 14.09.2019
1895 Clear 24 1019 31 10000 3.1 360 22:55 14.09.2019
1896 Clear 24 1019 33 10000 2.1 10 22:37 14.09.2019
1897 Clear 24 1019 33 10000 2.1 10 22:18 14.09.2019
1898 Clear 24 1018 29 10000 2.1 330 21:40 14.09.2019
1899 Clear 25 1018 29 10000 2.1 330 21:20 14.09.2019
1900 Clear 25 1018 29 10000 3.1 330 20:58 14.09.2019
1901 Clear 25 1017 27 10000 2.6 330 20:38 14.09.2019
1902 Clear 25 1017 27 10000 2.6 330 20:20 14.09.2019
1903 Clear 25 1017 26 10000 3.1 330 19:46 14.09.2019
1904 Clear 25 1017 26 10000 2.6 340 19:22 14.09.2019
1905 Clear 26 1017 24 10000 4.1 350 18:58 14.09.2019
1906 Clear 26 1017 23 10000 5.7 350 18:38 14.09.2019
1907 Clear 26 1017 23 10000 5.7 350 18:20 14.09.2019
1908 Clear 27 1017 21 10000 6.7 350 17:45 14.09.2019
1909 Rain 27 1017 21 10000 6.7 350 17:24 14.09.2019
1910 Rain 27 1017 21 10000 7.7 350 16:56 14.09.2019
1911 Rain 27 1017 21 10000 6.7 360 16:38 14.09.2019
1912 Rain 28 1017 21 10000 6.7 360 16:18 14.09.2019
1913 Rain 28 1017 21 10000 7.7 350 15:42 14.09.2019
1914 Rain 28 1017 23 10000 8.7 350 15:23 14.09.2019
1915 Rain 28 1018 23 10000 7.2 350 14:57 14.09.2019
1916 Rain 28 1017 23 10000 8.7 350 14:39 14.09.2019
1917 Rain 28 1017 23 10000 8.7 350 14:18 14.09.2019
1918 Clouds 28 1018 23 10000 8.2 360 13:47 14.09.2019
1919 Rain 28 1018 26 10000 10.3 360 13:22 14.09.2019
1920 Rain 27 1018 26 10000 8.2 350 12:46 14.09.2019
1921 Clouds 27 1018 25 10000 8.7 350 12:24 14.09.2019
1922 Clouds 27 1017 26 10000 9.8 350 11:42 14.09.2019
1923 Clouds 27 1017 26 10000 9.8 350 11:21 14.09.2019
1924 Clear 27 1017 28 10000 9.3 360 10:55 14.09.2019
1925 Clear 27 1018 26 10000 7.2 360 10:36 14.09.2019
1926 Clear 27 1018 26 10000 7.2 360 10:18 14.09.2019
1927 Clear 26 1018 28 10000 7.2 350 09:55 14.09.2019
1928 Clouds 26 1018 28 10000 7.7 360 09:37 14.09.2019
1929 Clouds 26 1018 28 10000 7.7 360 09:18 14.09.2019
1930 Clouds 25 1018 28 10000 6.2 350 08:41 14.09.2019
1931 Clouds 25 1018 29 10000 6.2 330 08:22 14.09.2019
1932 Clouds 24 1017 31 10000 3.6 300 07:43 14.09.2019
1933 Clouds 24 1017 33 10000 4.6 330 07:23 14.09.2019
1934 Clouds 23 1017 36 10000 2.6 300 06:38 14.09.2019
1935 Clouds 23 1017 33 10000 2.6 320 05:55 14.09.2019
1936 Clouds 23 1017 33 10000 4.1 320 04:43 14.09.2019
1937 Clouds 23 1017 31 10000 5.1 340 03:33 14.09.2019
1938 Clouds 23 1017 29 10000 7.2 360 02:51 14.09.2019
1939 Clouds 23 1018 38 10000 4.1 360 01:46 14.09.2019
1940 Clouds 23 1018 41 10000 2.6 330 01:21 14.09.2019
1941 Clouds 23 1018 41 10000 4.1 340 00:55 14.09.2019
1942 Clouds 23 1019 41 10000 3.1 350 00:36 14.09.2019
1943 Clouds 23 1019 41 10000 3.1 350 00:18 14.09.2019
1944 Clouds 23 1019 41 10000 3.1 350 00:18 14.09.2019
1945 Clouds 23 1018 41 10000 3.6 360 23:37 13.09.2019
1946 Clouds 23 1018 41 10000 3.6 360 23:18 13.09.2019
1947 Clouds 24 1018 44 10000 4.1 350 22:56 13.09.2019
1948 Clouds 24 1018 41 10000 3.1 350 22:37 13.09.2019
1949 Clouds 24 1018 41 10000 3.1 350 22:37 13.09.2019
1950 Clouds 24 1018 36 10000 3.6 350 22:19 13.09.2019
1951 Clouds 25 1018 36 10000 4.1 360 21:40 13.09.2019
1952 Clouds 25 1018 36 10000 4.1 360 21:19 13.09.2019
1953 Clouds 25 1017 36 10000 4.1 350 20:58 13.09.2019
1954 Clouds 25 1017 36 10000 5.1 340 20:38 13.09.2019
1955 Clouds 25 1017 36 10000 5.1 340 20:20 13.09.2019
1956 Clouds 25 1017 36 10000 3.6 350 19:56 13.09.2019
1957 Clouds 25 1017 36 10000 4.1 340 19:37 13.09.2019
1958 Clouds 25 1017 36 10000 4.1 340 19:18 13.09.2019
1959 Clouds 25 1017 36 10000 5.1 340 18:54 13.09.2019
1960 Clouds 25 1017 36 10000 6.7 350 18:36 13.09.2019
1961 Clouds 25 1017 36 10000 6.7 350 18:18 13.09.2019
1962 Clouds 25 1017 34 10000 7.7 350 17:37 13.09.2019
1963 Clouds 25 1017 34 10000 7.7 350 17:37 13.09.2019
1964 Clouds 25 1017 34 10000 7.7 350 17:18 13.09.2019
1965 Clouds 25 1017 32 10000 7.2 350 16:41 13.09.2019
1966 Clouds 25 1017 32 10000 8.7 350 16:20 13.09.2019
1967 Clouds 26 1017 30 10000 8.2 10 15:46 13.09.2019
1968 Clouds 26 1017 30 10000 7.7 360 15:28 13.09.2019
1969 Clouds 26 1017 30 10000 8.2 360 14:59 13.09.2019
1970 Clouds 26 1017 36 10000 16.5 30 14:41 13.09.2019
1971 Clouds 26 1017 26 10000 9.3 360 14:22 13.09.2019
1972 Clouds 27 1017 30 10000 8.2 350 13:46 13.09.2019
1973 Clouds 27 1017 30 10000 8.2 350 13:24 13.09.2019
1974 Clouds 26 1017 30 10000 7.7 350 12:58 13.09.2019
1975 Clouds 26 1017 41 10000 6.7 350 12:39 13.09.2019
1976 Clouds 26 1017 41 10000 6.7 350 12:39 13.09.2019
1977 Clouds 26 1017 41 10000 6.7 350 12:21 13.09.2019
1978 Clouds 26 1017 36 10000 7.7 350 11:55 13.09.2019
1979 Clouds 26 1018 47 10000 6.2 340 11:19 13.09.2019
1980 Clouds 25 1018 64 10000 3.1 350 10:39 13.09.2019
1981 Clouds 25 1018 64 10000 3.1 350 10:19 13.09.2019
1982 Clouds 25 1018 64 10000 4.6 330 09:45 13.09.2019
1983 Clouds 24 1018 64 10000 11.23 13.246 09:25 13.09.2019
1984 Clouds 23 1018 68 10000 1.5 0 08:59 13.09.2019
1985 Clouds 23 1018 72 10000 1.5 0 08:40 13.09.2019
1986 Clouds 23 1018 72 10000 1.5 0 08:20 13.09.2019
1987 Clouds 22 1019 47 10000 7.2 340 07:46 13.09.2019
1988 Drizzle 22 1019 53 10000 5.1 340 07:27 13.09.2019
1989 Thunderstorm 21 1019 82 7000 3.1 310 06:48 13.09.2019
1990 Rain 22 1017 60 10000 6.7 330 05:49 13.09.2019
1991 Clouds 23 1017 57 10000 4.1 340 04:59 13.09.2019
1992 Clouds 23 1017 53 10000 3.6 350 03:40 13.09.2019
1993 Clouds 23 1018 56 10000 2.6 360 02:21 13.09.2019
1994 Clouds 23 1018 56 10000 2.1 360 01:59 13.09.2019
1995 Clouds 23 1018 53 10000 2.1 360 01:34 13.09.2019
1996 Clouds 23 1018 53 10000 2.1 360 01:34 13.09.2019
1997 Clouds 23 1018 50 10000 2.6 20 00:58 13.09.2019
1998 Clouds 23 1018 49 10000 2.1 20 00:23 13.09.2019
1999 Clouds 23 1019 47 10000 2.6 330 23:39 12.09.2019
2000 Clouds 23 1019 47 10000 2.6 330 23:20 12.09.2019
2001 Clouds 23 1019 47 10000 3.6 340 22:42 12.09.2019
2002 Clouds 23 1019 47 10000 3.6 340 22:24 12.09.2019
2003 Clouds 23 1019 50 10000 3.6 340 21:57 12.09.2019
2004 Clouds 23 1019 50 10000 3.6 350 21:38 12.09.2019
2005 Clouds 23 1019 50 10000 3.6 350 21:20 12.09.2019
2006 Clouds 23 1019 47 10000 3.6 10 20:57 12.09.2019
2007 Clouds 23 1018 44 10000 2.6 20 20:39 12.09.2019
2008 Clouds 24 1018 42 10000 3.6 10 20:20 12.09.2019
2009 Clouds 23 1018 44 10000 2.6 20 20:20 12.09.2019
2010 Clouds 24 1018 42 10000 3.6 10 19:55 12.09.2019
2011 Clouds 24 1017 42 10000 3.1 360 19:36 12.09.2019
2012 Clouds 24 1017 42 10000 3.1 360 19:18 12.09.2019
2013 Clouds 25 1017 35 10000 4.6 360 18:38 12.09.2019
2014 Clouds 26 1017 35 10000 4.6 360 18:20 12.09.2019
2015 Clouds 26 1017 35 10000 4.6 360 18:20 12.09.2019
2016 Clouds 27 1017 33 10000 4.6 350 17:59 12.09.2019
2017 Clouds 28 1017 30 10000 5.1 340 17:39 12.09.2019
2018 Clouds 28 1017 30 10000 5.1 340 17:19 12.09.2019
2019 Clouds 28 1017 29 10000 5.7 360 16:42 12.09.2019
2020 Clouds 29 1017 29 10000 5.7 360 16:22 12.09.2019
2021 Clouds 29 1017 30 10000 5.1 320 15:58 12.09.2019
2022 Clouds 29 1017 29 10000 6.7 360 15:38 12.09.2019
2023 Clouds 29 1017 29 10000 6.7 360 15:20 12.09.2019
2024 Clouds 29 1018 31 10000 6.2 340 14:44 12.09.2019
2025 Clouds 29 1018 31 10000 6.2 340 14:21 12.09.2019
2026 Clouds 29 1018 31 10000 3.6 350 13:41 12.09.2019
2027 Clouds 29 1018 31 10000 3.6 350 13:23 12.09.2019
2028 Clouds 29 1018 33 10000 5.1 350 12:57 12.09.2019
2029 Clouds 29 1018 35 10000 4.1 360 12:38 12.09.2019
2030 Clouds 28 1018 35 10000 4.1 360 12:18 12.09.2019
2031 Clouds 28 1018 35 10000 3.6 350 11:54 12.09.2019
2032 Clouds 28 1018 35 10000 3.6 20 11:36 12.09.2019
2033 Clouds 28 1018 35 10000 3.6 20 11:18 12.09.2019
2034 Clouds 27 1018 42 10000 3.6 340 10:42 12.09.2019
2035 Clouds 27 1018 42 10000 3.6 340 10:42 12.09.2019
2036 Clouds 27 1018 37 10000 5.1 10 10:42 12.09.2019
2037 Clouds 27 1018 42 10000 3.6 340 10:23 12.09.2019
2038 Clouds 27 1018 47 10000 3.6 340 09:44 12.09.2019
2039 Clouds 25 1018 54 10000 2.1 340 09:20 12.09.2019
2040 Clouds 25 1018 54 10000 2.1 340 08:57 12.09.2019
2041 Clouds 25 1018 53 10000 2.1 330 08:38 12.09.2019
2042 Clouds 24 1018 53 10000 2.1 330 08:20 12.09.2019
2043 Clouds 23 1017 57 10000 5.13 348.896 07:38 12.09.2019
2044 Clouds 22 1017 57 10000 5.13 348.896 07:18 12.09.2019
2045 Clouds 22 1018 53 10000 1.5 0 06:49 12.09.2019
2046 Clouds 22 1018 53 10000 1.5 0 06:49 12.09.2019
2047 Clear 21 1017 53 10000 3.6 340 06:19 12.09.2019
2048 Clear 22 1017 53 10000 3.6 360 05:48 12.09.2019
2049 Clear 22 1017 50 10000 3.6 330 05:27 12.09.2019
2050 Clear 22 1017 50 10000 3.1 330 04:34 12.09.2019
2051 Clear 22 1017 47 10000 2.6 300 01:48 12.09.2019
2052 Clear 22 1017 49 10000 2.1 300 01:30 12.09.2019
2053 Clear 23 1017 49 10000 2.6 340 00:58 12.09.2019
2054 Clear 23 1017 49 10000 4.1 330 00:40 12.09.2019
2055 Clear 23 1017 49 10000 4.1 330 00:22 12.09.2019
2056 Clear 23 1017 47 10000 3.1 330 23:41 11.09.2019
2057 Clear 23 1017 47 10000 3.1 330 23:20 11.09.2019
2058 Clear 23 1017 47 10000 4.69 338.085 22:56 11.09.2019
2059 Clear 23 1017 46 10000 2.6 10 22:37 11.09.2019
2060 Clear 23 1017 46 10000 2.6 10 22:18 11.09.2019
2061 Clear 23 1017 41 10000 2.1 330 21:42 11.09.2019
2062 Clear 23 1017 41 10000 2.1 330 21:24 11.09.2019
2063 Clear 23 1017 41 10000 2.1 340 20:57 11.09.2019
2064 Clear 23 1017 41 10000 2.1 340 20:57 11.09.2019
2065 Clear 23 1016 39 10000 3.1 350 20:39 11.09.2019
2066 Clear 24 1016 39 10000 3.1 350 20:19 11.09.2019
2067 Clear 24 1016 36 10000 4.1 340 19:58 11.09.2019
2068 Clear 24 1015 34 10000 4.1 340 19:39 11.09.2019
2069 Clear 24 1015 34 10000 4.1 340 19:39 11.09.2019
2070 Clear 24 1015 34 10000 4.1 340 19:39 11.09.2019
2071 Clear 24 1015 34 10000 4.1 340 19:21 11.09.2019
2072 Clear 24 1015 36 10000 4.1 350 18:56 11.09.2019
2073 Clouds 25 1015 32 10000 3.6 350 18:38 11.09.2019
2074 Clouds 27 1015 32 10000 3.6 350 18:19 11.09.2019
2075 Clouds 26 1015 32 10000 3.6 350 18:19 11.09.2019
2076 Clouds 27 1015 32 10000 3.6 360 17:55 11.09.2019
2077 Clouds 27 1015 33 10000 4.1 360 17:37 11.09.2019
2078 Clouds 27 1015 33 10000 4.1 360 17:18 11.09.2019
2079 Clouds 27 1015 33 10000 3.6 350 16:42 11.09.2019
2080 Clouds 28 1015 35 10000 3.6 350 16:23 11.09.2019
2081 Clouds 28 1015 35 10000 3.6 350 16:23 11.09.2019
2082 Clouds 27 1015 31 10000 3.6 350 15:47 11.09.2019
2083 Clouds 28 1015 33 10000 5.1 340 15:24 11.09.2019
2084 Clouds 28 1015 33 10000 5.7 350 14:59 11.09.2019
2085 Clouds 28 1015 33 10000 5.7 350 14:41 11.09.2019
2086 -273 0 0 0 0 0 14:21 11.09.2019
2087 Clouds 28 1015 35 10000 4.6 350 13:59 11.09.2019
2088 Clouds 28 1015 35 10000 5.1 350 13:37 11.09.2019
2089 Clouds 28 1015 35 10000 5.1 350 13:37 11.09.2019
2090 Clouds 28 1015 33 10000 6.7 350 13:19 11.09.2019
2091 Clouds 28 1015 35 10000 6.7 340 12:43 11.09.2019
2092 Clouds 28 1015 35 10000 6.7 340 12:22 11.09.2019
2093 Clouds 27 1015 39 10000 6.2 330 11:58 11.09.2019
2094 Clouds 27 1015 39 10000 5.1 340 11:39 11.09.2019
2095 Clouds 27 1015 39 10000 5.1 340 11:39 11.09.2019
2096 Clouds 27 1015 39 10000 5.1 340 11:21 11.09.2019
2097 Clouds 27 1015 42 10000 6.2 350 10:55 11.09.2019
2098 Clouds 27 1015 42 10000 5.7 340 10:37 11.09.2019
2099 Clouds 26 1014 44 10000 5.7 340 10:18 11.09.2019
2100 Clouds 26 1015 50 10000 3.6 340 09:37 11.09.2019
2101 Clouds 25 1015 50 10000 3.6 340 09:19 11.09.2019
2102 Clouds 25 1014 57 10000 4.1 330 08:42 11.09.2019
2103 Clouds 24 1014 57 10000 4.1 330 08:22 11.09.2019
2104 Clouds 24 1014 53 10000 4.1 310 07:57 11.09.2019
2105 Clouds 23 1014 56 10000 1.5 300 07:39 11.09.2019
2106 Clouds 23 1014 56 10000 1.5 300 07:20 11.09.2019
2107 Clouds 21 1014 60 10000 6.9 354.493 06:44 11.09.2019
2108 Clouds 21 1014 60 10000 5.41 337.793 06:21 11.09.2019
2109 Clear 21 1014 60 10000 5.41 337.793 05:35 11.09.2019
2110 Clouds 21 1014 60 10000 5.41 337.793 04:59 11.09.2019
2111 Clouds 22 1013 60 10000 5.41 337.793 04:21 11.09.2019
2112 Clouds 22 1013 53 10000 5.41 337.793 03:29 11.09.2019
2113 Clouds 22 1014 49 10000 3.6 340 02:32 11.09.2019
2114 Clouds 22 1014 49 10000 3.95 352.061 01:33 11.09.2019
2115 Clouds 22 1013 49 10000 1.5 0 00:37 11.09.2019
2116 Clouds 22 1013 49 10000 1.5 0 00:19 11.09.2019
2117 Clouds 22 1013 44 10000 2.6 320 23:40 10.09.2019
2118 Clouds 22 1013 44 10000 2.6 320 23:22 10.09.2019
2119 Clouds 23 1013 44 10000 1.5 0 22:57 10.09.2019
2120 Clouds 23 1013 50 10000 1.5 0 22:37 10.09.2019
2121 Clouds 23 1013 50 10000 1.5 0 22:18 10.09.2019
2122 Clouds 23 1013 44 10000 1.5 0 21:55 10.09.2019
2123 Clouds 23 1013 41 10000 3.66 356.337 21:36 10.09.2019
2124 Clouds 23 1013 41 10000 4.3 344.883 21:18 10.09.2019
2125 Clouds 24 1012 41 10000 1.5 0 20:56 10.09.2019
2126 Clouds 24 1012 41 10000 2.6 350 20:37 10.09.2019
2127 Clouds 24 1012 41 10000 2.6 350 20:18 10.09.2019
2128 Clouds 24 1012 42 10000 2.6 350 19:55 10.09.2019
2129 Clouds 24 1012 42 10000 2.6 350 19:55 10.09.2019
2130 Clouds 25 1012 42 10000 2.6 350 19:36 10.09.2019
2131 Clouds 25 1012 42 10000 2.6 350 19:18 10.09.2019
2132 Clouds 25 1012 42 10000 2.6 350 19:18 10.09.2019
2133 Clouds 25 1011 39 10000 3.97 343.672 18:45 10.09.2019
2134 Clouds 26 1013 47 10000 4.6 20 18:22 10.09.2019
2135 Clouds 27 1011 35 10000 4.1 360 17:59 10.09.2019
2136 Clouds 27 1013 39 10000 9.8 30 17:40 10.09.2019
2137 Clouds 28 1013 39 10000 9.8 30 17:20 10.09.2019
2138 Clouds 28 1013 37 10000 8.2 60 16:57 10.09.2019
2139 Clouds 28 1013 37 10000 5.7 70 16:38 10.09.2019
2140 Clouds 29 1013 37 10000 5.7 70 16:19 10.09.2019
2141 Clouds 28 1013 42 10000 7.2 70 15:44 10.09.2019
2142 Clouds 29 1011 29 10000 5.1 350 15:23 10.09.2019
2143 Clouds 29 1011 29 10000 5.1 350 14:58 10.09.2019
2144 Clouds 29 1013 42 10000 7.2 60 14:39 10.09.2019
2145 Clouds 29 1011 31 10000 5.1 350 14:21 10.09.2019
2146 Clouds 30 1011 33 10000 6.2 340 13:48 10.09.2019
2147 Clouds 30 1012 31 10000 4.1 320 13:24 10.09.2019
2148 Clouds 29 1012 31 10000 5.1 330 12:56 10.09.2019
2149 Clear 29 1012 31 10000 5.1 340 12:37 10.09.2019
2150 Clear 29 1012 33 10000 4.1 340 12:19 10.09.2019
2151 Clear 28 1013 32 10000 4.1 320 11:42 10.09.2019
2152 Clear 28 1013 32 10000 4.1 320 11:22 10.09.2019
2153 Clear 28 1013 35 10000 4.1 330 10:59 10.09.2019
2154 Clear 28 1012 35 10000 3.1 320 10:38 10.09.2019
2155 Clear 27 1012 35 10000 3.1 320 10:18 10.09.2019
2156 Clear 26 1012 39 10000 4.1 340 09:46 10.09.2019
2157 Clear 26 1012 39 10000 4.1 340 09:20 10.09.2019
2158 Clear 25 1014 47 10000 4.6 30 08:57 10.09.2019
2159 Clear 25 1012 44 10000 2.6 320 08:38 10.09.2019
2160 Clear 24 1012 44 10000 2.6 320 08:20 10.09.2019
2161 Clouds 23 1012 49 10000 2.6 320 07:44 10.09.2019
2162 Clouds 23 1012 49 10000 2.6 320 07:25 10.09.2019
2163 Clouds 21 1012 53 10000 2.19 8.045 06:48 10.09.2019
2164 Clouds 21 1012 56 10000 2.19 8.045 06:29 10.09.2019
2165 Clear 21 1012 56 10000 2.48 355.514 04:41 10.09.2019
2166 Clear 21 1012 49 10000 2.01 357.892 02:44 10.09.2019
2167 Clear 22 1012 49 10000 2.01 357.892 02:22 10.09.2019
2168 Clear 22 1012 49 10000 2.01 357.892 02:22 10.09.2019
2169 Clear 22 1012 46 10000 2.01 357.892 01:52 10.09.2019
2170 Clear 22 1012 49 10000 2.17 9.51 01:24 10.09.2019
2171 Clear 22 1012 53 10000 2.17 9.51 00:44 10.09.2019
2172 Clear 22 1012 53 10000 1.63 337.71 00:24 10.09.2019
2173 Clear 23 1013 50 10000 1.63 337.71 23:43 09.09.2019
2174 Clear 22 1013 50 10000 1.63 337.71 23:19 09.09.2019
2175 Clouds 23 1013 50 10000 1.63 337.71 22:56 09.09.2019
2176 Clouds 23 1012 47 10000 1.63 337.71 22:37 09.09.2019
2177 Clouds 23 1012 47 10000 1.63 337.71 22:19 09.09.2019
2178 Clouds 23 1012 38 10000 1.63 337.71 21:56 09.09.2019
2179 Clouds 23 1012 39 10000 1.63 337.71 21:37 09.09.2019
2180 Clouds 24 1012 39 10000 1.87 271.103 21:19 09.09.2019
2181 Clouds 24 1012 47 10000 1.87 271.103 20:55 09.09.2019
2182 Clouds 24 1012 34 10000 2.22 256.61 20:37 09.09.2019
2183 Clouds 25 1012 34 10000 2.22 256.61 20:18 09.09.2019
2184 Clouds 25 1012 34 10000 2.22 256.61 20:18 09.09.2019
2185 Clouds 25 1012 34 10000 2.22 256.61 19:56 09.09.2019
2186 Clouds 25 1012 34 10000 2.22 256.61 19:56 09.09.2019
2187 Clouds 25 1011 34 10000 2.22 256.61 19:38 09.09.2019
2188 Clouds 25 1011 35 10000 2.22 256.61 19:19 09.09.2019
2189 Clouds 25 1011 35 10000 2.22 256.61 18:56 09.09.2019
2190 Clouds 25 1011 33 10000 4.6 20 18:38 09.09.2019
2191 Clear 26 1013 50 10000 7.7 30 18:19 09.09.2019
2192 Clear 27 1013 47 10000 8.7 30 17:56 09.09.2019
2193 Clear 27 1013 47 10000 10.8 30 17:38 09.09.2019
2194 Clear 27 1013 47 10000 10.8 30 17:20 09.09.2019
2195 Clear 28 1013 44 10000 11.3 50 16:55 09.09.2019
2196 Clear 28 1013 44 10000 11.3 50 16:55 09.09.2019
2197 Clear 28 1013 39 10000 10.8 60 16:37 09.09.2019
2198 Clear 28 1013 39 10000 10.8 60 16:37 09.09.2019
2199 Clouds 28 1013 36 10000 10.8 50 16:18 09.09.2019
2200 Clouds 28 1011 31 10000 3.1 350 15:44 09.09.2019
2201 Clouds 29 1011 31 10000 3.1 350 15:24 09.09.2019
2202 Clouds 29 1012 33 10000 2.6 20 14:59 09.09.2019
2203 Clouds 29 1012 31 10000 3.1 10 14:40 09.09.2019
2204 Clouds 29 1012 31 10000 3.1 10 14:22 09.09.2019
2205 Clouds 29 1012 31 10000 4.1 10 13:57 09.09.2019
2206 Clouds 29 1012 35 10000 4.1 360 13:39 09.09.2019
2207 Clouds 29 1013 35 10000 4.1 340 13:18 09.09.2019
2208 Clouds 29 1013 35 10000 4.1 340 12:55 09.09.2019
2209 Clouds 29 1013 35 10000 5.1 320 12:36 09.09.2019
2210 Clouds 28 1013 35 10000 4.6 350 12:18 09.09.2019
2211 Clouds 28 1013 37 10000 4.1 330 11:43 09.09.2019
2212 Clouds 28 1013 37 10000 4.1 330 11:20 09.09.2019
2213 Clouds 28 1013 39 10000 4.6 340 10:57 09.09.2019
2214 Clear 27 1013 42 10000 5.1 330 10:38 09.09.2019
2215 Clear 27 1014 39 10000 3.6 340 10:19 09.09.2019
2216 Clear 27 1014 42 10000 5.1 330 09:48 09.09.2019
2217 Clear 26 1014 42 10000 5.1 330 09:28 09.09.2019
2218 Clear 25 1013 44 10000 4.1 330 08:57 09.09.2019
2219 Clear 25 1013 50 10000 4.1 320 08:38 09.09.2019
2220 Clear 24 1013 50 10000 4.1 320 08:19 09.09.2019
2221 Clear 24 1014 50 10000 2.6 310 07:41 09.09.2019
2222 Clear 23 1014 50 10000 2.6 310 07:21 09.09.2019
2223 Clear 22 1014 56 10000 2.1 290 06:54 09.09.2019
2224 Clear 22 1014 56 10000 2.1 290 06:54 09.09.2019
2225 Clear 22 1014 56 10000 2.1 290 06:54 09.09.2019
2226 Clear 22 1013 56 10000 4.21 0.082 06:27 09.09.2019
2227 Clouds 22 1014 38 10000 2.46 359.372 03:21 09.09.2019
2228 Clouds 23 1014 33 10000 2.46 359.372 02:42 09.09.2019
2229 Clouds 23 1014 33 10000 2.57 5.868 01:25 09.09.2019
2230 Clouds 23 1014 29 10000 1.57 331.357 00:25 09.09.2019
2231 Clouds 23 1014 29 10000 1.57 331.357 23:58 08.09.2019
2232 Clouds 23 1014 27 10000 1.57 331.357 23:39 08.09.2019
2233 Clouds 24 1014 27 10000 1.57 331.357 23:21 08.09.2019
2234 Clouds 24 1014 29 10000 1.57 331.357 22:41 08.09.2019
2235 Clouds 24 1014 29 10000 1.57 331.357 22:23 08.09.2019
2236 Clouds 24 1014 27 10000 1.5 0 21:59 08.09.2019
2237 Clouds 24 1014 27 10000 2.1 320 21:40 08.09.2019
2238 Clouds 25 1014 27 10000 2.1 320 21:22 08.09.2019
2239 Clouds 25 1014 28 10000 1.5 0 20:56 08.09.2019
2240 Clouds 25 1014 28 10000 1.73 310.738 20:37 08.09.2019
2241 Clouds 25 1014 28 10000 2.6 320 20:19 08.09.2019
2242 Clouds 25 1014 28 10000 2.6 320 19:56 08.09.2019
2243 Clouds 26 1014 26 10000 1.5 0 19:37 08.09.2019
2244 Clouds 26 1014 26 10000 1.5 0 19:18 08.09.2019
2245 Clear 27 1013 28 10000 2.6 10 18:55 08.09.2019
2246 Clouds 26 1013 33 10000 5.1 360 18:37 08.09.2019
2247 Clouds 28 1013 33 10000 3.6 360 18:18 08.09.2019
2248 Clouds 28 1013 31 10000 5.1 340 17:38 08.09.2019
2249 Clouds 29 1013 31 10000 5.1 340 17:19 08.09.2019
2250 Clouds 29 1013 31 10000 5.1 330 16:59 08.09.2019
2251 Clouds 29 1015 28 10000 8.2 60 16:40 08.09.2019
2252 Clouds 29 1015 28 10000 8.2 60 16:21 08.09.2019
2253 Clouds 29 1015 28 10000 8.7 60 15:57 08.09.2019
2254 Clouds 29 1015 28 10000 8.7 60 15:57 08.09.2019
2255 Clouds 29 1015 30 10000 7.7 70 15:39 08.09.2019
2256 Clouds 29 1015 30 10000 7.7 70 15:20 08.09.2019
2257 Clouds 29 1013 29 10000 4.1 350 14:54 08.09.2019
2258 Clouds 29 1013 29 10000 3.6 330 14:36 08.09.2019
2259 Clouds 30 1013 29 10000 3.6 330 14:18 08.09.2019
2260 Clouds 29 1014 29 10000 4.1 340 13:54 08.09.2019
2261 Clouds 29 1014 29 10000 4.1 330 13:36 08.09.2019
2262 Clouds 29 1014 33 10000 3.1 360 13:18 08.09.2019
2263 Clouds 29 1014 33 10000 3.6 340 12:41 08.09.2019
2264 Clouds 29 1014 33 10000 3.6 340 12:22 08.09.2019
2265 Clouds 29 1014 33 10000 3.6 340 12:22 08.09.2019
2266 Clouds 29 1014 33 10000 3.6 340 11:58 08.09.2019
2267 Clouds 28 1014 35 10000 5.1 330 11:38 08.09.2019
2268 Clouds 28 1014 35 10000 5.1 330 11:19 08.09.2019
2269 Clear 28 1014 37 10000 4.6 340 10:55 08.09.2019
2270 Clear 28 1014 35 10000 3.1 320 10:36 08.09.2019
2271 Clear 27 1014 35 10000 3.1 320 10:18 08.09.2019
2272 Clear 27 1015 37 10000 2.6 360 09:38 08.09.2019
2273 Clear 27 1015 37 10000 2.6 360 09:19 08.09.2019
2274 Clear 26 1016 47 0 0.89 274 08:56 08.09.2019
2275 Clear 26 1014 44 10000 2.6 340 08:36 08.09.2019
2276 Clear 25 1014 44 10000 2.6 340 08:18 08.09.2019
2277 Clear 24 1014 49 10000 2.1 330 07:38 08.09.2019
2278 Clear 23 1014 49 10000 2.1 330 07:20 08.09.2019
2279 Clear 22 1014 56 10000 3.08 8.12 06:45 08.09.2019
2280 Clear 22 1014 49 10000 2.98 359.077 05:48 08.09.2019
2281 Clear 22 1014 49 10000 2.98 359.077 05:29 08.09.2019
2282 Clear 22 1014 49 10000 2.98 359.077 03:51 08.09.2019
2283 Clear 22 1015 43 10000 2.33 6.446 02:53 08.09.2019
2284 Clear 22 1014 49 10000 2.33 6.446 02:25 08.09.2019
2285 Clear 22 1015 45 10000 2.1 10.18 01:34 08.09.2019
2286 Clear 22 1015 45 10000 2.1 10.18 01:34 08.09.2019
2287 Clear 23 1014 41 10000 2.1 10.18 00:57 08.09.2019
2288 Clear 23 1014 38 10000 2.1 10.18 00:37 08.09.2019
2289 Clear 23 1014 41 10000 2.09 321.849 00:19 08.09.2019
2290 Clear 23 1014 41 10000 2.09 321.849 23:38 07.09.2019
2291 Clear 23 1014 41 10000 2.09 321.849 23:19 07.09.2019
2292 Clouds 24 1014 36 10000 2.09 321.849 22:57 07.09.2019
2293 Clear 24 1014 34 10000 2.09 321.849 22:37 07.09.2019
2294 Clear 24 1014 34 10000 2.09 321.849 22:19 07.09.2019
2295 Clear 24 1014 36 10000 2.09 321.849 21:41 07.09.2019
2296 Clear 24 1014 36 10000 1 334.966 21:23 07.09.2019
2297 Clear 25 1014 39 10000 1.22 174.089 20:54 07.09.2019
2298 Clear 25 1014 39 10000 1.22 174.089 20:36 07.09.2019
2299 Clear 25 1013 37 10000 1.22 174.089 20:18 07.09.2019
2300 Clear 25 1013 37 10000 1.22 174.089 19:54 07.09.2019
2301 Clear 25 1013 37 10000 2.6 360 19:36 07.09.2019
2302 Clear 26 1013 35 10000 2.6 350 19:18 07.09.2019
2303 Clear 26 1013 35 10000 2.6 350 18:54 07.09.2019
2304 Clear 27 1013 33 10000 2.6 360 18:36 07.09.2019
2305 Clear 27 1013 33 10000 3.1 350 18:18 07.09.2019
2306 Clear 28 1013 31 10000 3.1 340 17:41 07.09.2019
2307 Clear 29 1014 34 10000 8.2 60 17:19 07.09.2019
2308 Clear 29 1013 31 10000 3.1 350 16:59 07.09.2019
2309 Clear 29 1013 29 10000 3.1 350 16:41 07.09.2019
2310 Clear 29 1013 29 10000 3.1 350 16:20 07.09.2019
2311 Clear 29 1015 34 10000 9.8 50 15:48 07.09.2019
2312 Clear 29 1013 29 10000 4.1 340 15:26 07.09.2019
2313 Clear 29 1013 29 10000 4.1 340 15:26 07.09.2019
2314 Clear 29 1013 29 10000 4.6 330 14:58 07.09.2019
2315 Clear 29 1013 27 10000 5.1 360 14:37 07.09.2019
2316 Clear 29 1013 29 10000 3.1 330 14:19 07.09.2019
2317 Clear 29 1013 29 10000 3.1 330 13:58 07.09.2019
2318 Clear 29 1014 29 10000 2.6 10 13:40 07.09.2019
2319 Clear 29 1014 29 10000 2.6 10 13:22 07.09.2019
2320 Clear 29 1014 29 10000 3.6 340 12:44 07.09.2019
2321 Clear 29 1014 29 10000 3.6 340 12:26 07.09.2019
2322 Clear 28 1014 30 10000 2.6 350 11:58 07.09.2019
2323 Clear 28 1014 32 10000 2.6 330 11:39 07.09.2019
2324 Clear 28 1014 32 10000 2.6 330 11:19 07.09.2019
2325 Clear 27 1015 35 10000 3.1 350 10:41 07.09.2019
2326 Clear 27 1015 35 10000 3.1 350 10:41 07.09.2019
2327 Clear 27 1015 35 10000 3.1 350 10:22 07.09.2019
2328 Clear 26 1015 39 10000 4.1 330 09:56 07.09.2019
2329 Clouds 26 1015 39 10000 3.6 340 09:38 07.09.2019
2330 Clouds 26 1015 39 10000 3.6 340 09:20 07.09.2019
2331 Clouds 26 1015 39 10000 3.6 340 09:20 07.09.2019
2332 Clouds 25 1014 44 10000 3.6 340 08:44 07.09.2019
2333 Clouds 24 1014 44 10000 3.6 340 08:26 07.09.2019
2334 Clouds 24 1014 50 10000 2.6 350 07:48 07.09.2019
2335 Clouds 23 1014 53 10000 2.1 360 07:28 07.09.2019
2336 Clear 22 1014 53 10000 3.51 3.836 06:53 07.09.2019
2337 Clear 22 1014 56 10000 4.1 350 06:29 07.09.2019
2338 Clear 22 1014 56 10000 4.1 350 05:32 07.09.2019
2339 Clear 22 1014 50 10000 3.6 340 04:23 07.09.2019
2340 Clear 23 1014 46 10000 2.73 10.613 02:57 07.09.2019
2341 Clear 23 1014 44 10000 2.6 330 02:21 07.09.2019
2342 Clear 23 1014 41 10000 3.1 330 01:26 07.09.2019
2343 Clear 23 1014 44 10000 2.93 11.728 00:44 07.09.2019
2344 Clear 23 1014 44 10000 3.18 0.09 00:21 07.09.2019
2345 Clear 24 1014 44 10000 3.18 0.09 23:43 06.09.2019
2346 Clear 24 1014 44 10000 3.18 0.09 23:23 06.09.2019
2347 Clear 24 1014 41 10000 3.18 0.09 22:59 06.09.2019
2348 Clear 24 1014 41 10000 3.18 0.09 22:40 06.09.2019
2349 Clear 24 1014 41 10000 3.18 0.09 22:19 06.09.2019
2350 Clear 24 1013 39 10000 3.18 0.09 21:59 06.09.2019
2351 Clear 24 1013 39 10000 3.18 0.09 21:40 06.09.2019
2352 Clear 25 1013 39 10000 3.59 11.489 21:22 06.09.2019
2353 Clear 25 1013 39 10000 3.59 11.489 20:59 06.09.2019
2354 Clear 25 1013 37 10000 3.1 10 20:40 06.09.2019
2355 Clear 25 1013 37 10000 3.1 10 20:21 06.09.2019
2356 Clear 25 1013 37 10000 3.1 10 20:21 06.09.2019
2357 Clear 25 1012 37 10000 5.1 10 19:58 06.09.2019
2358 Clear 26 1012 37 10000 5.1 10 19:39 06.09.2019
2359 Clear 26 1012 37 10000 5.1 10 19:20 06.09.2019
2360 Clear 26 1012 37 10000 5.1 10 19:20 06.09.2019
2361 Clouds 26 1012 35 10000 5.1 10 18:47 06.09.2019
2362 Clouds 27 1012 35 10000 5.1 10 18:28 06.09.2019
2363 Clouds 28 1012 33 10000 4.1 360 17:59 06.09.2019
2364 Clouds 29 1012 31 10000 4.1 360 17:38 06.09.2019
2365 Clouds 29 1012 29 10000 4.1 360 17:19 06.09.2019
2366 Clouds 29 1012 29 10000 3.1 360 16:42 06.09.2019
2367 Clear 29 1013 35 10000 10.3 50 16:19 06.09.2019
2368 Clear 29 1013 35 10000 10.3 50 15:59 06.09.2019
2369 Clear 29 1014 35 10000 9.3 30 15:39 06.09.2019
2370 Clear 29 1014 35 10000 9.3 30 15:21 06.09.2019
2371 Clear 29 1014 33 10000 10.3 40 14:40 06.09.2019
2372 Clouds 29 1012 31 10000 4.6 10 14:18 06.09.2019
2373 Clouds 30 1012 31 10000 5.1 350 13:43 06.09.2019
2374 Clouds 30 1012 31 10000 5.1 350 13:22 06.09.2019
2375 Clouds 30 1012 31 10000 5.1 350 13:22 06.09.2019
2376 Clouds 29 1012 31 10000 3.1 360 12:41 06.09.2019
2377 Clear 29 1014 35 10000 8.7 20 12:23 06.09.2019
2378 Clouds 29 1012 33 10000 4.6 340 11:59 06.09.2019
2379 Clouds 29 1012 33 10000 4.1 350 11:40 06.09.2019
2380 Clear 28 1014 39 10000 9.3 20 11:22 06.09.2019
2381 Clear 28 1012 35 10000 4.1 340 10:56 06.09.2019
2382 Clear 28 1012 45 10000 5.1 340 10:38 06.09.2019
2383 Clouds 28 1012 51 10000 4.1 340 10:18 06.09.2019
2384 Clouds 27 1012 54 10000 4.1 320 09:38 06.09.2019
2385 Clouds 26 1012 54 10000 3.1 340 09:19 06.09.2019
2386 Clouds 26 1012 54 10000 3.1 340 08:55 06.09.2019
2387 Clouds 26 1012 54 10000 3.1 340 08:55 06.09.2019
2388 Clouds 26 1011 57 10000 5.1 330 08:37 06.09.2019
2389 Clouds 26 1011 57 10000 5.1 330 08:18 06.09.2019
2390 Clouds 26 1011 57 10000 5.1 330 08:18 06.09.2019
2391 Clouds 25 1011 57 10000 2.6 330 07:42 06.09.2019
2392 Clouds 25 1011 57 10000 2.6 330 07:42 06.09.2019
2393 Clouds 25 1011 57 10000 2.6 330 07:23 06.09.2019
2394 Clouds 24 1011 57 10000 2.1 330 06:43 06.09.2019
2395 Clouds 23 1010 57 10000 3.6 320 05:58 06.09.2019
2396 Clouds 23 1010 57 10000 2.6 320 04:58 06.09.2019
2397 Clouds 23 1010 57 10000 1.5 0 04:33 06.09.2019
2398 Clouds 24 1010 57 10000 2.1 320 03:39 06.09.2019
2399 Clouds 24 1010 60 10000 3.1 310 01:49 06.09.2019
2400 Clouds 24 1010 57 10000 3.6 310 00:24 06.09.2019
2401 Clouds 24 1010 57 10000 2.1 310 23:44 05.09.2019
2402 Clouds 24 1010 57 10000 2.1 310 23:24 05.09.2019
2403 Clouds 24 1010 57 10000 2.1 330 22:54 05.09.2019
2404 Clouds 25 1010 57 10000 2.6 320 22:36 05.09.2019
2405 Clouds 25 1010 57 10000 3.6 330 22:18 05.09.2019
2406 Clouds 25 1010 57 10000 3.6 330 21:55 05.09.2019
2407 Clouds 24 1010 54 10000 2.6 330 21:37 05.09.2019
2408 Clouds 25 1010 54 10000 2.6 330 21:19 05.09.2019
2409 Clouds 25 1010 54 10000 3.6 330 20:54 05.09.2019
2410 Clouds 25 1009 51 10000 3.6 330 20:36 05.09.2019
2411 Clouds 25 1009 51 10000 3.6 340 20:18 05.09.2019
2412 Clouds 25 1009 45 10000 3.1 350 19:41 05.09.2019
2413 Clouds 26 1009 45 10000 3.1 350 19:22 05.09.2019
2414 Clouds 26 1008 42 10000 3.1 350 18:57 05.09.2019
2415 Clouds 26 1008 42 10000 3.1 350 18:57 05.09.2019
2416 Clouds 26 1008 42 10000 4.6 340 18:38 05.09.2019
2417 Clouds 27 1008 37 10000 3.6 350 18:19 05.09.2019
2418 Clouds 28 1008 37 10000 5.1 340 17:41 05.09.2019
2419 Clouds 28 1008 37 10000 5.1 340 17:22 05.09.2019
2420 Clouds 28 1008 35 10000 5.7 350 16:58 05.09.2019
2421 Clouds 28 1008 37 10000 6.2 330 16:40 05.09.2019
2422 Clouds 28 1008 33 10000 4.6 340 16:20 05.09.2019
2423 Clouds 28 1008 33 10000 4.6 340 15:56 05.09.2019
2424 Clouds 28 1008 35 10000 6.2 330 15:37 05.09.2019
2425 Clouds 29 1008 35 10000 6.2 330 15:18 05.09.2019
2426 Clouds 29 1008 33 10000 4.6 340 14:42 05.09.2019
2427 Clouds 29 1008 33 10000 4.6 340 14:21 05.09.2019
2428 Clouds 29 1008 31 10000 5.1 350 13:44 05.09.2019
2429 Clouds 29 1008 37 10000 5.1 340 13:23 05.09.2019
2430 Clouds 29 1008 37 10000 5.1 340 12:58 05.09.2019
2431 Clouds 29 1008 35 10000 5.1 340 12:40 05.09.2019
2432 Clouds 28 1008 35 10000 5.1 340 12:21 05.09.2019
2433 Clouds 28 1009 37 10000 6.2 350 11:43 05.09.2019
2434 Clouds 28 1009 37 10000 6.2 350 11:20 05.09.2019
2435 Clouds 28 1009 45 10000 6.7 340 10:43 05.09.2019
2436 Clouds 27 1009 45 10000 6.7 340 10:23 05.09.2019
2437 Clouds 27 1009 45 10000 6.7 340 10:23 05.09.2019
2438 Clouds 27 1009 45 10000 6.7 340 10:23 05.09.2019
2439 Clouds 27 1009 45 10000 6.7 340 10:23 05.09.2019
2440 Clouds 27 1009 45 10000 5.1 340 09:59 05.09.2019
2441 Clouds 27 1009 51 10000 5.1 330 09:40 05.09.2019
2442 Clouds 27 1009 51 10000 5.1 330 09:40 05.09.2019
2443 Clouds 26 1009 51 10000 5.1 330 09:20 05.09.2019
2444 Clouds 26 1008 54 10000 3.1 330 08:46 05.09.2019
2445 Clouds 25 1008 54 10000 3.1 330 08:28 05.09.2019
2446 Clouds 25 1008 54 10000 3.1 330 08:28 05.09.2019
2447 Clouds 24 1008 61 10000 2.1 330 07:56 05.09.2019
2448 Clouds 24 1008 61 10000 2.1 330 07:56 05.09.2019
2449 Clouds 24 1008 57 10000 2.6 340 07:37 05.09.2019
2450 Clouds 23 1008 64 10000 3.6 330 07:19 05.09.2019
2451 Clear 23 1008 60 10000 3.6 330 06:44 05.09.2019
2452 Clear 23 1008 60 10000 3.6 330 06:22 05.09.2019
2453 Clear 23 1008 53 10000 4.6 330 05:42 05.09.2019
2454 Clear 23 1008 53 10000 4.6 330 05:23 05.09.2019
2455 Clear 23 1008 47 10000 5.1 340 04:30 05.09.2019
2456 Clear 24 1009 53 10000 6.7 20 03:46 05.09.2019
2457 Clear 24 1008 42 10000 4.6 340 02:56 05.09.2019
2458 Clear 24 1008 44 10000 5.1 350 02:28 05.09.2019
2459 Clear 24 1008 44 10000 5.1 350 02:28 05.09.2019
2460 Clear 25 1009 41 10000 4.6 330 01:48 05.09.2019
2461 Clear 25 1009 41 10000 4.6 330 00:52 05.09.2019
2462 Clear 25 1009 39 10000 3.6 340 00:27 05.09.2019
2463 Clear 25 1009 36 10000 3.6 330 23:59 04.09.2019
2464 Clear 25 1009 36 10000 3.6 330 23:39 04.09.2019
2465 Clear 26 1009 36 10000 3.6 330 23:21 04.09.2019
2466 Clear 26 1009 36 10000 4.1 320 22:47 04.09.2019
2467 Clear 26 1009 36 10000 4.1 340 22:20 04.09.2019
2468 Clear 26 1009 36 10000 4.1 340 21:55 04.09.2019
2469 Clear 26 1009 36 10000 4.1 340 21:55 04.09.2019
2470 Clear 26 1009 36 10000 4.1 340 21:55 04.09.2019
2471 Clear 26 1010 36 10000 4.6 330 21:37 04.09.2019
2472 Clear 26 1010 36 10000 4.6 330 21:18 04.09.2019
2473 Clear 26 1009 36 10000 3.6 340 20:54 04.09.2019
2474 Clear 26 1009 36 10000 2.6 330 20:36 04.09.2019
2475 Clear 27 1009 34 10000 2.6 350 20:18 04.09.2019
2476 Clear 27 1009 32 10000 4.1 330 19:40 04.09.2019
2477 Clear 27 1009 32 10000 4.1 330 19:21 04.09.2019
2478 Clear 27 1009 30 10000 6.2 330 18:42 04.09.2019
2479 Clear 28 1009 30 10000 6.2 330 18:24 04.09.2019
2480 Clear 28 1009 30 10000 6.2 330 18:24 04.09.2019
2481 Clear 28 1009 28 10000 5.1 330 17:59 04.09.2019
2482 Clear 29 1009 28 10000 5.1 330 17:40 04.09.2019
2483 Clear 29 1009 28 10000 5.1 330 17:21 04.09.2019
2484 Clear 29 1009 28 10000 5.1 330 17:21 04.09.2019
2485 Clear 29 1010 32 10000 11.8 30 16:56 04.09.2019
2486 Clear 29 1006 27 10000 5.7 330 16:38 04.09.2019
2487 Clear 29 1006 27 10000 5.7 330 16:19 04.09.2019
2488 Clear 30 1009 22 10000 6.7 330 15:40 04.09.2019
2489 Clear 30 1009 22 10000 6.7 330 15:22 04.09.2019
2490 Clear 30 1009 22 10000 5.1 350 14:58 04.09.2019
2491 Clear 30 1009 25 10000 6.2 340 14:38 04.09.2019
2492 Clear 30 1009 25 10000 6.2 340 14:20 04.09.2019
2493 Clear 30 1009 22 10000 6.2 350 13:58 04.09.2019
2494 Clear 30 1009 25 10000 6.7 340 13:39 04.09.2019
2495 Clear 30 1009 25 10000 6.7 340 13:21 04.09.2019
2496 Clear 30 1010 27 10000 7.7 340 12:44 04.09.2019
2497 Clear 30 1010 27 10000 7.7 340 12:26 04.09.2019
2498 Clear 29 1010 27 10000 6.2 340 11:58 04.09.2019
2499 Clear 29 1010 27 10000 5.1 350 11:38 04.09.2019
2500 Clear 29 1010 27 10000 5.1 350 11:19 04.09.2019
2501 Clear 29 1011 28 10000 6.2 350 10:55 04.09.2019
2502 Clear 28 1011 30 10000 4.6 350 10:36 04.09.2019
2503 Clear 28 1011 30 10000 4.6 350 10:18 04.09.2019
2504 Clear 28 1011 42 10000 3.6 350 09:42 04.09.2019
2505 Clear 27 1011 44 10000 1.5 0 09:20 04.09.2019
2506 Clear 27 1010 44 10000 1.5 0 08:42 04.09.2019
2507 Clear 26 1010 44 10000 1.5 0 08:24 04.09.2019
2508 Clear 26 1010 44 10000 1.5 0 07:58 04.09.2019
2509 Clear 25 1010 47 10000 3.6 320 07:35 04.09.2019
2510 Clear 24 1010 44 10000 2.6 330 06:53 04.09.2019
2511 Clear 24 1010 41 10000 3.1 340 06:33 04.09.2019
2512 Clear 23 1010 38 10000 6.06 342.515 04:54 04.09.2019
2513 Clear 23 1010 38 10000 6.06 342.515 04:22 04.09.2019
2514 Clear 23 1011 31 10000 4.62 344.811 02:46 04.09.2019
2515 Clear 24 1011 33 10000 2.6 340 01:18 04.09.2019
2516 Clear 24 1011 33 10000 3.1 340 00:41 04.09.2019
2517 Clear 24 1011 33 10000 3.1 340 00:22 04.09.2019
2518 Clear 24 1011 33 10000 3.1 340 00:22 04.09.2019
2519 Clear 24 1011 29 10000 3.1 340 23:48 03.09.2019
2520 Clear 24 1011 29 10000 3.1 340 23:26 03.09.2019
2521 Clear 25 1011 27 10000 2.6 340 22:41 03.09.2019
2522 Clear 25 1011 27 10000 2.6 340 22:23 03.09.2019
2523 Clear 25 1011 29 10000 3.25 351.623 21:59 03.09.2019
2524 Clear 25 1011 29 10000 3.25 351.623 21:38 03.09.2019
2525 Clear 26 1011 28 10000 2.1 360 21:20 03.09.2019
2526 Clear 26 1011 28 10000 2.1 360 20:56 03.09.2019
2527 Clear 26 1011 28 10000 2.1 360 20:38 03.09.2019
2528 Clear 26 1011 28 10000 2.1 360 20:20 03.09.2019
2529 Clear 27 1010 25 10000 2.1 350 19:55 03.09.2019
2530 Clouds 27 1010 25 10000 4.1 330 19:36 03.09.2019
2531 Clouds 28 1010 23 10000 4.1 330 19:18 03.09.2019
2532 Clouds 28 1010 22 10000 3.1 350 18:41 03.09.2019
2533 Clouds 29 1010 22 10000 3.1 350 18:23 03.09.2019
2534 Clouds 30 1010 21 10000 5.1 330 17:56 03.09.2019
2535 Clouds 30 1010 21 10000 5.1 350 17:38 03.09.2019
2536 Clouds 30 1010 19 10000 6.7 340 17:19 03.09.2019
2537 Clouds 31 1010 19 10000 5.1 340 16:43 03.09.2019
2538 Clouds 31 1010 19 10000 5.1 340 16:43 03.09.2019
2539 Clouds 30 1010 21 10000 6.2 350 16:23 03.09.2019
2540 Clouds 31 1010 21 10000 6.2 350 15:58 03.09.2019
2541 Clouds 31 1010 21 10000 6.7 350 15:38 03.09.2019
2542 Clouds 31 1010 21 10000 6.7 350 15:20 03.09.2019
2543 Clouds 31 1010 24 10000 7.2 350 14:56 03.09.2019
2544 Clouds 31 1010 24 10000 6.2 350 14:37 03.09.2019
2545 Clouds 31 1010 24 10000 6.2 350 14:19 03.09.2019
2546 Clouds 31 1011 25 10000 4.1 340 13:56 03.09.2019
2547 Clouds 31 1010 25 10000 4.1 350 13:37 03.09.2019
2548 Clouds 31 1010 25 10000 4.1 350 13:37 03.09.2019
2549 Clouds 31 1010 25 10000 5.7 360 13:19 03.09.2019
2550 Clouds 31 1010 25 10000 5.7 360 13:19 03.09.2019
2551 Clouds 31 1011 27 10000 3.1 350 12:48 03.09.2019
2552 Clouds 30 1011 27 10000 3.1 350 12:29 03.09.2019
2553 Clouds 30 1011 27 10000 4.1 350 11:57 03.09.2019
2554 Clouds 30 1011 27 10000 3.6 350 11:38 03.09.2019
2555 Clouds 30 1011 27 10000 3.6 350 11:18 03.09.2019
2556 Clouds 30 1011 30 10000 4.1 340 10:41 03.09.2019
2557 Clouds 30 1011 30 10000 4.1 340 10:22 03.09.2019
2558 Clouds 29 1011 30 10000 4.1 330 09:53 03.09.2019
2559 Clouds 28 1011 30 10000 4.1 340 09:34 03.09.2019
2560 Clouds 28 1011 30 10000 3.6 330 08:59 03.09.2019
2561 Clouds 27 1011 30 10000 3.1 320 08:39 03.09.2019
2562 Clouds 26 1011 30 10000 3.1 320 08:21 03.09.2019
2563 Clouds 26 1011 30 10000 4.03 353.652 07:54 03.09.2019
2564 Clouds 26 1011 31 10000 4.03 353.652 07:36 03.09.2019
2565 Clouds 25 1011 33 10000 4.03 353.652 07:18 03.09.2019
2566 Clear 24 1011 38 10000 4.03 353.652 06:41 03.09.2019
2567 Clear 23 1011 33 10000 3.87 356.575 03:57 03.09.2019
2568 Clear 23 1011 35 10000 3.87 356.575 03:33 03.09.2019
2569 Clear 23 1011 31 10000 2.92 357.289 02:40 03.09.2019
2570 Clear 24 1011 31 10000 2.92 357.289 02:21 03.09.2019
2571 Clouds 23 1011 31 10000 1.5 0 01:45 03.09.2019
2572 Clouds 23 1011 31 10000 1.5 0 01:45 03.09.2019
2573 Clouds 24 1011 31 10000 1.5 0 01:25 03.09.2019
2574 Clouds 24 1011 31 10000 1.5 0 00:33 03.09.2019
2575 Clouds 24 1011 29 10000 2.1 280 23:58 02.09.2019
2576 Clouds 24 1011 27 10000 2.6 300 23:37 02.09.2019
2577 Clouds 25 1011 27 10000 2.6 300 23:19 02.09.2019
2578 Clouds 24 1011 26 10000 2.1 290 22:56 02.09.2019
2579 Clouds 25 1011 26 10000 2.1 290 22:37 02.09.2019
2580 Clouds 25 1011 26 10000 2.1 290 22:18 02.09.2019
2581 Clouds 25 1011 26 10000 2.1 290 22:18 02.09.2019
2582 Clouds 26 1011 24 10000 1.5 270 21:55 02.09.2019
2583 Clouds 25 1011 24 10000 1.5 270 21:37 02.09.2019
2584 Clouds 26 1011 24 10000 1.5 270 21:19 02.09.2019
2585 Clouds 26 1011 23 10000 4.1 360 20:42 02.09.2019
2586 Clouds 27 1011 23 10000 4.1 360 20:23 02.09.2019
2587 Clouds 27 1010 23 10000 3.1 360 19:59 02.09.2019
2588 Clouds 27 1010 25 10000 3.6 350 19:41 02.09.2019
2589 Clouds 28 1010 25 10000 3.6 350 19:22 02.09.2019
2590 Clear 28 1010 23 10000 4.1 360 18:57 02.09.2019
2591 Clear 28 1010 25 10000 5.1 360 18:37 02.09.2019
2592 Clear 30 1010 24 10000 4.1 360 18:19 02.09.2019
2593 Clear 30 1010 24 10000 4.1 360 17:55 02.09.2019
2594 Clear 30 1010 22 10000 4.1 360 17:37 02.09.2019
2595 Clear 31 1010 24 10000 5.1 360 17:18 02.09.2019
2596 Clear 31 1010 24 10000 5.1 360 16:41 02.09.2019
2597 Clear 31 1010 24 10000 5.1 360 16:21 02.09.2019
2598 Clouds 31 1010 26 10000 5.1 360 15:54 02.09.2019
2599 Clouds 31 1010 29 10000 5.1 340 15:36 02.09.2019
2600 Clouds 31 1010 29 10000 5.1 340 15:18 02.09.2019
2601 Clouds 31 1010 29 10000 5.1 340 14:55 02.09.2019
2602 Clouds 31 1010 29 10000 5.1 340 14:36 02.09.2019
2603 Clouds 31 1011 27 10000 5.1 350 14:18 02.09.2019
2604 Clouds 31 1011 27 10000 5.1 350 13:41 02.09.2019
2605 Clear 31 1011 31 10000 5.7 340 13:23 02.09.2019
2606 Clear 30 1011 31 10000 5.7 340 12:45 02.09.2019
2607 Clear 30 1011 31 10000 5.7 340 12:26 02.09.2019
2608 Clear 30 1011 31 10000 4.1 350 11:59 02.09.2019
2609 Clear 29 1011 33 10000 4.1 350 11:40 02.09.2019
2610 Clear 29 1011 33 10000 4.1 350 11:22 02.09.2019
2611 Clear 29 1011 35 10000 4.1 340 10:58 02.09.2019
2612 Clear 29 1011 35 10000 4.1 340 10:39 02.09.2019
2613 Clear 28 1011 35 10000 4.1 340 10:21 02.09.2019
2614 Clear 28 1011 37 10000 3.1 340 09:58 02.09.2019
2615 Clear 28 1011 39 10000 3.1 340 09:38 02.09.2019
2616 Clear 28 1011 39 10000 3.1 340 09:19 02.09.2019
2617 Clear 27 1011 32 10000 3.1 350 08:39 02.09.2019
2618 Clear 26 1011 34 10000 4.69 356.602 08:18 02.09.2019
2619 Clear 25 1011 38 10000 4.69 356.602 07:42 02.09.2019
2620 Clear 24 1011 38 10000 4.69 356.602 07:22 02.09.2019
2621 Clear 23 1011 38 10000 4.69 356.602 06:58 02.09.2019
2622 Clear 23 1011 38 10000 4.69 356.602 06:39 02.09.2019
2623 Clear 22 1011 40 10000 4.46 346.668 05:50 02.09.2019
2624 Clear 23 1012 40 10000 4.46 346.668 05:20 02.09.2019
2625 Clear 23 1011 38 10000 4.46 346.668 04:47 02.09.2019
2626 Clear 23 1011 36 10000 3.33 346.344 01:59 02.09.2019
2627 Clear 24 1012 36 10000 2.6 340 00:58 02.09.2019
2628 Clear 24 1012 36 10000 3.53 347.61 00:32 02.09.2019
2629 Clear 24 1012 33 10000 3.32 335.913 23:59 01.09.2019
2630 Clear 24 1012 33 10000 3.32 335.913 23:38 01.09.2019
2631 Clear 24 1011 35 10000 3.32 335.913 23:18 01.09.2019
2632 Clear 24 1011 35 10000 3.32 335.913 22:54 01.09.2019
2633 Clear 24 1012 33 10000 3.32 335.913 22:36 01.09.2019
2634 Clear 24 1011 31 10000 3.32 335.913 22:18 01.09.2019
2635 Clear 24 1011 31 10000 3.33 336.298 21:42 01.09.2019
2636 Clear 24 1011 31 10000 4.09 342.335 21:23 01.09.2019
2637 Clear 24 1011 31 10000 4.09 342.335 21:23 01.09.2019
2638 Clear 25 1011 29 10000 4.09 342.335 20:58 01.09.2019
2639 Clear 25 1011 28 10000 4.09 342.335 20:39 01.09.2019
2640 Clear 25 1010 28 10000 2.6 350 20:19 01.09.2019
2641 Clear 26 1010 28 10000 2.6 350 19:58 01.09.2019
2642 Clear 26 1010 28 10000 2.6 360 19:39 01.09.2019
2643 Clear 27 1010 26 10000 3.1 350 19:21 01.09.2019
2644 Clear 28 1010 25 10000 4.6 10 18:44 01.09.2019
2645 Clear 28 1010 25 10000 4.6 10 18:44 01.09.2019
2646 Clear 28 1010 25 10000 4.6 10 18:26 01.09.2019
2647 Clear 28 1010 25 10000 4.1 360 17:58 01.09.2019
2648 Clear 28 1010 22 10000 4.6 360 17:39 01.09.2019
2649 Clear 29 1010 20 10000 5.1 360 17:19 01.09.2019
2650 Clear 29 1010 21 10000 5.1 360 16:41 01.09.2019
2651 Clear 30 1010 21 10000 5.1 360 16:21 01.09.2019
2652 Clear 30 1010 21 10000 5.1 360 15:58 01.09.2019
2653 Clear 30 1010 22 10000 6.2 340 15:39 01.09.2019
2654 Clear 30 1010 22 10000 6.2 340 15:20 01.09.2019
2655 Clear 30 1010 25 10000 5.1 330 14:42 01.09.2019
2656 Clear 30 1010 25 10000 5.1 330 14:22 01.09.2019
2657 Clear 30 1010 24 10000 5.7 360 13:59 01.09.2019
2658 Clear 30 1010 27 10000 5.1 340 13:40 01.09.2019
2659 Clear 30 1010 25 10000 5.1 350 13:21 01.09.2019
2660 Clear 29 1011 27 10000 4.6 360 12:43 01.09.2019
2661 Clear 29 1011 27 10000 4.6 360 12:25 01.09.2019
2662 Clear 29 1011 27 10000 5.7 350 11:56 01.09.2019
2663 Clouds 29 1011 30 10000 4.6 350 11:38 01.09.2019
2664 Clouds 28 1011 32 10000 5.1 360 11:18 01.09.2019
2665 Clouds 28 1011 32 10000 5.1 10 10:44 01.09.2019
2666 Clouds 28 1011 32 10000 5.1 10 10:23 01.09.2019
2667 Clear 27 1011 34 10000 5.1 360 09:47 01.09.2019
2668 Clear 26 1011 34 10000 5.1 360 09:26 01.09.2019
2669 Clear 26 1011 44 10000 2.6 360 08:56 01.09.2019
2670 Clear 26 1011 50 10000 3.1 340 08:38 01.09.2019
2671 Clear 25 1011 47 10000 2.1 330 08:19 01.09.2019
2672 Clear 24 1010 50 10000 3.6 330 07:41 01.09.2019
2673 Clear 24 1010 50 10000 3.6 330 07:20 01.09.2019
2674 Clear 23 1010 47 10000 4.1 330 06:38 01.09.2019
2675 Clear 23 1010 44 10000 3.1 320 05:59 01.09.2019
2676 Clear 23 1010 44 10000 3.1 320 05:59 01.09.2019
2677 Clear 23 1011 52 10000 6.76 341.168 04:41 01.09.2019
2678 Clear 22 1011 52 10000 6.76 341.168 03:48 01.09.2019
2679 Clear 22 1011 52 10000 6.76 341.168 03:29 01.09.2019
2680 Clear 23 1012 52 10000 5.24 334.624 02:37 01.09.2019
2681 Clear 23 1012 52 10000 5.24 334.624 02:37 01.09.2019
2682 Clear 23 1012 49 10000 5.24 334.624 02:18 01.09.2019
2683 Clear 23 1012 46 10000 5.66 338.229 01:28 01.09.2019
2684 Clear 23 1012 43 10000 5.66 338.229 00:55 01.09.2019
2685 Clear 23 1012 43 10000 5.66 338.229 00:36 01.09.2019
2686 Clear 24 1012 43 10000 4.55 333.136 00:18 01.09.2019
2687 Clear 24 1012 38 10000 4.55 333.136 23:40 31.08.2019
2688 Clear 24 1012 38 10000 4.55 333.136 23:20 31.08.2019
2689 Clear 24 1012 36 10000 4.55 333.136 22:54 31.08.2019
2690 Clear 24 1012 36 10000 4.55 333.136 22:36 31.08.2019
2691 Clear 24 1012 36 10000 4.55 333.136 22:36 31.08.2019
2692 Clear 24 1012 36 10000 4.55 333.136 22:18 31.08.2019
2693 Clear 24 1012 33 10000 2.6 10 21:42 31.08.2019
2694 Clear 24 1012 33 10000 2.6 10 21:21 31.08.2019
2695 Clear 24 1012 33 10000 2.6 10 21:21 31.08.2019
2696 Clear 24 1012 31 10000 2.6 360 20:59 31.08.2019
2697 Clear 25 1011 31 10000 2.1 350 20:40 31.08.2019
2698 Clear 25 1011 31 10000 2.1 350 20:22 31.08.2019
2699 Clear 25 1011 28 10000 5.1 360 19:41 31.08.2019
2700 Clear 25 1011 28 10000 5.1 360 19:22 31.08.2019
2701 Clear 26 1011 26 10000 6.2 360 18:55 31.08.2019
2702 Clear 26 1011 26 10000 6.2 360 18:55 31.08.2019
2703 Clear 26 1011 26 10000 6.2 360 18:36 31.08.2019
2704 Clear 27 1011 25 10000 6.2 350 18:18 31.08.2019
2705 Clear 27 1011 25 10000 6.2 350 18:18 31.08.2019
2706 Clear 27 1011 25 10000 6.2 350 17:54 31.08.2019
2707 Clear 28 1011 25 10000 5.1 360 17:36 31.08.2019
2708 Clear 28 1011 25 10000 7.7 340 17:18 31.08.2019
2709 Clear 28 1011 25 10000 7.7 340 17:18 31.08.2019
2710 Clouds 28 1011 29 10000 5.7 340 16:41 31.08.2019
2711 Clouds 29 1011 29 10000 5.7 340 16:23 31.08.2019
2712 Clouds 29 1011 29 10000 5.1 360 15:59 31.08.2019
2713 Clouds 29 1011 31 10000 5.1 350 15:40 31.08.2019
2714 Clouds 29 1011 31 10000 5.1 350 15:18 31.08.2019
2715 Clouds 29 1012 29 10000 6.7 340 14:42 31.08.2019
2716 Clouds 29 1012 29 10000 6.7 340 14:24 31.08.2019
2717 Clouds 29 1012 31 10000 6.2 360 13:59 31.08.2019
2718 Clouds 29 1012 31 10000 6.2 360 13:38 31.08.2019
2719 Clouds 29 1012 31 10000 5.1 360 13:19 31.08.2019
2720 Clouds 29 1012 31 10000 5.1 360 12:54 31.08.2019
2721 Clouds 28 1012 31 10000 6.7 350 12:36 31.08.2019
2722 Clouds 29 1012 33 10000 6.7 350 12:18 31.08.2019
2723 Clouds 28 1012 33 10000 7.7 350 11:42 31.08.2019
2724 Clouds 28 1012 33 10000 7.7 350 11:24 31.08.2019
2725 Clouds 28 1012 33 10000 6.2 350 10:56 31.08.2019
2726 Clouds 27 1013 35 10000 6.2 350 10:36 31.08.2019
2727 Clouds 27 1013 35 10000 5.1 360 10:18 31.08.2019
2728 Clouds 27 1013 37 10000 5.7 350 09:40 31.08.2019
2729 Clouds 27 1013 37 10000 5.7 350 09:40 31.08.2019
2730 Clouds 27 1013 37 10000 5.7 350 09:22 31.08.2019
2731 Clouds 26 1013 39 10000 5.1 350 08:57 31.08.2019
2732 Clear 26 1012 47 10000 4.1 330 08:39 31.08.2019
2733 Clear 26 1013 47 10000 2.6 330 08:20 31.08.2019
2734 Clear 25 1013 50 10000 3.1 330 07:39 31.08.2019
2735 Clear 24 1013 50 10000 2.1 330 07:18 31.08.2019
2736 Clear 24 1013 47 10000 2.1 350 06:27 31.08.2019
2737 Clear 24 1012 50 10000 2.6 350 05:55 31.08.2019
2738 Clear 24 1012 47 10000 2.6 350 05:29 31.08.2019
2739 Clear 24 1013 53 10000 2.1 330 04:29 31.08.2019
2740 Clear 24 1013 47 10000 3.1 320 03:42 31.08.2019
2741 Clear 24 1014 49 10000 2.1 360 02:23 31.08.2019
2742 Clear 24 1014 44 10000 2.6 350 01:47 31.08.2019
2743 Clear 24 1014 44 10000 2.1 360 01:29 31.08.2019
2744 Clear 24 1014 41 10000 2.1 360 00:47 31.08.2019
2745 Clear 24 1014 41 10000 2.1 360 00:47 31.08.2019
2746 Clear 24 1014 41 10000 2.1 360 00:27 31.08.2019
2747 Clear 25 1014 41 10000 2.1 350 23:51 30.08.2019
2748 Clear 25 1014 41 10000 2.6 350 23:20 30.08.2019
2749 Clear 26 1014 41 10000 2.6 350 22:59 30.08.2019
2750 Clear 26 1014 41 10000 2.1 350 22:39 30.08.2019
2751 Clear 26 1014 41 10000 2.1 350 22:21 30.08.2019
2752 Clear 26 1014 39 10000 2.1 360 21:57 30.08.2019
2753 Clear 26 1014 39 10000 2.1 360 21:37 30.08.2019
2754 Clear 26 1014 39 10000 2.1 360 21:37 30.08.2019
2755 Clear 26 1014 39 10000 2.1 360 21:18 30.08.2019
2756 Clear 26 1014 32 10000 3.1 330 20:56 30.08.2019
2757 Clear 26 1014 32 10000 3.1 330 20:38 30.08.2019
2758 Clear 26 1014 32 10000 3.1 330 20:19 30.08.2019
2759 Clear 27 1014 30 10000 4.6 340 20:19 30.08.2019
2760 Clear 27 1014 30 10000 5.1 360 19:55 30.08.2019
2761 Clear 27 1014 30 10000 5.1 360 19:36 30.08.2019
2762 Clear 27 1013 28 10000 5.1 350 19:18 30.08.2019
2763 Clear 27 1013 28 10000 5.1 350 19:18 30.08.2019
2764 Clear 28 1013 27 10000 4.6 350 18:44 30.08.2019
2765 Clear 28 1014 28 10000 7.2 360 18:24 30.08.2019
2766 Clear 28 1014 28 10000 7.2 360 18:24 30.08.2019
2767 Clear 29 1013 27 10000 4.6 360 17:57 30.08.2019
2768 Clear 29 1013 27 10000 4.6 360 17:57 30.08.2019
2769 Clear 29 1013 29 10000 5.1 350 17:39 30.08.2019
2770 Clear 29 1013 29 10000 5.1 350 17:19 30.08.2019
2771 Clear 29 1013 29 10000 5.1 350 17:19 30.08.2019
2772 Clear 29 1013 27 10000 5.1 360 16:56 30.08.2019
2773 Clear 29 1013 25 10000 5.1 350 16:38 30.08.2019
2774 Clear 29 1013 25 10000 5.1 350 16:38 30.08.2019
2775 Clear 30 1013 25 10000 5.1 350 16:19 30.08.2019
2776 Clear 30 1015 30 10000 11.3 30 15:39 30.08.2019
2777 Clear 30 1015 30 10000 11.3 30 15:20 30.08.2019
2778 Clear 30 1015 28 10000 12.9 40 14:45 30.08.2019
2779 Clear 30 1014 24 10000 3.6 20 14:26 30.08.2019
2780 Clear 30 1014 24 10000 3.6 20 14:26 30.08.2019
2781 Clear 30 1014 24 10000 5.1 360 13:57 30.08.2019
2782 Clear 30 1016 30 10000 12.9 40 13:39 30.08.2019
2783 Clear 30 1016 30 10000 12.3 40 13:20 30.08.2019
2784 Clear 30 1014 25 10000 5.1 350 12:45 30.08.2019
2785 Clear 30 1014 25 10000 5.1 350 12:45 30.08.2019
2786 Clear 30 1014 25 10000 5.1 350 12:25 30.08.2019
2787 Clear 29 1015 29 10000 4.1 10 11:57 30.08.2019
2788 Clear 29 1016 35 10000 11.8 30 11:39 30.08.2019
2789 Clear 29 1016 35 10000 11.8 30 11:21 30.08.2019
2790 Clear 29 1015 30 10000 4.1 350 10:37 30.08.2019
2791 Clear 28 1015 30 10000 4.1 350 10:19 30.08.2019
2792 Clear 28 1015 33 10000 4.1 360 09:55 30.08.2019
2793 Clear 28 1015 42 10000 4.1 330 09:36 30.08.2019
2794 Clear 27 1014 47 10000 4.6 340 09:18 30.08.2019
2795 Clear 27 1014 47 10000 5.1 330 08:43 30.08.2019
2796 Clear 26 1014 47 10000 5.1 330 08:23 30.08.2019
2797 Clear 26 1014 41 10000 4.1 330 07:46 30.08.2019
2798 Clear 25 1014 41 10000 4.1 330 07:26 30.08.2019
2799 Clear 25 1014 39 10000 4.6 330 06:58 30.08.2019
2800 Clear 25 1014 39 10000 3.1 330 06:39 30.08.2019
2801 Clear 24 1014 39 10000 3.1 330 06:20 30.08.2019
2802 Clear 24 1013 39 10000 2.6 330 05:24 30.08.2019
2803 Clear 24 1013 38 10000 7.03 343.387 03:56 30.08.2019
2804 Clear 24 1014 38 10000 7.03 343.387 03:37 30.08.2019
2805 Clear 24 1014 37 10000 1.5 0 02:41 30.08.2019
2806 Clear 25 1014 33 10000 2.6 320 01:40 30.08.2019
2807 Clear 25 1014 31 10000 3.6 340 00:53 30.08.2019
2808 Clear 25 1015 31 10000 2.6 340 00:20 30.08.2019
2809 Clear 25 1015 29 10000 2.6 340 23:48 29.08.2019
2810 Clear 25 1015 26 10000 3.1 320 23:22 29.08.2019
2811 Clear 25 1015 26 10000 3.1 320 22:56 29.08.2019
2812 Clear 25 1015 26 10000 3.1 330 22:37 29.08.2019
2813 Clear 25 1015 21 10000 2.6 330 22:19 29.08.2019
2814 Clear 25 1015 19 10000 2.6 330 21:41 29.08.2019
2815 Clear 26 1015 19 10000 2.6 330 21:21 29.08.2019
2816 Clear 26 1014 19 10000 1.5 0 20:59 29.08.2019
2817 Clear 26 1014 19 10000 1.5 0 20:40 29.08.2019
2818 Clear 26 1014 20 10000 1.5 0 20:19 29.08.2019
2819 Clear 26 1014 20 10000 2.1 330 19:56 29.08.2019
2820 Clear 27 1014 20 10000 2.1 330 19:38 29.08.2019
2821 Clear 27 1014 20 10000 4.1 340 19:19 29.08.2019
2822 Clear 28 1013 17 10000 4.1 350 18:41 29.08.2019
2823 Clear 29 1013 18 10000 3.6 330 18:20 29.08.2019
2824 Clear 30 1013 19 10000 4.6 330 17:56 29.08.2019
2825 Clear 30 1013 19 10000 4.6 330 17:56 29.08.2019
2826 Clear 30 1013 19 10000 4.6 330 17:37 29.08.2019
2827 Clear 30 1013 17 10000 5.7 330 17:19 29.08.2019
2828 Clear 31 1013 17 10000 4.6 340 16:43 29.08.2019
2829 Clear 31 1013 18 10000 6.7 340 16:24 29.08.2019
2830 Clear 31 1013 18 10000 6.7 340 15:58 29.08.2019
2831 Clear 31 1013 19 10000 6.2 350 15:38 29.08.2019
2832 Clear 31 1013 19 10000 6.2 350 15:19 29.08.2019
2833 Clear 31 1014 18 10000 6.2 330 14:49 29.08.2019
2834 Clear 31 1014 21 10000 5.7 340 14:22 29.08.2019
2835 Clear 31 1014 24 10000 4.1 330 13:58 29.08.2019
2836 Clear 31 1014 23 10000 7.2 330 13:39 29.08.2019
2837 Clear 31 1014 23 10000 7.2 330 13:20 29.08.2019
2838 Clear 31 1014 21 10000 7.2 340 12:58 29.08.2019
2839 Clear 31 1014 19 10000 6.7 340 12:39 29.08.2019
2840 Clear 30 1014 19 10000 6.7 340 12:21 29.08.2019
2841 Clear 30 1015 35 10000 11.8 20 11:58 29.08.2019
2842 Clear 30 1014 23 10000 5.1 330 11:37 29.08.2019
2843 Clear 29 1014 23 10000 4.6 330 11:18 29.08.2019
2844 Clear 30 1014 28 10000 4.6 330 10:43 29.08.2019
2845 Clear 29 1014 28 10000 4.6 330 10:24 29.08.2019
2846 Clear 29 1014 37 10000 4.1 330 09:42 29.08.2019
2847 Clear 29 1014 37 10000 4.1 330 09:42 29.08.2019
2848 Clear 27 1014 37 10000 4.1 330 09:21 29.08.2019
2849 Clear 27 1014 42 10000 4.1 330 08:59 29.08.2019
2850 Clear 27 1014 39 10000 6.2 340 08:40 29.08.2019
2851 Clear 26 1014 39 10000 6.2 340 08:22 29.08.2019
2852 Clear 26 1014 39 10000 7.2 330 07:49 29.08.2019
2853 Clear 25 1014 39 10000 7.2 330 07:26 29.08.2019
2854 Clear 25 1014 39 10000 11.3 330 06:48 29.08.2019
2855 Clear 24 1014 39 10000 11.3 330 06:30 29.08.2019
2856 Clear 24 1013 41 10000 7.7 350 05:43 29.08.2019
2857 Clear 24 1013 44 10000 7.7 340 04:51 29.08.2019
2858 Clear 24 1013 41 10000 4.1 340 04:29 29.08.2019
2859 Clear 24 1013 39 10000 4.1 320 03:35 29.08.2019
2860 Clear 25 1014 36 10000 1 0 01:50 29.08.2019
2861 Clear 25 1014 36 10000 1.5 0 01:30 29.08.2019
2862 Clear 25 1014 36 10000 1.5 0 00:45 29.08.2019
2863 Clear 26 1014 34 10000 5.79 335.658 00:21 29.08.2019
2864 Clear 26 1014 34 10000 1 0 23:44 28.08.2019
2865 Clear 26 1014 34 10000 1 0 23:25 28.08.2019
2866 Clear 26 1014 36 10000 1.5 0 22:59 28.08.2019
2867 Clear 26 1014 34 10000 1 0 22:39 28.08.2019
2868 Clear 27 1014 34 10000 1 0 22:18 28.08.2019
2869 Clear 26 1014 34 10000 2.1 310 21:58 28.08.2019
2870 Clear 26 1014 34 10000 3.1 320 21:39 28.08.2019
2871 Clear 26 1014 34 10000 3.1 320 21:39 28.08.2019
2872 Clear 27 1014 34 10000 3.1 320 21:20 28.08.2019
2873 Clear 27 1014 34 10000 2.6 330 20:45 28.08.2019
2874 Clear 27 1014 34 10000 2.6 330 20:27 28.08.2019
2875 Clear 28 1014 32 10000 3.6 320 19:59 28.08.2019
2876 Clear 28 1013 32 10000 3.1 330 19:39 28.08.2019
2877 Clear 28 1013 32 10000 3.1 330 19:21 28.08.2019
2878 Clear 28 1013 30 10000 5.7 340 18:42 28.08.2019
2879 Clear 29 1013 30 10000 5.7 340 18:22 28.08.2019
2880 Clear 29 1013 27 10000 6.2 340 17:59 28.08.2019
2881 Clear 30 1013 27 10000 5.7 330 17:37 28.08.2019
2882 Clear 30 1013 24 10000 5.7 330 17:19 28.08.2019
2883 Clear 30 1013 25 10000 6.7 330 16:43 28.08.2019
2884 Clear 31 1013 25 10000 7.7 350 16:19 28.08.2019
2885 Clear 31 1013 25 10000 7.7 350 15:58 28.08.2019
2886 Clear 31 1013 27 10000 6.7 330 15:37 28.08.2019
2887 Clear 31 1013 27 10000 6.7 330 15:19 28.08.2019
2888 Clear 31 1013 27 10000 5.1 330 14:56 28.08.2019
2889 Smoke 31 1013 24 10000 6.7 350 14:37 28.08.2019
2890 Smoke 31 1013 24 10000 6.7 350 14:19 28.08.2019
2891 Clear 31 1013 24 10000 7.7 340 13:56 28.08.2019
2892 Clear 31 1013 25 10000 7.2 340 13:37 28.08.2019
2893 Clear 31 1013 25 10000 6.2 330 13:18 28.08.2019
2894 Clear 31 1013 25 10000 7.7 340 12:41 28.08.2019
2895 Clear 30 1013 25 10000 7.7 340 12:23 28.08.2019
2896 Clear 30 1013 25 10000 7.7 340 12:23 28.08.2019
2897 Clouds 30 1014 31 10000 6.2 350 11:42 28.08.2019
2898 Clouds 30 1014 31 10000 6.2 350 11:23 28.08.2019
2899 Clouds 29 1014 31 10000 6.7 350 10:59 28.08.2019
2900 Clouds 29 1014 31 10000 8.2 350 10:41 28.08.2019
2901 Rain 29 1014 31 10000 8.2 350 10:21 28.08.2019
2902 Rain 29 1014 33 10000 7.2 350 09:58 28.08.2019
2903 Rain 29 1014 33 10000 7.7 340 09:39 28.08.2019
2904 Clear 28 1014 33 10000 7.7 340 09:18 28.08.2019
2905 Clear 27 1014 42 10000 5.1 330 08:39 28.08.2019
2906 Clear 27 1014 42 10000 5.1 330 08:20 28.08.2019
2907 Clear 27 1014 42 10000 5.1 330 08:20 28.08.2019
2908 Clouds 27 1014 44 10000 5.1 320 07:40 28.08.2019
2909 Clouds 27 1014 44 10000 5.1 320 07:22 28.08.2019
2910 Clear 26 1014 47 10000 5.1 330 06:51 28.08.2019
2911 Clear 26 1013 44 10000 5.1 320 06:32 28.08.2019
2912 Clear 26 1013 44 10000 5.1 310 05:42 28.08.2019
2913 Clear 26 1013 47 10000 5.1 320 02:48 28.08.2019
2914 Clear 26 1014 47 10000 8.73 352.161 01:32 28.08.2019
2915 Clear 27 1014 47 10000 8.73 352.161 00:55 28.08.2019
2916 Clear 27 1015 47 10000 8.73 352.161 00:37 28.08.2019
2917 Clear 27 1015 45 10000 2.1 320 23:58 27.08.2019
2918 Clear 27 1015 45 10000 3.1 330 23:39 27.08.2019
2919 Clear 27 1015 45 10000 3.1 330 23:20 27.08.2019
2920 Clear 27 1015 45 10000 3.1 330 22:42 27.08.2019
2921 Clear 27 1015 45 10000 3.1 330 22:23 27.08.2019
2922 Clear 27 1015 48 10000 2.6 340 21:57 27.08.2019
2923 Clear 27 1014 45 10000 2.6 340 21:39 27.08.2019
2924 Clear 27 1014 45 10000 2.6 340 21:21 27.08.2019
2925 Clear 28 1014 42 10000 3.1 330 20:59 27.08.2019
2926 Clear 27 1014 39 10000 2.6 330 20:40 27.08.2019
2927 Clear 28 1014 39 10000 2.6 330 20:20 27.08.2019
2928 Clear 28 1013 35 10000 3.6 350 19:55 27.08.2019
2929 Clear 28 1013 33 10000 5.1 330 19:37 27.08.2019
2930 Clear 29 1013 33 10000 5.1 330 19:18 27.08.2019
2931 Clear 29 1013 26 10000 4.1 360 18:41 27.08.2019
2932 Clear 30 1015 40 10000 6.7 20 18:19 27.08.2019
2933 Clear 30 1013 26 10000 4.1 350 17:56 27.08.2019
2934 Clear 30 1015 40 10000 6.7 20 17:38 27.08.2019
2935 Clear 31 1013 26 10000 5.1 340 17:18 27.08.2019
2936 Clear 32 1013 26 10000 5.1 340 16:46 27.08.2019
2937 Clear 32 1013 26 10000 5.1 340 16:26 27.08.2019
2938 Clear 32 1013 24 10000 5.7 350 15:57 27.08.2019
2939 Clear 32 1013 26 10000 5.1 340 15:39 27.08.2019
2940 Clear 33 1013 26 10000 5.1 340 15:20 27.08.2019
2941 Clear 33 1013 26 10000 5.1 340 14:43 27.08.2019
2942 Clear 33 1013 26 10000 5.1 340 14:24 27.08.2019
2943 Clear 33 1015 35 10000 10.8 10 13:57 27.08.2019
2944 Clear 32 1014 26 10000 5.1 340 13:38 27.08.2019
2945 Clear 32 1014 26 10000 5.1 340 13:20 27.08.2019
2946 Clear 32 1014 28 10000 6.2 340 12:41 27.08.2019
2947 Clear 32 1014 28 10000 6.2 340 12:20 27.08.2019
2948 Clear 32 1014 29 10000 5.1 340 11:57 27.08.2019
2949 Clear 31 1014 27 10000 6.2 340 11:37 27.08.2019
2950 Clear 31 1014 29 10000 6.7 340 11:18 27.08.2019
2951 Clear 31 1014 27 10000 6.2 340 11:18 27.08.2019
2952 Clear 31 1014 29 10000 5.1 340 10:41 27.08.2019
2953 Clear 31 1014 29 10000 5.1 340 10:19 27.08.2019
2954 Clear 31 1014 35 10000 7.2 340 10:19 27.08.2019
2955 Clear 31 1014 35 10000 7.2 340 09:55 27.08.2019
2956 Clear 31 1014 37 10000 8.7 340 09:37 27.08.2019
2957 Clear 29 1014 40 10000 6.2 340 09:18 27.08.2019
2958 Clear 29 1014 40 10000 6.2 340 08:44 27.08.2019
2959 Clear 28 1014 40 10000 6.2 340 08:24 27.08.2019
2960 Clear 28 1014 48 10000 6.7 340 07:43 27.08.2019
2961 Clear 28 1014 48 10000 6.7 340 07:21 27.08.2019
2962 Clear 27 1014 51 10000 7.7 340 06:59 27.08.2019
2963 Clear 27 1013 54 10000 6.7 340 06:40 27.08.2019
2964 Clouds 26 1013 54 10000 7.7 330 06:19 27.08.2019
2965 Clouds 26 1013 51 10000 5.1 330 05:26 27.08.2019
2966 Clouds 26 1013 48 10000 5.7 330 03:43 27.08.2019
2967 Clouds 26 1013 45 10000 4.1 320 02:40 27.08.2019
2968 Clouds 26 1013 48 10000 4.1 320 01:46 27.08.2019
2969 Clouds 26 1013 48 10000 4.1 320 01:24 27.08.2019
2970 Clouds 27 1013 48 10000 3.6 310 00:49 27.08.2019
2971 Clouds 27 1013 48 10000 3.6 310 00:28 27.08.2019
2972 Clouds 28 1013 42 10000 3.6 320 23:40 26.08.2019
2973 Clouds 28 1013 42 10000 3.6 320 23:22 26.08.2019
2974 Clouds 28 1013 42 10000 4.6 320 22:58 26.08.2019
2975 Clouds 28 1013 42 10000 5.1 320 22:36 26.08.2019
2976 Clouds 28 1013 42 10000 5.1 320 22:18 26.08.2019
2977 Clouds 28 1013 42 10000 4.6 320 21:39 26.08.2019
2978 Clouds 29 1013 45 10000 4.1 320 21:21 26.08.2019
2979 Clouds 29 1012 45 10000 5.1 320 20:58 26.08.2019
2980 Clouds 29 1012 45 10000 5.1 320 20:39 26.08.2019
2981 Clouds 29 1012 43 10000 4.6 330 20:19 26.08.2019
2982 Clouds 29 1012 43 10000 4.6 330 19:56 26.08.2019
2983 Clouds 29 1012 43 10000 4.6 330 19:38 26.08.2019
2984 Clouds 30 1012 40 10000 6.7 320 19:18 26.08.2019
2985 Clouds 30 1011 40 10000 7.2 320 18:39 26.08.2019
2986 Clouds 31 1011 36 10000 6.2 320 18:20 26.08.2019
2987 Clouds 31 1011 36 10000 6.2 320 18:20 26.08.2019
2988 Clear 32 1011 36 10000 5.1 310 17:56 26.08.2019
2989 Clear 32 1011 36 10000 5.1 310 17:38 26.08.2019
2990 Clouds 32 1011 32 10000 5.7 320 17:18 26.08.2019
2991 Clouds 32 1011 32 10000 6.2 330 16:56 26.08.2019
2992 Clouds 32 1011 32 10000 6.2 330 16:38 26.08.2019
2993 Clear 32 1011 32 10000 6.2 330 16:18 26.08.2019
2994 Clear 33 1011 32 10000 6.2 330 15:42 26.08.2019
2995 Clear 33 1011 32 10000 7.2 330 15:21 26.08.2019
2996 Clear 33 1011 32 10000 7.2 330 14:46 26.08.2019
2997 Clear 32 1012 36 10000 7.2 330 14:23 26.08.2019
2998 Clear 33 1012 34 10000 7.2 330 13:59 26.08.2019
2999 Clear 33 1012 34 10000 7.2 330 13:39 26.08.2019
3000 Clear 33 1012 34 10000 8.2 320 13:20 26.08.2019
3001 Clear 33 1012 34 10000 5.7 330 12:43 26.08.2019
3002 Clear 33 1012 34 10000 5.7 330 12:43 26.08.2019
3003 Clear 32 1012 32 10000 6.2 330 12:25 26.08.2019
3004 Clear 32 1012 36 10000 7.2 330 11:56 26.08.2019
3005 Clear 32 1012 36 10000 7.2 330 11:37 26.08.2019
3006 Clear 31 1012 36 10000 7.7 330 11:18 26.08.2019
3007 Clear 32 1012 36 10000 8.2 330 10:44 26.08.2019
3008 Clear 32 1012 38 10000 9.8 340 10:22 26.08.2019
3009 Clear 32 1012 38 10000 9.8 340 10:22 26.08.2019
3010 Clear 31 1012 40 10000 7.2 340 09:59 26.08.2019
3011 Clear 31 1012 40 10000 7.2 340 09:39 26.08.2019
3012 Clear 30 1012 40 10000 8.2 350 09:21 26.08.2019
3013 Clear 29 1012 42 10000 8.2 340 08:55 26.08.2019
3014 Clear 29 1012 42 10000 8.2 340 08:36 26.08.2019
3015 Clear 29 1012 40 10000 7.7 340 08:18 26.08.2019
3016 Clear 28 1012 39 10000 6.7 340 07:41 26.08.2019
3017 Clear 28 1011 37 10000 5.7 340 07:23 26.08.2019
3018 Clear 27 1011 37 10000 4.6 330 06:48 26.08.2019
3019 Clear 26 1011 37 10000 4.6 340 06:25 26.08.2019
3020 Clear 26 1011 35 10000 4.1 320 05:49 26.08.2019
3021 Clear 27 1012 34 10000 4.6 40 04:31 26.08.2019
3022 Clear 27 1011 37 10000 5.1 340 03:19 26.08.2019
3023 Clear 27 1011 37 10000 6.2 330 01:40 26.08.2019
3024 Clear 27 1012 35 10000 5.1 320 01:21 26.08.2019
3025 Clear 28 1012 37 10000 4.1 320 00:42 26.08.2019
3026 Clear 28 1012 35 10000 4.1 320 00:23 26.08.2019
3027 Clear 28 1012 37 10000 4.1 330 23:43 25.08.2019
3028 Clear 28 1012 37 10000 2.6 320 23:19 25.08.2019
3029 Clear 28 1013 37 10000 3.1 310 22:57 25.08.2019
3030 Clear 28 1013 37 10000 3.1 310 22:57 25.08.2019
3031 Clear 28 1013 37 10000 3.1 310 22:39 25.08.2019
3032 Clear 28 1013 37 10000 3.1 310 22:20 25.08.2019
3033 Clear 28 1013 37 10000 3.1 310 21:57 25.08.2019
3034 Clear 28 1013 37 10000 3.1 310 21:38 25.08.2019
3035 Clear 28 1012 37 10000 4.1 310 21:18 25.08.2019
3036 Clear 29 1012 37 10000 4.1 320 20:40 25.08.2019
3037 Clear 29 1012 33 10000 4.1 330 20:20 25.08.2019
3038 Clear 29 1012 33 10000 4.1 320 19:58 25.08.2019
3039 Clear 29 1012 33 10000 4.1 320 19:39 25.08.2019
3040 Clear 29 1011 29 10000 5.1 340 19:20 25.08.2019
3041 Clear 30 1011 27 10000 3.6 330 18:58 25.08.2019
3042 Clear 30 1011 27 10000 5.1 330 18:39 25.08.2019
3043 Clear 31 1011 27 10000 5.1 330 18:21 25.08.2019
3044 Clear 32 1011 27 10000 5.7 340 17:45 25.08.2019
3045 Clear 32 1011 28 10000 6.2 340 17:25 25.08.2019
3046 Clear 32 1011 26 10000 5.1 340 16:59 25.08.2019
3047 Clear 32 1011 26 10000 5.1 340 16:37 25.08.2019
3048 Clear 32 1011 26 10000 5.7 340 16:18 25.08.2019
3049 Clear 33 1011 28 10000 6.2 340 15:43 25.08.2019
3050 Clear 33 1011 26 10000 6.2 340 15:25 25.08.2019
3051 Clear 33 1011 28 10000 6.2 340 14:43 25.08.2019
3052 Clear 33 1012 30 10000 6.2 330 14:25 25.08.2019
3053 Clear 33 1012 28 10000 6.2 330 13:57 25.08.2019
3054 Clear 33 1012 28 10000 6.2 330 13:37 25.08.2019
3055 Clear 33 1012 30 10000 5.7 330 13:19 25.08.2019
3056 Clear 33 1012 32 10000 6.7 340 12:48 25.08.2019
3057 Clear 32 1012 32 10000 6.7 340 12:26 25.08.2019
3058 Clear 32 1012 32 10000 6.7 340 11:59 25.08.2019
3059 Clear 32 1012 33 10000 6.7 340 11:40 25.08.2019
3060 Clear 31 1012 33 10000 5.7 340 11:21 25.08.2019
3061 Clouds 32 1012 33 10000 6.2 340 10:57 25.08.2019
3062 Clouds 32 1012 33 10000 6.2 340 10:39 25.08.2019
3063 Clouds 31 1012 40 10000 6.2 330 10:19 25.08.2019
3064 Clouds 31 1012 45 10000 6.2 330 09:44 25.08.2019
3065 Clouds 29 1012 48 10000 6.2 330 09:25 25.08.2019
3066 Clouds 29 1012 51 10000 4.6 320 08:48 25.08.2019
3067 Clouds 29 1012 51 10000 4.6 320 08:30 25.08.2019
3068 Clouds 28 1012 54 10000 3.1 300 07:55 25.08.2019
3069 Clouds 28 1012 54 10000 3.1 300 07:34 25.08.2019
3070 Clouds 26 1012 54 10000 4.6 310 06:40 25.08.2019
3071 Clear 26 1012 51 10000 7.7 330 05:35 25.08.2019
3072 Clear 26 1012 45 10000 5.1 330 04:23 25.08.2019
3073 Clear 27 1012 45 10000 4.1 330 02:58 25.08.2019
3074 Clear 27 1012 45 10000 4.1 330 02:38 25.08.2019
3075 Clear 27 1013 42 10000 6.2 330 01:18 25.08.2019
3076 Clear 27 1013 42 10000 4.1 340 00:38 25.08.2019
3077 Clear 28 1013 45 10000 3.1 350 00:20 25.08.2019
3078 Clear 28 1013 45 10000 3.1 340 23:47 24.08.2019
3079 Clear 28 1013 45 10000 3.1 330 23:22 24.08.2019
3080 Clear 28 1013 45 10000 4.1 330 22:55 24.08.2019
3081 Clear 28 1013 45 10000 4.1 330 22:37 24.08.2019
3082 Clear 28 1013 45 10000 4.1 330 22:18 24.08.2019
3083 Clear 29 1013 42 10000 5.1 330 21:55 24.08.2019
3084 Clear 29 1013 42 10000 5.1 330 21:36 24.08.2019
3085 Clear 29 1013 42 10000 5.1 330 21:18 24.08.2019
3086 Clear 29 1013 42 10000 4.6 340 20:41 24.08.2019
3087 Clear 29 1013 40 10000 5.1 340 20:20 24.08.2019
3088 Clear 29 1013 40 10000 5.1 340 19:59 24.08.2019
3089 Clear 29 1013 40 10000 4.6 350 19:41 24.08.2019
3090 Clear 30 1013 40 10000 4.6 340 19:22 24.08.2019
3091 Clear 30 1012 38 10000 5.1 340 18:59 24.08.2019
3092 Clear 31 1012 38 10000 5.1 340 18:38 24.08.2019
3093 Clear 31 1012 33 10000 5.1 340 18:19 24.08.2019
3094 Clear 32 1012 33 10000 6.2 330 17:43 24.08.2019
3095 Clear 32 1012 32 10000 5.1 330 17:24 24.08.2019
3096 Clear 32 1012 32 10000 5.7 350 16:48 24.08.2019
3097 Clear 32 1012 30 10000 5.1 350 16:20 24.08.2019
3098 Clear 32 1012 30 10000 5.1 350 15:58 24.08.2019
3099 Clear 32 1012 30 10000 5.1 350 15:40 24.08.2019
3100 Clear 33 1012 30 10000 5.7 350 15:21 24.08.2019
3101 Clear 33 1012 30 10000 5.7 340 14:42 24.08.2019
3102 Clear 33 1012 30 10000 6.2 340 14:22 24.08.2019
3103 Clear 33 1013 30 10000 7.2 340 13:56 24.08.2019
3104 Clear 33 1013 30 10000 7.2 340 13:37 24.08.2019
3105 Clear 32 1013 30 10000 6.7 330 13:18 24.08.2019
3106 Clear 32 1013 32 10000 6.2 340 12:42 24.08.2019
3107 Clear 32 1013 32 10000 7.7 350 12:24 24.08.2019
3108 Clear 32 1013 32 10000 5.1 350 11:57 24.08.2019
3109 Clear 32 1013 32 10000 5.1 350 11:39 24.08.2019
3110 Clear 31 1015 45 10000 9.3 20 11:20 24.08.2019
3111 Clear 31 1014 33 10000 6.7 360 10:44 24.08.2019
3112 Clear 31 1014 35 10000 6.7 350 10:23 24.08.2019
3113 Clear 30 1014 35 10000 6.7 350 09:44 24.08.2019
3114 Clear 29 1014 38 10000 7.2 340 09:21 24.08.2019
3115 Clear 29 1014 45 10000 7.7 330 08:58 24.08.2019
3116 Clear 29 1014 45 10000 7.7 330 08:39 24.08.2019
3117 Clear 29 1014 45 10000 8.2 330 08:21 24.08.2019
3118 Clear 28 1014 45 10000 8.2 330 07:47 24.08.2019
3119 Clear 28 1013 48 10000 8.2 330 07:26 24.08.2019
3120 Clear 27 1013 45 10000 5.1 330 06:28 24.08.2019
3121 Clear 27 1013 45 10000 4.6 330 05:41 24.08.2019
3122 Clear 27 1013 45 10000 5.1 330 04:46 24.08.2019
3123 Clear 27 1013 42 10000 4.6 320 03:37 24.08.2019
3124 Clear 28 1013 39 10000 4.1 320 02:26 24.08.2019
3125 Clear 27 1013 39 10000 4.1 320 01:31 24.08.2019
3126 Clear 28 1013 37 10000 5.1 310 00:53 24.08.2019
3127 Clear 28 1013 39 10000 4.6 320 00:26 24.08.2019
3128 Clear 28 1013 39 10000 5.1 320 23:58 23.08.2019
3129 Clear 28 1013 39 10000 5.1 320 23:37 23.08.2019
3130 Clear 28 1013 35 10000 5.1 320 23:18 23.08.2019
3131 Clear 29 1014 35 10000 4.6 320 22:42 23.08.2019
3132 Clear 29 1014 35 10000 4.1 330 22:23 23.08.2019
3133 Clear 29 1014 35 10000 3.1 330 21:40 23.08.2019
3134 Clear 29 1014 35 10000 1.5 0 21:21 23.08.2019
3135 Clear 29 1014 35 10000 2.1 330 20:57 23.08.2019
3136 Clear 29 1014 35 10000 2.1 330 20:38 23.08.2019
3137 Clear 29 1014 35 10000 3.6 330 20:19 23.08.2019
3138 Clear 29 1014 33 10000 4.1 340 19:44 23.08.2019
3139 Clear 30 1014 29 10000 4.6 340 19:18 23.08.2019
3140 Clear 30 1014 29 10000 4.6 340 19:18 23.08.2019
3141 Clear 30 1014 29 10000 5.1 360 18:48 23.08.2019
3142 Clear 31 1014 29 10000 5.1 360 18:30 23.08.2019
3143 Clear 32 1014 26 10000 4.1 350 17:56 23.08.2019
3144 Clear 32 1014 26 10000 4.1 350 17:38 23.08.2019
3145 Clear 32 1014 26 10000 5.1 340 17:20 23.08.2019
3146 Clear 32 1014 26 10000 5.1 340 16:47 23.08.2019
3147 Clear 32 1014 24 10000 5.1 10 16:29 23.08.2019
3148 Clear 32 1014 24 10000 5.1 350 15:56 23.08.2019
3149 Clear 32 1014 24 10000 5.1 350 15:37 23.08.2019
3150 Clear 33 1014 26 10000 5.1 10 15:19 23.08.2019
3151 Clear 32 1014 26 10000 6.2 350 14:41 23.08.2019
3152 Clear 32 1014 26 10000 7.7 350 14:21 23.08.2019
3153 Clear 33 1015 26 10000 7.2 360 13:57 23.08.2019
3154 Clear 32 1015 26 10000 7.2 360 13:39 23.08.2019
3155 Clear 33 1015 26 10000 5.7 350 13:21 23.08.2019
3156 Clear 32 1015 28 10000 6.2 350 12:57 23.08.2019
3157 Clear 32 1015 26 10000 6.7 360 12:39 23.08.2019
3158 Clear 32 1016 29 10000 11.8 20 12:20 23.08.2019
3159 Clear 31 1016 31 10000 10.3 360 11:56 23.08.2019
3160 Clear 32 1016 31 10000 10.3 360 11:37 23.08.2019
3161 Clear 31 1017 33 10000 10.3 10 11:18 23.08.2019
3162 Clear 31 1015 29 10000 5.7 360 10:43 23.08.2019
3163 Clear 31 1015 29 10000 5.7 360 10:43 23.08.2019
3164 Clear 31 1015 29 10000 5.1 360 10:22 23.08.2019
3165 Clear 30 1015 29 10000 5.1 360 09:57 23.08.2019
3166 Clear 30 1016 35 10000 11.8 10 09:39 23.08.2019
3167 Clear 29 1015 31 10000 4.6 340 09:20 23.08.2019
3168 Clear 29 1015 33 10000 3.6 320 08:43 23.08.2019
3169 Clear 29 1015 37 10000 3.6 320 08:19 23.08.2019
3170 Clear 28 1015 39 10000 3.6 320 07:43 23.08.2019
3171 Clear 28 1015 42 10000 3.6 320 07:24 23.08.2019
3172 Clear 28 1015 42 10000 3.6 320 07:24 23.08.2019
3173 Clear 28 1015 42 10000 3.6 320 07:24 23.08.2019
3174 Clear 27 1015 42 10000 3.6 330 06:57 23.08.2019
3175 Clear 27 1015 42 10000 3.6 330 06:39 23.08.2019
3176 Clear 27 1015 42 10000 3.6 330 06:39 23.08.2019
3177 Clear 26 1015 42 10000 4.1 330 06:20 23.08.2019
3178 Clear 26 1015 45 10000 3.6 320 05:42 23.08.2019
3179 Clear 27 1014 45 10000 3.1 310 05:21 23.08.2019
3180 Clear 28 1014 42 10000 2.6 310 03:22 23.08.2019
3181 Clear 28 1015 39 10000 2.1 340 02:24 23.08.2019
3182 Clear 28 1015 39 10000 2.1 340 02:24 23.08.2019
3183 Clear 27 1015 37 10000 3.1 330 01:47 23.08.2019
3184 Clear 28 1015 37 10000 2.6 310 00:46 23.08.2019
3185 Clear 28 1015 37 10000 2.6 310 00:22 23.08.2019
3186 Clear 28 1015 37 10000 3.1 320 23:50 22.08.2019
3187 Clear 28 1015 37 10000 3.1 320 23:32 22.08.2019
3188 Clear 28 1015 37 10000 2.1 350 22:58 22.08.2019
3189 Clear 29 1015 37 10000 2.1 350 22:40 22.08.2019
3190 Clear 29 1015 37 10000 1 0 22:22 22.08.2019
3191 Clear 29 1015 35 10000 4.86 345.429 21:57 22.08.2019
3192 Clear 29 1015 35 10000 4.69 344.48 21:39 22.08.2019
3193 Clear 29 1014 35 10000 1 0 21:19 22.08.2019
3194 Clear 29 1014 33 10000 1 0 20:57 22.08.2019
3195 Clear 29 1014 33 10000 1 0 20:38 22.08.2019
3196 Clear 29 1014 33 10000 3.1 340 20:18 22.08.2019
3197 Clear 29 1014 33 10000 3.1 340 20:18 22.08.2019
3198 Clear 30 1014 31 10000 2.6 350 19:56 22.08.2019
3199 Clear 30 1014 31 10000 2.6 350 19:37 22.08.2019
3200 Clear 30 1014 31 10000 4.1 350 19:19 22.08.2019
3201 Clear 31 1014 29 10000 4.6 350 18:56 22.08.2019
3202 Clear 31 1014 29 10000 4.6 350 18:37 22.08.2019
3203 Clear 32 1014 28 10000 3.6 360 18:18 22.08.2019
3204 Clear 32 1014 28 10000 3.6 340 17:42 22.08.2019
3205 Clear 32 1014 30 10000 4.1 350 17:22 22.08.2019
3206 Clear 32 1014 30 10000 4.1 350 17:22 22.08.2019
3207 Clouds 33 1014 26 10000 5.1 360 16:58 22.08.2019
3208 Clouds 33 1014 26 10000 5.1 360 16:39 22.08.2019
3209 Clouds 33 1014 28 10000 4.6 350 16:21 22.08.2019
3210 Clouds 33 1014 28 10000 5.1 340 15:58 22.08.2019
3211 Clouds 33 1014 28 10000 5.1 340 15:38 22.08.2019
3212 Clouds 33 1014 28 10000 5.1 340 15:38 22.08.2019
3213 Clouds 33 1014 28 10000 5.1 350 15:20 22.08.2019
3214 Clouds 33 1014 28 10000 5.1 350 15:20 22.08.2019
3215 Clouds 33 1014 28 10000 5.1 10 14:56 22.08.2019
3216 Clear 33 1016 29 10000 8.2 60 14:38 22.08.2019
3217 Clear 33 1016 31 10000 9.3 60 14:18 22.08.2019
3218 Clouds 33 1014 30 10000 5.1 350 13:42 22.08.2019
3219 Clouds 33 1014 26 10000 5.1 10 13:24 22.08.2019
3220 Clouds 33 1015 30 10000 5.1 350 12:59 22.08.2019
3221 Clouds 33 1015 30 10000 5.1 350 12:39 22.08.2019
3222 Clouds 32 1015 32 10000 4.1 350 12:21 22.08.2019
3223 Clear 32 1015 32 10000 5.1 360 11:55 22.08.2019
3224 Clear 32 1015 32 10000 5.1 360 11:36 22.08.2019
3225 Clear 31 1015 32 10000 3.1 350 11:18 22.08.2019
3226 Clear 32 1015 33 10000 3.6 350 10:56 22.08.2019
3227 Clear 31 1015 33 10000 3.6 350 10:36 22.08.2019
3228 Clear 31 1015 33 10000 3.6 350 10:18 22.08.2019
3229 Clear 30 1015 35 10000 4.1 330 09:39 22.08.2019
3230 Clear 30 1015 40 10000 4.6 340 09:21 22.08.2019
3231 Clear 29 1015 37 10000 4.1 350 08:58 22.08.2019
3232 Clear 29 1015 39 10000 3.6 330 08:39 22.08.2019
3233 Clear 28 1015 39 10000 3.6 330 08:20 22.08.2019
3234 Clear 27 1015 44 10000 3.6 340 07:41 22.08.2019
3235 Clear 27 1015 44 10000 3.6 340 07:23 22.08.2019
3236 Clear 26 1015 47 10000 3.6 360 06:55 22.08.2019
3237 Clear 26 1015 44 10000 4.1 330 06:25 22.08.2019
3238 Clear 25 1014 44 10000 3.1 320 05:59 22.08.2019
3239 Clear 26 1014 44 10000 4.1 320 04:39 22.08.2019
3240 Clear 26 1015 44 10000 2.6 340 02:52 22.08.2019
3241 Clear 26 1015 44 10000 2.6 340 02:34 22.08.2019
3242 Clear 26 1015 37 10000 3.1 340 01:25 22.08.2019
3243 Clear 26 1015 39 10000 2.6 340 00:45 22.08.2019
3244 Clear 26 1015 39 10000 3.1 340 00:27 22.08.2019
3245 Clear 26 1015 36 10000 1.5 0 23:55 21.08.2019
3246 Clear 26 1015 36 10000 1.5 0 23:37 21.08.2019
3247 Clear 26 1015 34 10000 2.1 330 23:18 21.08.2019
3248 Clear 26 1015 36 10000 2.1 310 22:55 21.08.2019
3249 Clear 26 1015 36 10000 2.1 310 22:37 21.08.2019
3250 Clear 26 1015 34 10000 2.1 310 22:19 21.08.2019
3251 Clear 26 1015 37 10000 3.6 320 21:55 21.08.2019
3252 Clear 26 1015 37 10000 3.6 320 21:36 21.08.2019
3253 Clear 26 1014 37 10000 3.6 320 21:18 21.08.2019
3254 Clear 27 1015 32 10000 3.6 330 20:42 21.08.2019
3255 Clear 27 1014 32 10000 3.1 340 20:24 21.08.2019
3256 Clear 27 1014 30 10000 2.6 350 19:56 21.08.2019
3257 Clear 27 1014 30 10000 2.6 350 19:38 21.08.2019
3258 Clear 28 1014 30 10000 3.6 340 19:20 21.08.2019
3259 Clear 29 1014 29 10000 4.6 350 18:43 21.08.2019
3260 Clear 30 1014 29 10000 3.6 350 18:23 21.08.2019
3261 Clear 30 1014 31 10000 4.1 340 17:57 21.08.2019
3262 Clear 30 1014 31 10000 4.1 340 17:38 21.08.2019
3263 Clear 30 1014 29 10000 4.6 350 17:20 21.08.2019
3264 Clouds 31 1014 31 10000 4.1 340 16:45 21.08.2019
3265 Clouds 31 1014 31 10000 4.1 340 16:24 21.08.2019
3266 Clouds 31 1014 31 10000 4.1 340 15:59 21.08.2019
3267 Clouds 31 1014 30 10000 3.6 350 15:41 21.08.2019
3268 Clouds 31 1014 30 10000 3.6 350 15:41 21.08.2019
3269 Clear 31 1016 31 10000 8.7 50 15:22 21.08.2019
3270 Clouds 31 1014 28 10000 4.1 350 14:58 21.08.2019
3271 Clouds 31 1014 28 10000 4.1 350 14:39 21.08.2019
3272 Clouds 31 1014 29 10000 5.1 340 14:21 21.08.2019
3273 Clouds 31 1014 29 10000 5.1 330 13:58 21.08.2019
3274 Clouds 31 1014 29 10000 5.1 330 13:40 21.08.2019
3275 Clouds 30 1014 33 10000 6.7 330 13:19 21.08.2019
3276 Clear 31 1015 33 10000 4.6 340 12:43 21.08.2019
3277 Clear 30 1015 33 10000 4.1 360 12:25 21.08.2019
3278 Clear 30 1015 33 10000 4.1 360 11:59 21.08.2019
3279 Clear 30 1015 35 10000 7.2 340 11:41 21.08.2019
3280 Clouds 29 1015 38 10000 3.6 360 11:22 21.08.2019
3281 Clouds 29 1015 38 10000 3.6 360 10:58 21.08.2019
3282 Clear 29 1015 35 10000 4.6 350 10:38 21.08.2019
3283 Clear 29 1015 37 10000 4.1 350 10:20 21.08.2019
3284 Clear 28 1015 37 10000 5.1 360 09:57 21.08.2019
3285 Clear 28 1015 37 10000 5.1 360 09:37 21.08.2019
3286 Clear 27 1015 39 10000 4.1 340 09:18 21.08.2019
3287 Clear 27 1015 39 10000 4.1 340 09:18 21.08.2019
3288 Clear 27 1015 48 10000 4.1 330 08:46 21.08.2019
3289 Clouds 26 1015 51 10000 4.1 340 08:24 21.08.2019
3290 Clouds 25 1015 50 10000 3.6 330 07:44 21.08.2019
3291 Clouds 25 1015 54 10000 2.6 350 07:24 21.08.2019
3292 Clouds 24 1015 57 10000 3.1 330 06:50 21.08.2019
3293 Clouds 24 1015 57 10000 4.1 340 06:32 21.08.2019
3294 Clouds 23 1015 53 10000 4.1 340 05:56 21.08.2019
3295 Clear 24 1015 53 10000 3.6 330 05:28 21.08.2019
3296 Clear 23 1015 50 10000 2.6 340 04:26 21.08.2019
3297 Clear 23 1016 47 10000 3.6 340 01:55 21.08.2019
3298 Clear 24 1016 47 10000 3.6 340 01:23 21.08.2019
3299 Clear 24 1016 47 10000 2.6 330 00:38 21.08.2019
3300 Clear 24 1016 44 10000 1.5 0 00:18 21.08.2019
3301 Clear 24 1017 44 10000 1.5 0 23:44 20.08.2019
3302 Clear 24 1017 41 10000 2.1 310 23:19 20.08.2019
3303 Clear 25 1017 38 10000 2.1 320 22:58 20.08.2019
3304 Clear 25 1017 38 10000 2.1 320 22:58 20.08.2019
3305 Clear 25 1017 38 10000 2.1 320 22:58 20.08.2019
3306 Clear 25 1017 38 10000 2.1 320 22:40 20.08.2019
3307 Clear 25 1017 38 10000 1.5 0 22:21 20.08.2019
3308 Clear 25 1017 38 10000 1.5 0 22:21 20.08.2019
3309 Clear 25 1017 36 10000 1.5 0 21:58 20.08.2019
3310 Clear 25 1017 36 10000 1.5 0 21:39 20.08.2019
3311 Clear 25 1016 39 10000 1.5 0 21:19 20.08.2019
3312 Clear 25 1016 39 10000 1.5 0 20:58 20.08.2019
3313 Clear 25 1016 34 10000 1.5 0 20:39 20.08.2019
3314 Clear 25 1016 30 10000 3.1 360 20:21 20.08.2019
3315 Clear 26 1016 28 10000 3.1 360 19:39 20.08.2019
3316 Clear 26 1016 30 10000 4.6 360 19:21 20.08.2019
3317 Clear 27 1016 26 10000 5.1 360 18:56 20.08.2019
3318 Clear 28 1016 26 10000 5.1 360 18:38 20.08.2019
3319 Clear 28 1015 28 10000 6.7 360 18:19 20.08.2019
3320 Clear 29 1015 28 10000 6.7 360 17:55 20.08.2019
3321 Clear 29 1015 27 10000 7.2 10 17:37 20.08.2019
3322 Clear 29 1015 27 10000 7.2 10 17:19 20.08.2019
3323 Clear 29 1015 27 10000 6.7 360 17:19 20.08.2019
3324 Clouds 29 1015 29 10000 6.7 350 16:43 20.08.2019
3325 Clouds 29 1015 29 10000 6.7 350 16:24 20.08.2019
3326 Clouds 29 1015 27 10000 12.3 340 15:43 20.08.2019
3327 Clouds 30 1015 27 10000 12.3 340 15:19 20.08.2019
3328 Clouds 30 1015 29 10000 6.7 350 14:59 20.08.2019
3329 Clouds 29 1015 31 10000 6.7 350 14:40 20.08.2019
3330 Clouds 29 1015 31 10000 6.7 350 14:21 20.08.2019
3331 Clouds 29 1015 31 10000 6.7 350 14:21 20.08.2019
3332 Clouds 30 1015 27 10000 7.2 360 13:56 20.08.2019
3333 Clouds 30 1015 27 10000 5.1 350 13:37 20.08.2019
3334 Clouds 30 1015 27 10000 5.1 350 13:19 20.08.2019
3335 Clouds 30 1015 27 10000 6.7 360 12:50 20.08.2019
3336 Clouds 29 1015 27 10000 6.7 350 12:26 20.08.2019
3337 Clouds 29 1016 31 10000 6.7 360 11:58 20.08.2019
3338 Clouds 29 1016 31 10000 6.7 360 11:58 20.08.2019
3339 Clouds 29 1016 31 10000 6.7 360 11:38 20.08.2019
3340 Clouds 28 1016 35 10000 6.7 350 11:18 20.08.2019
3341 Clouds 28 1016 35 10000 6.7 350 10:56 20.08.2019
3342 Clouds 28 1016 37 10000 5.7 350 10:38 20.08.2019
3343 Clouds 28 1015 39 10000 5.1 350 10:19 20.08.2019
3344 Clouds 28 1016 45 10000 4.6 350 09:43 20.08.2019
3345 Clouds 27 1016 45 10000 4.6 350 09:24 20.08.2019
3346 Clear 26 1016 50 10000 4.1 340 08:43 20.08.2019
3347 Clear 26 1016 50 10000 4.1 340 08:25 20.08.2019
3348 Clear 25 1016 50 10000 4.1 330 07:59 20.08.2019
3349 Clear 25 1016 50 10000 4.1 330 07:59 20.08.2019
3350 Clear 25 1016 47 10000 3.1 330 07:41 20.08.2019
3351 Clear 24 1016 47 10000 3.1 330 07:22 20.08.2019
3352 Clear 24 1016 47 10000 2.6 340 06:59 20.08.2019
3353 Clear 23 1015 47 10000 3.1 350 06:25 20.08.2019
3354 Clear 23 1015 44 10000 3.1 310 05:49 20.08.2019
3355 Clear 23 1015 44 10000 3.1 310 05:18 20.08.2019
3356 Clear 24 1014 47 10000 2.6 300 03:52 20.08.2019
3357 Clear 24 1015 41 10000 3.6 330 02:42 20.08.2019
3358 Clear 24 1015 38 10000 2.1 330 01:38 20.08.2019
3359 Clear 24 1015 41 10000 2.1 350 00:57 20.08.2019
3360 Clear 24 1015 41 10000 2.6 350 00:39 20.08.2019
3361 Clear 24 1015 41 10000 3.1 350 00:19 20.08.2019
3362 Clear 25 1015 38 10000 3.6 340 23:39 19.08.2019
3363 Clear 24 1015 38 10000 3.6 340 23:18 19.08.2019
3364 Clear 25 1015 36 10000 3.1 330 22:54 19.08.2019
3365 Clear 25 1016 36 10000 5.1 10 22:36 19.08.2019
3366 Clear 25 1015 32 10000 3.6 330 22:18 19.08.2019
3367 Clear 25 1015 32 10000 3.6 350 21:55 19.08.2019
3368 Clear 25 1015 32 10000 3.6 350 21:36 19.08.2019
3369 Clear 26 1015 32 10000 3.6 10 21:18 19.08.2019
3370 Clear 26 1015 28 10000 4.1 360 20:39 19.08.2019
3371 Clear 26 1015 28 10000 4.1 360 20:20 19.08.2019
3372 Clear 26 1014 28 10000 4.1 360 19:58 19.08.2019
3373 Clear 26 1014 26 10000 5.1 350 19:39 19.08.2019
3374 Clear 27 1014 26 10000 5.1 350 19:19 19.08.2019
3375 Clear 27 1014 25 10000 5.1 360 18:46 19.08.2019
3376 Clear 28 1014 25 10000 5.1 360 18:28 19.08.2019
3377 Clear 29 1014 25 10000 3.6 360 17:59 19.08.2019
3378 Clear 29 1014 24 10000 4.1 10 17:41 19.08.2019
3379 Clear 29 1014 24 10000 4.1 10 17:41 19.08.2019
3380 Clear 29 1014 24 10000 4.1 10 17:21 19.08.2019
3381 Clear 29 1014 25 10000 4.1 20 16:58 19.08.2019
3382 Clear 29 1014 25 10000 4.1 20 16:37 19.08.2019
3383 Clear 29 1014 25 10000 4.1 20 16:37 19.08.2019
3384 Clouds 29 1014 25 10000 4.6 360 16:19 19.08.2019
3385 Clouds 29 1014 25 10000 6.2 360 15:55 19.08.2019
3386 Clouds 29 1014 25 10000 6.2 360 15:37 19.08.2019
3387 Clouds 30 1014 25 10000 6.2 360 15:18 19.08.2019
3388 Clouds 30 1014 25 10000 5.7 350 14:41 19.08.2019
3389 Clouds 30 1014 25 10000 5.7 340 14:22 19.08.2019
3390 Clouds 30 1014 25 10000 3.6 360 13:57 19.08.2019
3391 Clouds 30 1014 25 10000 3.6 360 13:38 19.08.2019
3392 Clouds 30 1014 25 10000 3.6 360 13:38 19.08.2019
3393 Clouds 30 1014 27 10000 6.2 350 13:19 19.08.2019
3394 Clouds 30 1014 27 10000 6.2 350 13:19 19.08.2019
3395 Clouds 30 1014 31 10000 5.1 340 12:45 19.08.2019
3396 Clouds 29 1014 29 10000 5.1 360 12:25 19.08.2019
3397 Clouds 29 1014 31 10000 5.1 340 11:59 19.08.2019
3398 Clouds 29 1014 31 10000 5.1 340 11:39 19.08.2019
3399 Clouds 29 1014 33 10000 4.6 350 11:20 19.08.2019
3400 Clouds 29 1014 35 10000 3.1 360 10:55 19.08.2019
3401 Clouds 28 1014 35 10000 3.1 360 10:37 19.08.2019
3402 Clear 28 1015 39 10000 4.6 340 10:18 19.08.2019
3403 Clear 27 1015 39 10000 2.6 340 09:43 19.08.2019
3404 Clear 27 1014 45 10000 4.1 350 09:23 19.08.2019
3405 Clear 26 1015 44 10000 4.1 340 08:56 19.08.2019
3406 Clear 26 1015 44 10000 4.1 340 08:56 19.08.2019
3407 Clear 26 1015 44 10000 4.1 340 08:38 19.08.2019
3408 Clear 25 1015 41 10000 2.6 350 08:18 19.08.2019
3409 Clear 25 1015 41 10000 2.1 350 07:44 19.08.2019
3410 Clear 24 1015 46 10000 1.5 0 07:26 19.08.2019
3411 Clear 23 1014 43 10000 4.72 359.453 06:47 19.08.2019
3412 Clear 22 1015 46 10000 3.53 2.632 06:25 19.08.2019
3413 Clear 22 1014 43 10000 3.53 2.632 04:54 19.08.2019
3414 Clear 22 1014 40 10000 2.1 340 04:25 19.08.2019
3415 Clear 23 1014 38 10000 3.1 340 03:21 19.08.2019
3416 Clear 23 1014 36 10000 2.1 340 02:19 19.08.2019
3417 Clear 24 1014 36 10000 3.6 340 01:21 19.08.2019
3418 Clear 23 1015 33 10000 3.6 330 00:43 19.08.2019
3419 Clear 24 1015 33 10000 3.1 330 00:23 19.08.2019
3420 Clear 24 1014 33 10000 2.6 330 23:42 18.08.2019
3421 Clear 24 1014 36 10000 3.1 320 23:21 18.08.2019
3422 Clear 24 1014 31 10000 1.5 0 22:55 18.08.2019
3423 Clear 24 1014 31 10000 1.5 0 22:37 18.08.2019
3424 Clear 24 1014 31 10000 1.5 0 22:19 18.08.2019
3425 Clear 24 1014 33 10000 3.73 332.899 21:42 18.08.2019
3426 Clear 24 1014 31 10000 1.5 0 21:23 18.08.2019
3427 Clear 25 1014 31 10000 1.5 0 20:59 18.08.2019
3428 Clear 25 1014 30 10000 1.5 0 20:41 18.08.2019
3429 Clear 25 1014 30 10000 1.5 0 20:23 18.08.2019
3430 Clear 27 1014 30 10000 2.1 360 19:54 18.08.2019
3431 Clear 27 1014 30 10000 2.1 360 19:36 18.08.2019
3432 Clear 28 1014 26 10000 3.6 360 19:18 18.08.2019
3433 Clear 28 1013 25 10000 5.1 360 18:41 18.08.2019
3434 Clear 29 1013 27 10000 5.1 10 18:23 18.08.2019
3435 Clear 29 1013 27 10000 4.6 10 17:57 18.08.2019
3436 Clear 29 1013 27 10000 4.6 10 17:39 18.08.2019
3437 Clouds 29 1014 27 10000 4.6 20 17:19 18.08.2019
3438 Clouds 29 1014 29 10000 5.7 360 16:56 18.08.2019
3439 Clouds 29 1014 29 10000 5.7 360 16:38 18.08.2019
3440 Clouds 29 1014 27 10000 4.6 340 16:19 18.08.2019
3441 Clouds 29 1014 27 10000 5.1 360 15:55 18.08.2019
3442 Clouds 29 1014 27 10000 5.1 360 15:37 18.08.2019
3443 Clouds 29 1014 27 10000 4.6 350 15:19 18.08.2019
3444 Clouds 29 1014 29 10000 5.7 10 14:40 18.08.2019
3445 Clouds 29 1014 29 10000 4.1 360 14:20 18.08.2019
3446 Clouds 29 1016 30 10000 7.7 70 13:59 18.08.2019
3447 Clouds 29 1014 29 10000 3.6 360 13:41 18.08.2019
3448 Clouds 29 1014 31 10000 3.1 360 13:22 18.08.2019
3449 Clouds 29 1014 29 10000 3.6 30 12:57 18.08.2019
3450 Clouds 29 1014 29 10000 3.6 30 12:38 18.08.2019
3451 Clouds 29 1014 29 10000 3.6 30 12:38 18.08.2019
3452 Clouds 29 1014 29 10000 2.6 40 12:20 18.08.2019
3453 Clouds 29 1014 29 10000 2.6 40 12:20 18.08.2019
3454 Clouds 28 1014 35 10000 2.6 10 11:42 18.08.2019
3455 Clouds 28 1014 37 10000 2.6 350 11:23 18.08.2019
3456 Clouds 28 1014 37 10000 2.6 350 11:23 18.08.2019
3457 Clouds 28 1014 37 10000 2.6 350 10:57 18.08.2019
3458 Clouds 28 1014 37 10000 3.6 360 10:39 18.08.2019
3459 Clouds 28 1015 39 10000 3.6 350 10:18 18.08.2019
3460 Clouds 27 1014 39 10000 3.6 350 09:43 18.08.2019
3461 Clouds 26 1014 42 10000 3.1 350 09:20 18.08.2019
3462 Clear 25 1014 47 10000 2.1 350 08:44 18.08.2019
3463 Clear 25 1014 47 10000 2.1 350 08:44 18.08.2019
3464 Clear 24 1014 50 10000 2.1 340 08:25 18.08.2019
3465 Clear 24 1014 50 10000 2.1 340 08:25 18.08.2019
3466 Clear 22 1014 53 10000 1.5 0 07:57 18.08.2019
3467 Clear 22 1014 53 10000 1.5 0 07:30 18.08.2019
3468 Clear 20 1014 56 10000 4.87 3.685 06:33 18.08.2019
3469 Clouds 19 1014 56 10000 1.5 0 05:43 18.08.2019
3470 Clouds 20 1013 49 10000 1.5 0 04:18 18.08.2019
3471 Clouds 21 1014 53 10000 2.91 345.323 03:00 18.08.2019
3472 Clouds 21 1014 53 10000 2.91 345.323 02:41 18.08.2019
3473 Clouds 21 1014 53 10000 2.91 345.323 02:18 18.08.2019
3474 Clouds 21 1013 56 10000 1.5 0 01:27 18.08.2019
3475 Clouds 21 1013 56 10000 1.5 0 00:42 18.08.2019
3476 Clouds 21 1013 53 10000 1.5 0 00:23 18.08.2019
3477 Clouds 22 1013 57 10000 1.5 0 23:58 17.08.2019
3478 Clouds 22 1013 57 10000 1.5 0 23:38 17.08.2019
3479 Clouds 22 1013 53 10000 2.34 358.605 23:19 17.08.2019
3480 Clouds 23 1013 53 10000 1.5 0 22:57 17.08.2019
3481 Clouds 23 1013 53 10000 1.5 0 22:39 17.08.2019
3482 Clouds 23 1013 53 10000 2.1 70 22:21 17.08.2019
3483 Clouds 24 1013 50 10000 2.6 80 21:55 17.08.2019
3484 Clouds 24 1013 50 10000 2.6 80 21:37 17.08.2019
3485 Clouds 24 1012 50 10000 2.6 80 21:18 17.08.2019
3486 Clouds 26 1012 50 10000 2.6 70 20:39 17.08.2019
3487 Clouds 26 1012 42 10000 2.6 10 20:20 17.08.2019
3488 Clouds 26 1011 45 10000 3.6 350 19:56 17.08.2019
3489 Clouds 26 1011 45 10000 3.6 350 19:37 17.08.2019
3490 Clouds 26 1011 39 10000 4.1 360 19:19 17.08.2019
3491 Clouds 27 1011 37 10000 4.1 10 18:39 17.08.2019
3492 Clouds 28 1010 35 10000 3.6 10 18:19 17.08.2019
3493 Clouds 28 1010 35 10000 3.6 10 17:55 17.08.2019
3494 Clouds 28 1012 57 10000 11.8 20 17:37 17.08.2019
3495 Clouds 28 1012 54 10000 9.3 20 17:18 17.08.2019
3496 Clouds 29 1010 33 10000 3.6 10 16:43 17.08.2019
3497 Clouds 28 1012 45 10000 8.7 60 16:25 17.08.2019
3498 Clouds 29 1012 48 10000 8.2 60 15:58 17.08.2019
3499 Clouds 29 1012 48 10000 8.2 60 15:39 17.08.2019
3500 Clouds 29 1012 57 10000 7.2 60 15:20 17.08.2019
3501 Clouds 30 1010 31 10000 4.1 310 14:41 17.08.2019
3502 Clouds 30 1011 31 10000 4.1 360 14:22 17.08.2019
3503 Clouds 30 1011 33 10000 5.1 360 13:48 17.08.2019
3504 Clouds 30 1011 33 10000 3.6 330 13:23 17.08.2019
3505 Clouds 30 1011 33 10000 4.6 330 12:58 17.08.2019
3506 Clouds 30 1011 33 10000 4.6 330 12:40 17.08.2019
3507 Clouds 29 1013 39 10000 6.7 50 12:19 17.08.2019
3508 Clouds 29 1011 33 10000 5.1 340 11:45 17.08.2019
3509 Clouds 29 1011 33 10000 5.1 350 11:21 17.08.2019
3510 Clouds 29 1012 35 10000 5.1 340 10:57 17.08.2019
3511 Clouds 29 1012 35 10000 5.1 340 10:57 17.08.2019
3512 Clouds 29 1012 35 10000 5.1 340 10:39 17.08.2019
3513 Clouds 29 1012 39 10000 5.1 340 10:19 17.08.2019
3514 Clouds 28 1012 45 10000 4.6 340 09:48 17.08.2019
3515 Clouds 27 1012 54 10000 4.1 330 09:29 17.08.2019
3516 Clouds 27 1011 54 10000 5.1 330 08:54 17.08.2019
3517 Clouds 26 1011 54 10000 5.1 340 08:25 17.08.2019
3518 Clouds 26 1011 57 10000 3.1 330 07:51 17.08.2019
3519 Clouds 25 1011 65 10000 2.6 320 07:21 17.08.2019
3520 Clouds 24 1011 65 10000 2.1 300 06:53 17.08.2019
3521 Clouds 24 1010 65 10000 2.6 310 05:35 17.08.2019
3522 Clouds 24 1010 61 10000 2.6 320 04:29 17.08.2019
3523 Clouds 25 1010 61 10000 3.44 6.252 03:33 17.08.2019
3524 Clouds 25 1010 73 10000 1.27 348.619 01:48 17.08.2019
3525 Clouds 25 1010 73 10000 1.17 343.994 01:28 17.08.2019
3526 Clouds 25 1010 69 10000 1.17 343.994 00:55 17.08.2019
3527 Clouds 25 1010 69 10000 1.17 343.994 00:31 17.08.2019
3528 Clouds 25 1010 74 10000 1.53 188.718 23:52 16.08.2019
3529 Clouds 25 1010 69 10000 1.53 188.718 23:28 16.08.2019
3530 Clouds 25 1011 69 10000 1.53 188.718 22:58 16.08.2019
3531 Clouds 25 1011 69 10000 1.53 188.718 22:39 16.08.2019
3532 Clouds 26 1010 69 10000 1.53 188.718 22:19 16.08.2019
3533 Clouds 26 1010 69 10000 1.53 188.718 22:19 16.08.2019
3534 Clouds 26 1010 74 10000 1.53 188.718 21:42 16.08.2019
3535 Clouds 26 1010 74 10000 2.55 194.091 21:21 16.08.2019
3536 Clouds 27 1010 74 10000 4.1 180 20:58 16.08.2019
3537 Clouds 26 1010 74 10000 4.1 180 20:39 16.08.2019
3538 Clouds 27 1009 69 10000 4.1 180 20:19 16.08.2019
3539 Clouds 27 1009 69 10000 4.1 180 19:44 16.08.2019
3540 Clouds 28 1009 69 10000 4.1 180 19:23 16.08.2019
3541 Clouds 28 1009 69 10000 4.1 180 18:59 16.08.2019
3542 Clouds 28 1008 66 10000 4.1 170 18:41 16.08.2019
3543 Clouds 29 1008 58 10000 3.6 180 18:22 16.08.2019
3544 Clouds 29 1008 48 10000 3.1 180 17:44 16.08.2019
3545 Clouds 30 1008 46 10000 3.6 170 17:25 16.08.2019
3546 Clouds 30 1008 43 10000 3.6 170 16:56 16.08.2019
3547 Clouds 30 1008 43 10000 3.6 170 16:38 16.08.2019
3548 Clouds 30 1008 38 10000 3.6 170 16:18 16.08.2019
3549 Clouds 30 1008 36 10000 3.6 160 15:41 16.08.2019
3550 Rain 31 1008 36 10000 4.1 180 15:22 16.08.2019
3551 Clouds 30 1009 32 10000 4.1 180 14:58 16.08.2019
3552 Clouds 30 1009 32 10000 4.1 180 14:40 16.08.2019
3553 Clouds 31 1009 36 10000 4.1 200 14:19 16.08.2019
3554 Clouds 31 1009 32 10000 2.6 220 13:58 16.08.2019
3555 Clouds 31 1009 32 10000 2.6 220 13:38 16.08.2019
3556 Clouds 31 1009 34 10000 3.1 200 13:19 16.08.2019
3557 Clouds 31 1009 30 10000 2.6 170 12:39 16.08.2019
3558 Clouds 30 1011 42 10000 6.7 50 12:20 16.08.2019
3559 Clouds 31 1010 31 10000 2.1 290 11:43 16.08.2019
3560 Clouds 30 1010 33 10000 2.6 300 11:24 16.08.2019
3561 Clouds 31 1010 35 10000 2.1 320 10:58 16.08.2019
3562 Clouds 31 1010 35 10000 2.1 320 10:40 16.08.2019
3563 Clouds 30 1010 40 10000 3.6 330 10:18 16.08.2019
3564 Clouds 29 1010 42 10000 3.6 330 09:38 16.08.2019
3565 Clouds 28 1010 45 10000 3.6 330 09:19 16.08.2019
3566 Clouds 27 1010 48 10000 3.6 330 08:56 16.08.2019
3567 Clouds 27 1010 48 10000 3.6 330 08:38 16.08.2019
3568 Clouds 27 1010 48 10000 3.6 320 08:19 16.08.2019
3569 Clouds 27 1009 48 10000 2.6 310 07:44 16.08.2019
3570 Clouds 26 1009 51 10000 1.5 0 07:25 16.08.2019
3571 Clouds 25 1009 47 10000 1.5 0 06:38 16.08.2019
3572 Clouds 24 1009 54 10000 3.66 2.287 05:58 16.08.2019
3573 Clear 24 1009 51 10000 2.6 350 05:33 16.08.2019
3574 Clouds 25 1010 68 10000 2.3 7.985 03:19 16.08.2019
3575 Clouds 26 1010 64 10000 2.3 7.985 01:50 16.08.2019
3576 Clouds 26 1008 65 10000 2.46 12.163 01:25 16.08.2019
3577 Clouds 26 1009 65 10000 2.46 12.163 00:48 16.08.2019
3578 Clouds 26 1009 65 10000 1.4 340.118 00:23 16.08.2019
3579 Clouds 27 1009 65 10000 1.4 340.118 23:55 15.08.2019
3580 Clouds 27 1009 65 10000 1.4 340.118 23:37 15.08.2019
3581 Clouds 27 1009 65 10000 1.4 340.118 23:18 15.08.2019
3582 Clouds 27 1009 65 10000 1.4 340.118 22:41 15.08.2019
3583 Clouds 27 1009 65 10000 1.4 340.118 22:41 15.08.2019
3584 Clouds 27 1009 65 10000 1.4 340.118 22:22 15.08.2019
3585 Clouds 27 1008 65 10000 1.74 349.577 21:58 15.08.2019
3586 Clouds 27 1008 65 10000 1.74 349.577 21:39 15.08.2019
3587 Clouds 28 1008 65 10000 0.93 248.382 21:19 15.08.2019
3588 Clouds 28 1007 62 10000 0.93 248.382 20:57 15.08.2019
3589 Clouds 28 1007 62 10000 0.93 248.382 20:38 15.08.2019
3590 Clouds 28 1007 58 10000 2.6 170 20:20 15.08.2019
3591 Clouds 28 1007 62 10000 3.6 170 19:39 15.08.2019
3592 Clouds 29 1006 58 10000 3.1 170 19:21 15.08.2019
3593 Clouds 29 1006 62 10000 3.1 170 18:55 15.08.2019
3594 Clouds 29 1006 62 10000 3.1 170 18:37 15.08.2019
3595 Clouds 29 1006 58 10000 3.6 170 18:18 15.08.2019
3596 Clouds 30 1005 62 10000 3.6 190 17:39 15.08.2019
3597 Clouds 31 1005 48 10000 4.1 170 17:20 15.08.2019
3598 Clouds 32 1005 46 10000 4.1 180 16:59 15.08.2019
3599 Clouds 32 1005 46 10000 4.1 180 16:41 15.08.2019
3600 Clouds 32 1005 41 10000 4.1 170 16:23 15.08.2019
3601 Clouds 32 1005 36 10000 4.1 180 15:55 15.08.2019
3602 Clouds 33 1005 36 10000 4.1 180 15:36 15.08.2019
3603 Clouds 32 1005 36 10000 3.6 180 15:18 15.08.2019
3604 Clouds 32 1005 38 10000 4.1 180 14:41 15.08.2019
3605 Clouds 33 1005 36 10000 4.1 210 14:22 15.08.2019
3606 Clouds 33 1005 38 10000 4.1 200 13:57 15.08.2019
3607 Clouds 33 1005 38 10000 4.1 200 13:39 15.08.2019
3608 Clouds 33 1006 34 10000 3.1 220 13:20 15.08.2019
3609 Clouds 33 1006 34 10000 3.1 220 12:55 15.08.2019
3610 Clouds 32 1006 34 10000 3.1 220 12:36 15.08.2019
3611 Clear 32 1006 38 10000 3.1 210 12:18 15.08.2019
3612 Clear 32 1006 41 10000 3.1 170 11:40 15.08.2019
3613 Clear 31 1008 35 10000 3.1 20 11:21 15.08.2019
3614 Clear 32 1006 38 10000 3.6 320 10:59 15.08.2019
3615 Clear 32 1006 38 10000 3.6 320 10:38 15.08.2019
3616 Clear 31 1007 43 10000 3.1 320 10:20 15.08.2019
3617 Clear 31 1007 45 10000 3.6 330 09:45 15.08.2019
3618 Clear 30 1007 48 10000 3.6 340 09:23 15.08.2019
3619 Clear 29 1007 48 10000 3.6 330 08:56 15.08.2019
3620 Clear 29 1007 48 10000 3.6 330 08:37 15.08.2019
3621 Clear 28 1007 45 10000 3.1 320 08:18 15.08.2019
3622 Clear 27 1007 45 10000 3.1 330 07:42 15.08.2019
3623 Clear 26 1007 44 10000 2.6 320 07:23 15.08.2019
3624 Clear 26 1007 44 10000 2.6 320 07:23 15.08.2019
3625 Clear 25 1007 50 10000 1.5 0 06:53 15.08.2019
3626 Clear 25 1007 50 10000 1.5 0 06:32 15.08.2019
3627 Clear 24 1006 64 10000 1.89 32.188 05:44 15.08.2019
3628 Clear 24 1006 60 10000 1.89 32.188 05:25 15.08.2019
3629 Clear 24 1006 64 10000 1.89 32.188 04:32 15.08.2019
3630 Clear 24 1005 60 10000 1.89 32.188 03:39 15.08.2019
3631 Clear 24 1005 60 10000 1.11 347.544 02:44 15.08.2019
3632 Clear 24 1005 60 10000 1.11 347.544 01:52 15.08.2019
3633 Clear 24 1005 60 10000 0.45 69.681 01:30 15.08.2019
3634 Clear 25 1005 57 10000 0.45 69.681 00:41 15.08.2019
3635 Clear 25 1005 61 10000 0.34 102.047 00:20 15.08.2019
3636 Clear 25 1005 65 10000 0.34 102.047 23:57 14.08.2019
3637 Clear 25 1005 65 10000 0.34 102.047 23:37 14.08.2019
3638 Clear 26 1005 65 10000 0.34 102.047 23:19 14.08.2019
3639 Clear 26 1005 65 10000 0.34 102.047 23:19 14.08.2019
3640 Clear 26 1006 65 10000 0.34 102.047 22:56 14.08.2019
3641 Clear 26 1006 65 10000 0.34 102.047 22:38 14.08.2019
3642 Clear 26 1006 74 10000 0.34 102.047 22:19 14.08.2019
3643 Clear 26 1006 74 10000 0.34 102.047 21:55 14.08.2019
3644 Clear 26 1006 74 10000 0.06 64.747 21:36 14.08.2019
3645 Clear 26 1006 65 10000 1.59 177.298 21:18 14.08.2019
3646 Clear 27 1005 65 10000 1.5 0 20:41 14.08.2019
3647 Clear 27 1005 61 10000 1.5 0 20:21 14.08.2019
3648 Clear 28 1005 58 10000 2.1 170 19:56 14.08.2019
3649 Clear 28 1005 58 10000 2.1 170 19:37 14.08.2019
3650 Clear 29 1005 61 10000 2.6 180 19:19 14.08.2019
3651 Clear 30 1004 54 10000 2.1 180 18:56 14.08.2019
3652 Clear 30 1004 54 10000 2.1 180 18:38 14.08.2019
3653 Clouds 30 1004 48 10000 4.1 170 18:19 14.08.2019
3654 Clouds 31 1004 43 10000 4.1 170 17:56 14.08.2019
3655 Clouds 31 1004 43 10000 4.1 170 17:56 14.08.2019
3656 Clouds 31 1004 43 10000 4.1 170 17:36 14.08.2019
3657 Clouds 31 1004 43 10000 4.6 170 17:18 14.08.2019
3658 Clouds 32 1004 38 10000 3.1 170 16:41 14.08.2019
3659 Clouds 33 1004 32 10000 5.1 180 16:20 14.08.2019
3660 Clouds 33 1004 32 10000 4.1 180 15:45 14.08.2019
3661 Clouds 34 1004 23 10000 2.6 290 15:24 14.08.2019
3662 Clouds 34 1004 23 10000 2.6 290 14:59 14.08.2019
3663 Clouds 34 1004 19 10000 2.6 350 14:39 14.08.2019
3664 Clouds 34 1005 19 10000 2.6 360 14:19 14.08.2019
3665 Clouds 33 1005 20 10000 3.6 350 13:56 14.08.2019
3666 Clouds 33 1005 20 10000 3.6 350 13:38 14.08.2019
3667 Clouds 33 1005 23 10000 3.1 340 13:20 14.08.2019
3668 Clouds 33 1006 24 10000 3.6 340 12:56 14.08.2019
3669 Clouds 33 1006 24 10000 3.6 340 12:37 14.08.2019
3670 Clouds 33 1006 24 10000 3.6 340 12:37 14.08.2019
3671 Clouds 33 1006 23 10000 4.1 330 12:19 14.08.2019
3672 Clouds 32 1006 28 10000 5.1 320 11:45 14.08.2019
3673 Clouds 31 1006 31 10000 4.1 330 11:23 14.08.2019
3674 Clouds 31 1006 31 10000 4.6 330 10:58 14.08.2019
3675 Clouds 31 1006 31 10000 4.6 330 10:38 14.08.2019
3676 Clouds 31 1006 31 10000 4.6 360 10:20 14.08.2019
3677 Clouds 30 1006 35 10000 3.6 350 09:44 14.08.2019
3678 Clouds 30 1006 35 10000 3.6 350 09:44 14.08.2019
3679 Clouds 30 1006 38 10000 3.1 350 09:21 14.08.2019
3680 Clouds 28 1006 42 10000 3.6 340 08:47 14.08.2019
3681 Clouds 28 1006 42 10000 3.1 330 08:29 14.08.2019
3682 Clouds 26 1006 45 10000 3.1 320 07:57 14.08.2019
3683 Clouds 27 1006 45 10000 3.1 320 07:38 14.08.2019
3684 Clouds 26 1006 48 10000 2.6 320 07:19 14.08.2019
3685 Clouds 24 1006 48 10000 2.6 320 06:43 14.08.2019
3686 Clouds 25 1006 45 10000 4.1 330 05:35 14.08.2019
3687 Clouds 25 1007 42 9000 1.5 0 04:43 14.08.2019
3688 Clouds 26 1007 42 9000 1.5 0 02:44 14.08.2019
3689 Clouds 26 1007 42 9000 2.6 320 02:25 14.08.2019
3690 Clouds 26 1007 39 9000 1.5 0 01:30 14.08.2019
3691 Clouds 28 1007 39 9000 1.5 0 00:47 14.08.2019
3692 Clouds 27 1007 39 9000 2.1 320 23:46 13.08.2019
3693 Clouds 27 1007 39 9000 2.6 320 23:20 13.08.2019
3694 Clouds 27 1007 39 9000 2.1 320 22:57 13.08.2019
3695 Clouds 27 1007 39 9000 2.1 320 22:38 13.08.2019
3696 Clouds 27 1008 37 9000 2.1 330 22:20 13.08.2019
3697 Clouds 27 1008 37 9000 2.1 330 21:56 13.08.2019
3698 Clouds 27 1008 37 9000 2.1 330 21:56 13.08.2019
3699 Clouds 27 1008 37 9000 2.1 330 21:36 13.08.2019
3700 Clouds 28 1007 35 9000 1.5 0 21:18 13.08.2019
3701 Clouds 28 1007 37 9000 1.5 0 20:44 13.08.2019
3702 Clouds 28 1007 33 9000 2.1 300 20:20 13.08.2019
3703 Clouds 28 1007 33 9000 4.1 330 19:58 13.08.2019
3704 Clouds 28 1007 33 9000 4.1 330 19:40 13.08.2019
3705 Clear 29 1007 31 9000 5.1 330 19:21 13.08.2019
3706 Clear 30 1007 31 9000 5.7 330 18:42 13.08.2019
3707 Clear 31 1007 29 9000 3.6 320 18:22 13.08.2019
3708 Clear 31 1007 29 7000 5.1 330 17:58 13.08.2019
3709 Clear 31 1007 29 7000 5.1 330 17:39 13.08.2019
3710 Clear 31 1006 29 7000 5.1 330 17:19 13.08.2019
3711 Clear 31 1006 29 7000 6.7 330 16:56 13.08.2019
3712 Clear 31 1006 29 7000 6.7 330 16:37 13.08.2019
3713 Clear 31 1006 28 10000 7.2 330 16:19 13.08.2019
3714 Clear 32 1006 30 10000 5.1 330 15:39 13.08.2019
3715 Clear 32 1006 30 10000 6.7 340 15:20 13.08.2019
3716 Clear 32 1006 30 10000 6.7 330 14:57 13.08.2019
3717 Clear 32 1006 30 10000 6.7 330 14:57 13.08.2019
3718 Clear 32 1006 30 10000 6.7 330 14:38 13.08.2019
3719 Clear 32 1006 30 10000 6.7 330 14:38 13.08.2019
3720 Clear 32 1006 28 10000 6.7 330 14:18 13.08.2019
3721 Clear 32 1006 28 10000 7.2 330 13:42 13.08.2019
3722 Clear 33 1007 28 9000 6.7 330 13:21 13.08.2019
3723 Clear 32 1007 28 9000 6.2 340 12:59 13.08.2019
3724 Clear 32 1007 28 9000 6.2 340 12:40 13.08.2019
3725 Clear 32 1007 26 7000 6.2 340 12:22 13.08.2019
3726 Smoke 31 1007 27 5000 6.2 330 11:58 13.08.2019
3727 Smoke 31 1007 27 5000 6.2 330 11:38 13.08.2019
3728 Smoke 30 1007 31 5000 6.2 330 11:18 13.08.2019
3729 -273 0 0 0 0 0 10:55 13.08.2019
3730 Smoke 30 1008 33 5000 5.1 330 10:36 13.08.2019
3731 Clear 30 1008 35 6000 5.1 330 10:18 13.08.2019
3732 Clear 29 1008 35 9000 4.1 330 09:42 13.08.2019
3733 Clear 28 1008 35 10000 5.1 330 09:23 13.08.2019
3734 Clear 28 1008 42 10000 4.1 330 08:43 13.08.2019
3735 Clear 27 1008 42 10000 4.1 330 08:22 13.08.2019
3736 Clear 26 1008 47 10000 4.1 330 07:56 13.08.2019
3737 Clear 26 1008 47 10000 4.1 330 07:34 13.08.2019
3738 Clear 25 1007 54 10000 5.1 320 06:55 13.08.2019
3739 Clear 25 1007 54 10000 5.1 320 06:34 13.08.2019
3740 Clear 24 1007 50 10000 4.6 330 05:35 13.08.2019
3741 Clear 26 1007 42 10000 5.1 340 02:52 13.08.2019
3742 Clear 26 1007 42 10000 4.6 330 02:19 13.08.2019
3743 Clear 26 1008 37 10000 4.1 330 00:59 13.08.2019
3744 Clear 26 1008 37 10000 4.1 330 00:40 13.08.2019
3745 Clear 27 1008 35 10000 3.1 330 23:56 12.08.2019
3746 Clear 27 1008 35 10000 3.1 330 23:36 12.08.2019
3747 Clear 27 1008 35 10000 2.1 310 23:18 12.08.2019
3748 Clear 27 1008 35 10000 4.1 310 22:40 12.08.2019
3749 Clear 27 1008 35 10000 2.1 320 22:19 12.08.2019
3750 -273 0 0 0 0 0 21:55 12.08.2019
3751 Clear 28 1008 35 10000 1.5 0 21:37 12.08.2019
3752 Clear 28 1008 35 10000 2.1 310 21:18 12.08.2019
3753 Clear 28 1008 35 10000 2.1 330 20:57 12.08.2019
3754 Clear 28 1008 35 10000 2.1 330 20:38 12.08.2019
3755 Clear 28 1008 35 10000 3.1 330 20:20 12.08.2019
3756 Clear 29 1008 35 10000 4.1 330 19:55 12.08.2019
3757 Clear 29 1008 35 10000 4.1 330 19:37 12.08.2019
3758 Clear 29 1008 35 10000 3.1 340 19:18 12.08.2019
3759 Clear 30 1008 33 10000 5.7 340 18:55 12.08.2019
3760 Clear 30 1008 33 10000 5.7 340 18:36 12.08.2019
3761 Clear 30 1008 31 10000 5.7 340 18:18 12.08.2019
3762 Clear 30 1008 29 10000 7.2 340 17:46 12.08.2019
3763 Clear 30 1008 29 10000 5.7 330 17:28 12.08.2019
3764 Clear 30 1008 27 10000 8.7 330 16:56 12.08.2019
3765 Clear 30 1008 27 10000 8.7 330 16:56 12.08.2019
3766 Clear 30 1008 27 10000 8.7 330 16:56 12.08.2019
3767 Clear 30 1008 27 10000 8.7 330 16:56 12.08.2019
3768 Clear 30 1008 27 10000 8.7 330 16:56 12.08.2019
3769 Clear 31 1008 27 10000 8.7 330 16:37 12.08.2019
3770 Clear 31 1008 26 10000 8.2 340 16:19 12.08.2019
3771 Clear 30 1008 27 10000 7.7 330 15:54 12.08.2019
3772 Clear 31 1008 27 10000 7.7 330 15:36 12.08.2019
3773 -273 0 0 0 0 0 15:36 12.08.2019
3774 Clear 31 1008 27 10000 8.7 340 15:18 12.08.2019
3775 Clear 31 1008 29 10000 8.2 340 14:42 12.08.2019
3776 Clear 31 1009 29 10000 7.7 330 14:23 12.08.2019
3777 Clear 31 1009 29 10000 8.7 330 13:58 12.08.2019
3778 Clear 31 1009 29 10000 8.7 330 13:58 12.08.2019
3779 Clear 31 1009 29 10000 8.7 330 13:40 12.08.2019
3780 Clear 31 1009 31 10000 8.2 330 13:21 12.08.2019
3781 Clear 31 1009 31 10000 9.3 340 12:43 12.08.2019
3782 Clear 31 1009 31 10000 9.3 340 12:43 12.08.2019
3783 Clear 30 1009 33 10000 9.3 350 12:21 12.08.2019
3784 -273 0 0 0 0 0 11:47 12.08.2019
3785 Clear 30 1010 33 10000 9.3 350 11:29 12.08.2019
3786 Rain 30 1010 33 10000 10.8 340 10:59 12.08.2019
3787 Rain 29 1010 33 10000 10.8 340 10:40 12.08.2019
3788 Rain 30 1010 33 10000 10.8 340 10:40 12.08.2019
3789 Rain 29 1010 35 10000 7.7 350 10:21 12.08.2019
3790 Clear 29 1010 35 10000 7.7 350 09:55 12.08.2019
3791 Clear 29 1010 35 10000 7.7 350 09:37 12.08.2019
3792 Clear 28 1010 37 10000 5.1 340 09:18 12.08.2019
3793 Clear 28 1010 42 10000 5.1 350 08:40 12.08.2019
3794 Clear 27 1009 39 10000 5.1 350 08:22 12.08.2019
3795 Clear 27 1010 48 10000 7.7 340 07:56 12.08.2019
3796 Clear 27 1010 48 10000 7.7 340 07:35 12.08.2019
3797 Clear 26 1009 47 10000 5.1 330 06:54 12.08.2019
3798 Clear 26 1009 51 10000 3.6 340 06:20 12.08.2019
3799 Clear 26 1009 44 10000 2.6 300 04:31 12.08.2019
3800 Clear 27 1009 45 10000 4.1 330 02:43 12.08.2019
3801 Clear 27 1010 42 10000 4.1 330 01:48 12.08.2019
3802 Clear 27 1011 37 10000 8.7 30 01:19 12.08.2019
3803 Clear 27 1010 35 10000 3.6 330 00:55 12.08.2019
3804 Clear 27 1010 35 10000 3.6 330 00:37 12.08.2019
3805 Clear 27 1011 35 10000 3.1 320 00:18 12.08.2019
3806 Clear 27 1011 32 10000 3.1 340 23:40 11.08.2019
3807 Clear 27 1011 34 10000 2.6 350 23:20 11.08.2019
3808 Clear 27 1011 34 10000 2.6 350 22:58 11.08.2019
3809 Clear 27 1011 32 10000 2.6 330 22:39 11.08.2019
3810 Clear 27 1011 30 10000 2.1 340 22:18 11.08.2019
3811 Clear 28 1011 30 10000 2.6 350 21:58 11.08.2019
3812 Clear 28 1011 30 10000 2.6 350 21:39 11.08.2019
3813 Clear 28 1011 27 10000 3.1 330 21:19 11.08.2019
3814 Clear 29 1010 25 10000 3.6 330 20:45 11.08.2019
3815 Clear 29 1010 23 10000 3.6 320 20:24 11.08.2019
3816 Clear 29 1010 22 10000 4.1 340 19:57 11.08.2019
3817 Clear 29 1010 22 10000 4.1 340 19:39 11.08.2019
3818 Clear 30 1010 21 10000 5.1 320 19:18 11.08.2019
3819 Clear 31 1010 21 10000 6.2 350 18:41 11.08.2019
3820 Clear 31 1010 22 10000 6.2 350 18:21 11.08.2019
3821 Clear 32 1010 22 10000 5.1 340 17:57 11.08.2019
3822 Clear 32 1010 22 10000 5.1 340 17:39 11.08.2019
3823 Clear 32 1010 21 10000 5.1 330 17:20 11.08.2019
3824 Clear 32 1010 23 10000 6.2 330 16:55 11.08.2019
3825 Clear 32 1010 23 10000 6.2 330 16:37 11.08.2019
3826 Clear 32 1010 24 10000 7.7 340 16:18 11.08.2019
3827 Clear 32 1010 26 10000 7.2 340 15:43 11.08.2019
3828 Clear 32 1010 26 10000 7.2 340 15:43 11.08.2019
3829 Clear 32 1010 24 10000 5.7 360 15:24 11.08.2019
3830 Clear 33 1010 26 10000 5.7 350 14:57 11.08.2019
3831 Clear 33 1010 26 10000 5.7 350 14:38 11.08.2019
3832 Clear 33 1010 26 10000 6.7 350 14:19 11.08.2019
3833 Clear 33 1010 23 10000 7.7 350 13:44 11.08.2019
3834 Clear 33 1010 26 10000 6.7 350 13:24 11.08.2019
3835 Clear 33 1010 26 10000 6.2 360 12:48 11.08.2019
3836 Clear 33 1011 24 10000 6.7 360 12:23 11.08.2019
3837 Rain 33 1011 26 10000 6.7 350 11:57 11.08.2019
3838 Rain 32 1011 26 10000 6.7 350 11:38 11.08.2019
3839 Clear 32 1011 26 10000 6.7 340 11:20 11.08.2019
3840 Clear 32 1011 31 10000 8.2 350 10:41 11.08.2019
3841 Clear 32 1011 30 10000 4.6 350 10:22 11.08.2019
3842 Clear 32 1011 31 10000 5.1 330 09:59 11.08.2019
3843 Clear 32 1011 31 10000 5.1 330 09:39 11.08.2019
3844 Clear 30 1011 33 10000 5.1 330 09:20 11.08.2019
3845 Clear 30 1011 33 10000 4.6 320 08:48 11.08.2019
3846 Clear 30 1011 33 10000 4.6 320 08:28 11.08.2019
3847 Clear 30 1010 40 10000 4.6 330 07:56 11.08.2019
3848 Clear 30 1010 40 10000 5.1 310 07:26 11.08.2019
3849 Clear 29 1010 42 10000 3.6 310 06:45 11.08.2019
3850 Clear 28 1010 42 10000 3.1 310 05:58 11.08.2019
3851 Clear 28 1010 37 10000 3.1 330 04:37 11.08.2019
3852 Clear 28 1010 42 10000 3.1 320 02:49 11.08.2019
3853 Clear 28 1011 40 10000 3.1 340 01:51 11.08.2019
3854 Clear 28 1011 40 10000 2.1 350 01:26 11.08.2019
3855 Clear 29 1011 37 10000 2.6 330 00:53 11.08.2019
3856 Clear 29 1011 37 10000 2.6 330 00:33 11.08.2019
3857 Clear 29 1011 37 10000 2.1 360 23:49 10.08.2019
3858 Clear 29 1011 37 10000 2.1 350 23:29 10.08.2019
3859 Clear 29 1011 35 10000 2.6 340 22:45 10.08.2019
3860 Clear 29 1011 37 10000 3.1 330 22:26 10.08.2019
3861 Clear 29 1011 37 10000 3.1 330 21:58 10.08.2019
3862 Clear 29 1011 35 10000 3.6 340 21:39 10.08.2019
3863 Clear 30 1011 35 10000 3.6 340 21:21 10.08.2019
3864 Clear 30 1011 35 10000 4.1 340 20:57 10.08.2019
3865 Clear 30 1011 35 10000 4.1 340 20:39 10.08.2019
3866 Clear 30 1011 33 10000 4.1 330 20:18 10.08.2019
3867 Clear 30 1010 33 10000 3.1 340 19:41 10.08.2019
3868 Clear 31 1010 31 10000 3.6 340 19:22 10.08.2019
3869 Clear 32 1010 31 10000 7.2 340 18:42 10.08.2019
3870 Clear 32 1010 28 10000 6.7 340 18:23 10.08.2019
3871 Clear 33 1010 28 10000 6.2 350 17:55 10.08.2019
3872 Clear 33 1010 28 10000 6.2 350 17:37 10.08.2019
3873 Clear 33 1010 26 10000 7.7 10 17:18 10.08.2019
3874 Clear 34 1010 26 10000 6.7 360 16:42 10.08.2019
3875 Clear 34 1010 25 10000 6.7 340 16:20 10.08.2019
3876 Clear 34 1010 23 10000 5.1 360 15:44 10.08.2019
3877 Clear 34 1010 22 10000 5.7 360 15:21 10.08.2019
3878 Clear 34 1010 25 10000 5.7 350 14:44 10.08.2019
3879 Clear 34 1010 23 10000 5.7 360 14:19 10.08.2019
3880 Clear 34 1010 23 10000 5.7 10 13:41 10.08.2019
3881 Clear 34 1010 23 10000 6.2 350 13:20 10.08.2019
3882 Clear 34 1010 25 10000 6.7 340 12:44 10.08.2019
3883 Clear 33 1011 25 10000 6.2 340 12:24 10.08.2019
3884 Clear 33 1011 26 10000 5.7 350 11:59 10.08.2019
3885 Clear 33 1011 26 10000 5.7 350 11:40 10.08.2019
3886 Clear 33 1011 26 10000 5.1 350 11:21 10.08.2019
3887 Clear 33 1011 26 10000 5.7 350 10:55 10.08.2019
3888 Clear 33 1011 26 10000 5.7 350 10:36 10.08.2019
3889 Clear 33 1011 28 10000 5.7 340 10:18 10.08.2019
3890 Clear 32 1012 22 10000 9.8 10 09:40 10.08.2019
3891 Clear 31 1011 29 10000 5.1 350 09:22 10.08.2019
3892 Clear 31 1011 33 10000 5.7 350 08:41 10.08.2019
3893 Clear 30 1010 38 10000 5.1 340 08:20 10.08.2019
3894 Clear 30 1010 40 10000 5.1 340 07:54 10.08.2019
3895 Clear 29 1010 40 10000 5.1 340 07:28 10.08.2019
3896 Clear 28 1010 39 10000 5.7 330 06:49 10.08.2019
3897 Clear 27 1010 39 10000 5.1 330 06:26 10.08.2019
3898 Clear 27 1009 37 10000 5.1 330 05:25 10.08.2019
3899 Clear 27 1010 37 10000 6.2 10 04:31 10.08.2019
3900 Clear 28 1009 34 10000 2.1 350 02:56 10.08.2019
3901 Clear 27 1009 34 10000 2.1 350 02:26 10.08.2019
3902 Clear 27 1010 36 10000 4.26 349.194 01:42 10.08.2019
3903 Clear 28 1009 32 10000 3.1 340 01:21 10.08.2019
3904 Clear 28 1009 32 10000 3.1 340 00:48 10.08.2019
3905 Clear 28 1010 32 10000 2.6 350 00:22 10.08.2019
3906 Clear 28 1010 32 10000 2.6 350 23:44 09.08.2019
3907 Clear 29 1010 30 10000 2.6 350 23:24 09.08.2019
3908 Clear 28 1009 28 10000 3.1 350 22:58 09.08.2019
3909 Clear 28 1009 28 10000 3.1 350 22:39 09.08.2019
3910 Clear 28 1009 28 10000 3.1 350 22:20 09.08.2019
3911 Clear 29 1009 27 10000 3.1 330 21:55 09.08.2019
3912 Clear 29 1009 27 10000 3.1 330 21:36 09.08.2019
3913 Clear 29 1009 27 10000 3.1 330 21:18 09.08.2019
3914 Clear 29 1009 29 10000 2.6 350 20:54 09.08.2019
3915 Clear 30 1009 29 10000 2.6 350 20:36 09.08.2019
3916 Clear 30 1009 27 10000 2.6 350 20:18 09.08.2019
3917 Clear 30 1008 24 10000 3.1 360 19:41 09.08.2019
3918 Clear 31 1008 23 10000 5.1 360 19:20 09.08.2019
3919 Clear 31 1008 21 10000 5.1 360 18:42 09.08.2019
3920 Clear 33 1008 19 10000 4.1 360 18:22 09.08.2019
3921 Clear 34 1008 19 10000 4.1 360 17:58 09.08.2019
3922 Clear 34 1008 19 10000 4.1 360 17:40 09.08.2019
3923 Clear 34 1008 19 10000 4.1 360 17:22 09.08.2019
3924 Clear 34 1008 19 10000 5.1 350 16:42 09.08.2019
3925 Clear 34 1008 19 10000 5.1 350 16:42 09.08.2019
3926 Clear 35 1008 20 10000 4.1 360 16:23 09.08.2019
3927 Clear 35 1008 22 10000 3.6 360 15:58 09.08.2019
3928 Clear 34 1008 22 10000 3.6 360 15:39 09.08.2019
3929 Clear 35 1008 21 10000 4.6 10 15:20 09.08.2019
3930 -273 0 0 0 0 0 14:56 09.08.2019
3931 Clear 35 1008 21 10000 4.6 10 14:37 09.08.2019
3932 Clear 35 1008 20 10000 4.6 330 14:19 09.08.2019
3933 Clear 34 1008 22 10000 4.6 350 13:43 09.08.2019
3934 Clear 34 1008 22 10000 3.6 360 13:20 09.08.2019
3935 Clear 34 1008 23 10000 4.6 340 12:47 09.08.2019
3936 Clear 34 1008 23 10000 3.1 350 12:24 09.08.2019
3937 Clear 33 1009 22 10000 4.1 350 11:59 09.08.2019
3938 Clear 33 1009 22 10000 4.1 350 11:38 09.08.2019
3939 Clear 33 1009 23 10000 4.1 330 11:19 09.08.2019
3940 Clear 33 1009 24 10000 3.1 360 10:41 09.08.2019
3941 Clear 32 1009 26 10000 3.1 350 10:22 09.08.2019
3942 Clear 32 1009 27 10000 3.6 340 09:57 09.08.2019
3943 Clear 31 1009 27 10000 3.6 340 09:37 09.08.2019
3944 Clear 31 1009 26 10000 2.6 340 09:18 09.08.2019
3945 Clear 30 1009 27 10000 2.6 340 08:44 09.08.2019
3946 Clear 29 1010 31 10000 1.5 0 08:24 09.08.2019
3947 Clear 28 1010 32 10000 1.5 0 07:55 09.08.2019
3948 Clear 28 1010 32 10000 1.5 0 07:55 09.08.2019
3949 Clear 27 1010 39 10000 2.1 360 07:24 09.08.2019
3950 Clear 26 1010 39 10000 2.6 340 06:59 09.08.2019
3951 Clear 25 1010 39 10000 2.6 340 06:36 09.08.2019
3952 Clear 24 1010 39 10000 2.6 310 06:18 09.08.2019
3953 Clear 24 1009 41 10000 2.6 310 04:57 09.08.2019
3954 Clear 25 1011 72 10000 1.55 12.159 02:26 09.08.2019
3955 Clear 25 1011 72 10000 1.63 1.476 01:21 09.08.2019
3956 Clear 25 1010 41 10000 1.63 1.476 00:41 09.08.2019
3957 Clear 26 1010 39 10000 1.15 6.434 00:22 09.08.2019
3958 Clear 26 1010 33 10000 1.15 6.434 23:56 08.08.2019
3959 Clear 26 1010 33 10000 1.15 6.434 23:36 08.08.2019
3960 Clear 26 1010 34 10000 2.1 330 23:18 08.08.2019
3961 Clear 26 1010 32 10000 1.15 6.434 22:38 08.08.2019
3962 Clear 26 1010 34 10000 1.15 6.434 22:19 08.08.2019
3963 Clear 26 1010 34 10000 1.15 6.434 21:59 08.08.2019
3964 Clear 27 1010 34 10000 1.15 6.434 21:41 08.08.2019
3965 Clear 28 1010 48 10000 1 334.307 21:22 08.08.2019
3966 Clear 28 1009 48 10000 1 334.307 20:57 08.08.2019
3967 Clear 29 1009 48 10000 1.28 328.104 20:39 08.08.2019
3968 Clear 29 1009 45 10000 1.28 328.104 20:19 08.08.2019
3969 Clear 30 1009 40 10000 1.28 328.104 19:47 08.08.2019
3970 Clear 30 1009 33 10000 1.5 180 19:28 08.08.2019
3971 Clear 31 1009 31 10000 2.1 170 18:54 08.08.2019
3972 Clear 31 1009 31 10000 2.1 170 18:36 08.08.2019
3973 Clear 32 1009 31 10000 2.1 180 18:18 08.08.2019
3974 Clear 33 1009 20 10000 3.6 360 17:41 08.08.2019
3975 Clear 33 1009 19 10000 3.1 340 17:23 08.08.2019
3976 Clear 33 1009 19 10000 3.1 340 17:23 08.08.2019
3977 -273 0 0 0 0 0 16:56 08.08.2019
3978 Clear 32 1011 35 10000 7.7 70 16:37 08.08.2019
3979 Clear 32 1011 35 10000 7.7 70 16:37 08.08.2019
3980 Clear 33 1011 29 10000 6.7 70 16:19 08.08.2019
3981 -273 0 0 0 0 0 15:56 08.08.2019
3982 Clear 33 1012 29 10000 8.2 60 15:37 08.08.2019
3983 Clear 33 1012 29 10000 8.2 60 15:19 08.08.2019
3984 Clear 34 1010 22 10000 4.1 350 14:37 08.08.2019
3985 Clear 33 1010 22 10000 3.6 340 14:18 08.08.2019
3986 Clear 33 1010 22 10000 3.1 350 13:41 08.08.2019
3987 Clear 33 1011 24 10000 4.6 330 13:23 08.08.2019
3988 Clear 33 1011 24 10000 3.6 340 12:57 08.08.2019
3989 Clear 33 1011 24 10000 3.6 340 12:37 08.08.2019
3990 Clear 32 1013 38 10000 9.8 40 12:18 08.08.2019
3991 Clear 31 1013 35 10000 9.8 20 11:42 08.08.2019
3992 Clear 31 1013 29 10000 10.3 20 11:23 08.08.2019
3993 Clear 31 1013 29 10000 10.3 20 11:23 08.08.2019
3994 Clear 31 1012 27 10000 4.1 350 10:41 08.08.2019
3995 Clear 31 1012 27 10000 4.1 350 10:41 08.08.2019
3996 Clear 31 1012 29 10000 3.1 360 10:22 08.08.2019
3997 Clear 30 1012 31 10000 2.6 350 09:57 08.08.2019
3998 Clear 30 1012 31 10000 2.6 350 09:39 08.08.2019
3999 Clear 29 1012 33 10000 2.6 340 09:19 08.08.2019
4000 Clear 28 1012 35 10000 2.1 340 08:40 08.08.2019
4001 Clear 28 1012 32 10000 2.1 360 08:21 08.08.2019
4002 Clear 27 1012 34 10000 2.6 340 07:42 08.08.2019
4003 Clear 26 1012 41 10000 2.1 350 07:21 08.08.2019
4004 Clear 25 1012 41 10000 2.6 350 06:58 08.08.2019
4005 Clear 25 1012 41 10000 2.6 350 06:40 08.08.2019
4006 Clear 24 1012 43 10000 2.6 340 05:54 08.08.2019
4007 Clear 24 1012 41 10000 3.6 330 05:28 08.08.2019
4008 Clear 24 1012 41 10000 3.1 340 03:57 08.08.2019
4009 Clear 24 1012 41 10000 3.1 340 03:35 08.08.2019
4010 Clear 25 1013 36 10000 1.5 0 01:41 08.08.2019
4011 Clear 25 1013 34 10000 2.6 310 00:46 08.08.2019
4012 Clear 25 1013 32 10000 2.6 310 00:20 08.08.2019
4013 Clear 25 1013 32 10000 2.1 320 23:23 07.08.2019
4014 Clear 26 1013 32 10000 2.1 320 22:59 07.08.2019
4015 Clear 26 1013 34 10000 2.6 330 22:41 07.08.2019
4016 Clear 26 1013 32 10000 1.5 0 22:21 07.08.2019
4017 Clear 26 1013 34 10000 2.6 330 21:57 07.08.2019
4018 Clear 27 1013 34 10000 2.6 330 21:39 07.08.2019
4019 Clear 26 1013 34 10000 2.6 330 21:39 07.08.2019
4020 Clear 27 1013 34 10000 2.6 330 21:20 07.08.2019
4021 Clear 27 1013 32 10000 2.6 350 20:59 07.08.2019
4022 Clear 27 1013 32 10000 2.6 350 20:40 07.08.2019
4023 Clear 28 1012 28 10000 3.1 350 20:20 07.08.2019
4024 Clear 28 1012 28 10000 3.1 350 20:20 07.08.2019
4025 Clear 28 1012 28 10000 3.1 360 19:55 07.08.2019
4026 Clear 29 1012 28 10000 3.1 360 19:36 07.08.2019
4027 Clear 29 1012 27 10000 3.1 360 19:18 07.08.2019
4028 Clear 30 1012 27 10000 4.1 360 18:40 07.08.2019
4029 Clear 30 1012 26 10000 5.1 350 18:20 07.08.2019
4030 Clear 31 1012 23 10000 4.6 350 17:55 07.08.2019
4031 Clear 31 1012 23 10000 4.6 350 17:55 07.08.2019
4032 Clear 31 1012 23 10000 4.6 350 17:37 07.08.2019
4033 Clear 31 1012 26 10000 5.7 360 17:19 07.08.2019
4034 Clear 31 1012 23 10000 4.6 360 16:56 07.08.2019
4035 Clear 31 1012 23 10000 4.6 360 16:38 07.08.2019
4036 Clear 32 1012 21 10000 4.6 330 16:19 07.08.2019
4037 Clear 32 1012 21 10000 4.1 330 15:43 07.08.2019
4038 Clear 32 1012 21 10000 4.1 350 15:21 07.08.2019
4039 Clear 32 1012 23 10000 3.6 340 14:57 07.08.2019
4040 Clear 32 1012 23 10000 3.6 340 14:38 07.08.2019
4041 Clear 32 1013 21 10000 4.1 360 14:20 07.08.2019
4042 Clear 32 1013 24 10000 5.1 360 13:40 07.08.2019
4043 Clear 32 1013 24 10000 4.6 340 13:19 07.08.2019
4044 Clear 31 1013 24 10000 5.7 350 12:58 07.08.2019
4045 Clear 31 1013 24 10000 5.7 350 12:39 07.08.2019
4046 Clear 31 1013 27 10000 5.1 360 12:20 07.08.2019
4047 Clear 31 1014 27 10000 5.7 350 11:58 07.08.2019
4048 Clear 30 1014 27 10000 5.7 350 11:40 07.08.2019
4049 Clear 30 1014 29 10000 4.1 350 11:19 07.08.2019
4050 Clear 30 1014 29 10000 3.1 350 10:41 07.08.2019
4051 Clear 29 1014 33 10000 4.1 340 10:20 07.08.2019
4052 Clear 29 1014 33 10000 4.1 340 09:59 07.08.2019
4053 Clear 29 1014 33 10000 4.1 360 09:41 07.08.2019
4054 Clear 28 1014 39 10000 3.1 320 09:21 07.08.2019
4055 Clear 28 1014 37 10000 3.1 340 08:45 07.08.2019
4056 Clear 27 1014 39 10000 2.1 330 08:25 07.08.2019
4057 Clear 27 1014 42 10000 2.1 340 07:51 07.08.2019
4058 Clear 26 1014 42 10000 2.1 340 07:32 07.08.2019
4059 Clouds 24 1014 49 10000 5.05 1.679 06:50 07.08.2019
4060 Clouds 24 1013 53 10000 5.05 1.679 06:27 07.08.2019
4061 Clouds 24 1013 53 10000 4.17 351.409 05:43 07.08.2019
4062 Clear 24 1013 44 10000 1.5 0 04:43 07.08.2019
4063 Clear 24 1013 46 10000 1.5 0 03:21 07.08.2019
4064 Clear 24 1013 43 10000 1.5 0 02:43 07.08.2019
4065 Clear 24 1013 43 10000 1 0 01:58 07.08.2019
4066 Clear 24 1013 41 10000 1.5 0 01:24 07.08.2019
4067 Clear 24 1014 43 10000 1.5 0 00:38 07.08.2019
4068 Clear 24 1014 41 10000 1.5 0 00:19 07.08.2019
4069 Clear 25 1014 41 10000 1 0 23:40 06.08.2019
4070 Clear 25 1014 36 10000 1.5 0 23:21 06.08.2019
4071 Clear 25 1014 39 10000 1 0 22:56 06.08.2019
4072 Clear 25 1014 39 10000 1 0 22:37 06.08.2019
4073 Clear 25 1013 41 10000 1.5 0 22:18 06.08.2019
4074 Clear 26 1013 36 10000 3.92 340.895 21:40 06.08.2019
4075 Clear 26 1013 34 10000 1.5 0 21:21 06.08.2019
4076 Clear 26 1013 34 10000 1 0 20:54 06.08.2019
4077 Clear 26 1013 34 10000 1 0 20:36 06.08.2019
4078 Clear 26 1013 32 10000 3.6 10 20:18 06.08.2019
4079 Clear 27 1013 30 10000 4.6 360 19:41 06.08.2019
4080 Clear 28 1013 28 10000 5.1 10 19:23 06.08.2019
4081 Clear 28 1013 30 10000 4.1 20 18:45 06.08.2019
4082 Clouds 29 1013 31 10000 5.1 20 18:26 06.08.2019
4083 Clouds 29 1013 31 10000 5.1 20 17:58 06.08.2019
4084 Clouds 29 1013 29 10000 4.1 10 17:39 06.08.2019
4085 Clouds 29 1013 29 10000 4.1 10 17:39 06.08.2019
4086 Clouds 29 1013 31 10000 6.7 10 17:20 06.08.2019
4087 Clouds 30 1013 31 10000 6.7 10 16:59 06.08.2019
4088 Clouds 30 1013 29 10000 6.7 10 16:38 06.08.2019
4089 Clouds 30 1013 27 10000 6.2 360 16:19 06.08.2019
4090 Clouds 30 1013 27 10000 6.2 360 15:56 06.08.2019
4091 Clouds 30 1013 27 10000 6.2 360 15:38 06.08.2019
4092 Clouds 30 1013 26 10000 6.2 360 15:19 06.08.2019
4093 Clouds 30 1013 26 10000 6.2 360 14:43 06.08.2019
4094 Clouds 30 1013 26 10000 6.2 360 14:24 06.08.2019
4095 Clouds 30 1015 33 10000 9.8 20 13:57 06.08.2019
4096 Clouds 30 1015 33 10000 9.8 20 13:57 06.08.2019
4097 Clouds 30 1015 33 10000 9.8 20 13:38 06.08.2019
4098 Clouds 30 1014 27 10000 6.2 360 13:20 06.08.2019
4099 Clouds 30 1014 27 10000 6.2 360 12:56 06.08.2019
4100 -273 0 0 0 0 0 12:56 06.08.2019
4101 Clouds 30 1014 27 10000 6.2 360 12:56 06.08.2019
4102 Clouds 30 1014 27 10000 6.2 360 12:38 06.08.2019
4103 Clouds 30 1014 27 10000 6.2 360 12:19 06.08.2019
4104 Clouds 29 1014 31 10000 5.1 10 11:41 06.08.2019
4105 Clouds 29 1014 31 10000 4.1 350 11:19 06.08.2019
4106 Clouds 29 1014 31 10000 4.1 350 11:19 06.08.2019
4107 Clear 29 1014 40 10000 4.1 340 10:42 06.08.2019
4108 Clouds 28 1015 32 10000 8.2 10 10:23 06.08.2019
4109 Clouds 28 1014 42 10000 4.1 350 09:57 06.08.2019
4110 Clouds 28 1014 42 10000 4.1 350 09:37 06.08.2019
4111 Clear 27 1014 47 10000 5.1 340 09:19 06.08.2019
4112 Clear 26 1014 47 10000 5.1 340 08:41 06.08.2019
4113 Clear 26 1014 47 10000 5.1 340 08:23 06.08.2019
4114 Clear 25 1015 44 10000 6.2 360 07:36 06.08.2019
4115 Clear 24 1013 50 10000 2.6 340 06:51 06.08.2019
4116 Clear 23 1013 50 10000 2.6 340 06:32 06.08.2019
4117 Clear 23 1013 47 10000 2.6 350 05:52 06.08.2019
4118 Clouds 23 1013 47 10000 3.1 330 04:31 06.08.2019
4119 Clouds 23 1012 50 10000 2.57 7.288 01:53 06.08.2019
4120 Clouds 24 1013 41 10000 3.1 330 01:23 06.08.2019
4121 Clouds 24 1013 47 10000 2.81 2.404 00:29 06.08.2019
4122 Clouds 24 1013 47 10000 3.41 331.058 23:46 05.08.2019
4123 Clouds 25 1012 47 10000 3.41 331.058 23:18 05.08.2019
4124 Clouds 25 1012 44 10000 3.41 331.058 22:41 05.08.2019
4125 Clouds 25 1012 44 10000 3.41 331.058 22:23 05.08.2019
4126 Clouds 25 1012 44 10000 3.41 331.058 21:55 05.08.2019
4127 Clouds 25 1012 44 10000 3.41 331.058 21:36 05.08.2019
4128 Clouds 26 1012 44 10000 3.82 21.056 21:18 05.08.2019
4129 Clouds 26 1012 42 10000 4.1 360 20:54 05.08.2019
4130 Clouds 26 1012 42 10000 4.1 360 20:36 05.08.2019
4131 Clouds 26 1011 42 10000 4.1 360 20:18 05.08.2019
4132 Clouds 27 1011 37 10000 5.1 360 19:40 05.08.2019
4133 Clouds 27 1011 35 10000 5.1 10 19:22 05.08.2019
4134 Clouds 28 1010 31 10000 5.1 360 18:57 05.08.2019
4135 Clouds 28 1010 31 10000 5.1 360 18:57 05.08.2019
4136 Clouds 28 1010 31 10000 5.1 360 18:39 05.08.2019
4137 Clouds 29 1010 33 10000 4.1 360 18:18 05.08.2019
4138 Clouds 29 1010 33 10000 4.6 20 17:41 05.08.2019
4139 Clouds 29 1012 42 10000 8.7 40 17:22 05.08.2019
4140 Clouds 29 1012 37 10000 9.3 60 16:46 05.08.2019
4141 Clouds 30 1010 29 10000 4.1 350 16:25 05.08.2019
4142 Clouds 30 1010 31 10000 3.1 10 15:45 05.08.2019
4143 Clouds 30 1012 39 10000 8.7 60 15:22 05.08.2019
4144 Clouds 30 1011 29 10000 3.6 350 14:58 05.08.2019
4145 Clouds 30 1013 39 10000 9.8 50 14:38 05.08.2019
4146 Clouds 30 1011 27 10000 2.6 360 14:19 05.08.2019
4147 Clouds 30 1011 27 10000 2.6 360 14:19 05.08.2019
4148 Clouds 30 1011 29 10000 5.1 10 13:41 05.08.2019
4149 Clouds 30 1011 29 10000 3.6 350 13:21 05.08.2019
4150 Clouds 30 1011 31 10000 4.1 360 12:45 05.08.2019
4151 Clouds 30 1011 31 10000 3.6 30 12:20 05.08.2019
4152 Clouds 29 1011 31 10000 4.1 360 11:46 05.08.2019
4153 Clouds 29 1012 33 10000 4.1 360 11:27 05.08.2019
4154 Clouds 29 1012 33 10000 4.1 360 10:58 05.08.2019
4155 Clouds 29 1012 40 10000 3.1 310 10:40 05.08.2019
4156 Clouds 29 1012 42 10000 4.1 340 10:21 05.08.2019
4157 Clouds 28 1011 42 10000 2.6 340 09:43 05.08.2019
4158 Clouds 27 1012 48 10000 3.6 350 09:24 05.08.2019
4159 Clouds 27 1012 51 10000 3.1 330 08:49 05.08.2019
4160 Clouds 26 1012 51 10000 2.6 330 08:28 05.08.2019
4161 Clouds 26 1011 51 10000 3.1 330 07:55 05.08.2019
4162 Clouds 25 1011 51 10000 3.1 330 07:32 05.08.2019
4163 Clouds 25 1011 53 10000 4.1 320 06:59 05.08.2019
4164 Clouds 25 1011 53 10000 4.6 330 06:29 05.08.2019
4165 Clouds 24 1010 53 10000 4.1 320 05:46 05.08.2019
4166 Clouds 24 1010 53 10000 3.6 320 05:18 05.08.2019
4167 Clouds 25 1010 41 10000 2.6 330 03:58 05.08.2019
4168 Clouds 25 1010 39 10000 1.5 0 03:20 05.08.2019
4169 Clouds 25 1010 39 10000 1.5 0 02:34 05.08.2019
4170 Clouds 25 1010 44 10000 1.5 0 01:33 05.08.2019
4171 Clouds 26 1010 47 10000 2.85 35.055 00:41 05.08.2019
4172 Clouds 26 1010 54 10000 1.83 323.986 00:21 05.08.2019
4173 Clouds 26 1010 51 10000 1.83 323.986 23:56 04.08.2019
4174 Clouds 26 1010 51 10000 1.83 323.986 23:36 04.08.2019
4175 Clouds 26 1009 51 10000 1.83 323.986 23:18 04.08.2019
4176 Clouds 26 1009 51 10000 1.83 323.986 22:54 04.08.2019
4177 Clouds 26 1009 51 10000 1.83 323.986 22:36 04.08.2019
4178 Clouds 26 1009 51 10000 1.83 323.986 22:36 04.08.2019
4179 Clouds 26 1009 51 10000 1.5 0 22:18 04.08.2019
4180 Clouds 26 1009 51 10000 1.83 323.986 21:42 04.08.2019
4181 Clouds 27 1008 51 10000 1.5 0 21:20 04.08.2019
4182 Clouds 27 1008 48 10000 1.5 0 20:44 04.08.2019
4183 Clouds 27 1007 42 10000 1.5 0 20:19 04.08.2019
4184 Clouds 28 1007 29 10000 2.6 350 19:58 04.08.2019
4185 Clouds 28 1007 29 10000 2.6 350 19:38 04.08.2019
4186 Clouds 29 1007 29 10000 4.1 340 19:19 04.08.2019
4187 Clouds 29 1006 29 10000 4.1 330 18:42 04.08.2019
4188 Clouds 29 1009 45 10000 7.7 30 18:20 04.08.2019
4189 Clouds 30 1008 45 10000 7.7 20 17:45 04.08.2019
4190 Clouds 31 1008 45 10000 7.2 30 17:25 04.08.2019
4191 Clouds 31 1006 28 10000 3.1 360 16:59 04.08.2019
4192 Clouds 31 1006 28 10000 3.1 330 16:38 04.08.2019
4193 Clouds 31 1006 28 10000 4.1 340 16:19 04.08.2019
4194 Clouds 32 1006 28 10000 3.6 350 15:42 04.08.2019
4195 Clouds 32 1006 28 10000 3.6 10 15:21 04.08.2019
4196 Clouds 32 1006 30 10000 3.6 340 14:45 04.08.2019
4197 Clouds 32 1006 30 10000 3.6 340 14:45 04.08.2019
4198 Clouds 32 1008 48 10000 10.3 30 14:26 04.08.2019
4199 Clouds 32 1006 28 10000 3.6 10 13:47 04.08.2019
4200 Clouds 32 1006 28 10000 3.6 10 13:47 04.08.2019
4201 Clouds 32 1006 28 10000 3.6 10 13:28 04.08.2019
4202 Clouds 32 1006 28 10000 5.1 360 12:59 04.08.2019
4203 Clouds 32 1006 28 10000 5.1 360 12:40 04.08.2019
4204 Clouds 32 1006 30 10000 5.1 360 12:22 04.08.2019
4205 Clouds 32 1006 28 10000 5.1 350 11:55 04.08.2019
4206 Clouds 32 1006 28 10000 5.1 350 11:36 04.08.2019
4207 Clouds 31 1007 31 10000 5.7 340 11:18 04.08.2019
4208 Clouds 31 1006 33 10000 4.6 350 10:40 04.08.2019
4209 Clouds 31 1006 40 10000 3.6 340 10:19 04.08.2019
4210 Clouds 30 1006 43 10000 4.1 350 09:42 04.08.2019
4211 Clouds 30 1006 46 10000 3.6 360 09:21 04.08.2019
4212 Clear 29 1006 48 10000 3.6 340 08:41 04.08.2019
4213 Clear 29 1006 48 10000 3.6 340 08:41 04.08.2019
4214 Clear 29 1006 55 10000 4.1 330 08:20 04.08.2019
4215 Clear 29 1005 58 10000 5.1 320 07:48 04.08.2019
4216 Clouds 28 1005 61 10000 3.1 310 06:47 04.08.2019
4217 Clear 28 1005 65 10000 2.1 290 06:24 04.08.2019
4218 Clear 27 1003 42 10000 4.97 337.369 03:45 04.08.2019
4219 Clear 28 1003 58 10000 2.6 320 02:23 04.08.2019
4220 Clear 29 1003 51 10000 2.1 340 01:33 04.08.2019
4221 Clear 29 1003 48 10000 7.57 292.733 00:46 04.08.2019
4222 Clear 29 1003 40 10000 1 0 00:26 04.08.2019
4223 Clear 30 1003 42 10000 1.5 0 23:57 03.08.2019
4224 Clear 30 1003 42 10000 1.5 0 23:39 03.08.2019
4225 Clear 30 1003 40 10000 1 0 23:18 03.08.2019
4226 Clear 30 1003 38 10000 2.6 360 22:44 03.08.2019
4227 Clear 30 1003 38 10000 3.6 360 22:20 03.08.2019
4228 Clear 30 1003 43 10000 5.33 296.171 21:40 03.08.2019
4229 Clear 30 1003 43 10000 1 0 21:22 03.08.2019
4230 Clear 30 1003 48 10000 1.5 0 20:57 03.08.2019
4231 Clear 31 1003 48 10000 1.5 0 20:36 03.08.2019
4232 Clear 31 1003 48 10000 2.1 80 20:18 03.08.2019
4233 Clear 30 1003 46 10000 1.5 0 19:41 03.08.2019
4234 Clear 31 1003 49 10000 1.5 0 19:22 03.08.2019
4235 Clear 32 1003 46 10000 3.6 170 18:46 03.08.2019
4236 Clear 33 1003 46 10000 4.1 170 18:26 03.08.2019
4237 Clear 33 1003 41 10000 4.6 160 17:47 03.08.2019
4238 Clear 34 1003 34 10000 5.1 170 17:21 03.08.2019
4239 Clear 34 1004 41 10000 5.1 170 16:55 03.08.2019
4240 Clear 34 1004 41 10000 5.1 170 16:37 03.08.2019
4241 Clear 34 1004 39 10000 4.1 160 16:18 03.08.2019
4242 Clear 35 1004 36 10000 5.1 160 15:42 03.08.2019
4243 Clear 35 1004 36 10000 5.7 160 15:20 03.08.2019
4244 Clear 35 1004 41 10000 6.7 160 14:38 03.08.2019
4245 Clear 35 1004 25 10000 5.7 160 14:19 03.08.2019
4246 Clear 35 1005 26 10000 4.6 190 13:50 03.08.2019
4247 Clear 36 1005 23 10000 3.6 190 13:24 03.08.2019
4248 Clear 35 1005 26 10000 3.6 210 12:57 03.08.2019
4249 Clear 35 1005 26 10000 3.6 210 12:38 03.08.2019
4250 Clear 35 1005 26 10000 4.1 200 12:20 03.08.2019
4251 Clear 34 1006 28 10000 3.6 200 11:47 03.08.2019
4252 Clear 34 1006 28 10000 3.1 190 11:25 03.08.2019
4253 Clear 33 1006 30 10000 1.5 0 10:40 03.08.2019
4254 Clear 33 1006 34 10000 3.26 246.614 10:21 03.08.2019
4255 Clear 32 1006 40 10000 3.26 246.614 09:39 03.08.2019
4256 Clear 31 1006 43 10000 3.04 304.627 09:19 03.08.2019
4257 Clear 30 1007 48 10000 2.78 306.561 08:46 03.08.2019
4258 Clear 29 1007 54 10000 2.78 306.561 07:47 03.08.2019
4259 Clear 28 1007 57 10000 2.78 306.561 07:28 03.08.2019
4260 Clear 26 1007 69 10000 2.12 301.047 06:23 03.08.2019
4261 Clear 26 1007 65 10000 2.12 301.047 03:58 03.08.2019
4262 Clear 27 1009 65 10000 1.5 270 02:29 03.08.2019
4263 Clear 27 1007 61 10000 0.22 258.69 01:34 03.08.2019
4264 Clear 27 1008 61 10000 0.22 258.69 00:33 03.08.2019
4265 Clear 27 1009 61 10000 0.3 181.909 23:57 02.08.2019
4266 Clear 28 1009 61 10000 0.3 181.909 23:38 02.08.2019
4267 Clear 28 1009 65 10000 0.3 181.909 23:18 02.08.2019
4268 Clear 28 1008 62 10000 0.3 181.909 22:55 02.08.2019
4269 Clear 28 1008 62 10000 0.3 181.909 22:36 02.08.2019
4270 Clear 28 1009 58 10000 0.3 181.909 22:18 02.08.2019
4271 Clear 28 1009 58 10000 0.3 181.909 21:41 02.08.2019
4272 Clear 29 1009 55 10000 2.6 200 21:22 02.08.2019
4273 Clear 29 1009 58 10000 2.6 170 20:45 02.08.2019
4274 Clear 29 1009 62 10000 3.6 160 20:27 02.08.2019
4275 Clear 30 1008 52 10000 3.6 170 19:56 02.08.2019
4276 Clear 30 1008 52 10000 3.6 170 19:34 02.08.2019
4277 Clouds 31 1008 44 10000 2.6 170 18:57 02.08.2019
4278 Clouds 32 1008 44 10000 2.6 170 18:39 02.08.2019
4279 Clear 33 1008 41 10000 2.6 180 18:20 02.08.2019
4280 Clouds 33 1008 39 10000 3.6 180 17:42 02.08.2019
4281 Clouds 34 1008 39 10000 3.1 180 17:22 02.08.2019
4282 -273 0 0 0 0 0 16:56 02.08.2019
4283 Clouds 34 1008 34 10000 3.1 180 16:37 02.08.2019
4284 Clouds 34 1008 34 10000 3.6 190 16:18 02.08.2019
4285 Clouds 34 1008 36 10000 3.6 200 15:38 02.08.2019
4286 Clouds 34 1008 36 10000 4.1 170 15:18 02.08.2019
4287 Clouds 34 1009 38 10000 4.1 170 14:45 02.08.2019
4288 Clouds 34 1009 38 10000 4.1 170 14:45 02.08.2019
4289 Clouds 34 1009 36 10000 4.1 170 14:18 02.08.2019
4290 Clouds 34 1009 29 10000 2.6 200 13:47 02.08.2019
4291 Clouds 34 1009 29 10000 2.1 250 13:23 02.08.2019
4292 Clouds 33 1011 43 10000 9.3 50 12:44 02.08.2019
4293 Clouds 33 1009 30 10000 2.1 310 12:21 02.08.2019
4294 Clouds 33 1009 30 10000 3.6 320 11:48 02.08.2019
4295 Clear 33 1011 36 10000 8.2 20 11:26 02.08.2019
4296 Clear 33 1011 38 10000 7.2 20 10:55 02.08.2019
4297 Clear 33 1011 38 10000 7.2 20 10:55 02.08.2019
4298 Clear 33 1011 38 10000 7.2 20 10:37 02.08.2019
4299 Clear 33 1009 32 10000 1.5 0 10:19 02.08.2019
4300 Clear 32 1011 40 10000 7.2 10 09:48 02.08.2019
4301 Clear 31 1009 36 10000 1.5 0 09:24 02.08.2019
4302 Clear 31 1009 36 10000 2.59 4.002 08:46 02.08.2019
4303 Clear 30 1009 38 10000 2.59 4.002 08:21 02.08.2019
4304 Clear 30 1009 42 10000 2.59 4.002 07:48 02.08.2019
4305 Clear 29 1009 42 10000 2.59 4.002 07:29 02.08.2019
4306 Clear 28 1009 48 10000 2.59 4.002 06:44 02.08.2019
4307 Clear 27 1009 45 10000 2.43 7.055 05:52 02.08.2019
4308 Clear 27 1008 45 10000 2.43 7.055 04:19 02.08.2019
4309 Clear 28 1009 47 10000 1.74 353.419 03:25 02.08.2019
4310 Clear 28 1009 48 10000 1.74 353.419 01:46 02.08.2019
4311 Clear 29 1009 45 10000 2.23 351.692 00:35 02.08.2019
4312 Clear 29 1009 40 10000 2.85 343.114 23:46 01.08.2019
4313 Clear 29 1009 40 10000 2.85 343.114 23:28 01.08.2019
4314 Clear 29 1009 40 10000 2.85 343.114 22:58 01.08.2019
4315 Clear 29 1009 40 10000 2.85 343.114 22:38 01.08.2019
4316 Clear 30 1008 35 10000 2.85 343.114 22:19 01.08.2019
4317 Clear 30 1008 38 10000 1.5 0 21:43 01.08.2019
4318 Clear 30 1008 35 10000 2.1 350 21:23 01.08.2019
4319 Clear 31 1008 33 10000 2.6 360 20:55 01.08.2019
4320 Clear 31 1008 33 10000 2.6 360 20:36 01.08.2019
4321 Clear 31 1007 33 10000 2.1 360 20:18 01.08.2019
4322 Clear 31 1007 32 10000 2.6 360 19:40 01.08.2019
4323 Clouds 32 1007 30 10000 4.1 360 19:19 01.08.2019
4324 Clouds 33 1007 28 10000 4.1 360 18:44 01.08.2019
4325 Clouds 34 1007 26 10000 4.1 360 18:24 01.08.2019
4326 Clouds 34 1007 27 10000 3.6 360 17:52 01.08.2019
4327 Clouds 34 1007 27 10000 3.6 360 17:33 01.08.2019
4328 Clouds 35 1007 28 10000 4.1 360 16:59 01.08.2019
4329 Clouds 35 1007 25 10000 5.1 340 16:40 01.08.2019
4330 Clouds 35 1007 25 10000 4.6 340 16:20 01.08.2019
4331 Clouds 35 1007 27 10000 4.6 350 15:41 01.08.2019
4332 Clouds 35 1007 27 10000 3.6 360 15:19 01.08.2019
4333 Clouds 35 1008 27 10000 6.2 350 14:43 01.08.2019
4334 Clouds 35 1008 27 10000 4.6 360 14:20 01.08.2019
4335 Clouds 35 1008 27 10000 4.6 360 13:58 01.08.2019
4336 Clouds 34 1008 27 10000 5.1 330 13:40 01.08.2019
4337 Clouds 34 1008 27 10000 5.7 350 13:21 01.08.2019
4338 Clouds 34 1008 30 10000 5.1 350 12:48 01.08.2019
4339 Clear 34 1008 30 10000 5.1 340 12:27 01.08.2019
4340 Clouds 33 1009 28 10000 8.7 20 11:44 01.08.2019
4341 Clear 33 1008 30 10000 5.1 350 11:25 01.08.2019
4342 Clear 33 1008 30 10000 4.6 340 10:59 01.08.2019
4343 Clear 33 1008 30 10000 4.6 340 10:40 01.08.2019
4344 Clear 33 1008 30 10000 4.6 350 10:22 01.08.2019
4345 Clear 32 1008 32 10000 4.1 340 09:47 01.08.2019
4346 Clear 32 1008 33 10000 3.6 350 09:23 01.08.2019
4347 Clear 31 1008 35 10000 3.1 340 08:49 01.08.2019
4348 Clear 30 1008 40 10000 3.1 340 08:21 01.08.2019
4349 Clear 29 1008 42 10000 1.5 0 07:53 01.08.2019
4350 Clear 28 1008 45 10000 4.83 355.325 07:29 01.08.2019
4351 Clear 27 1008 48 10000 4.83 355.325 06:50 01.08.2019
4352 Clear 26 1008 48 10000 4.83 355.325 06:31 01.08.2019
4353 Clear 26 1008 51 10000 3.49 348.964 05:32 01.08.2019
4354 Clear 26 1008 51 10000 3.37 342.205 02:36 01.08.2019
4355 Clear 26 1008 51 10000 3.17 344.4 01:25 01.08.2019
4356 Clear 26 1008 51 10000 1 0 00:27 01.08.2019
4357 Clear 27 1008 48 10000 2.24 324.323 23:57 31.07.2019
4358 Clear 27 1008 48 10000 2.24 324.323 23:39 31.07.2019
4359 Clear 27 1008 48 10000 2.24 324.323 23:19 31.07.2019
4360 Clear 27 1008 54 10000 2.24 324.323 22:44 31.07.2019
4361 Clear 27 1008 61 10000 2.24 324.323 22:24 31.07.2019
4362 Clear 28 1008 61 10000 2.24 324.323 21:41 31.07.2019
4363 Clear 28 1008 58 10000 1.36 345.677 21:23 31.07.2019
4364 Clear 29 1007 54 10000 1.23 285.791 20:49 31.07.2019
4365 Clear 29 1007 51 10000 1 0 20:24 31.07.2019
4366 Clear 29 1007 51 10000 2.1 190 19:49 31.07.2019
4367 Clear 30 1007 51 10000 2.1 190 19:31 31.07.2019
4368 Clouds 31 1006 48 10000 2.1 180 18:58 31.07.2019
4369 Clouds 31 1006 48 10000 2.1 180 18:39 31.07.2019
4370 Clouds 31 1008 45 10000 7.7 60 18:18 31.07.2019
4371 Clouds 32 1006 43 10000 2.6 190 17:45 31.07.2019
4372 Clouds 32 1007 43 10000 2.6 180 17:20 31.07.2019
4373 Clouds 31 1006 43 10000 3.1 160 16:54 31.07.2019
4374 Clouds 31 1006 43 10000 3.1 160 16:33 31.07.2019
4375 Clouds 32 1006 41 10000 2.6 160 15:58 31.07.2019
4376 Clouds 32 1006 41 10000 2.6 160 15:39 31.07.2019
4377 Clouds 32 1009 38 10000 7.7 60 15:20 31.07.2019
4378 Clouds 32 1009 38 10000 5.7 70 14:42 31.07.2019
4379 Clouds 32 1009 33 10000 7.2 50 14:20 31.07.2019
4380 Clouds 32 1007 32 10000 2.6 10 13:55 31.07.2019
4381 Clouds 32 1007 32 10000 2.6 10 13:37 31.07.2019
4382 Clouds 32 1007 32 10000 2.6 10 13:18 31.07.2019
4383 Clouds 32 1007 36 10000 4.1 330 12:41 31.07.2019
4384 Clouds 32 1007 36 10000 3.1 20 12:23 31.07.2019
4385 Clouds 31 1008 38 10000 4.1 340 11:40 31.07.2019
4386 Clouds 31 1008 38 10000 3.1 360 11:21 31.07.2019
4387 Clouds 31 1009 43 10000 7.2 30 10:56 31.07.2019
4388 Clouds 31 1009 43 10000 7.2 30 10:38 31.07.2019
4389 Clouds 31 1009 45 10000 6.2 30 10:19 31.07.2019
4390 Clouds 30 1008 43 10000 4.1 340 09:42 31.07.2019
4391 Clouds 30 1008 43 10000 4.1 330 09:23 31.07.2019
4392 Clouds 29 1008 43 10000 2.6 350 08:44 31.07.2019
4393 Clouds 28 1007 45 10000 2.1 340 08:24 31.07.2019
4394 Clouds 28 1007 51 10000 2.6 340 07:48 31.07.2019
4395 Clouds 27 1007 54 10000 2.1 350 07:30 31.07.2019
4396 Clear 25 1006 61 10000 2.54 357.296 05:24 31.07.2019
4397 Clear 25 1006 65 10000 2.54 357.296 04:19 31.07.2019
4398 Clear 26 1007 61 10000 2.78 325.806 00:38 31.07.2019
4399 Clear 26 1007 61 10000 1.15 278.222 23:51 30.07.2019
4400 Clear 26 1007 58 10000 1.15 278.222 23:29 30.07.2019
4401 Clouds 27 1006 61 10000 1.15 278.222 22:50 30.07.2019
4402 Clouds 27 1006 61 10000 1.15 278.222 22:26 30.07.2019
4403 Clouds 27 1006 61 10000 1.15 278.222 21:59 30.07.2019
4404 Clouds 27 1006 61 10000 1.15 278.222 21:37 30.07.2019
4405 Clouds 28 1006 61 10000 2.4 191.661 21:19 30.07.2019
4406 Clouds 28 1006 65 10000 2.29 215.654 20:56 30.07.2019
4407 Clouds 28 1006 65 10000 2.29 215.654 20:37 30.07.2019
4408 Clouds 28 1005 69 10000 2.29 215.654 20:18 30.07.2019
4409 Clouds 29 1005 69 10000 2.1 190 19:44 30.07.2019
4410 Clouds 29 1005 62 10000 3.1 170 19:26 30.07.2019
4411 Clouds 30 1004 45 10000 2.6 160 18:48 30.07.2019
4412 Clouds 31 1004 45 10000 2.6 170 18:23 30.07.2019
4413 Clouds 31 1004 45 10000 3.1 170 17:58 30.07.2019
4414 Clouds 31 1004 45 10000 3.1 170 17:39 30.07.2019
4415 Clouds 32 1004 40 10000 5.1 160 17:18 30.07.2019
4416 Clouds 31 1004 46 10000 4.6 150 16:42 30.07.2019
4417 Clouds 32 1003 26 10000 2.6 160 16:19 30.07.2019
4418 Clouds 32 1003 32 10000 3.6 200 15:39 30.07.2019
4419 Clouds 33 1004 30 10000 2.6 200 15:19 30.07.2019
4420 Clouds 33 1004 30 10000 2.6 200 15:19 30.07.2019
4421 Clouds 32 1004 28 10000 3.1 210 14:43 30.07.2019
4422 Clouds 33 1004 28 10000 3.1 210 14:43 30.07.2019
4423 Clouds 32 1004 32 10000 3.6 200 14:22 30.07.2019
4424 Clouds 33 1004 33 10000 3.6 210 13:56 30.07.2019
4425 Clouds 33 1004 33 10000 3.6 210 13:37 30.07.2019
4426 Clouds 33 1004 32 10000 4.1 210 13:19 30.07.2019
4427 Clouds 33 1004 32 10000 4.1 200 12:43 30.07.2019
4428 Clouds 32 1004 26 10000 2.1 230 12:24 30.07.2019
4429 Clouds 32 1004 28 10000 1.5 0 11:46 30.07.2019
4430 Clouds 32 1005 28 10000 1.5 0 11:26 30.07.2019
4431 Clouds 32 1005 30 10000 2.6 350 10:57 30.07.2019
4432 Clouds 32 1005 30 10000 2.6 350 10:38 30.07.2019
4433 Clouds 32 1005 30 10000 2.6 350 10:38 30.07.2019
4434 Clouds 32 1005 31 10000 3.1 350 10:20 30.07.2019
4435 Clouds 32 1005 31 10000 3.1 350 10:20 30.07.2019
4436 Clouds 31 1005 33 10000 3.6 340 09:48 30.07.2019
4437 Clouds 30 1005 33 10000 2.6 320 09:28 30.07.2019
4438 Clear 29 1006 42 10000 1 0 08:41 30.07.2019
4439 Clouds 29 1006 45 10000 1 0 08:19 30.07.2019
4440 Clouds 28 1004 40 10000 3.41 323.755 07:43 30.07.2019
4441 Clouds 28 1004 40 10000 3.41 323.755 07:43 30.07.2019
4442 Clear 27 1005 54 10000 1 0 07:23 30.07.2019
4443 Clouds 26 1004 48 10000 3.41 323.755 06:44 30.07.2019
4444 Clouds 25 1004 51 10000 4.72 316.168 05:36 30.07.2019
4445 Clouds 25 1004 51 10000 1.5 0 04:59 30.07.2019
4446 Clouds 26 1003 51 10000 2.1 310 01:30 30.07.2019
4447 Clouds 27 1003 51 10000 2.6 320 00:28 30.07.2019
4448 Clouds 27 1003 51 10000 2.6 320 23:59 29.07.2019
4449 Clouds 27 1003 51 10000 2.6 320 23:41 29.07.2019
4450 Clouds 27 1003 48 10000 2.6 350 23:22 29.07.2019
4451 Clouds 27 1003 48 10000 2.6 340 22:56 29.07.2019
4452 Clouds 27 1003 48 10000 2.6 340 22:38 29.07.2019
4453 Clouds 27 1003 45 10000 3.1 340 22:18 29.07.2019
4454 Clouds 28 1003 40 10000 1.5 0 21:42 29.07.2019
4455 Clouds 29 1002 40 10000 1.5 0 21:23 29.07.2019
4456 Clouds 29 1002 40 10000 1.5 0 20:58 29.07.2019
4457 Clouds 29 1002 40 10000 1.5 0 20:39 29.07.2019
4458 Clouds 29 1002 40 10000 2.1 270 20:20 29.07.2019
4459 Clouds 29 1001 33 10000 3.1 300 19:50 29.07.2019
4460 Clouds 31 1001 31 10000 2.6 290 19:24 29.07.2019
4461 Clouds 31 1001 31 10000 2.6 290 18:58 29.07.2019
4462 Clouds 31 1001 30 10000 4.1 270 18:40 29.07.2019
4463 Clouds 33 1001 30 10000 3.1 270 18:20 29.07.2019
4464 Clouds 34 1001 28 10000 4.1 270 17:48 29.07.2019
4465 Clouds 34 1001 28 10000 3.1 280 17:29 29.07.2019
4466 Clouds 34 1001 25 10000 4.1 260 16:57 29.07.2019
4467 Clouds 34 1001 25 10000 4.1 260 16:37 29.07.2019
4468 Clouds 34 1001 25 10000 3.1 290 16:19 29.07.2019
4469 Clouds 34 1001 25 10000 3.1 280 15:47 29.07.2019
4470 Clouds 34 1001 23 10000 5.1 290 15:28 29.07.2019
4471 Clouds 35 1001 20 10000 4.6 270 14:43 29.07.2019
4472 Clouds 35 1001 18 10000 5.1 280 14:21 29.07.2019
4473 Clouds 34 1001 22 10000 3.6 280 13:48 29.07.2019
4474 Clouds 34 1001 25 10000 2.6 280 13:24 29.07.2019
4475 Clouds 34 1002 26 10000 2.6 310 12:59 29.07.2019
4476 Clouds 34 1002 26 10000 2.6 310 12:40 29.07.2019
4477 Clouds 33 1002 28 10000 2.1 300 12:21 29.07.2019
4478 Clouds 33 1002 32 10000 3.1 280 11:42 29.07.2019
4479 Clear 32 1002 32 10000 2.6 290 11:19 29.07.2019
4480 Clear 32 1002 36 10000 2.1 250 10:44 29.07.2019
4481 Clear 32 1002 36 10000 2.1 170 10:23 29.07.2019
4482 Clear 31 1002 40 10000 2.1 150 09:45 29.07.2019
4483 Clear 30 1002 38 10000 2.1 130 09:24 29.07.2019
4484 Clear 29 1002 42 10000 2.1 130 08:55 29.07.2019
4485 Clear 29 1002 42 10000 2.1 140 08:27 29.07.2019
4486 Clear 28 1002 48 10000 1.5 0 07:53 29.07.2019
4487 Clear 28 1002 48 10000 1.5 0 07:31 29.07.2019
4488 Clear 25 1002 50 10000 3.96 301.524 06:43 29.07.2019
4489 Clear 24 1002 57 10000 3.53 310.651 05:38 29.07.2019
4490 Clear 25 1003 56 10000 3.53 310.651 04:35 29.07.2019
4491 Clear 26 1003 50 10000 1.53 286.599 01:55 29.07.2019
4492 Clear 26 1003 50 10000 1.53 286.599 01:37 29.07.2019
4493 Clear 26 1004 53 10000 1.7 280.607 00:59 29.07.2019
4494 Clear 26 1004 57 10000 1.7 280.607 00:32 29.07.2019
4495 Clear 27 1005 51 10000 1.44 134.071 23:51 28.07.2019
4496 Clear 27 1005 51 10000 1.44 134.071 23:33 28.07.2019
4497 Clear 27 1005 51 10000 1.44 134.071 22:58 28.07.2019
4498 Clear 27 1005 51 10000 1.44 134.071 22:37 28.07.2019
4499 Clear 27 1005 48 10000 1.5 0 22:18 28.07.2019
4500 Clear 28 1005 51 10000 1.5 0 21:42 28.07.2019
4501 Clear 28 1005 51 10000 1.5 0 21:18 28.07.2019
4502 Clear 28 1005 45 10000 1.5 0 20:43 28.07.2019
4503 Clear 28 1005 45 10000 2.6 200 20:25 28.07.2019
4504 Clear 29 1005 42 10000 3.1 190 19:42 28.07.2019
4505 Clear 29 1005 48 10000 2.6 190 19:21 28.07.2019
4506 Clear 30 1004 51 10000 3.6 160 18:47 28.07.2019
4507 Clear 31 1004 55 10000 3.6 170 18:29 28.07.2019
4508 Clear 32 1004 43 10000 3.6 170 17:58 28.07.2019
4509 Clear 32 1004 43 10000 3.6 170 17:40 28.07.2019
4510 Clear 32 1004 41 10000 4.1 170 17:20 28.07.2019
4511 Clear 33 1004 32 10000 3.6 180 16:46 28.07.2019
4512 Clear 34 1004 34 10000 3.6 180 16:27 28.07.2019
4513 Clear 35 1004 32 10000 3.6 180 15:49 28.07.2019
4514 Clear 34 1004 30 10000 3.1 180 15:28 28.07.2019
4515 Clear 34 1005 30 10000 2.6 180 14:57 28.07.2019
4516 Clear 34 1005 30 10000 2.6 180 14:37 28.07.2019
4517 Clear 34 1005 32 10000 3.1 210 14:18 28.07.2019
4518 Clear 34 1005 34 10000 3.1 220 13:40 28.07.2019
4519 Clear 34 1005 32 10000 2.6 210 13:21 28.07.2019
4520 Clear 33 1005 30 10000 3.1 230 12:58 28.07.2019
4521 Clear 33 1005 30 10000 3.1 230 12:39 28.07.2019
4522 Clear 32 1006 34 10000 3.1 230 12:19 28.07.2019
4523 Clear 32 1006 38 10000 3.1 210 11:44 28.07.2019
4524 Clear 32 1006 33 10000 1.5 0 11:26 28.07.2019
4525 Clear 32 1006 33 10000 1.5 0 10:39 28.07.2019
4526 Clear 32 1006 33 10000 1.5 0 10:39 28.07.2019
4527 Clear 32 1006 38 10000 1.5 0 10:20 28.07.2019
4528 Clear 31 1006 38 10000 3.12 195.766 09:41 28.07.2019
4529 Clear 31 1006 38 10000 3.12 195.766 09:41 28.07.2019
4530 Clear 30 1006 40 10000 0.52 325.697 09:23 28.07.2019
4531 Clear 29 1006 35 10000 0.59 345.232 08:51 28.07.2019
4532 Clear 29 1006 35 10000 0.59 345.232 08:28 28.07.2019
4533 Clear 28 1005 51 10000 0.59 345.232 07:51 28.07.2019
4534 Clear 28 1005 51 10000 0.59 345.232 07:32 28.07.2019
4535 Clear 26 1005 57 10000 0.59 345.232 06:39 28.07.2019
4536 Clear 24 1005 64 10000 1.83 353.687 05:26 28.07.2019
4537 Clear 25 1005 60 10000 2.16 326.148 03:27 28.07.2019
4538 Clear 25 1006 57 10000 2.16 326.148 02:19 28.07.2019
4539 Clear 26 1006 53 10000 1.5 330 01:19 28.07.2019
4540 Clear 25 1006 57 10000 1.5 330 00:44 28.07.2019
4541 Clear 26 1006 54 10000 1.5 330 00:18 28.07.2019
4542 Clear 26 1006 54 10000 1.5 330 23:44 27.07.2019
4543 Clear 26 1006 54 10000 1.57 279.186 23:19 27.07.2019
4544 Clear 26 1006 54 10000 1.57 279.186 22:40 27.07.2019
4545 Clear 26 1006 54 10000 1.57 279.186 22:19 27.07.2019
4546 Clear 27 1006 51 10000 1.57 279.186 21:39 27.07.2019
4547 Clear 28 1005 51 10000 3.37 202.468 21:20 27.07.2019
4548 Clear 28 1005 51 10000 2.6 170 20:50 27.07.2019
4549 Clear 29 1005 48 10000 3.1 180 20:23 27.07.2019
4550 Clear 29 1004 51 10000 3.1 170 19:46 27.07.2019
4551 Clear 30 1004 48 10000 3.1 180 19:26 27.07.2019
4552 Clear 30 1004 48 10000 3.1 180 19:26 27.07.2019
4553 Clear 31 1004 45 10000 3.6 180 18:52 27.07.2019
4554 Clear 31 1004 45 10000 3.6 180 18:34 27.07.2019
4555 Clouds 33 1004 38 10000 3.1 180 17:57 27.07.2019
4556 Clouds 33 1004 38 10000 3.1 180 17:36 27.07.2019
4557 Clouds 33 1004 36 10000 4.1 170 17:18 27.07.2019
4558 Clouds 33 1004 30 10000 4.1 170 16:42 27.07.2019
4559 Clouds 33 1005 28 10000 4.1 170 16:23 27.07.2019
4560 Clouds 33 1005 28 10000 4.6 170 15:52 27.07.2019
4561 Clouds 33 1005 32 10000 4.1 190 15:21 27.07.2019
4562 Clouds 33 1007 29 10000 8.7 70 14:51 27.07.2019
4563 Clouds 33 1007 29 10000 8.7 70 14:31 27.07.2019
4564 Clouds 33 1005 22 10000 3.1 330 13:56 27.07.2019
4565 Clouds 33 1005 22 10000 3.1 330 13:37 27.07.2019
4566 Clouds 32 1007 27 10000 8.7 50 13:18 27.07.2019
4567 Clouds 33 1008 27 10000 6.7 40 12:41 27.07.2019
4568 Clear 32 1006 23 10000 3.1 350 12:21 27.07.2019
4569 Clear 32 1006 21 10000 3.6 330 11:42 27.07.2019
4570 Clear 32 1008 27 10000 7.7 50 11:24 27.07.2019
4571 Clear 31 1007 23 10000 3.1 330 10:42 27.07.2019
4572 Clear 31 1007 26 10000 2.6 340 10:23 27.07.2019
4573 Clear 31 1007 26 10000 2.6 340 09:45 27.07.2019
4574 Clear 30 1007 27 10000 3.1 350 09:26 27.07.2019
4575 Clear 29 1007 29 10000 3.1 340 08:58 27.07.2019
4576 Clear 29 1007 29 10000 3.1 340 08:40 27.07.2019
4577 Clear 28 1007 32 10000 2.6 330 08:20 27.07.2019
4578 Clear 27 1007 34 10000 1.61 342.599 07:41 27.07.2019
4579 Clear 27 1007 39 10000 1.61 342.599 07:20 27.07.2019
4580 Clear 25 1007 44 10000 1.61 342.599 06:50 27.07.2019
4581 Clear 24 1007 46 10000 2.1 350.305 06:22 27.07.2019
4582 Clear 23 1007 46 10000 2.1 350.305 05:35 27.07.2019
4583 Clear 24 1007 46 10000 2.1 350.305 04:46 27.07.2019
4584 Clear 24 1008 49 10000 2.1 350.305 03:46 27.07.2019
4585 Clear 24 1007 41 10000 2.14 37.207 02:43 27.07.2019
4586 Clear 24 1009 43 10000 2.14 37.207 01:57 27.07.2019
4587 Clear 24 1009 43 10000 2.14 37.207 01:57 27.07.2019
4588 Clear 24 1009 43 10000 2.14 37.207 01:36 27.07.2019
4589 Clear 25 1008 41 10000 2.38 7.695 00:41 27.07.2019
4590 Clear 26 1008 41 10000 1.55 322.102 00:22 27.07.2019
4591 Clear 26 1008 41 10000 1.55 322.102 23:44 26.07.2019
4592 Clear 26 1008 39 10000 1.55 322.102 23:26 26.07.2019
4593 Clear 26 1008 34 10000 2.1 310 22:43 26.07.2019
4594 Clear 26 1008 34 10000 2.1 310 22:25 26.07.2019
4595 Clear 27 1008 35 10000 2.6 10 21:52 26.07.2019
4596 Clear 27 1008 35 10000 2.6 10 21:20 26.07.2019
4597 Clear 28 1008 33 10000 2.6 10 20:52 26.07.2019
4598 Clear 28 1008 33 10000 2.6 10 20:33 26.07.2019
4599 Clear 29 1008 29 10000 3.1 20 19:56 26.07.2019
4600 Clear 29 1008 29 10000 3.1 20 19:38 26.07.2019
4601 Clear 30 1008 29 10000 3.1 20 19:20 26.07.2019
4602 Clear 30 1008 29 10000 3.1 20 19:20 26.07.2019
4603 Clouds 30 1008 26 10000 4.6 20 18:41 26.07.2019
4604 Clouds 31 1008 26 10000 4.6 20 18:21 26.07.2019
4605 Clouds 32 1008 24 10000 4.1 10 17:56 26.07.2019
4606 Clouds 32 1008 24 10000 4.1 10 17:37 26.07.2019
4607 Clouds 32 1009 24 10000 3.1 340 17:18 26.07.2019
4608 Clouds 32 1009 23 10000 4.1 350 16:54 26.07.2019
4609 Clouds 32 1009 23 10000 4.1 350 16:36 26.07.2019
4610 Clouds 32 1009 23 10000 4.6 360 16:18 26.07.2019
4611 Clouds 32 1009 24 10000 4.6 360 15:44 26.07.2019
4612 Clouds 32 1010 24 10000 4.6 350 15:21 26.07.2019
4613 Clouds 32 1010 26 10000 4.6 360 14:46 26.07.2019
4614 Clouds 32 1010 26 10000 4.6 340 14:25 26.07.2019
4615 Clouds 32 1010 26 10000 4.6 350 13:54 26.07.2019
4616 Clouds 32 1010 26 10000 4.6 350 13:36 26.07.2019
4617 Clouds 31 1011 27 10000 3.1 350 13:18 26.07.2019
4618 Clouds 31 1011 27 10000 5.7 350 12:42 26.07.2019
4619 Clouds 31 1011 27 10000 5.1 340 12:18 26.07.2019
4620 Clouds 30 1011 27 10000 4.6 350 11:39 26.07.2019
4621 Clouds 30 1011 29 10000 4.6 340 11:19 26.07.2019
4622 Clouds 30 1012 31 10000 5.1 350 10:49 26.07.2019
4623 Clouds 30 1012 31 10000 5.1 350 10:31 26.07.2019
4624 Clear 29 1012 35 10000 6.2 350 09:54 26.07.2019
4625 Clear 29 1012 35 10000 6.2 350 09:34 26.07.2019
4626 Clear 28 1012 39 10000 6.2 350 08:43 26.07.2019
4627 Clear 27 1012 39 10000 4.6 340 08:22 26.07.2019
4628 Clear 27 1012 39 10000 3.6 350 07:57 26.07.2019
4629 Clear 26 1012 41 10000 1.5 0 07:27 26.07.2019
4630 Clear 24 1012 44 10000 1.5 0 06:52 26.07.2019
4631 Clear 23 1012 44 10000 1.5 0 05:22 26.07.2019
4632 Clear 23 1012 41 10000 1.5 0 04:22 26.07.2019
4633 Clear 24 1014 44 10000 3.1 350 02:41 26.07.2019
4634 Clear 24 1013 41 10000 1.5 0 01:42 26.07.2019
4635 Clear 25 1014 41 10000 3.1 340 00:45 26.07.2019
4636 Clear 25 1014 41 10000 3.6 340 23:57 25.07.2019
4637 Clear 25 1014 41 10000 3.6 350 23:24 25.07.2019
4638 Clear 25 1014 39 10000 4.1 340 22:56 25.07.2019
4639 Clear 25 1014 39 10000 4.1 340 22:37 25.07.2019
4640 Clear 25 1014 36 10000 3.1 340 22:18 25.07.2019
4641 Clear 25 1014 32 10000 3.1 350 21:44 25.07.2019
4642 Clear 26 1014 32 10000 4.1 340 21:21 25.07.2019
4643 Clear 26 1014 28 10000 5.1 350 20:47 25.07.2019
4644 Clear 26 1014 30 10000 4.1 350 20:23 25.07.2019
4645 Clear 27 1013 30 10000 4.1 360 19:44 25.07.2019
4646 Clear 28 1013 28 10000 4.6 10 19:26 25.07.2019
4647 Clear 28 1013 28 10000 3.1 360 18:57 25.07.2019
4648 Clear 28 1013 28 10000 3.1 360 18:38 25.07.2019
4649 Clear 29 1013 27 10000 4.6 350 18:20 25.07.2019
4650 Clear 29 1013 27 10000 5.1 350 17:43 25.07.2019
4651 Clear 29 1013 29 10000 5.1 340 17:23 25.07.2019
4652 Clouds 30 1013 27 10000 5.1 350 16:44 25.07.2019
4653 Clouds 30 1014 27 10000 6.2 350 16:26 25.07.2019
4654 Clouds 30 1014 27 10000 5.1 360 15:54 25.07.2019
4655 Clouds 30 1014 25 10000 5.1 350 15:21 25.07.2019
4656 Clouds 30 1014 25 10000 5.1 350 14:58 25.07.2019
4657 Clouds 30 1014 24 10000 5.1 10 14:40 25.07.2019
4658 Clouds 30 1014 25 10000 5.1 350 14:20 25.07.2019
4659 Clouds 30 1014 25 10000 5.1 360 13:40 25.07.2019
4660 Clouds 29 1014 29 10000 5.7 350 13:22 25.07.2019
4661 Clouds 30 1014 27 10000 5.1 360 12:38 25.07.2019
4662 Clouds 29 1014 27 10000 5.1 360 12:20 25.07.2019
4663 Clouds 29 1014 31 10000 5.1 10 11:41 25.07.2019
4664 Clouds 29 1015 33 10000 5.7 360 11:22 25.07.2019
4665 Clouds 29 1015 33 10000 5.7 360 11:22 25.07.2019
4666 Clouds 29 1015 33 10000 5.1 360 10:45 25.07.2019
4667 Clouds 28 1015 35 10000 5.1 360 10:25 25.07.2019
4668 Clouds 28 1015 37 10000 5.1 360 09:47 25.07.2019
4669 Clouds 27 1015 45 10000 5.1 340 09:28 25.07.2019
4670 Clouds 27 1014 48 10000 4.6 360 08:53 25.07.2019
4671 Clouds 27 1014 48 10000 4.6 360 08:33 25.07.2019
4672 Clouds 25 1015 57 10000 6.64 357.41 07:41 25.07.2019
4673 Clouds 24 1014 64 10000 1.5 0 06:50 25.07.2019
4674 Clouds 24 1014 64 10000 6.64 357.41 06:31 25.07.2019
4675 Clouds 23 1014 60 10000 1.5 0 05:36 25.07.2019
4676 Clouds 23 1014 57 10000 3.1 350 04:53 25.07.2019
4677 Clouds 23 1014 57 10000 2.1 340 03:24 25.07.2019
4678 Clouds 24 1014 53 10000 3.1 340 01:21 25.07.2019
4679 Clouds 24 1013 53 10000 3.6 340 00:35 25.07.2019
4680 Clouds 24 1013 54 10000 3.1 350 23:59 24.07.2019
4681 Clouds 25 1013 54 10000 3.1 350 23:40 24.07.2019
4682 Clouds 25 1013 57 10000 3.1 340 23:22 24.07.2019
4683 Clouds 25 1013 54 10000 1.5 360 22:45 24.07.2019
4684 Clouds 25 1013 57 10000 2.46 6.834 22:22 24.07.2019
4685 Clouds 25 1012 57 10000 1.5 0 21:56 24.07.2019
4686 Clouds 25 1012 57 10000 1.5 0 21:38 24.07.2019
4687 Clouds 25 1012 57 10000 1.5 0 21:38 24.07.2019
4688 Clouds 25 1012 54 10000 1.5 0 21:19 24.07.2019
4689 Clouds 26 1012 54 10000 4 25.572 20:46 24.07.2019
4690 Clouds 26 1011 51 10000 2.6 50 20:28 24.07.2019
4691 Clouds 26 1011 48 10000 2.6 40 19:58 24.07.2019
4692 Clouds 26 1011 51 10000 2.6 50 19:58 24.07.2019
4693 Clouds 27 1011 48 10000 2.6 40 19:40 24.07.2019
4694 Clouds 27 1010 40 10000 4.6 350 19:20 24.07.2019
4695 Clouds 28 1010 35 10000 4.6 350 18:43 24.07.2019
4696 Clouds 28 1012 61 10000 10.3 30 18:24 24.07.2019
4697 Clouds 29 1012 51 10000 8.7 40 17:48 24.07.2019
4698 Clouds 30 1010 31 10000 5.1 340 17:23 24.07.2019
4699 Clouds 30 1010 31 10000 5.1 340 16:59 24.07.2019
4700 Clouds 31 1012 45 10000 9.8 60 16:39 24.07.2019
4701 Clouds 31 1009 28 10000 5.1 360 16:20 24.07.2019
4702 Clouds 31 1012 45 10000 7.7 60 15:38 24.07.2019
4703 Clouds 31 1012 48 10000 8.2 60 15:19 24.07.2019
4704 Clouds 30 1010 36 10000 5.1 360 14:46 24.07.2019
4705 Clouds 31 1010 38 10000 4.1 350 14:21 24.07.2019
4706 Clouds 30 1010 35 10000 3.6 350 13:40 24.07.2019
4707 Clouds 30 1010 38 10000 3.6 350 13:22 24.07.2019
4708 Clouds 30 1010 43 10000 3.6 330 12:54 24.07.2019
4709 Clouds 31 1010 43 10000 3.6 330 12:35 24.07.2019
4710 Clouds 31 1010 36 10000 3.6 350 11:57 24.07.2019
4711 Clouds 31 1010 36 10000 3.6 350 11:37 24.07.2019
4712 Clouds 31 1010 43 10000 3.6 330 11:18 24.07.2019
4713 Clouds 31 1010 41 10000 3.6 360 10:41 24.07.2019
4714 Clouds 31 1010 43 10000 4.1 320 10:23 24.07.2019
4715 Clouds 30 1010 43 10000 3.6 340 09:44 24.07.2019
4716 Clouds 29 1010 45 10000 4.6 340 09:22 24.07.2019
4717 Clouds 29 1010 42 10000 3.6 350 08:52 24.07.2019
4718 Clouds 28 1010 42 10000 2.1 350 08:26 24.07.2019
4719 Clouds 28 1009 45 10000 1.5 0 07:47 24.07.2019
4720 Clouds 27 1009 48 10000 3.56 6.088 07:23 24.07.2019
4721 Clouds 27 1009 47 10000 3.56 6.088 06:28 24.07.2019
4722 Clouds 26 1009 37 10000 4.19 8.029 05:26 24.07.2019
4723 Clear 27 1010 45 10000 3.1 330 01:56 24.07.2019
4724 Clear 27 1010 45 10000 3.55 347.252 01:28 24.07.2019
4725 Clouds 27 1010 45 10000 2.1 320 00:52 24.07.2019
4726 Clear 27 1011 35 10000 2.6 350 00:21 24.07.2019
4727 Clear 27 1011 41 10000 2.1 330 23:38 23.07.2019
4728 Clouds 27 1010 39 10000 2.6 320 23:19 23.07.2019
4729 Clouds 27 1010 39 10000 2.1 320 22:39 23.07.2019
4730 Clear 27 1010 39 10000 2.6 330 22:19 23.07.2019
4731 Clear 28 1010 37 10000 2.1 340 21:57 23.07.2019
4732 Clear 28 1010 37 10000 2.1 340 21:39 23.07.2019
4733 Clear 28 1010 37 10000 4.61 359.552 21:21 23.07.2019
4734 Clear 29 1010 37 10000 4.39 357.256 20:44 23.07.2019
4735 Clear 29 1010 35 10000 2.1 350 20:21 23.07.2019
4736 Clouds 29 1010 33 10000 3.1 360 19:41 23.07.2019
4737 Clouds 30 1010 31 10000 4.1 350 19:19 23.07.2019
4738 Clouds 31 1009 29 10000 4.1 360 18:43 23.07.2019
4739 Clouds 31 1009 28 10000 5.1 360 18:23 23.07.2019
4740 Clouds 32 1009 28 10000 4.6 360 17:44 23.07.2019
4741 Clouds 32 1010 30 10000 5.1 360 17:25 23.07.2019
4742 Clouds 32 1009 26 10000 5.7 360 16:51 23.07.2019
4743 Clouds 33 1010 28 10000 5.7 350 16:28 23.07.2019
4744 Clouds 33 1010 24 10000 5.1 360 15:59 23.07.2019
4745 Clouds 33 1010 24 10000 5.1 360 15:40 23.07.2019
4746 Clouds 33 1010 28 10000 3.6 350 15:21 23.07.2019
4747 Clouds 33 1010 28 10000 4.1 350 14:38 23.07.2019
4748 Clouds 33 1011 30 10000 6.7 360 14:19 23.07.2019
4749 Clouds 33 1011 28 10000 6.2 350 13:56 23.07.2019
4750 Clouds 33 1011 28 10000 6.2 350 13:56 23.07.2019
4751 Clouds 33 1011 28 10000 6.2 350 13:38 23.07.2019
4752 Clouds 32 1011 30 10000 5.7 350 13:20 23.07.2019
4753 Clear 32 1011 28 10000 6.2 360 12:45 23.07.2019
4754 Clear 32 1011 23 10000 5.7 360 12:25 23.07.2019
4755 Clear 32 1011 26 10000 6.2 360 11:46 23.07.2019
4756 Clear 32 1011 26 10000 6.2 360 11:27 23.07.2019
4757 Clear 31 1011 33 10000 5.7 350 10:54 23.07.2019
4758 Clear 31 1011 33 10000 5.7 350 10:36 23.07.2019
4759 Clear 31 1011 38 10000 5.7 350 10:18 23.07.2019
4760 Clear 30 1011 38 10000 7.7 340 09:40 23.07.2019
4761 Clear 30 1011 38 10000 6.7 350 09:18 23.07.2019
4762 Clear 29 1011 40 10000 6.2 350 08:40 23.07.2019
4763 Clear 29 1011 39 10000 5.7 340 08:19 23.07.2019
4764 Clear 28 1011 39 10000 4.1 350 07:51 23.07.2019
4765 Clear 28 1011 39 10000 4.1 350 07:33 23.07.2019
4766 Clear 27 1011 47 10000 5.1 340 06:38 23.07.2019
4767 Clear 26 1011 47 10000 3.6 330 05:51 23.07.2019
4768 Clear 26 1013 39 10000 5.1 20 01:58 23.07.2019
4769 Clear 27 1012 39 10000 5.13 345.528 01:27 23.07.2019
4770 Clear 27 1012 37 10000 3.6 330 00:30 23.07.2019
4771 Clear 27 1013 39 10000 4.6 320 23:42 22.07.2019
4772 Clear 27 1013 37 10000 4.6 320 23:21 22.07.2019
4773 Clear 27 1013 37 10000 3.6 330 22:58 22.07.2019
4774 Clear 27 1013 37 10000 3.6 330 22:40 22.07.2019
4775 Clear 27 1013 37 10000 4.1 330 22:20 22.07.2019
4776 Clear 27 1013 35 10000 4.1 330 21:42 22.07.2019
4777 Clear 28 1013 37 10000 3.6 330 21:21 22.07.2019
4778 Clear 28 1013 35 10000 3.6 330 20:48 22.07.2019
4779 Clear 28 1013 35 10000 3.6 330 20:29 22.07.2019
4780 Clear 29 1013 31 10000 4.1 350 19:55 22.07.2019
4781 Clear 29 1013 31 10000 4.1 350 19:36 22.07.2019
4782 Clear 30 1013 29 10000 5.1 10 19:18 22.07.2019
4783 Clear 31 1013 29 10000 4.6 350 18:41 22.07.2019
4784 Clear 31 1013 26 10000 5.7 10 18:22 22.07.2019
4785 Clear 31 1013 27 10000 5.7 10 17:43 22.07.2019
4786 Clear 32 1013 24 10000 5.1 10 17:25 22.07.2019
4787 Clouds 32 1013 26 10000 6.7 360 16:43 22.07.2019
4788 Clear 32 1013 26 10000 6.2 10 16:22 22.07.2019
4789 Clouds 32 1014 28 10000 7.2 360 16:00 22.07.2019
4790 Clouds 32 1014 28 10000 7.2 360 15:38 22.07.2019
4791 Clouds 32 1014 28 10000 7.2 360 15:19 22.07.2019
4792 Clouds 32 1014 28 10000 6.7 350 14:43 22.07.2019
4793 Clouds 32 1015 25 10000 12.3 20 14:21 22.07.2019
4794 Clouds 32 1014 28 10000 5.1 10 13:50 22.07.2019
4795 Clouds 32 1014 28 10000 5.1 10 13:30 22.07.2019
4796 Clouds 32 1014 30 10000 5.7 360 12:47 22.07.2019
4797 Clouds 32 1015 30 10000 5.7 10 12:29 22.07.2019
4798 Clouds 32 1015 30 10000 5.7 360 11:46 22.07.2019
4799 Clouds 31 1015 31 10000 5.1 360 11:26 22.07.2019
4800 Clear 31 1016 37 10000 9.3 20 10:59 22.07.2019
4801 Clear 31 1016 37 10000 9.3 20 10:33 22.07.2019
4802 Clear 30 1015 33 10000 3.6 350 09:45 22.07.2019
4803 Clear 30 1015 35 10000 4.6 340 09:26 22.07.2019
4804 Clear 29 1015 37 10000 3.6 350 08:57 22.07.2019
4805 Clear 29 1015 37 10000 3.6 350 08:36 22.07.2019
4806 Clear 29 1015 37 10000 3.6 340 08:18 22.07.2019
4807 Clouds 28 1015 42 10000 3.6 350 07:43 22.07.2019
4808 Clouds 27 1015 42 10000 1.5 0 07:24 22.07.2019
4809 Clear 25 1015 47 10000 4.1 350 04:53 22.07.2019
4810 Clear 25 1015 44 10000 1.5 360 02:57 22.07.2019
4811 Clear 25 1016 41 10000 1.5 0 00:58 22.07.2019
4812 Clear 26 1016 41 10000 1.5 0 00:38 22.07.2019
4813 Clear 26 1016 44 10000 2.6 20 00:18 22.07.2019
4814 Clear 26 1016 41 10000 2.6 10 23:43 21.07.2019
4815 Clear 26 1016 44 10000 1.5 10 22:57 21.07.2019
4816 Clear 26 1016 44 10000 1.5 10 22:38 21.07.2019
4817 Clear 26 1016 42 10000 2.1 10 22:20 21.07.2019
4818 Clear 26 1016 39 10000 3.6 10 21:48 21.07.2019
4819 Clear 27 1015 37 10000 3.1 360 21:25 21.07.2019
4820 Clear 27 1015 35 10000 3.1 360 20:57 21.07.2019
4821 Clear 28 1015 35 10000 3.1 360 20:38 21.07.2019
4822 Clear 28 1015 35 10000 3.1 360 20:20 21.07.2019
4823 Clear 28 1015 33 10000 5.1 340 19:47 21.07.2019
4824 Clear 29 1015 31 10000 4.6 350 19:28 21.07.2019
4825 Clear 30 1015 27 10000 5.1 350 18:48 21.07.2019
4826 Clouds 30 1014 27 10000 5.7 350 18:26 21.07.2019
4827 Clouds 31 1014 26 10000 6.2 350 17:54 21.07.2019
4828 Clouds 31 1014 26 10000 6.2 350 17:36 21.07.2019
4829 Clouds 31 1014 26 10000 5.1 360 17:18 21.07.2019
4830 Clouds 32 1015 24 10000 5.7 340 16:40 21.07.2019
4831 Clouds 32 1015 24 10000 5.7 360 16:21 21.07.2019
4832 Clouds 32 1015 23 10000 6.7 330 15:39 21.07.2019
4833 Clouds 32 1015 21 10000 5.7 350 15:20 21.07.2019
4834 Clouds 32 1015 21 10000 5.7 350 15:20 21.07.2019
4835 Clouds 32 1015 23 10000 5.1 350 14:42 21.07.2019
4836 Clouds 32 1015 23 10000 5.1 350 14:42 21.07.2019
4837 Clouds 32 1015 23 10000 5.1 360 14:23 21.07.2019
4838 Clouds 32 1015 23 10000 5.7 360 13:53 21.07.2019
4839 Clouds 32 1015 23 10000 5.7 360 13:33 21.07.2019
4840 Clouds 32 1016 26 10000 5.1 350 12:55 21.07.2019
4841 Clouds 31 1016 26 10000 5.1 350 12:37 21.07.2019
4842 Clouds 31 1016 26 10000 5.1 350 12:18 21.07.2019
4843 Clear 31 1016 27 10000 5.7 340 11:44 21.07.2019
4844 Clear 31 1016 27 10000 5.1 350 11:25 21.07.2019
4845 Clear 30 1015 29 10000 6.2 350 10:43 21.07.2019
4846 Clear 30 1015 30 10000 6.2 350 10:23 21.07.2019
4847 Clear 29 1016 37 10000 5.7 350 09:49 21.07.2019
4848 Clear 29 1016 39 10000 5.1 350 09:30 21.07.2019
4849 Clear 28 1016 42 10000 5.1 350 08:45 21.07.2019
4850 Clear 27 1016 42 10000 5.1 350 08:27 21.07.2019
4851 Clear 27 1016 42 10000 5.1 350 07:39 21.07.2019
4852 Clear 25 1015 41 10000 5.1 350 06:54 21.07.2019
4853 Clear 24 1015 39 10000 6.2 330 05:45 21.07.2019
4854 Clear 24 1015 38 10000 1.5 0 02:58 21.07.2019
4855 Clear 24 1016 44 10000 1.5 0 01:24 21.07.2019
4856 Clear 24 1016 44 10000 4.48 342.35 00:42 21.07.2019
4857 Clear 24 1016 38 10000 1.5 0 00:19 21.07.2019
4858 Clear 25 1016 34 10000 2.6 250 23:42 20.07.2019
4859 Clear 25 1016 31 10000 1.5 0 23:21 20.07.2019
4860 Clear 25 1016 34 10000 3.6 350 22:46 20.07.2019
4861 Clear 25 1016 32 10000 4.1 340 22:22 20.07.2019
4862 Clear 25 1016 36 10000 4.6 360 21:57 20.07.2019
4863 Clear 25 1016 36 10000 4.6 360 21:38 20.07.2019
4864 Clear 26 1015 34 10000 1.5 0 21:20 20.07.2019
4865 Clear 26 1015 30 10000 1.5 0 20:41 20.07.2019
4866 Clear 26 1014 28 10000 3.1 20 20:19 20.07.2019
4867 Clear 27 1014 25 10000 5.1 20 19:45 20.07.2019
4868 Clear 28 1014 23 10000 6.2 360 19:21 20.07.2019
4869 Clear 28 1014 22 10000 4.6 360 18:44 20.07.2019
4870 Clear 29 1014 27 10000 7.2 10 18:22 20.07.2019
4871 Clear 30 1014 25 10000 6.2 340 17:55 20.07.2019
4872 Clear 30 1014 22 10000 7.2 360 17:25 20.07.2019
4873 Clear 30 1014 19 10000 5.1 360 16:45 20.07.2019
4874 Clear 30 1014 21 10000 6.7 10 16:27 20.07.2019
4875 Clear 31 1015 23 10000 10.8 40 15:58 20.07.2019
4876 Clear 31 1015 23 10000 10.8 40 15:39 20.07.2019
4877 Clear 31 1014 21 10000 6.2 350 15:20 20.07.2019
4878 Clear 31 1014 24 10000 6.2 360 14:48 20.07.2019
4879 Clear 31 1014 26 10000 5.1 340 14:28 20.07.2019
4880 Clear 31 1014 27 10000 5.1 340 13:40 20.07.2019
4881 Clouds 30 1015 27 10000 5.1 350 13:21 20.07.2019
4882 Clouds 30 1015 29 10000 5.1 10 12:59 20.07.2019
4883 Clouds 30 1015 35 10000 5.7 340 12:26 20.07.2019
4884 Clouds 30 1014 35 10000 5.1 350 11:59 20.07.2019
4885 Clouds 29 1014 35 10000 5.1 350 11:40 20.07.2019
4886 Clouds 29 1014 37 10000 6.7 330 11:19 20.07.2019
4887 Clouds 28 1014 38 10000 6.7 360 10:37 20.07.2019
4888 Clouds 28 1014 42 10000 5.1 340 10:19 20.07.2019
4889 Clouds 28 1014 45 10000 5.1 340 09:45 20.07.2019
4890 Clouds 27 1014 48 10000 4.1 330 09:24 20.07.2019
4891 Clouds 27 1014 51 10000 4.1 340 08:48 20.07.2019
4892 Clouds 26 1014 47 10000 3.1 320 08:21 20.07.2019
4893 Clouds 25 1014 47 10000 3.1 320 07:28 20.07.2019
4894 Clouds 24 1014 53 10000 2.1 350 06:43 20.07.2019
4895 Clouds 22 1014 53 10000 2.1 340 05:21 20.07.2019
4896 Clouds 22 1014 49 10000 2.6 350 04:30 20.07.2019
4897 Clouds 23 1014 38 10000 2.1 350 01:22 20.07.2019
4898 Clouds 24 1014 41 10000 2.6 290 00:49 20.07.2019
4899 Clouds 24 1015 43 10000 3.6 360 00:26 20.07.2019
4900 Clouds 24 1014 36 10000 1.5 0 23:50 19.07.2019
4901 Clouds 24 1013 38 10000 2.6 290 23:29 19.07.2019
4902 Clouds 24 1013 38 10000 2.6 290 22:59 19.07.2019
4903 Clouds 24 1013 36 10000 1.5 0 22:40 19.07.2019
4904 Clouds 25 1013 34 10000 1.5 0 22:19 19.07.2019
4905 Clouds 25 1013 32 10000 3.1 320 21:43 19.07.2019
4906 Clouds 26 1013 34 10000 1.5 0 21:24 19.07.2019
4907 Clouds 26 1013 28 10000 2.6 360 20:43 19.07.2019
4908 Clouds 26 1012 28 10000 2.6 360 20:25 19.07.2019
4909 Clouds 27 1012 28 10000 3.6 350 19:39 19.07.2019
4910 Clouds 28 1012 27 10000 4.1 350 19:18 19.07.2019
4911 Clouds 28 1012 27 10000 4.6 10 18:40 19.07.2019
4912 Clouds 29 1012 24 10000 3.6 360 18:19 19.07.2019
4913 Clouds 30 1012 22 10000 3.6 350 17:45 19.07.2019
4914 Clouds 30 1012 24 10000 5.1 340 17:25 19.07.2019
4915 Clouds 30 1012 22 10000 5.1 350 16:48 19.07.2019
4916 Clouds 30 1012 25 10000 5.7 340 16:25 19.07.2019
4917 Clouds 30 1012 26 10000 4.1 360 15:48 19.07.2019
4918 Clouds 31 1012 26 10000 4.6 340 15:29 19.07.2019
4919 Clouds 31 1012 25 10000 3.6 360 14:56 19.07.2019
4920 Clouds 31 1012 25 10000 3.6 360 14:56 19.07.2019
4921 Clouds 31 1012 25 10000 3.6 360 14:38 19.07.2019
4922 Clouds 31 1012 27 10000 4.1 350 14:19 19.07.2019
4923 Clouds 31 1012 26 10000 4.1 10 13:43 19.07.2019
4924 Clouds 30 1012 29 10000 4.1 330 13:22 19.07.2019
4925 Clouds 30 1012 29 10000 4.6 20 12:49 19.07.2019
4926 Clouds 30 1012 29 10000 4.6 20 12:30 19.07.2019
4927 Clouds 30 1013 29 10000 2.6 10 11:47 19.07.2019
4928 Clouds 30 1013 31 10000 4.1 340 11:20 19.07.2019
4929 Clouds 29 1013 31 10000 4.1 340 10:58 19.07.2019
4930 Clouds 29 1013 33 10000 3.6 330 10:40 19.07.2019
4931 Clouds 29 1012 31 10000 3.1 340 10:20 19.07.2019
4932 Clouds 28 1012 33 10000 3.1 350 09:44 19.07.2019
4933 Clear 27 1012 33 10000 1.5 0 09:22 19.07.2019
4934 Clear 27 1012 33 10000 1.5 0 09:22 19.07.2019
4935 Clear 27 1012 39 10000 1.75 351.304 08:56 19.07.2019
4936 Clear 27 1012 39 10000 1.75 351.304 08:56 19.07.2019
4937 Clear 27 1012 39 10000 1.62 351.147 08:38 19.07.2019
4938 Clear 26 1012 50 10000 1.62 351.147 07:43 19.07.2019
4939 Clear 24 1012 53 10000 1.62 351.147 07:25 19.07.2019
4940 Clear 22 1012 64 10000 2 356.298 05:55 19.07.2019
4941 Clear 22 1012 56 10000 1.14 11.744 01:59 19.07.2019
4942 Clear 23 1012 53 10000 1.25 11.768 00:59 19.07.2019
4943 Clear 23 1012 53 10000 2.05 281.326 00:26 19.07.2019
4944 Clear 23 1012 53 10000 2.05 281.326 23:43 18.07.2019
4945 Clear 23 1012 50 10000 2.05 281.326 23:23 18.07.2019
4946 Clear 24 1012 50 10000 2.05 281.326 22:59 18.07.2019
4947 Clear 24 1012 50 10000 2.05 281.326 22:39 18.07.2019
4948 Clear 24 1011 50 10000 2.05 281.326 22:18 18.07.2019
4949 Clear 25 1013 47 10000 0.5 0 21:41 18.07.2019
4950 Clear 25 1011 54 10000 0.45 12.748 21:22 18.07.2019
4951 Clear 26 1011 57 10000 1.65 167.644 20:49 18.07.2019
4952 Clear 26 1010 54 10000 1.65 167.644 20:28 18.07.2019
4953 Clouds 27 1010 48 10000 3.1 190 19:53 18.07.2019
4954 Clouds 27 1010 39 10000 3.1 180 19:31 18.07.2019
4955 Clouds 28 1010 37 10000 2.6 180 18:57 18.07.2019
4956 Clouds 28 1010 37 10000 2.6 180 18:37 18.07.2019
4957 Clouds 29 1009 35 10000 3.1 190 18:19 18.07.2019
4958 Clouds 29 1009 33 10000 2.6 180 17:42 18.07.2019
4959 Clouds 29 1009 37 10000 3.1 170 17:23 18.07.2019
4960 Clouds 29 1009 35 10000 3.1 160 16:54 18.07.2019
4961 Clouds 29 1009 35 10000 3.1 160 16:29 18.07.2019
4962 Clouds 29 1010 31 10000 2.6 230 15:58 18.07.2019
4963 Clouds 29 1010 31 10000 2.6 230 15:39 18.07.2019
4964 Clouds 29 1010 35 10000 3.1 220 15:20 18.07.2019
4965 Clouds 29 1010 35 10000 4.1 220 14:43 18.07.2019
4966 Clouds 29 1010 33 10000 4.1 220 14:25 18.07.2019
4967 Clouds 29 1010 39 10000 3.6 210 13:46 18.07.2019
4968 Clouds 29 1010 35 10000 3.1 170 13:22 18.07.2019
4969 Clouds 29 1010 29 10000 2.6 290 12:49 18.07.2019
4970 Clouds 29 1010 30 10000 3.1 330 12:21 18.07.2019
4971 Clouds 29 1010 30 10000 3.1 330 12:21 18.07.2019
4972 Clouds 29 1010 29 10000 2.6 360 11:56 18.07.2019
4973 Clouds 29 1010 29 10000 2.6 360 11:38 18.07.2019
4974 Clouds 29 1010 29 10000 3.6 360 11:19 18.07.2019
4975 Clouds 28 1010 33 10000 3.1 320 10:40 18.07.2019
4976 Clear 28 1010 37 10000 4.1 360 09:49 18.07.2019
4977 Clear 27 1010 39 10000 3.6 350 09:26 18.07.2019
4978 Clear 26 1010 44 10000 4.6 360 08:50 18.07.2019
4979 Clear 26 1010 44 10000 2.1 360 08:21 18.07.2019
4980 Clear 25 1010 47 10000 1.5 0 07:54 18.07.2019
4981 Clear 24 1009 50 10000 1.5 0 07:34 18.07.2019
4982 Clear 23 1009 50 10000 1.5 0 06:43 18.07.2019
4983 Clear 21 1009 56 10000 1.5 0 05:57 18.07.2019
4984 Clear 22 1009 53 10000 3.1 320 03:24 18.07.2019
4985 Clear 22 1009 60 10000 2.6 320 01:52 18.07.2019
4986 Clouds 22 1009 60 10000 1.5 0 01:20 18.07.2019
4987 Clear 23 1009 56 10000 5.52 330.963 23:57 17.07.2019
4988 Clear 23 1009 53 10000 1.5 0 23:21 17.07.2019
4989 Clouds 23 1009 57 10000 1.5 0 22:58 17.07.2019
4990 Clouds 23 1009 57 10000 1.5 0 22:40 17.07.2019
4991 Clouds 23 1009 57 10000 2.6 320 22:20 17.07.2019
4992 Clear 24 1008 57 10000 1.5 0 21:46 17.07.2019
4993 Clear 24 1008 57 10000 2.1 320 21:28 17.07.2019
4994 Clear 24 1008 53 10000 2.6 330 20:59 17.07.2019
4995 Clear 24 1008 53 10000 2.6 330 20:40 17.07.2019
4996 Clouds 24 1007 50 10000 2.6 330 20:21 17.07.2019
4997 Clouds 25 1007 50 10000 3.6 340 19:57 17.07.2019
4998 Clouds 25 1007 50 10000 3.6 340 19:39 17.07.2019
4999 Clouds 25 1007 47 10000 4.1 350 19:18 17.07.2019
5000 Clouds 26 1007 42 10000 5.1 340 18:41 17.07.2019
5001 Clouds 26 1006 42 10000 5.1 330 18:20 17.07.2019
5002 Clouds 26 1006 47 10000 5.7 330 17:50 17.07.2019
5003 Clouds 27 1006 47 10000 5.7 330 17:27 17.07.2019
5004 Clouds 27 1006 47 10000 5.1 340 16:56 17.07.2019
5005 Clouds 27 1006 45 10000 5.1 340 16:38 17.07.2019
5006 Clouds 27 1006 42 10000 3.6 350 16:18 17.07.2019
5007 Clouds 27 1006 42 10000 3.6 350 15:50 17.07.2019
5008 Clouds 27 1006 47 10000 5.1 330 15:25 17.07.2019
5009 Clouds 27 1006 48 10000 5.1 350 14:54 17.07.2019
5010 Clouds 27 1007 42 10000 9.3 10 14:36 17.07.2019
5011 Clouds 27 1007 42 10000 9.3 10 14:18 17.07.2019
5012 Clouds 26 1006 57 10000 6.2 330 13:41 17.07.2019
5013 Clouds 26 1006 57 10000 6.2 330 13:21 17.07.2019
5014 Clouds 26 1006 61 10000 6.2 320 12:40 17.07.2019
5015 Clouds 26 1006 61 10000 3.6 330 12:21 17.07.2019
5016 Clouds 26 1006 61 10000 4.6 320 11:45 17.07.2019
5017 Clouds 25 1006 61 10000 4.6 320 11:21 17.07.2019
5018 Rain 25 1006 64 10000 5.7 320 10:51 17.07.2019
5019 Rain 25 1005 64 10000 4.1 320 10:31 17.07.2019
5020 Rain 25 1005 64 10000 4.1 320 10:31 17.07.2019
5021 Clouds 24 1005 64 10000 4.6 330 09:59 17.07.2019
5022 Clouds 24 1005 64 10000 5.1 320 09:40 17.07.2019
5023 Clouds 23 1005 64 10000 5.1 320 09:22 17.07.2019
5024 Clouds 23 1005 73 10000 5.1 330 08:43 17.07.2019
5025 Clouds 22 1005 73 10000 5.1 330 08:22 17.07.2019
5026 Drizzle 22 1005 73 10000 5.1 320 07:50 17.07.2019
5027 Drizzle 22 1005 73 10000 5.1 320 07:50 17.07.2019
5028 Rain 22 1005 73 10000 6.7 330 07:24 17.07.2019
5029 Drizzle 22 1005 77 10000 4.1 330 06:57 17.07.2019
5030 Rain 21 1004 73 10000 3.1 300 06:30 17.07.2019
5031 Clouds 21 1004 73 10000 4.1 320 05:50 17.07.2019
5032 Clouds 21 1004 73 10000 4.1 330 05:30 17.07.2019
5033 Drizzle 21 1004 73 10000 1.5 0 04:46 17.07.2019
5034 Rain 21 1004 73 10000 3.1 310 03:32 17.07.2019
5035 Rain 21 1005 77 8000 2.6 320 02:21 17.07.2019
5036 Rain 21 1005 82 10000 2.6 290 01:27 17.07.2019
5037 Rain 21 1005 73 10000 3.6 310 00:59 17.07.2019
5038 Rain 21 1005 77 8000 3.6 300 00:37 17.07.2019
5039 Rain 22 1005 77 8000 3.6 300 00:19 17.07.2019
5040 Rain 22 1006 77 8000 3.6 320 23:40 16.07.2019
5041 Rain 22 1006 77 8000 3.6 320 23:20 16.07.2019
5042 Rain 22 1006 68 10000 3.1 320 22:43 16.07.2019
5043 Rain 22 1006 68 10000 3.1 320 22:24 16.07.2019
5044 Rain 23 1005 69 10000 3.6 320 21:48 16.07.2019
5045 Rain 23 1005 69 10000 3.6 320 21:25 16.07.2019
5046 Rain 23 1005 64 10000 3.1 330 20:59 16.07.2019
5047 Rain 23 1004 64 10000 3.6 310 20:40 16.07.2019
5048 Rain 24 1004 64 10000 3.6 310 20:22 16.07.2019
5049 Clouds 24 1004 47 10000 3.1 310 19:54 16.07.2019
5050 Clouds 24 1004 44 10000 2.6 60 19:30 16.07.2019
5051 Clouds 25 1004 39 10000 4.1 80 18:58 16.07.2019
5052 Clouds 25 1003 34 10000 4.6 70 18:39 16.07.2019
5053 Clouds 26 1005 44 10000 7.7 20 18:20 16.07.2019
5054 Clouds 26 1005 44 10000 7.7 20 18:20 16.07.2019
5055 Clouds 26 1004 34 10000 4.1 70 17:44 16.07.2019
5056 Clouds 26 1004 34 10000 4.1 70 17:26 16.07.2019
5057 Clouds 27 1003 35 10000 3.6 70 16:49 16.07.2019
5058 Clouds 27 1004 37 10000 4.16 188.442 16:25 16.07.2019
5059 Clouds 28 1004 45 10000 2.6 200 15:57 16.07.2019
5060 Clouds 28 1004 42 10000 1.5 0 15:38 16.07.2019
5061 Clouds 28 1004 42 10000 1.5 0 15:38 16.07.2019
5062 Clouds 28 1004 42 10000 1.5 0 15:38 16.07.2019
5063 Clouds 28 1004 42 10000 1.5 0 15:19 16.07.2019
5064 Clouds 28 1004 40 10000 3.1 200 14:47 16.07.2019
5065 Clouds 28 1004 40 10000 3.1 200 14:28 16.07.2019
5066 Clouds 28 1006 44 10000 7.2 20 13:57 16.07.2019
5067 Clouds 28 1004 33 10000 2.6 210 13:37 16.07.2019
5068 Clouds 28 1004 33 10000 2.6 210 13:18 16.07.2019
5069 Clouds 27 1007 42 10000 7.2 30 12:43 16.07.2019
5070 Clouds 27 1007 42 10000 7.2 30 12:20 16.07.2019
5071 Clouds 27 1007 39 10000 7.2 30 11:54 16.07.2019
5072 Clouds 27 1005 39 10000 2.6 60 11:36 16.07.2019
5073 Clouds 27 1006 42 10000 3.1 80 11:18 16.07.2019
5074 Clouds 26 1006 48 10000 3.1 80 10:43 16.07.2019
5075 Clouds 26 1006 54 10000 2.1 90 10:19 16.07.2019
5076 Clouds 26 1006 57 10000 1.5 0 09:43 16.07.2019
5077 Clouds 25 1006 57 10000 1.5 0 09:21 16.07.2019
5078 Clouds 24 1006 57 10000 1.49 53.885 08:48 16.07.2019
5079 Clouds 23 1006 65 10000 1.49 53.885 08:27 16.07.2019
5080 Clouds 23 1006 69 10000 1.49 53.885 07:54 16.07.2019
5081 Clouds 22 1006 69 10000 1.49 53.885 07:35 16.07.2019
5082 Clouds 22 1006 69 10000 1.49 53.885 06:58 16.07.2019
5083 Clouds 22 1006 69 10000 1.49 53.885 06:37 16.07.2019
5084 Clouds 21 1006 73 10000 1.18 27.628 05:52 16.07.2019
5085 Clouds 21 1006 73 10000 1.18 27.628 05:27 16.07.2019
5086 Clouds 21 1006 73 10000 1.18 27.628 04:36 16.07.2019
5087 Clear 21 1008 82 10000 1.18 27.628 03:43 16.07.2019
5088 Clouds 21 1007 73 10000 0.82 149.96 02:46 16.07.2019
5089 Clouds 21 1007 73 10000 0.82 149.96 02:28 16.07.2019
5090 Clouds 21 1007 73 10000 0.82 149.96 01:26 16.07.2019
5091 Clouds 22 1008 69 10000 2.3 153.759 00:25 16.07.2019
5092 Clouds 22 1008 69 10000 2.3 153.759 23:59 15.07.2019
5093 Clouds 22 1008 69 10000 2.3 153.759 23:39 15.07.2019
5094 Clouds 22 1008 69 10000 2.3 153.759 23:20 15.07.2019
5095 Clouds 22 1008 69 10000 2.3 153.759 22:44 15.07.2019
5096 Clouds 22 1008 69 10000 2.3 153.759 22:20 15.07.2019
5097 Clouds 22 1007 69 10000 2.3 153.759 21:57 15.07.2019
5098 Clouds 23 1007 69 10000 2.3 153.759 21:39 15.07.2019
5099 Clouds 23 1007 69 10000 2.89 149.795 21:19 15.07.2019
5100 Clouds 23 1007 61 10000 2.89 149.795 20:44 15.07.2019
5101 Clouds 23 1007 61 10000 2.89 149.795 20:24 15.07.2019
5102 Clouds 23 1007 65 10000 2.1 140 19:58 15.07.2019
5103 Clouds 23 1009 53 10000 1.5 0 19:38 15.07.2019
5104 Clouds 23 1009 53 10000 1.5 0 19:38 15.07.2019
5105 Rain 23 1007 61 10000 3.1 160 19:18 15.07.2019
5106 Rain 23 1007 57 10000 3.1 160 18:45 15.07.2019
5107 Clouds 24 1007 61 10000 4.1 140 18:21 15.07.2019
5108 Clouds 24 1007 61 10000 4.1 140 17:57 15.07.2019
5109 Clouds 24 1007 61 10000 4.1 160 17:38 15.07.2019
5110 Clouds 24 1007 61 10000 4.1 160 17:20 15.07.2019
5111 Clouds 24 1007 61 10000 5.1 150 16:57 15.07.2019
5112 Clouds 25 1007 65 10000 4.1 170 16:37 15.07.2019
5113 Clouds 25 1007 65 10000 4.1 170 16:18 15.07.2019
5114 Clouds 25 1007 61 10000 4.1 150 15:40 15.07.2019
5115 Clouds 25 1007 61 10000 4.1 150 15:22 15.07.2019
5116 Clouds 26 1007 61 10000 4.1 170 14:58 15.07.2019
5117 Clouds 26 1007 54 10000 4.1 160 14:37 15.07.2019
5118 Clouds 26 1007 57 10000 6.2 180 14:19 15.07.2019
5119 Clouds 26 1007 57 10000 5.1 180 13:46 15.07.2019
5120 Clouds 27 1007 57 10000 5.1 180 13:18 15.07.2019
5121 Clouds 27 1007 54 10000 4.1 170 12:44 15.07.2019
5122 Clouds 27 1007 54 10000 4.1 170 12:25 15.07.2019
5123 Clouds 27 1008 51 10000 4.1 180 11:45 15.07.2019
5124 Clouds 27 1008 51 10000 4.1 180 11:26 15.07.2019
5125 Clouds 28 1008 51 10000 3.1 150 10:59 15.07.2019
5126 Clouds 27 1009 54 10000 3.1 210 10:40 15.07.2019
5127 Clouds 27 1009 54 10000 3.1 210 10:22 15.07.2019
5128 Clouds 25 1008 47 10000 4.04 178.34 09:42 15.07.2019
5129 Clouds 25 1008 47 10000 1.71 89.866 09:19 15.07.2019
5130 Clear 25 1007 53 10000 1.9 65.052 08:45 15.07.2019
5131 Clear 25 1007 53 10000 1.9 65.052 08:24 15.07.2019
5132 Clear 24 1007 57 10000 1.9 65.052 07:52 15.07.2019
5133 Clouds 24 1006 57 10000 1.9 65.052 07:30 15.07.2019
5134 Clouds 22 1007 68 10000 1.9 65.052 06:40 15.07.2019
5135 Clouds 22 1007 68 10000 2.15 356.11 06:20 15.07.2019
5136 Clouds 21 1007 60 10000 2.15 356.11 05:42 15.07.2019
5137 Clouds 22 1006 64 10000 2.15 356.11 04:45 15.07.2019
5138 Clouds 22 1006 64 10000 2.15 356.11 04:26 15.07.2019
5139 Clouds 22 1006 60 10000 2.15 345.686 03:23 15.07.2019
5140 Clouds 22 1006 60 10000 2.15 345.686 02:18 15.07.2019
5141 Clouds 22 1006 69 10000 1.97 321.145 01:34 15.07.2019
5142 Clouds 23 1006 64 10000 1.5 0 00:53 15.07.2019
5143 Clouds 22 1006 73 10000 1.76 334.234 00:28 15.07.2019
5144 Clouds 23 1006 73 10000 1.76 334.234 23:58 14.07.2019
5145 Clouds 23 1006 73 10000 1.76 334.234 23:40 14.07.2019
5146 Clouds 23 1006 73 10000 1.76 334.234 23:20 14.07.2019
5147 Clouds 23 1006 73 10000 1.76 334.234 22:57 14.07.2019
5148 Clouds 23 1006 73 10000 1.76 334.234 22:38 14.07.2019
5149 Clouds 23 1006 73 10000 1.76 334.234 22:20 14.07.2019
5150 Clouds 24 1006 73 10000 1.76 334.234 21:42 14.07.2019
5151 Clouds 23 1006 73 10000 2.53 189.957 21:19 14.07.2019
5152 Clouds 23 1005 69 10000 2.53 189.957 20:57 14.07.2019
5153 Clouds 23 1005 69 10000 2.53 189.957 20:38 14.07.2019
5154 Clouds 24 1005 69 10000 2.53 189.957 20:19 14.07.2019
5155 Clouds 24 1004 73 10000 1.5 0 19:46 14.07.2019
5156 Clouds 24 1004 73 10000 1.5 0 19:28 14.07.2019
5157 Clouds 25 1004 78 10000 1.5 0 18:58 14.07.2019
5158 Rain 25 1004 83 10000 2.53 189.957 18:39 14.07.2019
5159 Rain 25 1004 83 10000 5.11 172.619 18:21 14.07.2019
5160 Rain 25 1004 57 10000 3.1 80 17:54 14.07.2019
5161 Drizzle 26 1003 54 10000 3.6 70 17:22 14.07.2019
5162 Drizzle 26 1003 54 10000 3.6 70 17:22 14.07.2019
5163 Clouds 26 1003 54 10000 3.1 80 16:52 14.07.2019
5164 Clouds 27 1003 51 10000 3.1 80 16:25 14.07.2019
5165 Rain 26 1002 51 10000 4.1 90 15:57 14.07.2019
5166 Clouds 26 1002 51 10000 4.1 60 15:35 14.07.2019
5167 Rain 25 1005 73 10000 9.3 20 14:56 14.07.2019
5168 Clouds 25 1005 61 10000 10.8 20 14:37 14.07.2019
5169 Clouds 26 1002 45 10000 4.1 20 14:18 14.07.2019
5170 Thunderstorm 27 1002 38 10000 3.6 320 13:44 14.07.2019
5171 Rain 27 1002 38 10000 3.6 320 13:21 14.07.2019
5172 Rain 28 1002 45 10000 3.6 200 12:43 14.07.2019
5173 Clouds 29 1002 48 10000 2.6 200 12:22 14.07.2019
5174 Clouds 29 1002 48 10000 2.6 200 11:57 14.07.2019
5175 Clouds 29 1002 51 10000 3.6 220 11:38 14.07.2019
5176 Clouds 29 1002 51 10000 3.6 220 11:19 14.07.2019
5177 Clouds 29 1003 54 10000 2.6 200 10:42 14.07.2019
5178 Clouds 28 1003 54 10000 2.6 200 10:19 14.07.2019
5179 Clouds 28 1003 54 10000 3.5 260.629 09:44 14.07.2019
5180 Clouds 27 1004 51 10000 2.1 320 09:24 14.07.2019
5181 Clouds 25 1003 69 10000 4.4 299.914 08:45 14.07.2019
5182 Clouds 25 1003 69 10000 4.4 299.914 08:22 14.07.2019
5183 Clouds 25 1003 73 10000 4.4 299.914 07:41 14.07.2019
5184 Clouds 24 1003 73 10000 4.4 299.914 06:59 14.07.2019
5185 Clouds 23 1003 78 10000 3.67 302.379 05:45 14.07.2019
5186 Clouds 23 1004 78 10000 1.5 0 03:50 14.07.2019
5187 Clouds 23 1004 78 10000 3.67 302.379 03:32 14.07.2019
5188 Clouds 23 1004 78 10000 0.9 128.977 02:50 14.07.2019
5189 Clouds 23 1005 78 10000 0.9 128.977 02:22 14.07.2019
5190 Clouds 23 1006 73 10000 0.38 157.745 01:34 14.07.2019
5191 Clouds 23 1006 69 10000 0.38 157.745 00:59 14.07.2019
5192 Clouds 23 1006 69 10000 0.38 157.745 00:40 14.07.2019
5193 Clouds 24 1006 69 10000 3.14 142.634 00:20 14.07.2019
5194 Clouds 24 1007 69 10000 3.14 142.634 23:45 13.07.2019
5195 Clouds 24 1007 69 10000 3.14 142.634 23:26 13.07.2019
5196 Clouds 24 1007 73 10000 3.14 142.634 22:59 13.07.2019
5197 Clouds 24 1007 65 10000 3.14 142.634 22:39 13.07.2019
5198 Clouds 24 1007 65 10000 3.14 142.634 22:20 13.07.2019
5199 Clouds 24 1007 69 10000 2.6 140 21:43 13.07.2019
5200 Clouds 25 1007 69 10000 2.6 140 21:19 13.07.2019
5201 Clouds 25 1007 65 10000 3.6 160 20:46 13.07.2019
5202 Clouds 25 1007 65 10000 3.6 160 20:27 13.07.2019
5203 Clouds 25 1007 65 10000 4.6 170 19:47 13.07.2019
5204 Clouds 26 1007 57 10000 4.1 160 19:29 13.07.2019
5205 Clouds 26 1007 54 10000 4.1 150 18:45 13.07.2019
5206 Clouds 27 1007 54 10000 4.1 150 18:22 13.07.2019
5207 Clouds 27 1008 54 10000 4.1 160 17:42 13.07.2019
5208 Clouds 28 1008 54 10000 4.1 160 17:21 13.07.2019
5209 Clouds 28 1008 54 10000 4.6 170 16:58 13.07.2019
5210 Clouds 28 1008 51 10000 4.1 160 16:38 13.07.2019
5211 Clouds 28 1008 51 10000 4.1 160 16:19 13.07.2019
5212 Clouds 28 1008 51 10000 4.1 160 16:19 13.07.2019
5213 Clouds 29 1008 45 10000 4.1 160 15:44 13.07.2019
5214 Clouds 29 1008 45 10000 4.1 160 15:21 13.07.2019
5215 Clouds 29 1009 42 10000 3.6 160 14:45 13.07.2019
5216 Clouds 29 1009 42 10000 3.6 160 14:24 13.07.2019
5217 Clouds 29 1009 42 10000 4.1 170 13:46 13.07.2019
5218 Clouds 29 1009 42 10000 4.1 170 13:26 13.07.2019
5219 Clouds 29 1009 42 10000 3.6 190 12:59 13.07.2019
5220 Clouds 28 1009 48 10000 3.6 200 12:39 13.07.2019
5221 Clouds 28 1009 48 10000 3.1 200 12:20 13.07.2019
5222 Clouds 28 1009 40 10000 3.1 160 11:43 13.07.2019
5223 Clouds 28 1009 40 10000 3.1 160 11:19 13.07.2019
5224 Clouds 28 1010 48 10000 1.5 0 10:45 13.07.2019
5225 Clouds 28 1010 48 10000 1.5 0 10:23 13.07.2019
5226 Clouds 27 1010 48 10000 2.6 180 09:57 13.07.2019
5227 Clouds 27 1010 51 10000 1.5 0 09:38 13.07.2019
5228 Clouds 26 1010 51 10000 1.5 0 09:18 13.07.2019
5229 Clear 25 1010 57 10000 1.5 0 08:36 13.07.2019
5230 Clear 25 1010 57 10000 1.5 0 08:18 13.07.2019
5231 Clear 24 1010 60 10000 1.5 0 07:30 13.07.2019
5232 Clear 22 1010 68 10000 1.31 20.755 06:41 13.07.2019
5233 Clear 21 1010 64 10000 2.83 329.574 05:58 13.07.2019
5234 Clear 21 1010 64 10000 2.83 329.574 05:29 13.07.2019
5235 Clear 21 1010 68 10000 2.83 329.574 04:24 13.07.2019
5236 Clear 22 1010 64 10000 2.83 329.574 03:57 13.07.2019
5237 Clouds 22 1010 64 10000 2.83 329.574 03:38 13.07.2019
5238 Clear 22 1010 60 10000 1.08 116.163 01:58 13.07.2019
5239 Clear 22 1010 60 10000 1.5 0 01:39 13.07.2019
5240 Clear 23 1010 60 10000 1.33 121.65 01:19 13.07.2019
5241 Clear 23 1010 60 10000 1.33 121.65 00:51 13.07.2019
5242 Clear 23 1011 60 10000 3.07 144.202 00:19 13.07.2019
5243 Clear 23 1011 60 10000 3.07 144.202 23:48 12.07.2019
5244 Clear 23 1010 60 10000 3.07 144.202 23:29 12.07.2019
5245 Clear 23 1010 53 10000 1 0 22:46 12.07.2019
5246 Clear 24 1010 53 10000 1 0 22:24 12.07.2019
5247 Clear 24 1010 53 10000 1 0 21:43 12.07.2019
5248 Clear 24 1010 53 10000 1 0 21:22 12.07.2019
5249 Clouds 24 1010 53 10000 2.6 150 20:57 12.07.2019
5250 Clouds 24 1010 61 10000 3.1 160 20:38 12.07.2019
5251 Clouds 25 1010 61 10000 3.1 160 20:20 12.07.2019
5252 Clouds 25 1010 50 10000 3.6 160 19:42 12.07.2019
5253 Clouds 25 1010 50 10000 3.6 160 19:23 12.07.2019
5254 Clouds 26 1009 47 10000 3.6 160 18:46 12.07.2019
5255 Clouds 26 1009 47 10000 3.6 160 18:22 12.07.2019
5256 Clouds 27 1009 45 10000 4.1 160 17:53 12.07.2019
5257 Clouds 27 1010 45 10000 4.1 160 17:29 12.07.2019
5258 Clouds 28 1010 42 10000 5.1 170 16:51 12.07.2019
5259 Clouds 28 1010 39 10000 4.1 170 16:23 12.07.2019
5260 Clouds 28 1010 42 10000 4.1 170 15:56 12.07.2019
5261 Clouds 28 1012 32 10000 5.7 70 15:36 12.07.2019
5262 Clouds 28 1012 32 10000 5.7 70 15:18 12.07.2019
5263 Clouds 28 1010 28 10000 3.1 180 14:43 12.07.2019
5264 Clouds 28 1010 28 10000 3.1 180 14:20 12.07.2019
5265 Clouds 29 1010 30 10000 3.6 200 13:43 12.07.2019
5266 Clouds 29 1010 30 10000 3.6 200 13:21 12.07.2019
5267 Clouds 28 1011 34 10000 3.1 210 12:41 12.07.2019
5268 Clouds 27 1011 28 10000 1.5 0 12:23 12.07.2019
5269 Clouds 27 1011 30 10000 1.5 0 11:46 12.07.2019
5270 Clouds 27 1011 30 10000 1.5 0 11:24 12.07.2019
5271 Clouds 27 1011 28 10000 1.5 0 10:58 12.07.2019
5272 Clouds 27 1011 28 10000 1.5 0 10:40 12.07.2019
5273 Clouds 27 1011 28 10000 1.5 0 10:22 12.07.2019
5274 Clouds 26 1011 30 10000 2.1 130 09:51 12.07.2019
5275 Clouds 26 1011 34 10000 1.5 0 09:25 12.07.2019
5276 Clouds 25 1011 41 10000 1.5 0 08:45 12.07.2019
5277 Clouds 24 1011 41 10000 1.5 0 08:23 12.07.2019
5278 Clouds 23 1011 53 10000 1.5 0 07:47 12.07.2019
5279 Clouds 23 1011 53 10000 1.5 0 07:29 12.07.2019
5280 Clouds 21 1010 60 10000 2.1 10 06:30 12.07.2019
5281 Clouds 20 1010 56 10000 2.01 11.511 05:51 12.07.2019
5282 Clouds 20 1010 56 10000 2.01 11.511 04:25 12.07.2019
5283 Clouds 20 1010 56 10000 2.78 12.077 01:52 12.07.2019
5284 Clouds 20 1010 53 10000 2.9 12.323 01:34 12.07.2019
5285 Clouds 20 1010 53 10000 2.9 12.323 00:36 12.07.2019
5286 Clouds 21 1010 53 10000 3.29 11.943 00:18 12.07.2019
5287 Clouds 21 1010 49 10000 3.29 11.943 23:41 11.07.2019
5288 Clouds 21 1010 49 10000 3.29 11.943 23:21 11.07.2019
5289 Clouds 21 1010 56 10000 3.29 11.943 22:45 11.07.2019
5290 Clouds 21 1010 56 10000 3.29 11.943 22:24 11.07.2019
5291 Clouds 21 1010 53 10000 2.6 10 21:54 11.07.2019
5292 Clouds 22 1010 50 10000 2.1 30 21:36 11.07.2019
5293 Clouds 22 1009 50 10000 3.89 18.505 21:18 11.07.2019
5294 Clouds 22 1009 44 10000 2.6 20 20:41 11.07.2019
5295 Clouds 23 1009 47 10000 2.6 340 20:22 11.07.2019
5296 Clouds 23 1009 47 10000 2.6 340 20:22 11.07.2019
5297 Clouds 23 1009 47 10000 2.6 340 19:56 11.07.2019
5298 Clouds 23 1009 47 10000 2.1 350 19:37 11.07.2019
5299 Clouds 24 1009 50 10000 2.6 10 19:19 11.07.2019
5300 Clouds 24 1008 50 10000 4.1 20 18:41 11.07.2019
5301 Clouds 25 1008 50 10000 4.1 20 18:23 11.07.2019
5302 Clouds 25 1008 47 10000 4.6 360 17:48 11.07.2019
5303 Clouds 25 1008 47 10000 4.6 360 17:29 11.07.2019
5304 Clouds 25 1008 54 10000 3.6 20 16:55 11.07.2019
5305 Clouds 25 1007 54 10000 5.7 350 16:37 11.07.2019
5306 Clouds 25 1007 54 10000 5.7 350 16:18 11.07.2019
5307 Clouds 24 1009 60 10000 9.8 30 15:40 11.07.2019
5308 Clouds 24 1007 47 10000 4.1 340 15:20 11.07.2019
5309 Clouds 25 1007 54 10000 6.2 340 14:44 11.07.2019
5310 Clouds 25 1007 54 10000 6.2 340 14:24 11.07.2019
5311 Clouds 25 1007 54 10000 8.2 330 13:52 11.07.2019
5312 Clouds 26 1007 54 10000 7.7 340 13:33 11.07.2019
5313 Clouds 25 1007 57 10000 7.2 340 12:58 11.07.2019
5314 Drizzle 25 1007 57 10000 6.7 340 12:38 11.07.2019
5315 Clouds 26 1007 54 10000 6.2 340 12:19 11.07.2019
5316 Clouds 25 1007 57 10000 6.7 340 11:43 11.07.2019
5317 Clouds 25 1007 57 10000 6.7 340 11:24 11.07.2019
5318 Clouds 25 1006 61 10000 6.2 340 10:51 11.07.2019
5319 Clouds 24 1005 61 10000 6.2 350 10:19 11.07.2019
5320 Clouds 24 1005 61 10000 6.2 350 09:50 11.07.2019
5321 Clouds 24 1005 57 10000 8.2 340 09:31 11.07.2019
5322 Clouds 24 1005 61 10000 6.7 340 08:57 11.07.2019
5323 Clouds 24 1004 65 10000 8.2 330 08:37 11.07.2019
5324 Rain 24 1003 65 10000 6.2 330 08:19 11.07.2019
5325 Rain 24 1003 61 10000 3.1 330 07:42 11.07.2019
5326 Clouds 24 1001 61 10000 1 0 06:55 11.07.2019
5327 Clouds 25 1001 65 10000 6.02 8.882 06:18 11.07.2019
5328 Clouds 24 1001 65 10000 6.02 8.882 05:31 11.07.2019
5329 Clouds 25 1001 61 10000 6.02 8.882 04:56 11.07.2019
5330 Clouds 25 1001 61 10000 4.1 100 03:43 11.07.2019
5331 Clouds 26 1004 58 10000 1.84 316.256 02:18 11.07.2019
5332 Clouds 27 1003 65 10000 1.44 27.916 00:33 11.07.2019
5333 Clouds 28 1004 65 10000 2.4 181.645 23:50 10.07.2019
5334 Clouds 28 1004 62 10000 2.4 181.645 23:24 10.07.2019
5335 Clouds 28 1005 58 10000 2.4 181.645 22:57 10.07.2019
5336 Clouds 29 1004 55 10000 2.4 181.645 22:25 10.07.2019
5337 Clouds 29 1005 55 10000 2.4 181.645 21:57 10.07.2019
5338 Clouds 29 1005 58 10000 2.4 181.645 21:38 10.07.2019
5339 Clouds 29 1005 58 10000 3.6 126.851 21:20 10.07.2019
5340 Clouds 29 1005 40 10000 3.6 126.851 20:46 10.07.2019
5341 Clouds 30 1005 40 10000 3.6 126.851 20:26 10.07.2019
5342 Clouds 28 1005 40 10000 3.1 90 19:57 10.07.2019
5343 Clouds 29 1006 43 10000 3.6 126.851 19:38 10.07.2019
5344 Clouds 30 1006 46 10000 3.6 126.851 19:20 10.07.2019
5345 Clouds 30 1005 41 10000 2.6 150 18:46 10.07.2019
5346 Clouds 32 1005 41 10000 2.6 150 18:23 10.07.2019
5347 Clouds 33 1005 36 10000 3.6 150 17:47 10.07.2019
5348 Clouds 33 1005 38 10000 3.6 170 17:29 10.07.2019
5349 Clouds 34 1005 32 10000 4.6 160 16:47 10.07.2019
5350 Clouds 34 1005 32 10000 4.6 160 16:47 10.07.2019
5351 Clouds 35 1005 32 10000 4.6 160 16:21 10.07.2019
5352 Clouds 35 1005 36 10000 4.6 160 15:47 10.07.2019
5353 Clouds 35 1005 36 10000 4.6 160 15:26 10.07.2019
5354 Clouds 36 1005 34 10000 4.1 150 14:55 10.07.2019
5355 Clear 36 1006 25 10000 4.1 170 14:37 10.07.2019
5356 Clear 36 1006 24 10000 3.6 170 14:18 10.07.2019
5357 Clear 36 1006 29 10000 3.6 170 13:36 10.07.2019
5358 Clear 36 1006 29 10000 3.6 170 13:18 10.07.2019
5359 Clear 36 1007 27 10000 4.1 160 12:41 10.07.2019
5360 Clear 35 1007 27 10000 4.1 160 12:21 10.07.2019
5361 Clear 35 1007 32 10000 2.6 200 11:49 10.07.2019
5362 Clear 34 1007 32 10000 2.6 200 11:22 10.07.2019
5363 Clear 34 1007 28 10000 2.1 270 10:58 10.07.2019
5364 Clear 33 1007 30 10000 3.6 320 10:24 10.07.2019
5365 Clear 33 1007 32 10000 4.1 340 09:59 10.07.2019
5366 Clear 33 1008 34 10000 4.6 360 09:41 10.07.2019
5367 Clear 32 1008 30 10000 2.1 300 09:19 10.07.2019
5368 Clear 31 1008 30 10000 2.1 300 08:49 10.07.2019
5369 Clear 31 1007 38 10000 2.29 306.06 08:26 10.07.2019
5370 Clear 30 1008 45 10000 2.29 306.06 07:51 10.07.2019
5371 Clear 30 1008 48 10000 2.29 306.06 07:24 10.07.2019
5372 Clear 27 1008 57 10000 2.29 306.06 06:40 10.07.2019
5373 Clear 26 1008 57 10000 3.67 327.511 05:42 10.07.2019
5374 Clear 26 1007 57 10000 3.67 327.511 04:33 10.07.2019
5375 Clear 27 1008 51 10000 2.27 303.123 02:20 10.07.2019
5376 Clear 28 1008 54 10000 2.16 306.051 00:44 10.07.2019
5377 Clear 28 1008 51 10000 1.19 150.01 23:44 09.07.2019
5378 Clear 28 1008 51 10000 1.19 150.01 23:25 09.07.2019
5379 Clear 28 1008 51 10000 1.19 150.01 22:58 09.07.2019
5380 Clear 29 1009 48 10000 1.19 150.01 22:40 09.07.2019
5381 Clear 28 1009 48 10000 1.19 150.01 22:20 09.07.2019
5382 Clear 29 1009 51 10000 1.19 150.01 21:47 09.07.2019
5383 Clear 29 1009 51 10000 1.72 161.397 21:26 09.07.2019
5384 Clear 30 1009 48 10000 1.65 179.201 20:56 09.07.2019
5385 Clear 30 1008 45 10000 1.5 0 20:36 09.07.2019
5386 Clear 30 1008 45 10000 1.5 0 20:18 09.07.2019
5387 Clear 30 1008 45 10000 2.6 170 19:37 09.07.2019
5388 Clear 31 1008 45 10000 2.6 170 19:19 09.07.2019
5389 Clouds 32 1008 46 10000 3.1 180 18:40 09.07.2019
5390 Clouds 33 1008 46 10000 3.1 180 18:19 09.07.2019
5391 Clouds 33 1008 43 10000 4.1 180 17:44 09.07.2019
5392 Clouds 34 1008 43 10000 4.1 180 17:22 09.07.2019
5393 Clouds 34 1008 41 10000 4.1 180 16:59 09.07.2019
5394 Clouds 34 1008 38 10000 4.1 180 16:41 09.07.2019
5395 Clouds 34 1008 38 10000 4.1 180 16:22 09.07.2019
5396 Clear 35 1008 30 10000 4.1 200 15:44 09.07.2019
5397 Clear 35 1008 30 10000 4.1 200 15:25 09.07.2019
5398 Clear 35 1008 30 10000 4.1 180 14:45 09.07.2019
5399 Clear 35 1008 30 10000 4.1 180 14:24 09.07.2019
5400 Clear 34 1009 32 10000 4.1 210 13:57 09.07.2019
5401 Clear 35 1009 30 10000 3.1 210 13:39 09.07.2019
5402 Clear 34 1009 32 10000 3.1 220 13:20 09.07.2019
5403 Clear 34 1010 36 10000 4.1 220 12:39 09.07.2019
5404 Clear 34 1010 36 10000 4.1 220 12:19 09.07.2019
5405 Clear 33 1010 34 10000 4.1 210 11:56 09.07.2019
5406 Clear 34 1010 32 10000 3.22 193.021 11:37 09.07.2019
5407 Clear 34 1010 32 10000 3.22 193.021 11:19 09.07.2019
5408 Clear 34 1010 32 10000 3.22 193.021 10:47 09.07.2019
5409 Clear 33 1010 32 10000 3.22 193.021 10:26 09.07.2019
5410 Clear 32 1010 36 10000 3.22 193.021 09:39 09.07.2019
5411 Clear 31 1010 36 10000 0.86 354.703 09:20 09.07.2019
5412 Clear 30 1011 40 10000 0.86 354.703 08:45 09.07.2019
5413 Clear 30 1011 40 10000 0.86 354.703 08:45 09.07.2019
5414 Clear 30 1011 40 10000 0.86 354.703 08:21 09.07.2019
5415 Clear 26 1013 30 10000 5.1 320 03:52 05.07.2019
5416 Clear 26 1013 30 10000 3.1 300 03:24 05.07.2019
5417 Clear 27 1013 28 10000 3.34 5.23 02:54 05.07.2019
5418 Clear 27 1013 30 10000 3.34 5.23 02:36 05.07.2019
5419 Clear 27 1014 44 10000 3.34 5.23 01:37 05.07.2019
5420 Clear 27 1013 32 10000 3.17 7.825 00:54 05.07.2019
5421 Clear 26 1013 36 10000 3.17 7.825 00:33 05.07.2019
5422 Clear 27 1013 34 10000 3.06 358.5 23:47 04.07.2019
5423 Clear 27 1012 30 10000 3.6 320 23:20 04.07.2019
5424 Clear 27 1012 30 10000 3.1 310 22:43 04.07.2019
5425 Clear 27 1012 30 10000 3.1 310 22:24 04.07.2019
5426 Clear 28 1012 29 10000 2.6 310 21:55 04.07.2019
5427 Clear 29 1012 27 10000 2.6 300 21:36 04.07.2019
5428 Clear 29 1012 27 10000 3.1 330 21:18 04.07.2019
5429 Clear 30 1011 26 10000 2.6 360 20:38 04.07.2019
5430 Clear 30 1011 26 10000 2.6 360 20:20 04.07.2019
5431 Clear 30 1011 23 10000 2.6 360 19:56 04.07.2019
5432 Clear 30 1011 21 10000 3.6 350 19:38 04.07.2019
5433 Clear 31 1011 21 10000 3.6 350 19:19 04.07.2019
5434 Clear 32 1011 20 10000 4.1 330 18:41 04.07.2019
5435 Clear 32 1011 20 10000 4.1 330 18:23 04.07.2019
5436 Clear 33 1011 20 10000 4.1 350 17:44 04.07.2019
5437 Clear 33 1011 19 10000 6.2 10 17:19 04.07.2019
5438 Clear 34 1011 19 10000 6.2 340 15:57 04.07.2019
5439 Clear 34 1012 19 10000 6.2 360 15:39 04.07.2019
5440 Clear 34 1012 19 10000 6.2 360 15:20 04.07.2019
5441 Clear 35 1012 19 10000 6.2 350 14:55 04.07.2019
5442 Clear 34 1012 19 10000 6.2 360 14:37 04.07.2019
5443 Clear 34 1012 19 10000 6.2 360 14:18 04.07.2019
5444 Clear 34 1012 19 10000 6.2 360 14:18 04.07.2019
5445 Clear 35 1012 20 10000 5.1 350 13:42 04.07.2019
5446 Clear 35 1012 20 10000 5.1 350 13:23 04.07.2019
5447 Clear 34 1012 19 10000 5.1 360 12:57 04.07.2019
5448 Clear 34 1012 22 10000 5.1 350 12:37 04.07.2019
5449 Clear 34 1012 22 10000 6.2 340 12:19 04.07.2019
5450 Clear 33 1012 23 10000 4.1 360 11:39 04.07.2019
5451 Clear 33 1012 24 10000 5.1 350 11:19 04.07.2019
5452 Clear 33 1012 27 10000 4.1 330 10:40 04.07.2019
5453 Clear 32 1012 27 10000 4.1 330 10:21 04.07.2019
5454 Clear 32 1012 25 10000 5.1 360 09:45 04.07.2019
5455 Clear 31 1012 25 10000 5.1 360 09:26 04.07.2019
5456 Clear 30 1012 27 10000 6.2 350 08:56 04.07.2019
5457 Clear 30 1012 27 10000 6.2 350 08:56 04.07.2019
5458 Clear 30 1012 29 10000 4.1 340 08:25 04.07.2019
5459 Clear 29 1011 30 10000 4.1 350 07:46 04.07.2019
5460 Clear 29 1011 30 10000 4.1 350 07:23 04.07.2019
5461 Clear 27 1011 30 10000 4.1 350 06:55 04.07.2019
5462 Clear 25 1011 28 10000 4.6 330 05:55 04.07.2019
5463 Clear 25 1011 26 10000 4.6 330 05:36 04.07.2019
5464 Clear 23 1011 40 10000 2.1 340 02:51 04.07.2019
5465 Clear 24 1011 40 10000 2.1 350 01:42 04.07.2019
5466 Clear 24 1011 40 10000 2.1 350 01:22 04.07.2019
5467 Clear 24 1011 43 10000 2.6 340 00:28 04.07.2019
5468 Clear 25 1011 47 10000 3.1 350 23:47 03.07.2019
5469 Clear 25 1011 47 10000 3.1 350 23:20 03.07.2019
5470 Clear 26 1011 50 10000 3.1 350 22:55 03.07.2019
5471 Clear 26 1011 54 10000 1.5 290 22:36 03.07.2019
5472 Clear 26 1011 54 10000 1.5 290 22:18 03.07.2019
5473 Clear 26 1010 51 10000 1.5 220 21:46 03.07.2019
5474 Clear 27 1010 51 10000 1.5 220 21:28 03.07.2019
5475 Clear 27 1010 51 10000 2.1 220 20:46 03.07.2019
5476 Clear 28 1012 28 10000 2.6 60 20:27 03.07.2019
5477 Clear 29 1011 18 10000 2.6 20 19:53 03.07.2019
5478 Clear 30 1011 18 10000 2.6 20 19:33 03.07.2019
5479 Clear 31 1009 38 10000 4.6 210 18:54 03.07.2019
5480 Clear 31 1009 33 10000 5.1 200 18:36 03.07.2019
5481 Clear 32 1009 26 10000 4.6 210 18:18 03.07.2019
5482 Clear 33 1009 24 10000 5.1 200 17:41 03.07.2019
5483 Clear 33 1009 24 10000 5.1 200 17:18 03.07.2019
5484 Clear 33 1009 26 10000 5.1 200 16:44 03.07.2019
5485 Clear 33 1009 26 10000 5.1 200 16:23 03.07.2019
5486 Clear 33 1009 27 10000 6.2 210 15:50 03.07.2019
5487 Clear 33 1010 24 10000 6.7 200 15:31 03.07.2019
5488 Clear 33 1010 24 10000 6.2 210 14:58 03.07.2019
5489 Clear 33 1010 24 10000 6.2 210 14:39 03.07.2019
5490 Clear 33 1010 24 10000 6.2 210 14:19 03.07.2019
5491 Clear 33 1010 26 10000 5.7 210 13:43 03.07.2019
5492 Clear 33 1010 26 10000 5.7 210 13:24 03.07.2019
5493 Clear 33 1010 29 10000 5.7 210 12:45 03.07.2019
5494 Clear 32 1010 29 10000 5.7 200 12:18 03.07.2019
5495 Clear 32 1010 29 10000 5.1 200 11:43 03.07.2019
5496 Clear 31 1010 29 10000 5.1 200 11:22 03.07.2019
5497 Clear 31 1010 26 10000 5.1 350 10:44 03.07.2019
5498 Clear 31 1010 26 10000 5.1 350 10:25 03.07.2019
5499 Clear 31 1010 31 10000 4.6 340 09:57 03.07.2019
5500 Clear 30 1010 30 10000 5.1 20 09:38 03.07.2019
5501 Clear 29 1010 30 10000 5.1 20 09:19 03.07.2019
5502 Clear 28 1010 35 10000 2.47 0.719 08:50 03.07.2019
5503 Clear 28 1010 30 10000 2.6 0.485 08:26 03.07.2019
5504 Clear 26 1010 36 10000 2.6 0.485 07:39 03.07.2019
5505 Clear 25 1010 36 10000 2.6 0.485 07:19 03.07.2019
5506 Clear 23 1010 46 10000 2.77 353.273 06:25 03.07.2019
5507 Clear 22 1010 46 10000 2.77 353.273 05:32 03.07.2019
5508 Clear 22 1010 38 10000 2.77 353.273 04:34 03.07.2019
5509 Clear 22 1010 40 10000 2.66 355.919 03:23 03.07.2019
5510 Clear 23 1010 38 10000 2.8 354.757 01:46 03.07.2019
5511 Clear 23 1010 33 10000 1 0 01:21 03.07.2019
5512 Clear 23 1010 33 10000 1 0 01:21 03.07.2019
5513 Clear 23 1010 36 10000 1.5 0 00:42 03.07.2019
5514 Clear 24 1010 33 10000 2.1 360 23:59 02.07.2019
5515 Clear 24 1010 31 10000 1.5 0 23:37 02.07.2019
5516 Clear 24 1010 30 10000 2.1 340 23:19 02.07.2019
5517 Clear 24 1010 30 10000 2.1 340 22:56 02.07.2019
5518 Clear 25 1010 30 10000 2.6 320 22:37 02.07.2019
5519 Clear 25 1010 28 10000 2.6 310 22:18 02.07.2019
5520 Clear 25 1010 26 10000 2.6 320 21:42 02.07.2019
5521 Clear 26 1009 25 10000 1.5 0 21:22 02.07.2019
5522 Clear 26 1009 25 10000 1.5 0 20:58 02.07.2019
5523 Clear 27 1009 25 10000 1.5 0 20:39 02.07.2019
5524 Clear 27 1009 25 10000 2.6 350 20:20 02.07.2019
5525 Clear 27 1009 23 10000 3.6 360 19:42 02.07.2019
5526 Clear 29 1009 24 10000 3.1 360 19:23 02.07.2019
5527 Clear 29 1009 35 10000 2.6 200 18:49 02.07.2019
5528 Clear 31 1009 35 10000 4.1 230 18:19 02.07.2019
5529 Clear 31 1009 35 10000 4.1 230 18:19 02.07.2019
5530 Clear 31 1009 29 10000 2.6 340 17:44 02.07.2019
5531 Clear 31 1009 29 10000 2.6 340 17:24 02.07.2019
5532 Clear 31 1009 21 10000 3.6 350 16:54 02.07.2019
5533 Clouds 31 1011 37 10000 5.7 70 16:35 02.07.2019
5534 Clear 31 1009 21 10000 4.1 350 15:48 02.07.2019
5535 Clear 32 1009 21 10000 4.1 350 15:27 02.07.2019
5536 Clear 32 1009 21 10000 4.6 350 14:59 02.07.2019
5537 Clear 31 1009 23 10000 5.1 350 14:40 02.07.2019
5538 Clear 31 1010 24 10000 6.2 360 14:21 02.07.2019
5539 Clear 32 1010 23 10000 5.7 360 13:42 02.07.2019
5540 Clear 31 1010 23 10000 7.7 10 13:19 02.07.2019
5541 Clear 31 1010 23 10000 7.7 10 13:19 02.07.2019
5542 Clear 31 1010 24 10000 7.7 10 12:44 02.07.2019
5543 Clear 31 1010 24 10000 7.7 10 12:23 02.07.2019
5544 Clear 30 1010 27 10000 7.2 350 11:44 02.07.2019
5545 Clear 30 1010 27 10000 7.2 350 11:23 02.07.2019
5546 Clear 30 1011 29 10000 7.7 360 10:58 02.07.2019
5547 Clear 30 1011 31 10000 8.2 360 10:37 02.07.2019
5548 Clear 29 1011 33 10000 8.2 360 10:18 02.07.2019
5549 Clear 28 1011 35 10000 8.2 360 09:23 02.07.2019
5550 Clear 27 1011 37 10000 7.7 360 08:59 02.07.2019
5551 Clear 27 1011 45 10000 5.1 360 08:38 02.07.2019
5552 Clear 27 1011 45 10000 5.1 360 08:20 02.07.2019
5553 Clear 27 1011 42 10000 5.7 360 07:47 02.07.2019
5554 Clear 26 1011 42 10000 1.5 70 07:20 02.07.2019
5555 Clear 24 1011 47 10000 3.1 350 06:40 02.07.2019
5556 Clear 23 1011 47 10000 2.1 320 05:55 02.07.2019
5557 Clear 24 1012 44 10000 5.1 340 02:43 02.07.2019
5558 Clear 24 1013 44 10000 2.6 340 00:41 02.07.2019
5559 Clear 25 1014 44 10000 2.6 350 23:43 01.07.2019
5560 Clear 25 1014 44 10000 2.6 350 23:19 01.07.2019
5561 Clear 25 1014 44 10000 3.1 350 22:44 01.07.2019
5562 Clear 25 1014 44 10000 3.1 350 22:26 01.07.2019
5563 Clear 26 1014 39 10000 3.1 340 21:46 01.07.2019
5564 Clear 26 1014 39 10000 3.1 340 21:25 01.07.2019
5565 Clear 26 1013 34 10000 5.1 350 20:51 01.07.2019
5566 Clear 26 1014 34 10000 6.2 360 20:21 01.07.2019
5567 Clear 27 1014 34 10000 6.2 360 19:57 01.07.2019
5568 Clear 27 1013 30 10000 5.1 360 19:39 01.07.2019
5569 Clear 27 1013 30 10000 5.1 360 19:21 01.07.2019
5570 Clear 28 1013 30 10000 5.1 350 18:50 01.07.2019
5571 Clear 28 1013 30 10000 5.1 350 18:28 01.07.2019
5572 Clear 28 1013 30 10000 5.1 340 17:57 01.07.2019
5573 Clear 29 1014 30 10000 9.3 20 17:39 01.07.2019
5574 Clear 29 1013 27 10000 5.1 350 17:19 01.07.2019
5575 Clouds 29 1013 27 10000 5.1 350 16:44 01.07.2019
5576 Clouds 30 1013 27 10000 5.7 360 16:24 01.07.2019
5577 Clouds 30 1014 27 10000 6.2 360 15:46 01.07.2019
5578 Clouds 30 1014 29 10000 6.7 350 15:26 01.07.2019
5579 Clear 29 1016 28 10000 11.3 40 14:45 01.07.2019
5580 Clear 29 1016 30 10000 13.4 40 14:24 01.07.2019
5581 Clear 29 1016 32 10000 10.8 20 13:55 01.07.2019
5582 Clear 29 1016 32 10000 10.8 20 13:37 01.07.2019
5583 Clouds 29 1015 25 10000 6.2 10 13:18 01.07.2019
5584 Clouds 29 1015 27 10000 7.7 10 12:40 01.07.2019
5585 Clouds 29 1015 27 10000 7.7 10 12:40 01.07.2019
5586 Clouds 29 1016 30 10000 10.8 10 12:22 01.07.2019
5587 Clouds 28 1016 32 10000 12.3 10 11:57 01.07.2019
5588 Clouds 28 1016 32 10000 12.3 10 11:38 01.07.2019
5589 Clouds 28 1015 33 10000 6.2 10 11:18 01.07.2019
5590 Clouds 28 1015 33 10000 8.2 10 10:42 01.07.2019
5591 Clouds 27 1015 35 10000 6.2 20 10:20 01.07.2019
5592 Clouds 27 1015 37 10000 7.2 10 09:44 01.07.2019
5593 Clouds 26 1015 39 10000 7.2 360 09:26 01.07.2019
5594 Clouds 26 1015 42 10000 6.2 350 08:44 01.07.2019
5595 Clouds 25 1015 42 10000 5.1 360 08:25 01.07.2019
5596 Clouds 25 1015 44 10000 6.2 360 07:34 01.07.2019
5597 Clouds 23 1016 50 10000 4.1 360 06:51 01.07.2019
5598 Clear 22 1016 50 10000 3.1 20 04:44 01.07.2019
5599 Clear 23 1017 50 10000 5.1 350 01:20 01.07.2019
5600 Clear 23 1016 44 10000 5.7 360 00:42 01.07.2019
5601 Clear 23 1016 47 10000 3.6 10 00:21 01.07.2019
5602 Clear 24 1017 44 10000 3.1 340 23:26 30.06.2019
5603 Clear 24 1017 41 10000 2.6 350 22:58 30.06.2019
5604 Clear 24 1017 41 10000 2.6 350 22:38 30.06.2019
5605 Clear 24 1017 41 10000 4.1 10 22:18 30.06.2019
5606 Clear 24 1016 41 10000 4.6 360 21:41 30.06.2019
5607 Clear 25 1016 39 10000 4.6 10 21:19 30.06.2019
5608 Clear 25 1016 36 10000 4.6 10 20:42 30.06.2019
5609 Clear 25 1016 32 10000 4.1 10 20:24 30.06.2019
5610 Clear 25 1016 32 10000 5.1 20 19:55 30.06.2019
5611 Clear 25 1016 32 10000 5.1 20 19:37 30.06.2019
5612 Clear 26 1016 30 10000 5.1 20 19:18 30.06.2019
5613 Clear 27 1016 26 10000 5.7 360 18:26 30.06.2019
5614 Clear 27 1016 26 10000 6.7 360 17:56 30.06.2019
5615 Clear 27 1016 26 10000 6.7 360 17:37 30.06.2019
5616 Clouds 28 1016 27 10000 6.7 10 17:18 30.06.2019
5617 Clouds 27 1016 27 10000 5.1 10 16:44 30.06.2019
5618 Clouds 28 1016 27 10000 6.2 10 16:25 30.06.2019
5619 Clouds 28 1017 32 10000 11.8 40 15:37 30.06.2019
5620 Clouds 28 1016 27 10000 6.7 10 15:18 30.06.2019
5621 Clouds 28 1017 32 10000 11.8 40 14:50 30.06.2019
5622 Clouds 28 1016 25 10000 6.2 20 14:29 30.06.2019
5623 Clouds 28 1018 32 10000 12.3 20 13:46 30.06.2019
5624 Clouds 28 1016 25 10000 6.7 360 13:25 30.06.2019
5625 Clouds 28 1016 27 10000 4.1 20 12:50 30.06.2019
5626 Clouds 27 1016 28 10000 5.7 20 12:27 30.06.2019
5627 Clouds 27 1018 34 10000 11.3 20 11:56 30.06.2019
5628 Clouds 27 1018 34 10000 11.3 20 11:38 30.06.2019
5629 Clouds 27 1016 28 10000 4.1 360 11:18 30.06.2019
5630 Clouds 27 1016 30 10000 5.1 10 10:44 30.06.2019
5631 Clouds 26 1016 34 10000 4.6 10 10:19 30.06.2019
5632 Clouds 26 1016 32 10000 3.6 20 09:57 30.06.2019
5633 Clouds 26 1016 32 10000 3.6 20 09:36 30.06.2019
5634 Clouds 25 1016 32 10000 4.1 10 09:18 30.06.2019
5635 Clouds 25 1016 36 10000 4.6 360 08:39 30.06.2019
5636 Clouds 25 1016 36 10000 4.1 10 08:19 30.06.2019
5637 Clouds 25 1016 38 10000 3.1 360 07:40 30.06.2019
5638 Clouds 24 1016 38 10000 2.6 350 07:21 30.06.2019
5639 Clouds 23 1015 41 10000 4.6 10 06:23 30.06.2019
5640 Clear 23 1014 53 10000 2.6 340 03:26 30.06.2019
5641 Clear 23 1014 53 10000 1.5 0 01:50 30.06.2019
5642 Clear 24 1014 53 10000 3.1 350 00:39 30.06.2019
5643 Clear 24 1014 53 10000 3.1 360 00:19 30.06.2019
5644 Clear 24 1014 47 10000 4.6 360 23:39 29.06.2019
5645 Clear 24 1014 47 10000 4.1 360 23:20 29.06.2019
5646 Clear 24 1014 47 10000 4.1 10 22:42 29.06.2019
5647 Clear 24 1014 47 10000 3.6 360 22:22 29.06.2019
5648 Clear 24 1013 41 10000 5.7 360 21:54 29.06.2019
5649 Clear 25 1013 44 10000 4.6 360 21:24 29.06.2019
5650 Clear 25 1013 42 10000 4.1 360 20:46 29.06.2019
5651 Clear 25 1013 42 10000 4.6 360 20:28 29.06.2019
5652 Clear 26 1013 39 10000 5.7 360 19:58 29.06.2019
5653 Clear 26 1013 39 10000 5.7 360 19:39 29.06.2019
5654 Clouds 27 1012 37 10000 5.1 360 19:19 29.06.2019
5655 Clouds 27 1012 35 10000 5.1 10 18:47 29.06.2019
5656 Clouds 28 1012 35 10000 4.6 360 18:24 29.06.2019
5657 Clouds 29 1011 33 10000 4.1 10 17:37 29.06.2019
5658 Clouds 29 1011 35 10000 4.6 10 17:19 29.06.2019
5659 Clouds 29 1013 35 10000 10.3 20 16:42 29.06.2019
5660 Clouds 29 1011 33 10000 7.2 30 15:59 29.06.2019
5661 Clouds 30 1011 33 10000 7.2 30 15:32 29.06.2019
5662 Clouds 30 1011 33 10000 5.7 10 14:46 29.06.2019
5663 Clouds 30 1012 33 10000 5.7 10 14:27 29.06.2019
5664 Clouds 30 1012 33 10000 5.7 10 14:27 29.06.2019
5665 Clouds 30 1012 35 10000 7.2 360 13:55 29.06.2019
5666 Clouds 30 1012 35 10000 7.2 360 13:36 29.06.2019
5667 Clouds 30 1012 38 10000 6.2 10 13:18 29.06.2019
5668 Clouds 29 1012 35 10000 5.1 10 12:40 29.06.2019
5669 Clouds 29 1013 42 10000 11.3 40 12:21 29.06.2019
5670 Clouds 29 1013 45 10000 11.3 50 11:43 29.06.2019
5671 Clouds 29 1011 40 10000 5.7 10 11:25 29.06.2019
5672 Clouds 28 1011 38 10000 5.7 10 10:49 29.06.2019
5673 Clouds 28 1011 40 10000 5.7 10 10:21 29.06.2019
5674 Clouds 28 1011 40 10000 8.2 360 09:57 29.06.2019
5675 Clouds 28 1011 40 10000 8.2 360 09:57 29.06.2019
5676 Clouds 27 1010 39 10000 5.7 360 08:55 29.06.2019
5677 Clouds 27 1010 45 10000 5.7 360 08:31 29.06.2019
5678 Clouds 27 1010 48 10000 4.6 10 07:45 29.06.2019
5679 Clouds 26 1009 54 10000 5.7 360 06:49 29.06.2019
5680 Clouds 26 1009 57 10000 5.1 360 06:26 29.06.2019
5681 Clouds 26 1009 54 10000 4.1 360 05:18 29.06.2019
5682 Clouds 26 1008 39 10000 2.6 330 01:43 29.06.2019
5683 Clear 27 1008 37 10000 3.6 340 00:49 29.06.2019
5684 Clear 27 1008 42 10000 2.6 350 23:48 28.06.2019
5685 Clear 28 1008 39 10000 2.6 30 23:21 28.06.2019
5686 Clear 27 1008 35 10000 3.1 350 22:47 28.06.2019
5687 Clear 27 1008 35 10000 2.1 360 22:19 28.06.2019
5688 Clear 28 1008 33 10000 3.1 350 21:45 28.06.2019
5689 Clear 28 1008 33 10000 3.1 350 21:45 28.06.2019
5690 Clear 29 1007 29 10000 2.6 330 21:19 28.06.2019
5691 Clear 29 1007 31 10000 2.1 360 20:41 28.06.2019
5692 Clear 30 1006 27 10000 3.1 30 20:19 28.06.2019
5693 Clear 31 1006 26 10000 4.6 30 19:40 28.06.2019
5694 Clear 31 1006 26 10000 4.6 30 19:40 28.06.2019
5695 Clear 32 1006 21 10000 6.2 20 19:21 28.06.2019
5696 Clear 33 1006 19 10000 6.7 20 18:41 28.06.2019
5697 Clouds 33 1006 17 10000 6.7 20 18:22 28.06.2019
5698 Clear 33 1006 21 10000 5.1 360 17:46 28.06.2019
5699 Clear 34 1006 22 10000 6.2 350 17:25 28.06.2019
5700 Clear 34 1006 18 10000 6.2 350 16:46 28.06.2019
5701 Clouds 34 1006 19 10000 5.7 20 16:20 28.06.2019
5702 Clouds 34 1008 26 10000 8.7 50 15:45 28.06.2019
5703 Clouds 34 1007 23 10000 5.7 30 15:18 28.06.2019
5704 Clouds 34 1007 24 10000 5.1 340 14:42 28.06.2019
5705 Clouds 34 1007 26 10000 6.7 360 14:21 28.06.2019
5706 Clouds 33 1007 26 10000 5.1 360 13:49 28.06.2019
5707 Clouds 33 1007 26 10000 5.1 360 13:29 28.06.2019
5708 Clouds 33 1009 27 10000 9.8 30 12:53 28.06.2019
5709 Clouds 33 1007 24 10000 6.7 20 12:34 28.06.2019
5710 Clouds 32 1008 28 10000 7.2 20 11:46 28.06.2019
5711 Clouds 31 1008 28 10000 5.7 10 11:19 28.06.2019
5712 Clouds 32 1008 31 10000 5.1 10 10:43 28.06.2019
5713 Clouds 32 1008 31 10000 5.1 20 10:20 28.06.2019
5714 Clear 31 1008 31 10000 4.1 20 09:47 28.06.2019
5715 Clear 30 1008 33 10000 4.1 350 09:28 28.06.2019
5716 Clouds 29 1008 31 10000 2.6 70 08:43 28.06.2019
5717 Clear 29 1008 33 10000 1.5 350 08:24 28.06.2019
5718 Clear 28 1008 35 10000 2.1 360 07:43 28.06.2019
5719 Clear 26 1008 44 10000 3.1 350 06:57 28.06.2019
5720 Clouds 25 1008 47 10000 1.5 330 05:18 28.06.2019
5721 Clouds 26 1010 47 10000 2.1 360 01:21 28.06.2019
5722 Clouds 26 1010 44 10000 2.1 320 00:23 28.06.2019
5723 Clouds 26 1010 44 10000 2.6 350 23:48 27.06.2019
5724 Clouds 26 1010 44 10000 1.5 350 23:25 27.06.2019
5725 Clouds 26 1010 42 10000 2.6 340 22:54 27.06.2019
5726 Clouds 27 1010 42 10000 2.6 340 22:36 27.06.2019
5727 Clouds 27 1010 42 10000 2.6 330 22:18 27.06.2019
5728 Clouds 27 1010 42 10000 2.6 350 21:42 27.06.2019
5729 Clouds 27 1010 37 10000 3.1 340 21:24 27.06.2019
5730 Clouds 28 1010 37 10000 3.1 330 20:50 27.06.2019
5731 Clouds 28 1010 35 10000 3.6 340 20:31 27.06.2019
5732 Clouds 29 1010 33 10000 5.1 340 19:59 27.06.2019
5733 Clouds 29 1010 33 10000 5.1 340 19:40 27.06.2019
5734 Clouds 29 1010 33 10000 4.6 330 19:22 27.06.2019
5735 Clouds 30 1010 31 10000 5.1 350 18:42 27.06.2019
5736 Clouds 30 1010 31 10000 5.1 360 18:19 27.06.2019
5737 Clouds 31 1010 33 10000 5.1 340 17:41 27.06.2019
5738 Clouds 31 1010 33 10000 6.2 360 17:22 27.06.2019
5739 Clouds 31 1011 31 10000 5.1 360 16:39 27.06.2019
5740 Clouds 31 1011 31 10000 6.2 350 16:19 27.06.2019
5741 Clouds 31 1011 31 10000 6.2 350 16:19 27.06.2019
5742 Clouds 31 1011 31 10000 6.7 360 15:51 27.06.2019
5743 Clouds 32 1011 33 10000 6.2 360 15:31 27.06.2019
5744 Clouds 31 1012 35 10000 6.7 360 14:57 27.06.2019
5745 Clouds 31 1012 35 10000 6.7 360 14:36 27.06.2019
5746 Clouds 31 1012 33 10000 5.1 350 14:18 27.06.2019
5747 Clouds 31 1012 38 10000 7.2 330 13:42 27.06.2019
5748 Clouds 31 1012 38 10000 7.7 350 13:24 27.06.2019
5749 Clouds 30 1012 40 10000 7.7 340 12:43 27.06.2019
5750 Clouds 30 1012 43 10000 6.2 350 12:23 27.06.2019
5751 Clouds 30 1012 43 10000 6.7 350 11:45 27.06.2019
5752 Clouds 29 1013 43 10000 6.2 350 11:22 27.06.2019
5753 Clouds 29 1013 45 10000 6.2 350 10:57 27.06.2019
5754 Clouds 29 1013 45 10000 6.2 350 10:37 27.06.2019
5755 Clouds 29 1013 45 10000 6.2 350 10:19 27.06.2019
5756 Clouds 28 1013 51 10000 5.1 330 09:38 27.06.2019
5757 Clouds 28 1013 51 10000 5.7 330 09:20 27.06.2019
5758 Clouds 28 1013 54 10000 5.1 330 08:48 27.06.2019
5759 Clouds 27 1013 58 10000 5.1 320 08:26 27.06.2019
5760 Clouds 27 1013 61 10000 4.6 320 07:44 27.06.2019
5761 Clouds 26 1013 61 10000 3.6 320 06:57 27.06.2019
5762 Clouds 25 1013 65 10000 4.6 330 06:30 27.06.2019
5763 Clouds 25 1013 61 10000 3.1 320 03:51 27.06.2019
5764 Clouds 26 1013 61 10000 3.6 320 02:42 27.06.2019
5765 Clouds 26 1014 57 10000 4.6 320 01:26 27.06.2019
5766 Clouds 26 1014 54 10000 4.6 320 00:49 27.06.2019
5767 Clouds 26 1014 54 10000 4.6 330 00:26 27.06.2019
5768 Clouds 27 1014 54 10000 5.1 340 23:48 26.06.2019
5769 Clouds 27 1014 54 10000 4.6 340 23:23 26.06.2019
5770 Clouds 27 1014 54 10000 4.6 340 22:58 26.06.2019
5771 Clouds 27 1014 54 10000 4.6 340 22:39 26.06.2019
5772 Clouds 27 1014 54 10000 4.1 330 22:19 26.06.2019
5773 Clouds 27 1014 54 10000 4.6 330 21:42 26.06.2019
5774 Clouds 27 1014 54 10000 4.1 340 21:20 26.06.2019
5775 Clouds 28 1014 51 10000 3.6 340 20:57 26.06.2019
5776 Clouds 28 1014 51 10000 3.6 340 20:37 26.06.2019
5777 Clouds 28 1014 51 10000 4.1 350 20:18 26.06.2019
5778 Clouds 28 1014 48 10000 5.7 340 19:41 26.06.2019
5779 Clouds 28 1013 48 10000 6.2 340 19:23 26.06.2019
5780 Clouds 29 1013 48 10000 7.7 330 18:45 26.06.2019
5781 Clouds 29 1013 43 10000 7.2 340 18:22 26.06.2019
5782 Clouds 30 1013 43 10000 7.2 340 17:57 26.06.2019
5783 Clouds 30 1013 43 10000 7.2 340 17:37 26.06.2019
5784 Clouds 30 1013 43 10000 7.2 340 17:18 26.06.2019
5785 Clouds 30 1013 40 10000 7.2 340 16:46 26.06.2019
5786 Clouds 31 1013 40 10000 6.2 350 16:22 26.06.2019
5787 Clouds 31 1013 40 10000 6.7 330 15:37 26.06.2019
5788 Clouds 31 1013 38 10000 6.7 340 15:19 26.06.2019
5789 Clouds 31 1014 38 10000 6.7 350 14:38 26.06.2019
5790 Clouds 31 1014 40 10000 7.2 340 14:19 26.06.2019
5791 Clouds 31 1014 38 10000 6.7 360 13:42 26.06.2019
5792 Clouds 31 1014 43 10000 8.2 340 13:20 26.06.2019
5793 Clouds 30 1014 40 10000 8.2 350 12:41 26.06.2019
5794 Clouds 30 1014 40 10000 9.8 360 12:22 26.06.2019
5795 Clouds 29 1014 43 10000 8.7 360 11:45 26.06.2019
5796 Clouds 29 1014 43 10000 8.2 360 11:19 26.06.2019
5797 Clouds 29 1014 48 10000 8.7 340 10:41 26.06.2019
5798 Clouds 29 1014 48 10000 8.2 350 10:22 26.06.2019
5799 Clouds 29 1014 48 10000 6.7 350 09:44 26.06.2019
5800 Clouds 28 1014 51 10000 7.2 360 09:19 26.06.2019
5801 Clouds 27 1014 54 10000 7.2 350 08:44 26.06.2019
5802 Clouds 27 1014 54 10000 7.2 350 08:20 26.06.2019
5803 Clouds 27 1013 57 10000 6.7 350 07:46 26.06.2019
5804 Clouds 26 1013 57 10000 4.6 330 06:40 26.06.2019
5805 Clouds 25 1013 57 10000 6.2 340 06:21 26.06.2019
5806 Clear 27 1013 48 10000 14.4 30 01:25 26.06.2019
5807 Clouds 27 1013 48 10000 3.6 310 00:25 26.06.2019
5808 Clouds 27 1013 48 10000 4.1 310 23:45 25.06.2019
5809 Clouds 28 1013 48 10000 3.6 300 23:27 25.06.2019
5810 Clouds 28 1013 48 10000 3.1 320 22:57 25.06.2019
5811 Clouds 28 1013 48 10000 3.1 320 22:57 25.06.2019
5812 Clouds 27 1013 48 10000 3.1 320 22:38 25.06.2019
5813 Clouds 28 1013 48 10000 3.6 330 22:20 25.06.2019
5814 Clouds 28 1013 48 10000 4.1 330 21:43 25.06.2019
5815 Clouds 28 1013 45 10000 4.6 330 21:22 25.06.2019
5816 Clouds 28 1013 45 10000 4.1 330 20:45 25.06.2019
5817 Clouds 28 1013 45 10000 4.1 330 20:45 25.06.2019
5818 Clouds 28 1013 45 10000 4.1 330 20:45 25.06.2019
5819 Clouds 28 1012 42 10000 4.1 350 20:22 25.06.2019
5820 Clouds 28 1012 40 10000 6.7 340 19:46 25.06.2019
5821 Clouds 29 1012 35 10000 7.2 350 19:23 25.06.2019
5822 Clouds 29 1012 33 10000 6.7 350 18:59 25.06.2019
5823 Clouds 29 1012 33 10000 6.7 350 18:40 25.06.2019
5824 Clouds 30 1012 35 10000 6.7 350 18:21 25.06.2019
5825 -273 0 0 0 0 0 17:30 25.06.2019
5826 Clouds 30 1012 33 10000 8.2 360 16:58 25.06.2019
5827 Clouds 30 1012 33 10000 8.2 360 16:39 25.06.2019
5828 Clouds 30 1012 33 10000 9.3 10 16:21 25.06.2019
5829 Clouds 31 1012 33 10000 9.3 360 15:42 25.06.2019
5830 Clouds 31 1012 38 10000 9.3 350 15:24 25.06.2019
5831 Clouds 31 1011 38 10000 9.8 350 14:54 25.06.2019
5832 Clouds 31 1011 38 10000 9.8 350 14:35 25.06.2019
5833 Clouds 31 1012 38 10000 8.7 360 13:47 25.06.2019
5834 Clouds 31 1012 38 10000 8.7 360 13:47 25.06.2019
5835 Clouds 30 1012 40 10000 7.2 350 13:29 25.06.2019
5836 Clouds 30 1012 38 10000 8.7 350 12:55 25.06.2019
5837 Clouds 30 1012 38 10000 8.7 350 12:37 25.06.2019
5838 Clouds 30 1012 38 10000 8.2 350 12:18 25.06.2019
5839 Clouds 30 1011 40 10000 9.8 350 11:43 25.06.2019
5840 Clouds 29 1011 43 10000 8.2 340 11:21 25.06.2019
5841 Clouds 29 1011 43 10000 9.3 350 10:45 25.06.2019
5842 Clouds 29 1011 45 10000 7.2 350 10:23 25.06.2019
5843 Clouds 29 1011 45 10000 10.3 360 09:56 25.06.2019
5844 Clouds 29 1011 45 10000 10.3 360 09:38 25.06.2019
5845 Clouds 28 1011 51 10000 7.7 350 09:19 25.06.2019
5846 Clouds 28 1011 51 10000 7.7 340 08:47 25.06.2019
5847 Clouds 28 1011 58 10000 7.7 340 08:28 25.06.2019
5848 Clouds 27 1011 61 10000 6.2 330 07:40 25.06.2019
5849 Clouds 27 1010 61 10000 6.2 330 06:59 25.06.2019
5850 Clouds 26 1010 61 10000 6.2 330 06:40 25.06.2019
5851 Clouds 26 1010 57 10000 7.2 340 04:24 25.06.2019
5852 Clouds 26 1010 65 10000 5.1 330 02:23 25.06.2019
5853 Clouds 26 1010 58 10000 2.6 310 00:38 25.06.2019
5854 Clouds 27 1010 58 10000 5.1 360 00:18 25.06.2019
5855 Clouds 27 1010 54 10000 2.1 330 23:42 24.06.2019
5856 Clouds 27 1010 65 10000 1.5 0 23:23 24.06.2019
5857 Clouds 27 1009 65 10000 1.5 0 22:44 24.06.2019
5858 Clouds 27 1009 65 10000 2.1 100 22:19 24.06.2019
5859 Clouds 28 1009 54 10000 1.5 0 21:42 24.06.2019
5860 Clouds 28 1009 48 10000 1.5 0 21:20 24.06.2019
5861 Clouds 28 1009 43 10000 1.5 0 20:59 24.06.2019
5862 Clouds 29 1009 43 10000 1.5 0 20:40 24.06.2019
5863 Clouds 29 1008 45 10000 2.1 170 20:21 24.06.2019
5864 Clouds 30 1008 40 10000 1.5 0 19:46 24.06.2019
5865 Clouds 30 1008 40 10000 2.1 200 19:24 24.06.2019
5866 Clouds 30 1008 40 10000 3.1 200 18:54 24.06.2019
5867 Clouds 31 1008 45 10000 2.6 210 18:30 24.06.2019
5868 Clouds 32 1008 36 10000 3.1 210 17:58 24.06.2019
5869 Clouds 32 1008 36 10000 3.1 210 17:36 24.06.2019
5870 Clouds 33 1007 30 10000 2.6 200 16:56 24.06.2019
5871 Clouds 33 1007 30 10000 2.6 200 16:37 24.06.2019
5872 Clouds 33 1007 32 10000 3.1 200 16:19 24.06.2019
5873 Clouds 33 1007 26 10000 3.1 190 15:40 24.06.2019
5874 Clouds 34 1008 25 10000 2.1 190 15:21 24.06.2019
5875 Clouds 34 1008 25 10000 2.6 190 14:35 24.06.2019
5876 Clouds 34 1008 26 10000 3.6 210 13:56 24.06.2019
5877 Clear 34 1008 26 10000 2.1 210 13:31 24.06.2019
5878 Clear 34 1008 23 10000 3.1 210 12:46 24.06.2019
5879 Clear 34 1009 22 10000 1.5 0 12:26 24.06.2019
5880 Clear 34 1009 22 10000 1.5 0 11:59 24.06.2019
5881 Clear 34 1009 22 10000 1.5 0 11:59 24.06.2019
5882 Clear 34 1009 22 10000 1.5 0 11:40 24.06.2019
5883 Clear 33 1009 23 10000 2.1 180 11:21 24.06.2019
5884 Clear 34 1009 24 10000 1.5 0 10:50 24.06.2019
5885 Clear 34 1009 31 10000 2.6 170 10:28 24.06.2019
5886 Clear 33 1011 48 10000 2.6 110 09:49 24.06.2019
5887 Clear 32 1010 38 10000 1.93 318.145 09:23 24.06.2019
5888 Clear 31 1010 42 10000 1.93 318.145 08:52 24.06.2019
5889 Clear 30 1010 42 10000 1.65 327.273 08:32 24.06.2019
5890 Clear 29 1010 45 10000 1.65 327.273 07:47 24.06.2019
5891 Clear 28 1010 45 10000 1.65 327.273 07:26 24.06.2019
5892 Clear 27 1010 50 10000 1.65 327.273 06:52 24.06.2019
5893 Clear 26 1010 60 10000 2.69 320.405 06:22 24.06.2019
5894 Clear 25 1011 60 10000 2.69 320.405 05:28 24.06.2019
5895 Clear 25 1011 53 10000 2.69 320.405 04:28 24.06.2019
5896 Clear 26 1011 53 10000 2.69 320.405 03:30 24.06.2019
5897 Clear 26 1011 50 10000 0.57 269.9 02:33 24.06.2019
5898 Clear 26 1012 53 10000 0.57 269.9 01:54 24.06.2019
5899 Clear 26 1013 44 10000 1 280 01:27 24.06.2019
5900 Clear 26 1012 50 10000 0.22 243.435 00:42 24.06.2019
5901 Clear 27 1012 47 10000 1.5 340 00:19 24.06.2019
5902 Clear 27 1012 47 10000 1.5 330 23:46 23.06.2019
5903 Clear 27 1012 47 10000 1.5 340 23:27 23.06.2019
5904 Clear 28 1012 48 10000 1.62 126.03 22:44 23.06.2019
5905 Clear 28 1012 51 10000 1.62 126.03 22:21 23.06.2019
5906 Clear 28 1012 45 10000 1.62 126.03 21:58 23.06.2019
5907 Clear 29 1012 45 10000 1.62 126.03 21:40 23.06.2019
5908 Clear 29 1012 45 10000 2.24 141.085 21:21 23.06.2019
5909 Clear 29 1012 45 10000 1.5 250 20:43 23.06.2019
5910 Clear 30 1011 40 10000 2.67 133.634 20:25 23.06.2019
5911 Clear 30 1012 38 10000 2.6 200 19:45 23.06.2019
5912 Clear 31 1012 33 10000 2.6 210 19:21 23.06.2019
5913 Clear 31 1012 31 10000 4.6 190 18:54 23.06.2019
5914 Clear 33 1012 33 10000 4.6 180 18:24 23.06.2019
5915 Clear 33 1012 33 10000 4.1 180 17:53 23.06.2019
5916 Clear 33 1012 29 10000 4.6 180 17:27 23.06.2019
5917 Clear 34 1012 32 10000 4.1 180 16:59 23.06.2019
5918 Clear 34 1012 32 10000 4.1 180 16:40 23.06.2019
5919 Clear 34 1013 34 10000 3.6 190 16:21 23.06.2019
5920 Clear 35 1013 30 10000 4.6 190 15:41 23.06.2019
5921 Clear 34 1013 25 10000 3.1 190 15:22 23.06.2019
5922 Clear 34 1013 26 10000 3.1 190 14:42 23.06.2019
5923 Clear 34 1013 26 10000 3.6 190 14:23 23.06.2019
5924 Clear 34 1013 30 10000 4.1 200 13:58 23.06.2019
5925 Clear 34 1013 30 10000 4.1 200 13:40 23.06.2019
5926 Clear 34 1013 30 10000 3.6 190 13:19 23.06.2019
5927 Clear 33 1013 30 10000 3.6 210 12:44 23.06.2019
5928 Clear 33 1013 30 10000 3.6 200 12:22 23.06.2019
5929 Clear 33 1013 30 10000 3.1 210 11:55 23.06.2019
5930 Clear 33 1013 30 10000 3.1 210 11:37 23.06.2019
5931 Clear 33 1013 26 10000 3.6 190 11:19 23.06.2019
5932 Clear 32 1013 26 10000 2.1 190 10:43 23.06.2019
5933 Clear 32 1013 27 10000 2.1 160 10:18 23.06.2019
5934 Clear 31 1013 31 10000 1.5 0 09:39 23.06.2019
5935 Clear 30 1013 40 10000 2.1 160 09:20 23.06.2019
5936 Clear 30 1013 37 10000 0.69 0.581 08:44 23.06.2019
5937 Clear 29 1013 37 10000 0.2 9.509 08:26 23.06.2019
5938 Clear 29 1013 35 10000 2.6 10 07:53 23.06.2019
5939 Clear 28 1013 39 10000 1.5 0 07:21 23.06.2019
5940 Clear 26 1013 47 10000 0.2 9.509 06:54 23.06.2019
5941 Clear 25 1013 47 10000 1.5 0 05:55 23.06.2019
5942 Clear 24 1013 50 10000 2.1 360 04:30 23.06.2019
5943 Clear 25 1013 53 10000 1.5 0 01:54 23.06.2019
5944 Clear 25 1013 53 10000 1.5 0 01:35 23.06.2019
5945 Clear 26 1013 42 10000 2.1 330 00:36 23.06.2019
5946 Clear 26 1013 42 10000 2.1 290 23:54 22.06.2019
5947 Clear 26 1013 44 10000 2.1 280 23:27 22.06.2019
5948 Clear 27 1013 42 10000 1.5 0 22:49 22.06.2019
5949 Clear 27 1013 42 10000 1.5 0 22:31 22.06.2019
5950 Clear 27 1012 35 10000 1.5 0 21:59 22.06.2019
5951 Clear 27 1012 35 10000 1.5 0 21:37 22.06.2019
5952 Clear 28 1012 37 10000 1.5 0 21:19 22.06.2019
5953 Clear 29 1012 31 10000 1.5 0 20:50 22.06.2019
5954 Clear 29 1012 31 10000 1.5 0 20:50 22.06.2019
5955 Clear 29 1012 29 10000 2.1 20 20:25 22.06.2019
5956 Clear 30 1012 26 10000 3.6 60 19:47 22.06.2019
5957 Clear 31 1012 26 10000 4.6 20 19:23 22.06.2019
5958 Clear 31 1012 24 10000 3.1 350 18:48 22.06.2019
5959 Clouds 32 1012 23 10000 4.6 350 18:30 22.06.2019
5960 Clouds 32 1012 24 10000 5.1 20 17:56 22.06.2019
5961 Clouds 32 1012 24 10000 5.1 20 17:34 22.06.2019
5962 Clouds 32 1012 50 10000 5.1 360 16:51 22.06.2019
5963 Clouds 33 1012 26 10000 3.6 330 16:25 22.06.2019
5964 Clouds 33 1012 26 10000 6.2 10 15:58 22.06.2019
5965 Clouds 33 1012 26 10000 6.2 10 15:39 22.06.2019
5966 Clouds 33 1012 28 10000 5.1 340 15:21 22.06.2019
5967 Clouds 32 1013 28 10000 5.1 350 14:37 22.06.2019
5968 Clouds 33 1013 28 10000 5.7 360 14:18 22.06.2019
5969 Clouds 32 1014 38 10000 7.2 50 13:42 22.06.2019
5970 Clouds 33 1013 32 10000 5.1 350 13:22 22.06.2019
5971 Clouds 32 1013 32 10000 5.1 20 12:52 22.06.2019
5972 Clouds 32 1013 32 10000 5.1 20 12:33 22.06.2019
5973 Clouds 32 1013 30 10000 5.1 350 11:58 22.06.2019
5974 Clouds 31 1015 38 10000 4.6 40 11:33 22.06.2019
5975 Clouds 31 1013 33 10000 4.6 330 10:50 22.06.2019
5976 Clouds 31 1013 35 10000 5.1 330 10:21 22.06.2019
5977 Clear 30 1013 35 10000 4.1 340 09:55 22.06.2019
5978 Clear 29 1013 35 10000 3.1 330 09:23 22.06.2019
5979 Clear 29 1013 35 10000 3.6 330 08:43 22.06.2019
5980 Clear 28 1013 37 10000 3.1 340 08:23 22.06.2019
5981 Clear 27 1013 47 10000 1.5 0 07:33 22.06.2019
5982 Clear 25 1013 53 10000 1.98 7.01 06:56 22.06.2019
5983 Clear 23 1012 56 10000 2.39 11.093 05:23 22.06.2019
5984 Clear 24 1012 53 10000 2.1 330 02:33 22.06.2019
5985 Clear 24 1012 57 10000 1.58 0.327 01:24 22.06.2019
5986 Clear 25 1013 73 10000 1.5 0 00:46 22.06.2019
5987 Clear 24 1014 69 10000 0.55 286.244 00:22 22.06.2019
5988 Clear 25 1012 60 10000 2.6 340 23:44 21.06.2019
5989 Clear 25 1012 60 10000 2.6 340 23:22 21.06.2019
5990 Clear 25 1012 57 10000 2.1 340 22:52 21.06.2019
5991 Clear 26 1012 57 10000 3.1 340 22:24 21.06.2019
5992 Clear 26 1012 61 10000 2.1 340 21:55 21.06.2019
5993 Clear 27 1012 61 10000 2.1 340 21:37 21.06.2019
5994 Clear 27 1012 57 10000 2.1 320 21:18 21.06.2019
5995 Clear 27 1012 57 10000 2.1 330 20:44 21.06.2019
5996 Clear 28 1011 54 10000 2.6 220 20:22 21.06.2019
5997 Clear 28 1011 51 10000 3.1 230 19:37 21.06.2019
5998 Clouds 30 1011 51 10000 5.1 210 18:54 21.06.2019
5999 Clouds 30 1011 51 10000 5.1 210 18:34 21.06.2019
6000 Clouds 31 1010 48 10000 4.1 180 17:47 21.06.2019
6001 Clouds 31 1010 43 10000 5.1 180 17:29 21.06.2019
6002 Clouds 32 1010 43 10000 4.1 190 16:42 21.06.2019
6003 Clouds 32 1010 40 10000 4.1 200 16:22 21.06.2019
6004 Clouds 31 1010 43 10000 4.6 190 15:43 21.06.2019
6005 Clouds 32 1011 40 10000 3.6 200 15:23 21.06.2019
6006 Clouds 31 1011 40 10000 4.1 190 14:52 21.06.2019
6007 Clouds 32 1011 40 10000 4.1 210 14:31 21.06.2019
6008 Clouds 32 1011 38 10000 4.6 190 13:58 21.06.2019
6009 Clouds 32 1011 38 10000 4.6 190 13:36 21.06.2019
6010 Clouds 32 1011 36 10000 3.6 200 13:18 21.06.2019
6011 Clouds 32 1011 40 10000 4.1 200 12:40 21.06.2019
6012 Clouds 31 1011 40 10000 3.1 210 12:18 21.06.2019
6013 Clouds 31 1011 40 10000 4.6 190 11:47 21.06.2019
6014 Clouds 31 1012 43 10000 3.1 200 11:26 21.06.2019
6015 Clouds 31 1011 43 10000 3.1 190 10:52 21.06.2019
6016 Clear 30 1011 45 10000 3.1 190 10:23 21.06.2019
6017 Clear 30 1012 45 10000 2.1 190 09:59 21.06.2019
6018 Clear 30 1012 45 10000 2.1 190 09:40 21.06.2019
6019 Clear 28 1012 54 10000 2.6 180 09:19 21.06.2019
6020 Clear 28 1012 51 10000 1.02 356.242 08:43 21.06.2019
6021 Clear 27 1012 54 10000 1.02 356.242 08:24 21.06.2019
6022 Clear 27 1011 57 10000 1.02 356.242 07:52 21.06.2019
6023 Clear 26 1011 61 10000 1.02 356.242 07:30 21.06.2019
6024 Clear 25 1011 69 10000 1.02 356.242 06:54 21.06.2019
6025 Clear 23 1011 73 10000 1.5 0 06:21 21.06.2019
6026 Clear 22 1011 77 10000 2.46 342.154 05:26 21.06.2019
6027 Clear 22 1011 77 10000 1.5 0 04:29 21.06.2019
6028 Clear 23 1012 82 10000 2.1 280 03:34 21.06.2019
6029 Clear 23 1011 78 10000 1.5 0 02:52 21.06.2019
6030 Clear 23 1011 69 10000 1.5 0 01:53 21.06.2019
6031 Clear 24 1011 69 10000 1.5 0 00:56 21.06.2019
6032 Clear 24 1011 69 10000 1.5 20 00:23 21.06.2019
6033 Clear 24 1011 64 10000 2.1 360 23:49 20.06.2019
6034 Clear 24 1011 64 10000 2.1 340 23:23 20.06.2019
6035 Clear 25 1011 69 10000 1.5 360 22:58 20.06.2019
6036 Clear 25 1011 69 10000 1.5 360 22:39 20.06.2019
6037 Clear 25 1011 73 10000 2.1 270 22:20 20.06.2019
6038 Clear 25 1011 65 10000 1.5 0 21:49 20.06.2019
6039 Clear 26 1010 65 10000 1.5 0 21:19 20.06.2019
6040 Clear 26 1011 61 10000 1.5 0 20:50 20.06.2019
6041 Clear 26 1010 57 10000 1.5 0 20:27 20.06.2019
6042 Clouds 26 1010 57 10000 1.5 180 19:59 20.06.2019
6043 Clouds 26 1010 57 10000 1.5 180 19:39 20.06.2019
6044 Clouds 27 1010 57 10000 2.1 200 19:18 20.06.2019
6045 Clouds 28 1010 54 10000 3.6 180 18:43 20.06.2019
6046 Clouds 28 1010 58 10000 3.6 170 18:23 20.06.2019
6047 Clouds 29 1010 58 10000 3.6 170 18:23 20.06.2019
6048 Clouds 29 1009 51 10000 3.6 180 17:57 20.06.2019
6049 Clouds 29 1009 51 10000 3.6 180 17:39 20.06.2019
6050 Clouds 29 1010 65 10000 2.88 178.311 16:58 20.06.2019
6051 Clouds 29 1010 65 10000 2.88 178.311 16:39 20.06.2019
6052 Clouds 29 1010 65 10000 2.1 260 16:19 20.06.2019
6053 Rain 29 1010 58 10000 3.1 200 15:43 20.06.2019
6054 Clouds 30 1010 45 10000 4.1 200 15:23 20.06.2019
6055 Clouds 30 1010 45 10000 4.1 200 14:54 20.06.2019
6056 Clouds 30 1010 45 10000 4.1 200 14:24 20.06.2019
6057 Clouds 30 1010 38 10000 3.6 200 13:59 20.06.2019
6058 Clouds 30 1010 38 10000 3.6 200 13:37 20.06.2019
6059 Clouds 30 1010 38 10000 3.6 200 13:18 20.06.2019
6060 Clouds 30 1010 48 10000 3.1 200 12:41 20.06.2019
6061 Clouds 30 1010 43 10000 3.1 190 12:19 20.06.2019
6062 Clouds 29 1010 48 10000 3.1 190 11:41 20.06.2019
6063 Clouds 30 1010 48 10000 3.1 200 11:22 20.06.2019
6064 Clear 30 1012 37 10000 4.1 70 10:44 20.06.2019
6065 Clear 30 1012 39 10000 4.1 80 10:24 20.06.2019
6066 Clear 29 1010 51 10000 3.03 194.925 09:55 20.06.2019
6067 Clear 29 1010 51 10000 3.03 194.925 09:36 20.06.2019
6068 Clear 29 1010 51 10000 3.03 194.925 09:36 20.06.2019
6069 Clear 28 1010 54 10000 0.66 24.551 09:18 20.06.2019
6070 Clear 27 1010 54 10000 0.83 25.611 08:43 20.06.2019
6071 Clouds 27 1010 57 10000 0.83 25.611 08:22 20.06.2019
6072 Clouds 26 1010 57 10000 0.83 25.611 07:44 20.06.2019
6073 Clouds 25 1010 61 10000 0.83 25.611 07:24 20.06.2019
6074 Clouds 22 1010 77 10000 1.5 0 06:19 20.06.2019
6075 Clouds 22 1010 73 10000 1.5 0 03:40 20.06.2019
6076 Clouds 23 1011 73 10000 1.5 0 01:56 20.06.2019
6077 Clouds 23 1011 73 10000 1.16 323.496 00:33 20.06.2019
6078 Clouds 23 1011 73 10000 1.5 0 23:45 19.06.2019
6079 Clouds 24 1011 73 10000 1.5 0 23:27 19.06.2019
6080 Clouds 24 1011 73 10000 1.5 0 22:49 19.06.2019
6081 Clouds 24 1011 78 10000 1.5 0 22:24 19.06.2019
6082 Clouds 24 1010 78 10000 1.5 0 21:58 19.06.2019
6083 Clouds 24 1010 78 10000 1.5 0 21:58 19.06.2019
6084 Clouds 25 1010 78 10000 1.5 0 21:37 19.06.2019
6085 Clouds 25 1010 73 10000 1.5 0 21:19 19.06.2019
6086 Clouds 25 1010 73 10000 1.5 0 20:41 19.06.2019
6087 Clouds 26 1010 65 10000 2.1 190 20:21 19.06.2019
6088 Clouds 26 1010 57 10000 1.5 0 19:46 19.06.2019
6089 Clouds 27 1010 57 10000 2.1 180 19:26 19.06.2019
6090 Clouds 27 1010 54 10000 3.1 170 18:56 19.06.2019
6091 Clouds 28 1010 51 10000 2.6 210 18:24 19.06.2019
6092 Clouds 29 1010 48 10000 3.6 210 17:48 19.06.2019
6093 Clouds 29 1010 45 10000 2.1 180 17:26 19.06.2019
6094 Clouds 29 1010 54 10000 2.1 200 16:56 19.06.2019
6095 Clouds 29 1010 54 10000 2.1 200 16:37 19.06.2019
6096 Clouds 29 1010 54 10000 2.1 250 16:19 19.06.2019
6097 Clouds 28 1010 61 10000 1.5 0 15:44 19.06.2019
6098 Clouds 28 1011 73 10000 2.1 250 15:24 19.06.2019
6099 Clouds 26 1011 69 10000 1.5 260 14:44 19.06.2019
6100 Rain 26 1012 69 10000 4.1 80 14:26 19.06.2019
6101 Clouds 26 1012 78 10000 3.6 80 13:48 19.06.2019
6102 Thunderstorm 25 1011 94 2000 4.1 170 13:29 19.06.2019
6103 Thunderstorm 26 1011 73 5000 2.1 140 12:59 19.06.2019
6104 Rain 27 1013 57 9000 2.1 130 12:41 19.06.2019
6105 Rain 28 1011 42 10000 3.6 200 12:19 19.06.2019
6106 Rain 29 1008 38 10000 3.6 210 11:43 19.06.2019
6107 Thunderstorm 29 1008 38 10000 3.6 210 11:43 19.06.2019
6108 Rain 29 1013 45 10000 5.7 70 11:21 19.06.2019
6109 Rain 30 1011 35 10000 3.1 340 10:51 19.06.2019
6110 Clouds 30 1011 35 10000 1.5 50 10:30 19.06.2019
6111 Clouds 29 1011 38 10000 1.5 350 09:58 19.06.2019
6112 Clouds 29 1011 38 10000 1.5 350 09:58 19.06.2019
6113 Clouds 29 1011 38 10000 1.5 350 09:38 19.06.2019
6114 Clouds 27 1011 40 10000 2.6 350 09:19 19.06.2019
6115 Clouds 27 1011 42 10000 2.6 340 08:44 19.06.2019
6116 Clouds 26 1011 42 10000 2.6 310 08:25 19.06.2019
6117 Clouds 26 1011 44 10000 1.5 300 07:44 19.06.2019
6118 Clouds 25 1011 47 10000 3.1 290 07:23 19.06.2019
6119 Clouds 24 1011 50 10000 2.6 280 06:44 19.06.2019
6120 Clouds 23 1011 53 10000 2.6 290 06:22 19.06.2019
6121 Clouds 23 1010 50 10000 2.6 280 05:47 19.06.2019
6122 Clear 23 1010 53 10000 3.56 339.847 04:19 19.06.2019
6123 Clear 23 1011 47 10000 4.22 354.574 03:18 19.06.2019
6124 Clouds 23 1011 47 10000 4.22 354.574 01:48 19.06.2019
6125 Clouds 23 1012 47 10000 3.06 346.345 01:18 19.06.2019
6126 Clouds 24 1012 50 10000 3.06 346.345 00:43 19.06.2019
6127 Clouds 24 1012 47 10000 3.6 327.07 00:20 19.06.2019
6128 Clouds 24 1012 47 10000 3.6 327.07 23:46 18.06.2019
6129 Clouds 24 1012 47 10000 3.6 327.07 23:26 18.06.2019
6130 Clouds 24 1012 44 10000 3.6 330 22:45 18.06.2019
6131 Clouds 25 1012 47 10000 2.6 330 22:24 18.06.2019
6132 Clouds 25 1012 65 10000 3.6 327.07 21:57 18.06.2019
6133 Clouds 25 1012 65 10000 3.6 327.07 21:38 18.06.2019
6134 Clouds 25 1012 61 10000 3.83 302.793 21:20 18.06.2019
6135 Clouds 26 1012 61 10000 4.53 311.404 20:43 18.06.2019
6136 Clouds 26 1011 61 10000 4.53 311.404 20:25 18.06.2019
6137 Clouds 26 1011 57 10000 4.53 311.404 19:41 18.06.2019
6138 Clouds 27 1011 51 10000 4.53 311.404 19:23 18.06.2019
6139 Clouds 27 1011 51 10000 3.1 230 18:59 18.06.2019
6140 Clouds 27 1011 51 10000 3.1 230 18:37 18.06.2019
6141 Clouds 28 1011 48 10000 4.1 210 18:18 18.06.2019
6142 Clouds 28 1011 40 10000 2.6 200 17:38 18.06.2019
6143 Clouds 29 1011 42 10000 1.5 0 17:19 18.06.2019
6144 Clouds 28 1013 33 10000 3.1 10 16:43 18.06.2019
6145 Clouds 28 1013 33 10000 3.1 10 16:24 18.06.2019
6146 Thunderstorm 27 1013 31 10000 4.1 330 15:43 18.06.2019
6147 Thunderstorm 28 1013 31 10000 4.1 330 15:25 18.06.2019
6148 Thunderstorm 28 1011 42 10000 3.6 130 14:59 18.06.2019
6149 Thunderstorm 28 1011 42 10000 3.6 130 14:41 18.06.2019
6150 Clouds 29 1011 31 10000 4.6 360 14:20 18.06.2019
6151 Clouds 29 1013 37 10000 8.7 60 13:52 18.06.2019
6152 Rain 30 1013 33 10000 7.7 70 13:31 18.06.2019
6153 Rain 30 1011 35 10000 4.1 320 12:48 18.06.2019
6154 Clouds 30 1012 38 10000 3.6 320 12:30 18.06.2019
6155 Clouds 30 1012 38 10000 4.6 320 11:59 18.06.2019
6156 Clouds 30 1012 38 10000 4.6 320 11:40 18.06.2019
6157 Clouds 30 1012 35 10000 5.1 360 11:20 18.06.2019
6158 Clouds 30 1011 38 10000 4.6 330 10:55 18.06.2019
6159 Clouds 30 1011 38 10000 4.6 330 10:36 18.06.2019
6160 Clouds 30 1012 38 10000 4.6 350 10:18 18.06.2019
6161 Clouds 29 1012 37 10000 4.6 330 09:36 18.06.2019
6162 Clouds 28 1012 39 10000 4.6 340 09:18 18.06.2019
6163 Clouds 27 1012 42 10000 4.6 330 08:42 18.06.2019
6164 Clouds 27 1012 37 10000 4.1 350 08:21 18.06.2019
6165 Clouds 27 1011 37 10000 3.1 350 07:37 18.06.2019
6166 Clouds 26 1011 39 10000 3.1 330 07:18 18.06.2019
6167 Clouds 25 1011 44 10000 3.1 320 05:38 18.06.2019
6168 Clouds 25 1011 41 10000 2.1 330 04:23 18.06.2019
6169 Clouds 25 1011 41 10000 1.5 0 02:51 18.06.2019
6170 Clouds 25 1010 36 10000 1.5 0 01:52 18.06.2019
6171 Clouds 25 1010 34 10000 2.6 320 01:24 18.06.2019
6172 Clouds 25 1011 30 10000 2.1 300 00:41 18.06.2019
6173 Clouds 25 1011 28 10000 2.1 310 00:23 18.06.2019
6174 Clouds 25 1011 30 10000 1.5 0 23:40 17.06.2019
6175 Clouds 26 1011 32 10000 2.5 348.865 23:19 17.06.2019
6176 Clouds 26 1010 30 10000 1.5 0 22:42 17.06.2019
6177 Clouds 26 1010 32 10000 1.5 0 22:22 17.06.2019
6178 Clouds 27 1010 30 10000 1.5 0 21:58 17.06.2019
6179 Clouds 27 1010 30 10000 1.5 0 21:40 17.06.2019
6180 Clouds 27 1010 32 10000 2.1 360 21:20 17.06.2019
6181 Clouds 28 1010 30 10000 2.6 350 20:37 17.06.2019
6182 Clouds 27 1011 39 10000 1.5 0 20:18 17.06.2019
6183 Clouds 27 1011 39 10000 1.5 0 20:18 17.06.2019
6184 Clear 29 1009 29 10000 3.6 350 19:42 17.06.2019
6185 Clear 29 1009 29 10000 3.6 350 19:42 17.06.2019
6186 Clear 29 1009 29 10000 3.6 340 19:22 17.06.2019
6187 Clear 30 1009 27 10000 3.1 350 18:57 17.06.2019
6188 Clear 30 1009 27 10000 3.1 350 18:37 17.06.2019
6189 Clouds 31 1008 27 10000 4.1 360 18:18 17.06.2019
6190 Clouds 31 1008 26 10000 3.6 10 17:44 17.06.2019
6191 Clouds 31 1008 26 10000 3.6 10 17:26 17.06.2019
6192 Clouds 31 1010 27 10000 6.2 80 16:47 17.06.2019
6193 Clouds 31 1009 26 10000 1.5 0 16:29 17.06.2019
6194 Clouds 31 1009 35 10000 2.6 180 15:57 17.06.2019
6195 Clouds 31 1009 38 10000 3.1 160 15:38 17.06.2019
6196 Thunderstorm 31 1010 38 10000 2.6 170 15:19 17.06.2019
6197 Thunderstorm 31 1010 38 10000 2.6 170 14:51 17.06.2019
6198 Thunderstorm 31 1010 30 10000 3.6 340 14:31 17.06.2019
6199 Thunderstorm 31 1010 30 10000 2.6 330 13:54 17.06.2019
6200 Clouds 30 1012 35 10000 5.7 80 13:36 17.06.2019
6201 Clouds 31 1010 28 10000 4.6 350 13:18 17.06.2019
6202 Clouds 30 1012 38 10000 5.7 70 12:32 17.06.2019
6203 Clouds 31 1010 29 10000 3.6 340 11:51 17.06.2019
6204 Clouds 31 1010 29 10000 3.6 340 11:27 17.06.2019
6205 Clouds 31 1010 33 10000 3.1 320 10:59 17.06.2019
6206 Clouds 31 1010 35 10000 2.38 17.506 10:41 17.06.2019
6207 Clouds 30 1010 35 10000 2.38 17.506 10:22 17.06.2019
6208 Clear 30 1010 35 10000 3.6 330 09:55 17.06.2019
6209 Clear 30 1010 35 10000 3.6 330 09:55 17.06.2019
6210 Clear 29 1010 35 10000 3.6 350 09:30 17.06.2019
6211 Clear 28 1010 39 10000 4.1 320 08:43 17.06.2019
6212 Clear 27 1010 39 10000 4.1 320 08:23 17.06.2019
6213 Clouds 27 1010 39 10000 1.5 0 07:46 17.06.2019
6214 Clouds 27 1010 39 10000 1.5 0 07:28 17.06.2019
6215 Clouds 25 1010 44 10000 1.5 300 06:46 17.06.2019
6216 Clouds 24 1009 47 10000 2.1 330 05:50 17.06.2019
6217 Clouds 23 1009 47 10000 1 0 04:52 17.06.2019
6218 Clouds 24 1009 50 10000 1.5 0 03:50 17.06.2019
6219 Clear 24 1009 53 10000 1 0 03:25 17.06.2019
6220 Clouds 24 1009 53 10000 2.1 350 02:42 17.06.2019
6221 Clouds 24 1010 50 10000 2.1 320 02:18 17.06.2019
6222 Clouds 24 1009 50 10000 4.1 330 01:34 17.06.2019
6223 Clouds 25 1010 50 10000 3.1 320 00:45 17.06.2019
6224 Clouds 25 1010 44 10000 3.6 320 00:24 17.06.2019
6225 Clouds 26 1010 44 10000 3.6 320 23:56 16.06.2019
6226 Clouds 26 1010 44 10000 4.1 340 23:36 16.06.2019
6227 Clouds 26 1011 44 10000 2.1 320 23:18 16.06.2019
6228 Clouds 26 1011 44 10000 3.1 330 22:39 16.06.2019
6229 Clouds 26 1011 44 10000 3.1 330 22:19 16.06.2019
6230 Clouds 27 1011 44 10000 3.1 320 21:56 16.06.2019
6231 Clouds 27 1011 47 10000 4.6 330 21:38 16.06.2019
6232 Clouds 27 1011 47 10000 4.6 330 21:19 16.06.2019
6233 Clouds 28 1009 40 10000 1.5 210 20:38 16.06.2019
6234 Clouds 28 1009 38 10000 2.6 170 20:19 16.06.2019
6235 Clouds 28 1009 38 10000 2.6 170 19:58 16.06.2019
6236 Clouds 29 1009 40 10000 1.5 200 19:38 16.06.2019
6237 Clouds 29 1010 39 10000 5.1 30 19:19 16.06.2019
6238 Clouds 30 1008 23 10000 2.1 330 18:41 16.06.2019
6239 Clouds 31 1008 23 10000 2.1 330 18:21 16.06.2019
6240 Clouds 31 1010 37 10000 8.2 50 17:49 16.06.2019
6241 Clouds 32 1008 21 10000 2.6 330 17:25 16.06.2019
6242 Clouds 31 1010 37 10000 5.7 70 16:58 16.06.2019
6243 Clouds 32 1008 23 10000 2.6 10 16:58 16.06.2019
6244 Clouds 31 1010 37 10000 7.2 60 16:40 16.06.2019
6245 Clouds 31 1010 37 10000 7.2 60 16:21 16.06.2019
6246 Clouds 32 1008 23 10000 4.1 20 15:57 16.06.2019
6247 Clouds 32 1009 23 10000 3.1 20 15:38 16.06.2019
6248 Clouds 32 1009 26 10000 3.6 360 15:19 16.06.2019
6249 Clouds 32 1010 28 10000 4.6 350 14:37 16.06.2019
6250 Clouds 32 1010 29 10000 4.1 350 14:19 16.06.2019
6251 Clouds 32 1010 28 10000 5.1 360 13:46 16.06.2019
6252 Clouds 32 1010 28 10000 5.1 360 13:25 16.06.2019
6253 Clouds 32 1010 31 10000 5.1 10 12:45 16.06.2019
6254 Clouds 31 1010 31 10000 5.1 10 12:22 16.06.2019
6255 Clouds 31 1011 33 10000 3.6 350 11:56 16.06.2019
6256 Clouds 30 1011 35 10000 3.6 10 11:38 16.06.2019
6257 Clouds 30 1011 35 10000 3.6 10 11:18 16.06.2019
6258 Clouds 30 1010 38 10000 5.1 360 10:44 16.06.2019
6259 Clouds 30 1010 38 10000 5.1 360 10:19 16.06.2019
6260 Clouds 29 1010 42 10000 4.6 350 09:43 16.06.2019
6261 Clouds 28 1010 42 10000 4.6 350 09:24 16.06.2019
6262 Clouds 28 1010 51 10000 5.1 350 08:47 16.06.2019
6263 Clouds 28 1010 51 10000 5.1 350 08:21 16.06.2019
6264 Clouds 27 1010 51 10000 4.1 350 07:49 16.06.2019
6265 Clouds 26 1010 57 10000 4.1 350 07:31 16.06.2019
6266 Clouds 26 1010 57 10000 3.6 340 06:55 16.06.2019
6267 Clouds 25 1010 61 10000 1.5 0 06:20 16.06.2019
6268 Clouds 24 1010 61 10000 1.5 0 05:26 16.06.2019
6269 Clouds 24 1010 57 10000 2.1 310 04:26 16.06.2019
6270 Clouds 25 1010 54 10000 1.5 0 03:44 16.06.2019
6271 Clouds 25 1010 54 10000 1.5 0 03:26 16.06.2019
6272 Clouds 25 1010 47 10000 3.1 330 01:55 16.06.2019
6273 Clouds 25 1010 47 10000 4.6 350 01:37 16.06.2019
6274 Clouds 26 1010 47 10000 3.1 350 00:59 16.06.2019
6275 Clouds 26 1010 45 10000 3.1 340 00:37 16.06.2019
6276 Clouds 26 1010 45 10000 3.1 340 00:18 16.06.2019
6277 Clouds 26 1010 45 10000 2.1 330 23:40 15.06.2019
6278 Clouds 26 1010 45 10000 2.1 330 23:20 15.06.2019
6279 Clouds 26 1010 45 10000 3.6 360 22:49 15.06.2019
6280 Clouds 27 1010 42 10000 2.6 10 22:26 15.06.2019
6281 Clouds 27 1010 37 10000 2.6 30 21:45 15.06.2019
6282 -273 0 0 0 0 0 21:27 15.06.2019
6283 Clouds 28 1010 37 10000 2.6 30 21:27 15.06.2019
6284 Clouds 28 1010 37 10000 2.6 30 21:27 15.06.2019
6285 Clouds 28 1009 31 10000 3.6 360 20:46 15.06.2019
6286 Clouds 28 1009 31 10000 3.6 360 20:27 15.06.2019
6287 Clouds 29 1009 27 10000 4.1 360 19:57 15.06.2019
6288 Clouds 28 1009 27 10000 4.6 10 19:38 15.06.2019
6289 Clouds 30 1009 27 10000 4.6 10 19:20 15.06.2019
6290 Clouds 31 1009 26 10000 5.1 10 18:37 15.06.2019
6291 Clouds 31 1008 23 10000 5.1 340 18:19 15.06.2019
6292 Clouds 32 1009 24 10000 6.2 340 17:43 15.06.2019
6293 Clouds 32 1009 24 10000 6.2 340 17:21 15.06.2019
6294 Clouds 32 1009 24 10000 6.2 350 16:45 15.06.2019
6295 Clouds 32 1009 24 10000 6.2 350 16:19 15.06.2019
6296 Clouds 32 1010 26 10000 6.2 340 15:42 15.06.2019
6297 Clouds 32 1010 26 10000 6.2 340 15:23 15.06.2019
6298 Clouds 32 1010 28 10000 6.2 340 14:42 15.06.2019
6299 Clouds 32 1010 30 10000 5.1 10 14:19 15.06.2019
6300 Clouds 32 1011 31 10000 6.2 340 13:56 15.06.2019
6301 Clouds 32 1011 31 10000 6.2 340 13:38 15.06.2019
6302 Clouds 32 1011 30 10000 6.2 360 13:18 15.06.2019
6303 Clouds 32 1011 31 10000 5.7 340 12:47 15.06.2019
6304 Clouds 31 1011 31 10000 5.7 340 12:23 15.06.2019
6305 Clouds 31 1011 31 10000 5.1 360 11:51 15.06.2019
6306 Clouds 31 1011 31 10000 4.6 350 11:32 15.06.2019
6307 Clouds 31 1011 38 10000 4.1 360 10:47 15.06.2019
6308 Clouds 30 1011 38 10000 4.1 360 10:26 15.06.2019
6309 Clouds 30 1011 40 10000 4.1 360 09:56 15.06.2019
6310 Clouds 30 1012 42 10000 3.6 350 09:38 15.06.2019
6311 Clouds 29 1012 42 10000 3.6 350 09:18 15.06.2019
6312 Clouds 29 1012 45 10000 4.1 360 08:41 15.06.2019
6313 Clouds 28 1012 45 10000 4.1 340 08:18 15.06.2019
6314 Clouds 28 1012 45 10000 4.1 340 08:18 15.06.2019
6315 Clouds 28 1012 45 10000 4.1 340 07:26 15.06.2019
6316 Clouds 27 1012 47 10000 3.6 340 06:49 15.06.2019
6317 Clouds 25 1012 44 10000 2.6 330 06:29 15.06.2019
6318 Clouds 25 1011 44 10000 3.1 350 05:40 15.06.2019
6319 Clear 25 1011 50 10000 4.16 358.953 04:59 15.06.2019
6320 Clear 25 1011 50 10000 4.16 358.953 04:59 15.06.2019
6321 Clear 25 1011 50 10000 4.16 358.953 04:29 15.06.2019
6322 Clear 26 1012 53 10000 4.16 358.953 03:33 15.06.2019
6323 Clear 25 1012 53 10000 2.83 356.535 02:37 15.06.2019
6324 Clouds 26 1013 50 10000 1 0 01:58 15.06.2019
6325 Clear 26 1012 57 10000 2.83 356.535 01:25 15.06.2019
6326 Clear 26 1012 57 10000 2.83 356.535 00:43 15.06.2019
6327 Clear 26 1012 57 10000 1.44 13.544 00:24 15.06.2019
6328 Clear 26 1012 57 10000 0.88 339.084 23:50 14.06.2019
6329 Clear 26 1012 57 10000 0.88 339.084 23:21 14.06.2019
6330 Clear 27 1012 57 10000 0.88 339.084 22:42 14.06.2019
6331 Clear 27 1012 57 10000 0.88 339.084 22:21 14.06.2019
6332 Clear 27 1012 51 10000 0.88 339.084 21:49 14.06.2019
6333 Clear 28 1012 48 10000 0.88 339.084 21:29 14.06.2019
6334 Clear 28 1012 48 10000 0.72 117.848 20:58 14.06.2019
6335 Clear 28 1012 45 10000 0.72 117.848 20:39 14.06.2019
6336 Clear 29 1012 45 10000 1.5 200 20:18 14.06.2019
6337 Clear 29 1012 48 10000 3.1 260 19:42 14.06.2019
6338 Clear 30 1012 45 10000 3.1 260 19:22 14.06.2019
6339 Clear 30 1012 45 10000 3.1 260 18:55 14.06.2019
6340 Clear 30 1012 45 10000 3.1 260 18:55 14.06.2019
6341 Clear 31 1011 33 10000 5.1 200 18:37 14.06.2019
6342 Clear 32 1011 35 10000 5.1 190 18:18 14.06.2019
6343 Clear 33 1012 31 10000 5.1 200 17:45 14.06.2019
6344 Clear 34 1012 31 10000 6.2 210 17:24 14.06.2019
6345 Clear 34 1012 33 10000 6.2 220 16:54 14.06.2019
6346 Clear 33 1012 33 10000 6.2 220 16:27 14.06.2019
6347 Clear 33 1012 30 10000 6.2 210 15:59 14.06.2019
6348 Clear 34 1011 28 10000 6.2 190 15:39 14.06.2019
6349 Clear 34 1011 28 10000 6.2 190 15:20 14.06.2019
6350 Clear 34 1012 28 10000 6.2 210 15:20 14.06.2019
6351 Clear 34 1011 28 10000 6.2 190 15:20 14.06.2019
6352 Clear 34 1012 28 10000 6.2 210 15:20 14.06.2019
6353 Clear 34 1012 28 10000 5.1 210 14:50 14.06.2019
6354 Clear 34 1012 28 10000 5.1 210 14:31 14.06.2019
6355 Clear 34 1013 24 10000 5.1 210 13:49 14.06.2019
6356 Clear 34 1013 24 10000 5.1 210 13:30 14.06.2019
6357 Clear 34 1013 26 10000 5.1 210 13:00 14.06.2019
6358 Clear 34 1013 30 10000 5.1 200 12:40 14.06.2019
6359 Clear 33 1013 28 10000 4.1 200 12:22 14.06.2019
6360 Clear 33 1013 28 10000 1.79 196.718 11:44 14.06.2019
6361 Clear 33 1013 28 10000 1.79 196.718 11:24 14.06.2019
6362 Clear 32 1013 31 10000 1.79 196.718 10:50 14.06.2019
6363 Clear 32 1013 31 10000 1.79 196.718 10:23 14.06.2019
6364 Clear 32 1014 38 10000 1.79 196.718 09:56 14.06.2019
6365 Clear 31 1014 37 10000 2.75 9.705 09:38 14.06.2019
6366 Clear 29 1014 37 10000 1.99 342.203 09:19 14.06.2019
6367 Clear 28 1013 45 10000 1.99 342.203 08:41 14.06.2019
6368 Clear 28 1013 44 10000 1.99 342.203 08:18 14.06.2019
6369 Clear 27 1013 50 10000 1.99 342.203 07:45 14.06.2019
6370 Clear 26 1013 50 10000 1.99 342.203 07:19 14.06.2019
6371 Clear 23 1013 56 10000 2.6 350 06:27 14.06.2019
6372 Clear 24 1013 56 10000 2.6 350 06:27 14.06.2019
6373 Clear 23 1013 56 10000 4.1 350 05:53 14.06.2019
6374 Clear 22 1013 60 10000 2.6 340 04:56 14.06.2019
6375 Clear 23 1013 60 10000 2.1 360 04:32 14.06.2019
6376 Clear 23 1013 64 10000 2.6 350 03:46 14.06.2019
6377 Clear 23 1013 64 10000 2.6 350 03:23 14.06.2019
6378 Clear 23 1014 60 10000 3.1 340 02:45 14.06.2019
6379 Clear 23 1014 64 10000 2.6 360 01:56 14.06.2019
6380 Clear 24 1014 64 10000 2.6 360 00:46 14.06.2019
6381 Clear 24 1014 64 10000 2.6 360 00:22 14.06.2019
6382 Clear 25 1014 64 10000 2.1 360 23:53 13.06.2019
6383 Clear 25 1014 61 10000 3.6 350 23:27 13.06.2019
6384 Clear 25 1014 61 10000 2.6 340 22:59 13.06.2019
6385 Clear 25 1014 57 10000 2.1 340 22:39 13.06.2019
6386 Clear 25 1014 57 10000 2.1 340 22:20 13.06.2019
6387 Clear 26 1014 54 10000 1.5 270 21:39 13.06.2019
6388 Clear 26 1014 54 10000 1.5 270 21:19 13.06.2019
6389 Clear 27 1013 51 10000 3.1 220 20:45 13.06.2019
6390 Clear 27 1013 51 10000 3.1 220 20:22 13.06.2019
6391 Clear 27 1013 48 10000 2.6 200 19:57 13.06.2019
6392 Clear 28 1013 48 10000 3.6 200 19:37 13.06.2019
6393 Clear 28 1013 45 10000 3.6 220 19:19 13.06.2019
6394 Clear 30 1013 48 10000 4.6 210 18:46 13.06.2019
6395 Clear 31 1013 48 10000 4.6 210 18:28 13.06.2019
6396 Clear 31 1013 45 10000 3.6 180 17:59 13.06.2019
6397 Clouds 31 1013 45 10000 3.6 180 17:41 13.06.2019
6398 Clouds 31 1013 45 10000 3.6 180 17:20 13.06.2019
6399 Clouds 32 1013 38 10000 2.6 180 16:46 13.06.2019
6400 Clouds 32 1013 38 10000 2.6 180 16:21 13.06.2019
6401 Clouds 32 1013 34 10000 3.6 170 15:56 13.06.2019
6402 Clouds 33 1013 32 10000 4.1 180 15:38 13.06.2019
6403 Clouds 33 1013 33 10000 3.6 190 15:18 13.06.2019
6404 Clouds 32 1013 32 10000 3.6 190 14:44 13.06.2019
6405 Clouds 33 1013 32 10000 3.6 190 14:23 13.06.2019
6406 Clouds 32 1014 28 10000 4.1 20 13:46 13.06.2019
6407 Clouds 32 1014 28 10000 4.1 20 13:21 13.06.2019
6408 Clear 31 1014 28 10000 3.1 20 12:44 13.06.2019
6409 Clear 31 1014 28 10000 2.6 360 12:23 13.06.2019
6410 Clear 31 1014 28 10000 3.1 20 12:23 13.06.2019
6411 Clear 31 1014 28 10000 2.6 360 11:57 13.06.2019
6412 Clouds 31 1014 31 10000 2.6 360 11:39 13.06.2019
6413 Clouds 31 1014 31 10000 2.6 360 11:21 13.06.2019
6414 Clear 30 1014 38 10000 2.6 350 10:45 13.06.2019
6415 Clear 30 1014 38 10000 2.6 350 10:27 13.06.2019
6416 Clear 29 1014 42 10000 1.65 356.726 09:44 13.06.2019
6417 Clear 28 1014 42 10000 2.32 342.821 09:24 13.06.2019
6418 Clear 28 1014 42 10000 2.32 342.821 09:24 13.06.2019
6419 Clear 28 1014 42 10000 2.32 342.821 09:24 13.06.2019
6420 Clear 28 1014 61 10000 2.32 342.821 08:49 13.06.2019
6421 Clouds 27 1014 69 10000 1.5 0 08:28 13.06.2019
6422 Clouds 27 1014 73 10000 2.32 342.821 07:59 13.06.2019
6423 Clouds 25 1013 65 10000 2.32 342.821 07:30 13.06.2019
6424 Clouds 24 1013 78 10000 2.32 342.821 06:52 13.06.2019
6425 Clouds 23 1013 78 10000 2.46 333.716 06:24 13.06.2019
6426 Clouds 22 1013 77 10000 1.5 0 05:57 13.06.2019
6427 Clouds 22 1013 83 10000 2.46 333.716 05:37 13.06.2019
6428 Clouds 22 1013 83 10000 2.46 333.716 04:59 13.06.2019
6429 Clouds 22 1013 83 10000 2.46 333.716 03:28 13.06.2019
6430 Clouds 23 1013 83 10000 1.5 0 01:27 13.06.2019
6431 Clouds 23 1013 88 10000 1.5 0 00:29 13.06.2019
6432 Clouds 24 1013 83 10000 2.1 360 23:24 12.06.2019
6433 Clouds 24 1013 88 10000 1.04 104.197 22:47 12.06.2019
6434 Clouds 24 1013 88 10000 1.04 104.197 22:28 12.06.2019
6435 Thunderstorm 24 1013 88 10000 1.5 0 21:58 12.06.2019
6436 Thunderstorm 25 1012 88 8000 1.5 0 21:40 12.06.2019
6437 Thunderstorm 25 1012 88 8000 2.1 250 21:21 12.06.2019
6438 Clouds 25 1012 61 10000 2.1 260 20:42 12.06.2019
6439 Clouds 26 1012 61 10000 2.1 260 20:22 12.06.2019
6440 Clouds 26 1011 57 10000 2.1 240 19:56 12.06.2019
6441 Clouds 26 1011 54 10000 1.5 0 19:37 12.06.2019
6442 Clouds 27 1011 54 10000 1.5 0 19:18 12.06.2019
6443 Clouds 28 1011 51 10000 1.5 200 18:40 12.06.2019
6444 Clouds 28 1011 51 10000 1.5 200 18:22 12.06.2019
6445 Clouds 29 1010 42 10000 4.1 190 17:45 12.06.2019
6446 Clouds 29 1010 42 10000 4.1 190 17:21 12.06.2019
6447 Clouds 30 1010 45 10000 3.6 190 16:43 12.06.2019
6448 Clouds 30 1010 45 10000 3.6 190 16:24 12.06.2019
6449 Clouds 30 1011 48 10000 4.6 200 15:57 12.06.2019
6450 Clouds 31 1010 40 10000 5.7 200 15:32 12.06.2019
6451 Clouds 30 1011 40 10000 6.2 200 14:55 12.06.2019
6452 Clouds 31 1011 40 10000 6.2 200 14:31 12.06.2019
6453 Clouds 30 1011 35 10000 5.1 210 13:56 12.06.2019
6454 Clouds 30 1011 35 10000 6.2 220 13:37 12.06.2019
6455 Clouds 30 1011 40 10000 5.7 220 13:18 12.06.2019
6456 Clouds 29 1011 40 10000 5.1 210 12:40 12.06.2019
6457 Clouds 29 1011 40 10000 5.1 210 12:20 12.06.2019
6458 Clouds 29 1012 45 10000 4.6 210 11:48 12.06.2019
6459 Clouds 29 1012 45 10000 4.6 210 11:29 12.06.2019
6460 Clouds 30 1011 48 10000 5.1 210 10:57 12.06.2019
6461 Clear 30 1011 48 10000 3.1 210 10:39 12.06.2019
6462 Clear 30 1011 48 10000 3.1 210 10:39 12.06.2019
6463 Clear 28 1011 54 10000 2.6 210 09:59 12.06.2019
6464 Clear 28 1011 57 10000 1.5 180 09:41 12.06.2019
6465 Clear 27 1011 57 10000 1.5 180 09:19 12.06.2019
6466 Clear 25 1011 64 10000 1.31 333.043 08:28 12.06.2019
6467 Clear 25 1011 64 10000 1.31 333.043 07:57 12.06.2019
6468 Clear 24 1011 64 10000 1.31 333.043 07:18 12.06.2019
6469 Clear 22 1010 82 10000 1.31 333.043 06:39 12.06.2019
6470 Clear 20 1010 82 10000 2.01 325.764 05:25 12.06.2019
6471 Clear 21 1010 77 10000 1.97 301.749 02:22 12.06.2019
6472 Rain 21 1011 88 10000 1.72 292.29 00:47 12.06.2019
6473 Clear 21 1011 88 10000 1.4 183.314 00:19 12.06.2019
6474 Clear 22 1011 83 10000 1.4 183.314 23:42 11.06.2019
6475 Clear 22 1011 83 10000 1.4 183.314 23:23 11.06.2019
6476 Clear 22 1011 88 10000 1.3 184.321 22:42 11.06.2019
6477 Clear 23 1011 83 10000 1.3 184.321 22:18 11.06.2019
6478 Clear 23 1011 83 10000 1.3 184.321 21:56 11.06.2019
6479 Clouds 23 1010 88 10000 1.3 184.321 21:37 11.06.2019
6480 Clouds 23 1010 88 10000 3.53 155.96 21:19 11.06.2019
6481 Clouds 23 1010 83 10000 3.53 155.96 20:46 11.06.2019
6482 Rain 23 1010 83 10000 3.53 155.96 20:22 11.06.2019
6483 Rain 23 1010 88 10000 3.1 110 19:52 11.06.2019
6484 Rain 23 1010 88 10000 3.1 110 19:29 11.06.2019
6485 Rain 24 1010 65 6000 2.6 150 18:54 11.06.2019
6486 Rain 26 1009 51 10000 2.6 200 18:21 11.06.2019
6487 Rain 26 1009 51 10000 2.6 200 18:20 11.06.2019
6488 Rain 26 1009 51 10000 2.6 200 18:20 11.06.2019
6489 Rain 27 1009 48 10000 3.6 200 17:41 11.06.2019
6490 Rain 27 1009 48 10000 3.6 200 17:20 11.06.2019
6491 Clouds 28 1009 45 10000 4.1 180 16:44 11.06.2019
6492 Clouds 28 1009 45 10000 4.1 180 16:24 11.06.2019
6493 Clouds 29 1008 45 10000 5.1 180 15:56 11.06.2019
6494 Clouds 29 1008 42 10000 5.1 190 15:36 11.06.2019
6495 Clouds 29 1008 42 10000 5.1 190 15:18 11.06.2019
6496 Clouds 29 1009 40 10000 5.1 180 14:40 11.06.2019
6497 Clouds 29 1011 42 10000 2.1 140 14:20 11.06.2019
6498 Clouds 29 1011 42 10000 2.1 140 14:20 11.06.2019
6499 Clouds 29 1009 31 10000 3.1 10 13:43 11.06.2019
6500 Thunderstorm 29 1009 31 10000 3.1 10 13:22 11.06.2019
6501 Thunderstorm 29 1009 37 10000 3.6 360 12:43 11.06.2019
6502 Thunderstorm 28 1009 37 10000 3.6 360 12:22 11.06.2019
6503 Thunderstorm 28 1009 42 10000 4.1 340 11:57 11.06.2019
6504 Thunderstorm 28 1009 40 10000 4.1 350 11:34 11.06.2019
6505 Clouds 28 1009 40 10000 3.1 360 10:58 11.06.2019
6506 Clouds 28 1009 40 10000 3.6 360 10:40 11.06.2019
6507 Clouds 28 1009 40 10000 3.6 360 10:21 11.06.2019
6508 Clouds 27 1009 51 10000 2.6 30 09:45 11.06.2019
6509 Clouds 27 1009 51 10000 2.6 30 09:23 11.06.2019
6510 Clouds 27 1009 51 10000 2.6 30 09:23 11.06.2019
6511 Clouds 26 1009 54 10000 1.5 0 08:42 11.06.2019
6512 Clouds 26 1009 54 10000 1.5 0 08:23 11.06.2019
6513 Clouds 25 1009 57 10000 2.6 290 07:36 11.06.2019
6514 Clouds 24 1009 57 10000 1.5 0 06:54 11.06.2019
6515 Clouds 23 1009 64 10000 1.5 0 06:23 11.06.2019
6516 Clear 22 1009 60 10000 3.1 320 04:48 11.06.2019
6517 Clear 22 1009 60 10000 2.6 300 02:44 11.06.2019
6518 Clear 23 1009 60 10000 2.1 340 01:23 11.06.2019
6519 Clear 23 1009 57 10000 2.1 340 00:44 11.06.2019
6520 Clear 23 1010 57 10000 2.1 320 23:47 10.06.2019
6521 Clear 23 1010 57 10000 2.1 320 23:21 10.06.2019
6522 Clear 23 1010 50 10000 3.1 360 22:47 10.06.2019
6523 Clear 23 1010 50 10000 3.1 360 22:29 10.06.2019
6524 Clear 24 1010 50 10000 3.1 360 21:58 10.06.2019
6525 Clear 24 1009 47 10000 3.1 340 21:39 10.06.2019
6526 Clear 24 1009 47 10000 3.1 340 21:21 10.06.2019
6527 Clear 25 1009 47 10000 4.1 340 20:44 10.06.2019
6528 Clear 25 1009 47 10000 4.1 340 20:44 10.06.2019
6529 Clear 25 1009 47 10000 4.1 340 20:23 10.06.2019
6530 Clouds 25 1009 42 10000 6.2 360 19:51 10.06.2019
6531 Clouds 26 1009 39 10000 6.2 360 19:27 10.06.2019
6532 Clouds 27 1009 39 10000 5.1 30 18:59 10.06.2019
6533 Clouds 27 1008 39 10000 5.1 330 18:40 10.06.2019
6534 Clouds 27 1008 39 10000 5.1 330 18:20 10.06.2019
6535 Clouds 28 1009 37 10000 5.1 350 17:44 10.06.2019
6536 Clouds 28 1009 37 10000 5.1 350 17:24 10.06.2019
6537 Clouds 28 1009 37 10000 6.2 350 16:56 10.06.2019
6538 Clouds 28 1010 39 10000 10.8 40 16:38 10.06.2019
6539 Clouds 28 1009 39 10000 7.7 340 16:18 10.06.2019
6540 Clouds 28 1009 37 10000 7.2 10 15:41 10.06.2019
6541 Clouds 28 1009 37 10000 7.2 10 15:23 10.06.2019
6542 Clouds 28 1010 37 10000 7.2 10 14:49 10.06.2019
6543 Clouds 28 1010 37 10000 6.7 360 14:30 10.06.2019
6544 Clouds 28 1010 37 10000 7.2 360 13:58 10.06.2019
6545 Clouds 28 1010 45 10000 7.2 360 13:39 10.06.2019
6546 Clouds 28 1010 45 10000 7.2 360 13:20 10.06.2019
6547 Clouds 28 1011 42 10000 6.2 360 12:40 10.06.2019
6548 Clouds 28 1011 42 10000 6.2 360 12:22 10.06.2019
6549 Clouds 27 1011 39 10000 5.7 10 11:43 10.06.2019
6550 Clouds 27 1011 39 10000 4.6 10 11:19 10.06.2019
6551 Clouds 27 1011 42 10000 6.2 360 10:42 10.06.2019
6552 Clouds 27 1011 42 10000 6.2 360 10:20 10.06.2019
6553 Clouds 27 1011 42 10000 4.1 360 09:55 10.06.2019
6554 Clouds 27 1012 42 10000 5.1 360 09:33 10.06.2019
6555 Clouds 26 1012 44 10000 4.6 350 08:50 10.06.2019
6556 Clouds 25 1012 50 10000 5.1 350 08:27 10.06.2019
6557 Clouds 25 1013 53 10000 8.7 40 07:59 10.06.2019
6558 Clouds 24 1011 64 10000 2.6 340 06:33 10.06.2019
6559 Clouds 23 1012 57 10000 2.1 340 04:27 10.06.2019
6560 Clouds 24 1012 57 10000 1.5 0 01:57 10.06.2019
6561 Clouds 24 1013 50 10000 3.1 10 01:23 10.06.2019
6562 Clouds 24 1013 50 10000 3.1 10 00:54 10.06.2019
6563 Clouds 25 1013 47 10000 2.6 360 23:59 09.06.2019
6564 Clouds 25 1013 51 10000 3.6 360 23:40 09.06.2019
6565 Clouds 25 1013 47 10000 2.6 10 23:18 09.06.2019
6566 Clouds 26 1013 42 10000 2.6 360 22:42 09.06.2019
6567 Clouds 26 1013 42 10000 2.6 360 22:24 09.06.2019
6568 Clouds 26 1012 39 10000 3.6 360 21:41 09.06.2019
6569 Clouds 26 1012 39 10000 3.6 360 21:22 09.06.2019
6570 Clouds 27 1012 37 10000 5.7 360 20:42 09.06.2019
6571 Clouds 27 1012 37 10000 5.7 360 20:23 09.06.2019
6572 Clouds 28 1011 33 10000 5.1 360 19:46 09.06.2019
6573 Clouds 29 1011 31 10000 7.7 350 19:19 09.06.2019
6574 Clouds 29 1011 31 10000 7.7 350 18:57 09.06.2019
6575 Clouds 30 1011 29 10000 8.7 10 18:39 09.06.2019
6576 Clouds 30 1011 29 10000 8.7 10 18:21 09.06.2019
6577 Clouds 30 1012 31 10000 9.3 10 17:46 09.06.2019
6578 Clouds 31 1012 31 10000 9.3 10 17:26 09.06.2019
6579 Clouds 31 1011 30 10000 8.2 10 16:54 09.06.2019
6580 Clouds 31 1012 28 10000 7.2 10 16:36 09.06.2019
6581 Clouds 31 1013 38 10000 10.3 40 16:18 09.06.2019
6582 Clouds 32 1012 28 10000 7.7 10 15:42 09.06.2019
6583 Clouds 32 1014 35 10000 9.8 50 15:20 09.06.2019
6584 Clouds 32 1013 26 10000 6.2 360 14:43 09.06.2019
6585 Clouds 32 1013 26 10000 6.2 360 14:21 09.06.2019
6586 Clouds 32 1013 28 10000 7.7 360 13:50 09.06.2019
6587 Clouds 32 1013 32 10000 7.7 360 13:26 09.06.2019
6588 Clouds 32 1013 30 10000 7.2 360 12:42 09.06.2019
6589 Clouds 32 1013 30 10000 7.2 360 12:23 09.06.2019
6590 Clouds 32 1014 28 10000 7.2 10 11:40 09.06.2019
6591 Clouds 32 1014 28 10000 7.2 10 11:21 09.06.2019
6592 Clouds 32 1014 29 10000 6.2 10 10:46 09.06.2019
6593 Clouds 32 1014 29 10000 6.2 10 10:23 09.06.2019
6594 Clouds 31 1014 29 10000 3.6 330 09:41 09.06.2019
6595 Clouds 30 1014 29 10000 3.6 330 09:23 09.06.2019
6596 Clouds 29 1014 29 10000 2.1 310 08:55 09.06.2019
6597 Clouds 29 1014 31 10000 3.1 360 08:36 09.06.2019
6598 Clouds 27 1014 35 10000 3.1 360 07:28 09.06.2019
6599 Clouds 25 1014 41 10000 1.5 0 06:30 09.06.2019
6600 Clouds 25 1014 41 10000 1.5 0 06:30 09.06.2019
6601 Clear 24 1013 41 10000 3.1 310 05:29 09.06.2019
6602 Clear 24 1013 41 10000 3.1 310 05:28 09.06.2019
6603 Clear 25 1015 36 10000 3.6 340 01:46 09.06.2019
6604 Clear 25 1015 36 10000 3.6 350 01:22 09.06.2019
6605 Clear 25 1015 36 10000 3.6 350 00:59 09.06.2019
6606 Clear 26 1015 34 10000 2.6 350 00:19 09.06.2019
6607 Clear 26 1015 34 10000 3.1 330 23:38 08.06.2019
6608 Clear 26 1015 34 10000 3.1 330 23:20 08.06.2019
6609 Clear 26 1015 30 10000 3.1 20 22:43 08.06.2019
6610 Clear 27 1015 30 10000 3.1 20 22:25 08.06.2019
6611 Clear 27 1015 30 10000 4.1 330 21:52 08.06.2019
6612 Clear 27 1015 28 10000 3.6 340 21:34 08.06.2019
6613 Clear 28 1014 28 10000 3.6 360 20:59 08.06.2019
6614 Clear 28 1016 47 10000 1.5 0 20:40 08.06.2019
6615 Clear 29 1014 25 10000 5.1 10 20:21 08.06.2019
6616 Clear 30 1014 24 10000 5.7 360 19:42 08.06.2019
6617 Clear 30 1014 24 10000 5.7 360 19:22 08.06.2019
6618 Clear 31 1014 23 10000 5.7 360 18:58 08.06.2019
6619 Clouds 32 1014 21 10000 4.1 350 18:39 08.06.2019
6620 Clouds 32 1014 21 10000 5.1 10 18:18 08.06.2019
6621 Clouds 33 1014 21 10000 3.6 360 17:41 08.06.2019
6622 Clouds 33 1015 21 10000 4.1 340 17:18 08.06.2019
6623 Clouds 33 1017 33 10000 6.7 70 16:45 08.06.2019
6624 Clouds 33 1015 23 10000 4.1 350 16:21 08.06.2019
6625 Clouds 33 1015 23 10000 4.1 10 15:40 08.06.2019
6626 Clouds 33 1015 23 10000 4.1 10 15:40 08.06.2019
6627 Clouds 33 1015 23 10000 4.1 10 15:21 08.06.2019
6628 Clouds 33 1015 23 10000 4.6 360 14:42 08.06.2019
6629<